<?xml version="1.0" encoding="UTF-8" standalone="no" ?>
<gpx xmlns="http://www.topografix.com/GPX/1/1" xmlns:xsi="http://www.w3.org/2001/XMLSchema-instance" xsi:schemaLocation="http://www.topografix.com/GPX/1/1 http://www.topografix.com/GPX/1/1/gpx.xsd" version="1.1" creator="VisuGPX - https://www.visugpx.com">
  <metadata>
    <name>Coligny Cyclisme sur route</name>
  </metadata>
  <trk>
    <name><![CDATA[Coligny Cyclisme sur route_1]]></name>
    <trkseg>
      <trkpt lat="46.37217" lon="5.3621">
        <ele>376.8</ele>
        <time>2022-05-24T10:58:46Z</time>
      </trkpt>
      <trkpt lat="46.37217" lon="5.36209">
        <ele>386.6</ele>
        <time>2022-05-24T10:58:47Z</time>
      </trkpt>
      <trkpt lat="46.3721" lon="5.36206">
        <ele>386</ele>
        <time>2022-05-24T10:59:05Z</time>
      </trkpt>
      <trkpt lat="46.372" lon="5.36199">
        <ele>386</ele>
        <time>2022-05-24T10:59:07Z</time>
      </trkpt>
      <trkpt lat="46.37185" lon="5.36182">
        <ele>385.2</ele>
        <time>2022-05-24T10:59:10Z</time>
      </trkpt>
      <trkpt lat="46.37181" lon="5.36173">
        <ele>384.6</ele>
        <time>2022-05-24T10:59:11Z</time>
      </trkpt>
      <trkpt lat="46.37177" lon="5.36163">
        <ele>384.4</ele>
        <time>2022-05-24T10:59:12Z</time>
      </trkpt>
      <trkpt lat="46.37175" lon="5.36152">
        <ele>383.6</ele>
        <time>2022-05-24T10:59:13Z</time>
      </trkpt>
      <trkpt lat="46.37175" lon="5.36141">
        <ele>383.2</ele>
        <time>2022-05-24T10:59:14Z</time>
      </trkpt>
      <trkpt lat="46.37175" lon="5.36129">
        <ele>382.2</ele>
        <time>2022-05-24T10:59:15Z</time>
      </trkpt>
      <trkpt lat="46.37177" lon="5.36091">
        <ele>380.4</ele>
        <time>2022-05-24T10:59:18Z</time>
      </trkpt>
      <trkpt lat="46.37181" lon="5.36078">
        <ele>380.2</ele>
        <time>2022-05-24T10:59:19Z</time>
      </trkpt>
      <trkpt lat="46.37186" lon="5.36066">
        <ele>379.6</ele>
        <time>2022-05-24T10:59:20Z</time>
      </trkpt>
      <trkpt lat="46.37192" lon="5.36057">
        <ele>379.4</ele>
        <time>2022-05-24T10:59:21Z</time>
      </trkpt>
      <trkpt lat="46.37199" lon="5.36051">
        <ele>378.6</ele>
        <time>2022-05-24T10:59:22Z</time>
      </trkpt>
      <trkpt lat="46.37209" lon="5.36046">
        <ele>377.4</ele>
        <time>2022-05-24T10:59:23Z</time>
      </trkpt>
      <trkpt lat="46.37218" lon="5.36041">
        <ele>377</ele>
        <time>2022-05-24T10:59:24Z</time>
      </trkpt>
      <trkpt lat="46.37236" lon="5.36024">
        <ele>376.2</ele>
        <time>2022-05-24T10:59:25Z</time>
      </trkpt>
      <trkpt lat="46.37255" lon="5.36006">
        <ele>375.2</ele>
        <time>2022-05-24T10:59:28Z</time>
      </trkpt>
      <trkpt lat="46.37264" lon="5.35999">
        <ele>374.4</ele>
        <time>2022-05-24T10:59:29Z</time>
      </trkpt>
      <trkpt lat="46.37275" lon="5.35994">
        <ele>373.6</ele>
        <time>2022-05-24T10:59:30Z</time>
      </trkpt>
      <trkpt lat="46.37286" lon="5.35993">
        <ele>373.2</ele>
        <time>2022-05-24T10:59:31Z</time>
      </trkpt>
      <trkpt lat="46.37296" lon="5.35995">
        <ele>372.2</ele>
        <time>2022-05-24T10:59:32Z</time>
      </trkpt>
      <trkpt lat="46.37306" lon="5.36002">
        <ele>371.8</ele>
        <time>2022-05-24T10:59:33Z</time>
      </trkpt>
      <trkpt lat="46.37323" lon="5.3602">
        <ele>371.2</ele>
        <time>2022-05-24T10:59:35Z</time>
      </trkpt>
      <trkpt lat="46.37332" lon="5.36025">
        <ele>370.6</ele>
        <time>2022-05-24T10:59:36Z</time>
      </trkpt>
      <trkpt lat="46.37351" lon="5.36022">
        <ele>369.8</ele>
        <time>2022-05-24T10:59:37Z</time>
      </trkpt>
      <trkpt lat="46.37351" lon="5.36022">
        <ele>369.6</ele>
        <time>2022-05-24T10:59:38Z</time>
      </trkpt>
      <trkpt lat="46.37355" lon="5.36006">
        <ele>369.2</ele>
        <time>2022-05-24T10:59:39Z</time>
      </trkpt>
      <trkpt lat="46.3736" lon="5.35979">
        <ele>368.8</ele>
        <time>2022-05-24T10:59:40Z</time>
      </trkpt>
      <trkpt lat="46.37367" lon="5.35953">
        <ele>367.4</ele>
        <time>2022-05-24T10:59:42Z</time>
      </trkpt>
      <trkpt lat="46.3737" lon="5.3594">
        <ele>366.2</ele>
        <time>2022-05-24T10:59:43Z</time>
      </trkpt>
      <trkpt lat="46.37373" lon="5.35926">
        <ele>365.2</ele>
        <time>2022-05-24T10:59:44Z</time>
      </trkpt>
      <trkpt lat="46.37376" lon="5.35912">
        <ele>364.6</ele>
        <time>2022-05-24T10:59:45Z</time>
      </trkpt>
      <trkpt lat="46.37381" lon="5.35899">
        <ele>363.6</ele>
        <time>2022-05-24T10:59:46Z</time>
      </trkpt>
      <trkpt lat="46.37387" lon="5.35888">
        <ele>363.2</ele>
        <time>2022-05-24T10:59:47Z</time>
      </trkpt>
      <trkpt lat="46.37394" lon="5.35879">
        <ele>362.6</ele>
        <time>2022-05-24T10:59:48Z</time>
      </trkpt>
      <trkpt lat="46.37412" lon="5.35864">
        <ele>361.4</ele>
        <time>2022-05-24T10:59:50Z</time>
      </trkpt>
      <trkpt lat="46.37432" lon="5.35853">
        <ele>360</ele>
        <time>2022-05-24T10:59:52Z</time>
      </trkpt>
      <trkpt lat="46.37452" lon="5.35839">
        <ele>358.6</ele>
        <time>2022-05-24T10:59:54Z</time>
      </trkpt>
      <trkpt lat="46.37481" lon="5.35816">
        <ele>357.4</ele>
        <time>2022-05-24T10:59:57Z</time>
      </trkpt>
      <trkpt lat="46.375" lon="5.35799">
        <ele>356</ele>
        <time>2022-05-24T11:00:00Z</time>
      </trkpt>
      <trkpt lat="46.37522" lon="5.35765">
        <ele>354.6</ele>
        <time>2022-05-24T11:00:02Z</time>
      </trkpt>
      <trkpt lat="46.37541" lon="5.35725">
        <ele>352.6</ele>
        <time>2022-05-24T11:00:05Z</time>
      </trkpt>
      <trkpt lat="46.37552" lon="5.35697">
        <ele>351.6</ele>
        <time>2022-05-24T11:00:07Z</time>
      </trkpt>
      <trkpt lat="46.37552" lon="5.35697">
        <ele>351.2</ele>
        <time>2022-05-24T11:00:08Z</time>
      </trkpt>
      <trkpt lat="46.37568" lon="5.35654">
        <ele>350</ele>
        <time>2022-05-24T11:00:10Z</time>
      </trkpt>
      <trkpt lat="46.37577" lon="5.35633">
        <ele>348</ele>
        <time>2022-05-24T11:00:12Z</time>
      </trkpt>
      <trkpt lat="46.37584" lon="5.3562">
        <ele>347.6</ele>
        <time>2022-05-24T11:00:13Z</time>
      </trkpt>
      <trkpt lat="46.37596" lon="5.35606">
        <ele>346.8</ele>
        <time>2022-05-24T11:00:14Z</time>
      </trkpt>
      <trkpt lat="46.37607" lon="5.35602">
        <ele>346.2</ele>
        <time>2022-05-24T11:00:15Z</time>
      </trkpt>
      <trkpt lat="46.37617" lon="5.35599">
        <ele>345.2</ele>
        <time>2022-05-24T11:00:16Z</time>
      </trkpt>
      <trkpt lat="46.37628" lon="5.35596">
        <ele>344.6</ele>
        <time>2022-05-24T11:00:17Z</time>
      </trkpt>
      <trkpt lat="46.37628" lon="5.35596">
        <ele>343.8</ele>
        <time>2022-05-24T11:00:18Z</time>
      </trkpt>
      <trkpt lat="46.37672" lon="5.35577">
        <ele>342.4</ele>
        <time>2022-05-24T11:00:21Z</time>
      </trkpt>
      <trkpt lat="46.37682" lon="5.35569">
        <ele>342.2</ele>
        <time>2022-05-24T11:00:22Z</time>
      </trkpt>
      <trkpt lat="46.377" lon="5.35548">
        <ele>341</ele>
        <time>2022-05-24T11:00:24Z</time>
      </trkpt>
      <trkpt lat="46.37707" lon="5.35536">
        <ele>339.6</ele>
        <time>2022-05-24T11:00:26Z</time>
      </trkpt>
      <trkpt lat="46.37713" lon="5.35521">
        <ele>339</ele>
        <time>2022-05-24T11:00:27Z</time>
      </trkpt>
      <trkpt lat="46.37717" lon="5.35505">
        <ele>337.8</ele>
        <time>2022-05-24T11:00:28Z</time>
      </trkpt>
      <trkpt lat="46.37719" lon="5.35488">
        <ele>337.4</ele>
        <time>2022-05-24T11:00:29Z</time>
      </trkpt>
      <trkpt lat="46.37717" lon="5.35455">
        <ele>336.4</ele>
        <time>2022-05-24T11:00:30Z</time>
      </trkpt>
      <trkpt lat="46.37714" lon="5.35422">
        <ele>335.2</ele>
        <time>2022-05-24T11:00:32Z</time>
      </trkpt>
      <trkpt lat="46.37717" lon="5.35393">
        <ele>334.2</ele>
        <time>2022-05-24T11:00:34Z</time>
      </trkpt>
      <trkpt lat="46.37721" lon="5.35382">
        <ele>333.4</ele>
        <time>2022-05-24T11:00:35Z</time>
      </trkpt>
      <trkpt lat="46.37733" lon="5.35373">
        <ele>332.6</ele>
        <time>2022-05-24T11:00:37Z</time>
      </trkpt>
      <trkpt lat="46.37742" lon="5.35379">
        <ele>332</ele>
        <time>2022-05-24T11:00:38Z</time>
      </trkpt>
      <trkpt lat="46.37752" lon="5.35384">
        <ele>331</ele>
        <time>2022-05-24T11:00:39Z</time>
      </trkpt>
      <trkpt lat="46.37761" lon="5.35387">
        <ele>330.4</ele>
        <time>2022-05-24T11:00:40Z</time>
      </trkpt>
      <trkpt lat="46.3777" lon="5.35387">
        <ele>330</ele>
        <time>2022-05-24T11:00:41Z</time>
      </trkpt>
      <trkpt lat="46.37779" lon="5.35384">
        <ele>329.6</ele>
        <time>2022-05-24T11:00:42Z</time>
      </trkpt>
      <trkpt lat="46.37787" lon="5.35376">
        <ele>329.2</ele>
        <time>2022-05-24T11:00:43Z</time>
      </trkpt>
      <trkpt lat="46.37793" lon="5.35364">
        <ele>328.6</ele>
        <time>2022-05-24T11:00:44Z</time>
      </trkpt>
      <trkpt lat="46.37796" lon="5.35352">
        <ele>328.2</ele>
        <time>2022-05-24T11:00:45Z</time>
      </trkpt>
      <trkpt lat="46.37798" lon="5.35337">
        <ele>327.6</ele>
        <time>2022-05-24T11:00:46Z</time>
      </trkpt>
      <trkpt lat="46.37797" lon="5.35322">
        <ele>327</ele>
        <time>2022-05-24T11:00:47Z</time>
      </trkpt>
      <trkpt lat="46.37793" lon="5.35307">
        <ele>326.8</ele>
        <time>2022-05-24T11:00:48Z</time>
      </trkpt>
      <trkpt lat="46.37781" lon="5.35264">
        <ele>325.6</ele>
        <time>2022-05-24T11:00:51Z</time>
      </trkpt>
      <trkpt lat="46.37779" lon="5.35249">
        <ele>325</ele>
        <time>2022-05-24T11:00:52Z</time>
      </trkpt>
      <trkpt lat="46.37781" lon="5.35234">
        <ele>324</ele>
        <time>2022-05-24T11:00:53Z</time>
      </trkpt>
      <trkpt lat="46.37785" lon="5.3522">
        <ele>323.4</ele>
        <time>2022-05-24T11:00:54Z</time>
      </trkpt>
      <trkpt lat="46.3779" lon="5.35206">
        <ele>322.6</ele>
        <time>2022-05-24T11:00:55Z</time>
      </trkpt>
      <trkpt lat="46.37795" lon="5.35192">
        <ele>321.6</ele>
        <time>2022-05-24T11:00:56Z</time>
      </trkpt>
      <trkpt lat="46.37803" lon="5.35163">
        <ele>320</ele>
        <time>2022-05-24T11:00:58Z</time>
      </trkpt>
      <trkpt lat="46.3781" lon="5.35133">
        <ele>318.6</ele>
        <time>2022-05-24T11:01:00Z</time>
      </trkpt>
      <trkpt lat="46.37817" lon="5.35103">
        <ele>318</ele>
        <time>2022-05-24T11:01:02Z</time>
      </trkpt>
      <trkpt lat="46.37817" lon="5.35103">
        <ele>317.4</ele>
        <time>2022-05-24T11:01:03Z</time>
      </trkpt>
      <trkpt lat="46.37826" lon="5.35073">
        <ele>317.2</ele>
        <time>2022-05-24T11:01:04Z</time>
      </trkpt>
      <trkpt lat="46.37836" lon="5.35045">
        <ele>316.4</ele>
        <time>2022-05-24T11:01:06Z</time>
      </trkpt>
      <trkpt lat="46.37841" lon="5.35031">
        <ele>315.6</ele>
        <time>2022-05-24T11:01:07Z</time>
      </trkpt>
      <trkpt lat="46.3785" lon="5.35">
        <ele>313.6</ele>
        <time>2022-05-24T11:01:09Z</time>
      </trkpt>
      <trkpt lat="46.37856" lon="5.34985">
        <ele>312.8</ele>
        <time>2022-05-24T11:01:10Z</time>
      </trkpt>
      <trkpt lat="46.37863" lon="5.34971">
        <ele>312.2</ele>
        <time>2022-05-24T11:01:11Z</time>
      </trkpt>
      <trkpt lat="46.37863" lon="5.34971">
        <ele>310.8</ele>
        <time>2022-05-24T11:01:12Z</time>
      </trkpt>
      <trkpt lat="46.37878" lon="5.34946">
        <ele>310.4</ele>
        <time>2022-05-24T11:01:13Z</time>
      </trkpt>
      <trkpt lat="46.37887" lon="5.34935">
        <ele>308.8</ele>
        <time>2022-05-24T11:01:14Z</time>
      </trkpt>
      <trkpt lat="46.37906" lon="5.34915">
        <ele>307.4</ele>
        <time>2022-05-24T11:01:16Z</time>
      </trkpt>
      <trkpt lat="46.37916" lon="5.34905">
        <ele>306</ele>
        <time>2022-05-24T11:01:17Z</time>
      </trkpt>
      <trkpt lat="46.37926" lon="5.34894">
        <ele>305.4</ele>
        <time>2022-05-24T11:01:18Z</time>
      </trkpt>
      <trkpt lat="46.37926" lon="5.34894">
        <ele>304.4</ele>
        <time>2022-05-24T11:01:19Z</time>
      </trkpt>
      <trkpt lat="46.37941" lon="5.34867">
        <ele>304</ele>
        <time>2022-05-24T11:01:20Z</time>
      </trkpt>
      <trkpt lat="46.37941" lon="5.34867">
        <ele>303.4</ele>
        <time>2022-05-24T11:01:21Z</time>
      </trkpt>
      <trkpt lat="46.37951" lon="5.34836">
        <ele>302.8</ele>
        <time>2022-05-24T11:01:22Z</time>
      </trkpt>
      <trkpt lat="46.3796" lon="5.34803">
        <ele>301.4</ele>
        <time>2022-05-24T11:01:24Z</time>
      </trkpt>
      <trkpt lat="46.37969" lon="5.3477">
        <ele>299.8</ele>
        <time>2022-05-24T11:01:26Z</time>
      </trkpt>
      <trkpt lat="46.37977" lon="5.34737">
        <ele>298.4</ele>
        <time>2022-05-24T11:01:28Z</time>
      </trkpt>
      <trkpt lat="46.37985" lon="5.34706">
        <ele>297.2</ele>
        <time>2022-05-24T11:01:30Z</time>
      </trkpt>
      <trkpt lat="46.37988" lon="5.34691">
        <ele>295.8</ele>
        <time>2022-05-24T11:01:31Z</time>
      </trkpt>
      <trkpt lat="46.37995" lon="5.34663">
        <ele>294.6</ele>
        <time>2022-05-24T11:01:33Z</time>
      </trkpt>
      <trkpt lat="46.37998" lon="5.3465">
        <ele>294.6</ele>
        <time>2022-05-24T11:01:34Z</time>
      </trkpt>
      <trkpt lat="46.38003" lon="5.34627">
        <ele>294.4</ele>
        <time>2022-05-24T11:01:36Z</time>
      </trkpt>
      <trkpt lat="46.38012" lon="5.34594">
        <ele>295.4</ele>
        <time>2022-05-24T11:01:40Z</time>
      </trkpt>
      <trkpt lat="46.38014" lon="5.34588">
        <ele>295.8</ele>
        <time>2022-05-24T11:01:41Z</time>
      </trkpt>
      <trkpt lat="46.38015" lon="5.34583">
        <ele>296.4</ele>
        <time>2022-05-24T11:01:42Z</time>
      </trkpt>
      <trkpt lat="46.38016" lon="5.34576">
        <ele>297.4</ele>
        <time>2022-05-24T11:01:44Z</time>
      </trkpt>
      <trkpt lat="46.38005" lon="5.34569">
        <ele>298.2</ele>
        <time>2022-05-24T11:01:48Z</time>
      </trkpt>
      <trkpt lat="46.37996" lon="5.34565">
        <ele>298.6</ele>
        <time>2022-05-24T11:01:50Z</time>
      </trkpt>
      <trkpt lat="46.37975" lon="5.34557">
        <ele>299</ele>
        <time>2022-05-24T11:01:54Z</time>
      </trkpt>
      <trkpt lat="46.37965" lon="5.34553">
        <ele>299</ele>
        <time>2022-05-24T11:01:56Z</time>
      </trkpt>
      <trkpt lat="46.37954" lon="5.34552">
        <ele>299</ele>
        <time>2022-05-24T11:01:58Z</time>
      </trkpt>
      <trkpt lat="46.3794" lon="5.34553">
        <ele>298.6</ele>
        <time>2022-05-24T11:02:00Z</time>
      </trkpt>
      <trkpt lat="46.37928" lon="5.34553">
        <ele>297.8</ele>
        <time>2022-05-24T11:02:02Z</time>
      </trkpt>
      <trkpt lat="46.3792" lon="5.34551">
        <ele>297.4</ele>
        <time>2022-05-24T11:02:04Z</time>
      </trkpt>
      <trkpt lat="46.37918" lon="5.34551">
        <ele>297.2</ele>
        <time>2022-05-24T11:02:05Z</time>
      </trkpt>
      <trkpt lat="46.37918" lon="5.34551">
        <ele>296.8</ele>
        <time>2022-05-24T11:02:07Z</time>
      </trkpt>
      <trkpt lat="46.37913" lon="5.34553">
        <ele>295.4</ele>
        <time>2022-05-24T11:02:52Z</time>
      </trkpt>
      <trkpt lat="46.37906" lon="5.34553">
        <ele>295.4</ele>
        <time>2022-05-24T11:02:54Z</time>
      </trkpt>
      <trkpt lat="46.37889" lon="5.34554">
        <ele>295.4</ele>
        <time>2022-05-24T11:02:57Z</time>
      </trkpt>
      <trkpt lat="46.37851" lon="5.34555">
        <ele>295</ele>
        <time>2022-05-24T11:03:02Z</time>
      </trkpt>
      <trkpt lat="46.37823" lon="5.34554">
        <ele>294.2</ele>
        <time>2022-05-24T11:03:05Z</time>
      </trkpt>
      <trkpt lat="46.37804" lon="5.34552">
        <ele>293.2</ele>
        <time>2022-05-24T11:03:07Z</time>
      </trkpt>
      <trkpt lat="46.37794" lon="5.34551">
        <ele>292.2</ele>
        <time>2022-05-24T11:03:08Z</time>
      </trkpt>
      <trkpt lat="46.37784" lon="5.3455">
        <ele>291.8</ele>
        <time>2022-05-24T11:03:09Z</time>
      </trkpt>
      <trkpt lat="46.37773" lon="5.3455">
        <ele>290.4</ele>
        <time>2022-05-24T11:03:11Z</time>
      </trkpt>
      <trkpt lat="46.37753" lon="5.34547">
        <ele>289.2</ele>
        <time>2022-05-24T11:03:13Z</time>
      </trkpt>
      <trkpt lat="46.37725" lon="5.34542">
        <ele>288.4</ele>
        <time>2022-05-24T11:03:15Z</time>
      </trkpt>
      <trkpt lat="46.3771" lon="5.34539">
        <ele>288</ele>
        <time>2022-05-24T11:03:16Z</time>
      </trkpt>
      <trkpt lat="46.37677" lon="5.34529">
        <ele>287.2</ele>
        <time>2022-05-24T11:03:19Z</time>
      </trkpt>
      <trkpt lat="46.37666" lon="5.34525">
        <ele>286.4</ele>
        <time>2022-05-24T11:03:20Z</time>
      </trkpt>
      <trkpt lat="46.37655" lon="5.3452">
        <ele>284.8</ele>
        <time>2022-05-24T11:03:21Z</time>
      </trkpt>
      <trkpt lat="46.37644" lon="5.34515">
        <ele>283.2</ele>
        <time>2022-05-24T11:03:22Z</time>
      </trkpt>
      <trkpt lat="46.37623" lon="5.34505">
        <ele>282</ele>
        <time>2022-05-24T11:03:24Z</time>
      </trkpt>
      <trkpt lat="46.37612" lon="5.34502">
        <ele>281.6</ele>
        <time>2022-05-24T11:03:25Z</time>
      </trkpt>
      <trkpt lat="46.37591" lon="5.34496">
        <ele>280.8</ele>
        <time>2022-05-24T11:03:27Z</time>
      </trkpt>
      <trkpt lat="46.3757" lon="5.3449">
        <ele>279.6</ele>
        <time>2022-05-24T11:03:29Z</time>
      </trkpt>
      <trkpt lat="46.37549" lon="5.34486">
        <ele>278.4</ele>
        <time>2022-05-24T11:03:31Z</time>
      </trkpt>
      <trkpt lat="46.37539" lon="5.34483">
        <ele>278.2</ele>
        <time>2022-05-24T11:03:32Z</time>
      </trkpt>
      <trkpt lat="46.37499" lon="5.34474">
        <ele>276.8</ele>
        <time>2022-05-24T11:03:36Z</time>
      </trkpt>
      <trkpt lat="46.37451" lon="5.3446">
        <ele>275.6</ele>
        <time>2022-05-24T11:03:41Z</time>
      </trkpt>
      <trkpt lat="46.37405" lon="5.34436">
        <ele>274.8</ele>
        <time>2022-05-24T11:03:46Z</time>
      </trkpt>
      <trkpt lat="46.37396" lon="5.34431">
        <ele>274.4</ele>
        <time>2022-05-24T11:03:47Z</time>
      </trkpt>
      <trkpt lat="46.37386" lon="5.34426">
        <ele>274.2</ele>
        <time>2022-05-24T11:03:48Z</time>
      </trkpt>
      <trkpt lat="46.37366" lon="5.34426">
        <ele>273</ele>
        <time>2022-05-24T11:03:50Z</time>
      </trkpt>
      <trkpt lat="46.37347" lon="5.34439">
        <ele>271.8</ele>
        <time>2022-05-24T11:03:52Z</time>
      </trkpt>
      <trkpt lat="46.37338" lon="5.34447">
        <ele>271.4</ele>
        <time>2022-05-24T11:03:53Z</time>
      </trkpt>
      <trkpt lat="46.37328" lon="5.34455">
        <ele>270.6</ele>
        <time>2022-05-24T11:03:54Z</time>
      </trkpt>
      <trkpt lat="46.37306" lon="5.34466">
        <ele>269.8</ele>
        <time>2022-05-24T11:03:56Z</time>
      </trkpt>
      <trkpt lat="46.37294" lon="5.34472">
        <ele>268.8</ele>
        <time>2022-05-24T11:03:57Z</time>
      </trkpt>
      <trkpt lat="46.37283" lon="5.34477">
        <ele>267.4</ele>
        <time>2022-05-24T11:03:59Z</time>
      </trkpt>
      <trkpt lat="46.37248" lon="5.34489">
        <ele>266.6</ele>
        <time>2022-05-24T11:04:01Z</time>
      </trkpt>
      <trkpt lat="46.37236" lon="5.34489">
        <ele>265.6</ele>
        <time>2022-05-24T11:04:02Z</time>
      </trkpt>
      <trkpt lat="46.37225" lon="5.34487">
        <ele>263.8</ele>
        <time>2022-05-24T11:04:03Z</time>
      </trkpt>
      <trkpt lat="46.37203" lon="5.34477">
        <ele>262.6</ele>
        <time>2022-05-24T11:04:05Z</time>
      </trkpt>
      <trkpt lat="46.37173" lon="5.34461">
        <ele>261.6</ele>
        <time>2022-05-24T11:04:08Z</time>
      </trkpt>
      <trkpt lat="46.37143" lon="5.34449">
        <ele>261</ele>
        <time>2022-05-24T11:04:11Z</time>
      </trkpt>
      <trkpt lat="46.37105" lon="5.34447">
        <ele>261.2</ele>
        <time>2022-05-24T11:04:15Z</time>
      </trkpt>
      <trkpt lat="46.37055" lon="5.34452">
        <ele>262</ele>
        <time>2022-05-24T11:04:21Z</time>
      </trkpt>
      <trkpt lat="46.37034" lon="5.34458">
        <ele>263</ele>
        <time>2022-05-24T11:04:24Z</time>
      </trkpt>
      <trkpt lat="46.37014" lon="5.34466">
        <ele>263.8</ele>
        <time>2022-05-24T11:04:27Z</time>
      </trkpt>
      <trkpt lat="46.37008" lon="5.34469">
        <ele>264</ele>
        <time>2022-05-24T11:04:28Z</time>
      </trkpt>
      <trkpt lat="46.37001" lon="5.34474">
        <ele>264</ele>
        <time>2022-05-24T11:04:29Z</time>
      </trkpt>
      <trkpt lat="46.36982" lon="5.34488">
        <ele>264.6</ele>
        <time>2022-05-24T11:04:32Z</time>
      </trkpt>
      <trkpt lat="46.36968" lon="5.34496">
        <ele>264.6</ele>
        <time>2022-05-24T11:04:34Z</time>
      </trkpt>
      <trkpt lat="46.36937" lon="5.34513">
        <ele>264.2</ele>
        <time>2022-05-24T11:04:38Z</time>
      </trkpt>
      <trkpt lat="46.36886" lon="5.34538">
        <ele>263</ele>
        <time>2022-05-24T11:04:45Z</time>
      </trkpt>
      <trkpt lat="46.3686" lon="5.3455">
        <ele>262.6</ele>
        <time>2022-05-24T11:04:48Z</time>
      </trkpt>
      <trkpt lat="46.36831" lon="5.34567">
        <ele>261.8</ele>
        <time>2022-05-24T11:04:52Z</time>
      </trkpt>
      <trkpt lat="46.36815" lon="5.34576">
        <ele>261.6</ele>
        <time>2022-05-24T11:04:54Z</time>
      </trkpt>
      <trkpt lat="46.36784" lon="5.34593">
        <ele>260.8</ele>
        <time>2022-05-24T11:04:58Z</time>
      </trkpt>
      <trkpt lat="46.36744" lon="5.34611">
        <ele>259.6</ele>
        <time>2022-05-24T11:05:03Z</time>
      </trkpt>
      <trkpt lat="46.36709" lon="5.34616">
        <ele>258.6</ele>
        <time>2022-05-24T11:05:07Z</time>
      </trkpt>
      <trkpt lat="46.36692" lon="5.34618">
        <ele>257.6</ele>
        <time>2022-05-24T11:05:09Z</time>
      </trkpt>
      <trkpt lat="46.36683" lon="5.34618">
        <ele>257.4</ele>
        <time>2022-05-24T11:05:10Z</time>
      </trkpt>
      <trkpt lat="46.36658" lon="5.3462">
        <ele>256.4</ele>
        <time>2022-05-24T11:05:13Z</time>
      </trkpt>
      <trkpt lat="46.36617" lon="5.34623">
        <ele>255.4</ele>
        <time>2022-05-24T11:05:18Z</time>
      </trkpt>
      <trkpt lat="46.36601" lon="5.34629">
        <ele>255</ele>
        <time>2022-05-24T11:05:20Z</time>
      </trkpt>
      <trkpt lat="46.36593" lon="5.34632">
        <ele>255</ele>
        <time>2022-05-24T11:05:21Z</time>
      </trkpt>
      <trkpt lat="46.36579" lon="5.34642">
        <ele>254.8</ele>
        <time>2022-05-24T11:05:23Z</time>
      </trkpt>
      <trkpt lat="46.36556" lon="5.34675">
        <ele>254.8</ele>
        <time>2022-05-24T11:05:27Z</time>
      </trkpt>
      <trkpt lat="46.36538" lon="5.34699">
        <ele>254.6</ele>
        <time>2022-05-24T11:05:30Z</time>
      </trkpt>
      <trkpt lat="46.36532" lon="5.34706">
        <ele>254.4</ele>
        <time>2022-05-24T11:05:31Z</time>
      </trkpt>
      <trkpt lat="46.36512" lon="5.34719">
        <ele>254</ele>
        <time>2022-05-24T11:05:34Z</time>
      </trkpt>
      <trkpt lat="46.36497" lon="5.34727">
        <ele>254</ele>
        <time>2022-05-24T11:05:36Z</time>
      </trkpt>
      <trkpt lat="46.36473" lon="5.34737">
        <ele>253.8</ele>
        <time>2022-05-24T11:05:39Z</time>
      </trkpt>
      <trkpt lat="46.36464" lon="5.34739">
        <ele>253.6</ele>
        <time>2022-05-24T11:05:41Z</time>
      </trkpt>
      <trkpt lat="46.36444" lon="5.3474">
        <ele>253.4</ele>
        <time>2022-05-24T11:05:42Z</time>
      </trkpt>
      <trkpt lat="46.36429" lon="5.34738">
        <ele>252.6</ele>
        <time>2022-05-24T11:05:44Z</time>
      </trkpt>
      <trkpt lat="46.36421" lon="5.34737">
        <ele>252.4</ele>
        <time>2022-05-24T11:05:45Z</time>
      </trkpt>
      <trkpt lat="46.36403" lon="5.34734">
        <ele>251.6</ele>
        <time>2022-05-24T11:05:47Z</time>
      </trkpt>
      <trkpt lat="46.36389" lon="5.34732">
        <ele>251.4</ele>
        <time>2022-05-24T11:05:49Z</time>
      </trkpt>
      <trkpt lat="46.36352" lon="5.34728">
        <ele>251.6</ele>
        <time>2022-05-24T11:05:55Z</time>
      </trkpt>
      <trkpt lat="46.36331" lon="5.34725">
        <ele>252.8</ele>
        <time>2022-05-24T11:05:59Z</time>
      </trkpt>
      <trkpt lat="46.36321" lon="5.34723">
        <ele>253.4</ele>
        <time>2022-05-24T11:06:01Z</time>
      </trkpt>
      <trkpt lat="46.36317" lon="5.34722">
        <ele>253.8</ele>
        <time>2022-05-24T11:06:02Z</time>
      </trkpt>
      <trkpt lat="46.36308" lon="5.34721">
        <ele>254.4</ele>
        <time>2022-05-24T11:06:04Z</time>
      </trkpt>
      <trkpt lat="46.36295" lon="5.34718">
        <ele>255.4</ele>
        <time>2022-05-24T11:06:07Z</time>
      </trkpt>
      <trkpt lat="46.36291" lon="5.34718">
        <ele>255.4</ele>
        <time>2022-05-24T11:06:08Z</time>
      </trkpt>
      <trkpt lat="46.36274" lon="5.34718">
        <ele>256.6</ele>
        <time>2022-05-24T11:06:12Z</time>
      </trkpt>
      <trkpt lat="46.36266" lon="5.3472">
        <ele>257</ele>
        <time>2022-05-24T11:06:14Z</time>
      </trkpt>
      <trkpt lat="46.36246" lon="5.34727">
        <ele>257.8</ele>
        <time>2022-05-24T11:06:19Z</time>
      </trkpt>
      <trkpt lat="46.36238" lon="5.3473">
        <ele>258</ele>
        <time>2022-05-24T11:06:21Z</time>
      </trkpt>
      <trkpt lat="46.36226" lon="5.34736">
        <ele>258.8</ele>
        <time>2022-05-24T11:06:24Z</time>
      </trkpt>
      <trkpt lat="46.3621" lon="5.34741">
        <ele>259.8</ele>
        <time>2022-05-24T11:06:28Z</time>
      </trkpt>
      <trkpt lat="46.36201" lon="5.34742">
        <ele>260.2</ele>
        <time>2022-05-24T11:06:30Z</time>
      </trkpt>
      <trkpt lat="46.36197" lon="5.34742">
        <ele>260.2</ele>
        <time>2022-05-24T11:06:31Z</time>
      </trkpt>
      <trkpt lat="46.36193" lon="5.3474">
        <ele>260.4</ele>
        <time>2022-05-24T11:06:32Z</time>
      </trkpt>
      <trkpt lat="46.36185" lon="5.34736">
        <ele>261</ele>
        <time>2022-05-24T11:06:34Z</time>
      </trkpt>
      <trkpt lat="46.36179" lon="5.34728">
        <ele>261.4</ele>
        <time>2022-05-24T11:06:36Z</time>
      </trkpt>
      <trkpt lat="46.36176" lon="5.34717">
        <ele>261.6</ele>
        <time>2022-05-24T11:06:38Z</time>
      </trkpt>
      <trkpt lat="46.36175" lon="5.34707">
        <ele>262</ele>
        <time>2022-05-24T11:06:40Z</time>
      </trkpt>
      <trkpt lat="46.36175" lon="5.34701">
        <ele>262.4</ele>
        <time>2022-05-24T11:06:42Z</time>
      </trkpt>
      <trkpt lat="46.36178" lon="5.34687">
        <ele>263</ele>
        <time>2022-05-24T11:06:44Z</time>
      </trkpt>
      <trkpt lat="46.36179" lon="5.34682">
        <ele>263.2</ele>
        <time>2022-05-24T11:06:45Z</time>
      </trkpt>
      <trkpt lat="46.36182" lon="5.34676">
        <ele>263.4</ele>
        <time>2022-05-24T11:06:46Z</time>
      </trkpt>
      <trkpt lat="46.36189" lon="5.34665">
        <ele>264.2</ele>
        <time>2022-05-24T11:06:49Z</time>
      </trkpt>
      <trkpt lat="46.36202" lon="5.34648">
        <ele>265.4</ele>
        <time>2022-05-24T11:06:54Z</time>
      </trkpt>
      <trkpt lat="46.36215" lon="5.34628">
        <ele>266.4</ele>
        <time>2022-05-24T11:07:00Z</time>
      </trkpt>
      <trkpt lat="46.36221" lon="5.34609">
        <ele>267.6</ele>
        <time>2022-05-24T11:07:05Z</time>
      </trkpt>
      <trkpt lat="46.36222" lon="5.346">
        <ele>268</ele>
        <time>2022-05-24T11:07:07Z</time>
      </trkpt>
      <trkpt lat="46.36221" lon="5.34591">
        <ele>268.6</ele>
        <time>2022-05-24T11:07:09Z</time>
      </trkpt>
      <trkpt lat="46.36217" lon="5.34574">
        <ele>269.8</ele>
        <time>2022-05-24T11:07:13Z</time>
      </trkpt>
      <trkpt lat="46.36205" lon="5.34558">
        <ele>270.6</ele>
        <time>2022-05-24T11:07:18Z</time>
      </trkpt>
      <trkpt lat="46.36202" lon="5.34556">
        <ele>271</ele>
        <time>2022-05-24T11:07:19Z</time>
      </trkpt>
      <trkpt lat="46.36183" lon="5.34544">
        <ele>272.6</ele>
        <time>2022-05-24T11:07:26Z</time>
      </trkpt>
      <trkpt lat="46.3618" lon="5.34543">
        <ele>272.6</ele>
        <time>2022-05-24T11:07:27Z</time>
      </trkpt>
      <trkpt lat="46.36166" lon="5.34539">
        <ele>273.6</ele>
        <time>2022-05-24T11:07:32Z</time>
      </trkpt>
      <trkpt lat="46.36156" lon="5.34538">
        <ele>274</ele>
        <time>2022-05-24T11:07:35Z</time>
      </trkpt>
      <trkpt lat="46.36147" lon="5.34537">
        <ele>274.6</ele>
        <time>2022-05-24T11:07:38Z</time>
      </trkpt>
      <trkpt lat="46.36133" lon="5.34539">
        <ele>275.8</ele>
        <time>2022-05-24T11:07:43Z</time>
      </trkpt>
      <trkpt lat="46.3613" lon="5.34539">
        <ele>276</ele>
        <time>2022-05-24T11:07:44Z</time>
      </trkpt>
      <trkpt lat="46.36113" lon="5.34543">
        <ele>277</ele>
        <time>2022-05-24T11:07:49Z</time>
      </trkpt>
      <trkpt lat="46.36105" lon="5.34544">
        <ele>277.4</ele>
        <time>2022-05-24T11:07:51Z</time>
      </trkpt>
      <trkpt lat="46.36098" lon="5.34545">
        <ele>277.6</ele>
        <time>2022-05-24T11:07:53Z</time>
      </trkpt>
      <trkpt lat="46.36089" lon="5.34546">
        <ele>278.2</ele>
        <time>2022-05-24T11:07:56Z</time>
      </trkpt>
      <trkpt lat="46.36068" lon="5.34547">
        <ele>279.2</ele>
        <time>2022-05-24T11:08:02Z</time>
      </trkpt>
      <trkpt lat="46.36058" lon="5.34548">
        <ele>279.6</ele>
        <time>2022-05-24T11:08:05Z</time>
      </trkpt>
      <trkpt lat="46.36047" lon="5.34549">
        <ele>280.4</ele>
        <time>2022-05-24T11:08:08Z</time>
      </trkpt>
      <trkpt lat="46.36027" lon="5.34555">
        <ele>281.2</ele>
        <time>2022-05-24T11:08:14Z</time>
      </trkpt>
      <trkpt lat="46.3602" lon="5.34558">
        <ele>281.6</ele>
        <time>2022-05-24T11:08:16Z</time>
      </trkpt>
      <trkpt lat="46.35999" lon="5.34572">
        <ele>282.6</ele>
        <time>2022-05-24T11:08:22Z</time>
      </trkpt>
      <trkpt lat="46.35996" lon="5.34575">
        <ele>282.6</ele>
        <time>2022-05-24T11:08:23Z</time>
      </trkpt>
      <trkpt lat="46.35978" lon="5.34588">
        <ele>283.6</ele>
        <time>2022-05-24T11:08:29Z</time>
      </trkpt>
      <trkpt lat="46.35971" lon="5.34594">
        <ele>283.6</ele>
        <time>2022-05-24T11:08:30Z</time>
      </trkpt>
      <trkpt lat="46.3595" lon="5.34609">
        <ele>284.8</ele>
        <time>2022-05-24T11:08:35Z</time>
      </trkpt>
      <trkpt lat="46.3594" lon="5.34615">
        <ele>285</ele>
        <time>2022-05-24T11:08:37Z</time>
      </trkpt>
      <trkpt lat="46.35913" lon="5.34632">
        <ele>285</ele>
        <time>2022-05-24T11:08:42Z</time>
      </trkpt>
      <trkpt lat="46.35869" lon="5.34662">
        <ele>284.8</ele>
        <time>2022-05-24T11:08:49Z</time>
      </trkpt>
      <trkpt lat="46.35849" lon="5.34676">
        <ele>283.8</ele>
        <time>2022-05-24T11:08:52Z</time>
      </trkpt>
      <trkpt lat="46.35812" lon="5.34702">
        <ele>282.2</ele>
        <time>2022-05-24T11:08:57Z</time>
      </trkpt>
      <trkpt lat="46.35805" lon="5.34707">
        <ele>282</ele>
        <time>2022-05-24T11:08:58Z</time>
      </trkpt>
      <trkpt lat="46.35756" lon="5.34741">
        <ele>281.6</ele>
        <time>2022-05-24T11:09:05Z</time>
      </trkpt>
      <trkpt lat="46.35725" lon="5.34762">
        <ele>282.2</ele>
        <time>2022-05-24T11:09:10Z</time>
      </trkpt>
      <trkpt lat="46.35685" lon="5.3479">
        <ele>283.2</ele>
        <time>2022-05-24T11:09:17Z</time>
      </trkpt>
      <trkpt lat="46.35678" lon="5.34794">
        <ele>283.8</ele>
        <time>2022-05-24T11:09:18Z</time>
      </trkpt>
      <trkpt lat="46.35666" lon="5.34802">
        <ele>284</ele>
        <time>2022-05-24T11:09:20Z</time>
      </trkpt>
      <trkpt lat="46.35643" lon="5.34811">
        <ele>284</ele>
        <time>2022-05-24T11:09:23Z</time>
      </trkpt>
      <trkpt lat="46.35608" lon="5.34817">
        <ele>282.8</ele>
        <time>2022-05-24T11:09:27Z</time>
      </trkpt>
      <trkpt lat="46.35599" lon="5.34818">
        <ele>282.6</ele>
        <time>2022-05-24T11:09:28Z</time>
      </trkpt>
      <trkpt lat="46.35579" lon="5.3482">
        <ele>281.6</ele>
        <time>2022-05-24T11:09:30Z</time>
      </trkpt>
      <trkpt lat="46.35549" lon="5.34824">
        <ele>280.4</ele>
        <time>2022-05-24T11:09:33Z</time>
      </trkpt>
      <trkpt lat="46.35529" lon="5.34825">
        <ele>279.2</ele>
        <time>2022-05-24T11:09:35Z</time>
      </trkpt>
      <trkpt lat="46.35509" lon="5.34825">
        <ele>277</ele>
        <time>2022-05-24T11:09:37Z</time>
      </trkpt>
      <trkpt lat="46.35488" lon="5.34824">
        <ele>275.6</ele>
        <time>2022-05-24T11:09:39Z</time>
      </trkpt>
      <trkpt lat="46.35468" lon="5.34821">
        <ele>274.4</ele>
        <time>2022-05-24T11:09:42Z</time>
      </trkpt>
      <trkpt lat="46.35418" lon="5.34817">
        <ele>273.4</ele>
        <time>2022-05-24T11:09:46Z</time>
      </trkpt>
      <trkpt lat="46.3539" lon="5.34817">
        <ele>272.8</ele>
        <time>2022-05-24T11:09:49Z</time>
      </trkpt>
      <trkpt lat="46.35371" lon="5.34818">
        <ele>272.4</ele>
        <time>2022-05-24T11:09:51Z</time>
      </trkpt>
      <trkpt lat="46.35346" lon="5.34824">
        <ele>271.4</ele>
        <time>2022-05-24T11:09:54Z</time>
      </trkpt>
      <trkpt lat="46.35336" lon="5.34827">
        <ele>271</ele>
        <time>2022-05-24T11:09:55Z</time>
      </trkpt>
      <trkpt lat="46.35281" lon="5.34842">
        <ele>270.4</ele>
        <time>2022-05-24T11:10:01Z</time>
      </trkpt>
      <trkpt lat="46.35251" lon="5.3485">
        <ele>269.6</ele>
        <time>2022-05-24T11:10:04Z</time>
      </trkpt>
      <trkpt lat="46.35232" lon="5.34855">
        <ele>268.4</ele>
        <time>2022-05-24T11:10:06Z</time>
      </trkpt>
      <trkpt lat="46.35212" lon="5.3486">
        <ele>267.2</ele>
        <time>2022-05-24T11:10:08Z</time>
      </trkpt>
      <trkpt lat="46.35183" lon="5.34869">
        <ele>266</ele>
        <time>2022-05-24T11:10:11Z</time>
      </trkpt>
      <trkpt lat="46.35163" lon="5.34875">
        <ele>264.8</ele>
        <time>2022-05-24T11:10:13Z</time>
      </trkpt>
      <trkpt lat="46.35153" lon="5.34878">
        <ele>264</ele>
        <time>2022-05-24T11:10:14Z</time>
      </trkpt>
      <trkpt lat="46.35144" lon="5.3488">
        <ele>263.6</ele>
        <time>2022-05-24T11:10:15Z</time>
      </trkpt>
      <trkpt lat="46.35116" lon="5.34888">
        <ele>262.6</ele>
        <time>2022-05-24T11:10:18Z</time>
      </trkpt>
      <trkpt lat="46.35081" lon="5.34901">
        <ele>261.8</ele>
        <time>2022-05-24T11:10:22Z</time>
      </trkpt>
      <trkpt lat="46.35055" lon="5.34915">
        <ele>261</ele>
        <time>2022-05-24T11:10:25Z</time>
      </trkpt>
      <trkpt lat="46.3501" lon="5.34938">
        <ele>259.6</ele>
        <time>2022-05-24T11:10:30Z</time>
      </trkpt>
      <trkpt lat="46.34992" lon="5.34948">
        <ele>259.2</ele>
        <time>2022-05-24T11:10:32Z</time>
      </trkpt>
      <trkpt lat="46.34965" lon="5.34963">
        <ele>258</ele>
        <time>2022-05-24T11:10:35Z</time>
      </trkpt>
      <trkpt lat="46.34946" lon="5.34973">
        <ele>257</ele>
        <time>2022-05-24T11:10:37Z</time>
      </trkpt>
      <trkpt lat="46.34927" lon="5.34983">
        <ele>255.8</ele>
        <time>2022-05-24T11:10:39Z</time>
      </trkpt>
      <trkpt lat="46.34917" lon="5.34988">
        <ele>254.8</ele>
        <time>2022-05-24T11:10:41Z</time>
      </trkpt>
      <trkpt lat="46.34898" lon="5.35">
        <ele>254.2</ele>
        <time>2022-05-24T11:10:42Z</time>
      </trkpt>
      <trkpt lat="46.34858" lon="5.35022">
        <ele>252.2</ele>
        <time>2022-05-24T11:10:46Z</time>
      </trkpt>
      <trkpt lat="46.34837" lon="5.35034">
        <ele>251.2</ele>
        <time>2022-05-24T11:10:48Z</time>
      </trkpt>
      <trkpt lat="46.34826" lon="5.3504">
        <ele>250.4</ele>
        <time>2022-05-24T11:10:49Z</time>
      </trkpt>
      <trkpt lat="46.34806" lon="5.35052">
        <ele>249</ele>
        <time>2022-05-24T11:10:51Z</time>
      </trkpt>
      <trkpt lat="46.34785" lon="5.35065">
        <ele>247.4</ele>
        <time>2022-05-24T11:10:53Z</time>
      </trkpt>
      <trkpt lat="46.34763" lon="5.35079">
        <ele>246.4</ele>
        <time>2022-05-24T11:10:55Z</time>
      </trkpt>
      <trkpt lat="46.34743" lon="5.35094">
        <ele>245.2</ele>
        <time>2022-05-24T11:10:57Z</time>
      </trkpt>
      <trkpt lat="46.34732" lon="5.35103">
        <ele>244</ele>
        <time>2022-05-24T11:10:58Z</time>
      </trkpt>
      <trkpt lat="46.34722" lon="5.35111">
        <ele>243.4</ele>
        <time>2022-05-24T11:10:59Z</time>
      </trkpt>
      <trkpt lat="46.34712" lon="5.35119">
        <ele>242.6</ele>
        <time>2022-05-24T11:11:00Z</time>
      </trkpt>
      <trkpt lat="46.34681" lon="5.35142">
        <ele>241.4</ele>
        <time>2022-05-24T11:11:03Z</time>
      </trkpt>
      <trkpt lat="46.34659" lon="5.35158">
        <ele>239.8</ele>
        <time>2022-05-24T11:11:05Z</time>
      </trkpt>
      <trkpt lat="46.34637" lon="5.35173">
        <ele>238.2</ele>
        <time>2022-05-24T11:11:07Z</time>
      </trkpt>
      <trkpt lat="46.34614" lon="5.3519">
        <ele>237</ele>
        <time>2022-05-24T11:11:09Z</time>
      </trkpt>
      <trkpt lat="46.34592" lon="5.35208">
        <ele>235.6</ele>
        <time>2022-05-24T11:11:11Z</time>
      </trkpt>
      <trkpt lat="46.34581" lon="5.35216">
        <ele>234.4</ele>
        <time>2022-05-24T11:11:12Z</time>
      </trkpt>
      <trkpt lat="46.34571" lon="5.35225">
        <ele>233.8</ele>
        <time>2022-05-24T11:11:13Z</time>
      </trkpt>
      <trkpt lat="46.34562" lon="5.35232">
        <ele>232.8</ele>
        <time>2022-05-24T11:11:14Z</time>
      </trkpt>
      <trkpt lat="46.34553" lon="5.35239">
        <ele>231.8</ele>
        <time>2022-05-24T11:11:15Z</time>
      </trkpt>
      <trkpt lat="46.34539" lon="5.35248">
        <ele>230</ele>
        <time>2022-05-24T11:11:17Z</time>
      </trkpt>
      <trkpt lat="46.34527" lon="5.35246">
        <ele>228.8</ele>
        <time>2022-05-24T11:11:19Z</time>
      </trkpt>
      <trkpt lat="46.34524" lon="5.3524">
        <ele>228.6</ele>
        <time>2022-05-24T11:11:20Z</time>
      </trkpt>
      <trkpt lat="46.34515" lon="5.35203">
        <ele>227.4</ele>
        <time>2022-05-24T11:11:24Z</time>
      </trkpt>
      <trkpt lat="46.34509" lon="5.35184">
        <ele>227.4</ele>
        <time>2022-05-24T11:11:26Z</time>
      </trkpt>
      <trkpt lat="46.34492" lon="5.35124">
        <ele>227.2</ele>
        <time>2022-05-24T11:11:32Z</time>
      </trkpt>
      <trkpt lat="46.34468" lon="5.35043">
        <ele>226.6</ele>
        <time>2022-05-24T11:11:40Z</time>
      </trkpt>
      <trkpt lat="46.34442" lon="5.34965">
        <ele>226</ele>
        <time>2022-05-24T11:11:48Z</time>
      </trkpt>
      <trkpt lat="46.34439" lon="5.34955">
        <ele>226</ele>
        <time>2022-05-24T11:11:49Z</time>
      </trkpt>
      <trkpt lat="46.34417" lon="5.34898">
        <ele>225.8</ele>
        <time>2022-05-24T11:11:55Z</time>
      </trkpt>
      <trkpt lat="46.34406" lon="5.34869">
        <ele>225.8</ele>
        <time>2022-05-24T11:11:58Z</time>
      </trkpt>
      <trkpt lat="46.34381" lon="5.34803">
        <ele>225.6</ele>
        <time>2022-05-24T11:12:05Z</time>
      </trkpt>
      <trkpt lat="46.34371" lon="5.34776">
        <ele>225.6</ele>
        <time>2022-05-24T11:12:08Z</time>
      </trkpt>
      <trkpt lat="46.34345" lon="5.34704">
        <ele>226.2</ele>
        <time>2022-05-24T11:12:16Z</time>
      </trkpt>
      <trkpt lat="46.34333" lon="5.34671">
        <ele>226.8</ele>
        <time>2022-05-24T11:12:20Z</time>
      </trkpt>
      <trkpt lat="46.34318" lon="5.34631">
        <ele>227.2</ele>
        <time>2022-05-24T11:12:25Z</time>
      </trkpt>
      <trkpt lat="46.34289" lon="5.34554">
        <ele>226.4</ele>
        <time>2022-05-24T11:12:34Z</time>
      </trkpt>
      <trkpt lat="46.34286" lon="5.34545">
        <ele>226.4</ele>
        <time>2022-05-24T11:12:35Z</time>
      </trkpt>
      <trkpt lat="46.34276" lon="5.34503">
        <ele>226</ele>
        <time>2022-05-24T11:12:40Z</time>
      </trkpt>
      <trkpt lat="46.34274" lon="5.34493">
        <ele>226</ele>
        <time>2022-05-24T11:12:41Z</time>
      </trkpt>
      <trkpt lat="46.3427" lon="5.34428">
        <ele>226.6</ele>
        <time>2022-05-24T11:12:48Z</time>
      </trkpt>
      <trkpt lat="46.3426" lon="5.34354">
        <ele>226.6</ele>
        <time>2022-05-24T11:12:56Z</time>
      </trkpt>
      <trkpt lat="46.3424" lon="5.34279">
        <ele>226.2</ele>
        <time>2022-05-24T11:13:04Z</time>
      </trkpt>
      <trkpt lat="46.34237" lon="5.34269">
        <ele>226.2</ele>
        <time>2022-05-24T11:13:05Z</time>
      </trkpt>
      <trkpt lat="46.34218" lon="5.34196">
        <ele>226</ele>
        <time>2022-05-24T11:13:13Z</time>
      </trkpt>
      <trkpt lat="46.34215" lon="5.34184">
        <ele>226</ele>
        <time>2022-05-24T11:13:14Z</time>
      </trkpt>
      <trkpt lat="46.34196" lon="5.34102">
        <ele>225.4</ele>
        <time>2022-05-24T11:13:22Z</time>
      </trkpt>
      <trkpt lat="46.34191" lon="5.34082">
        <ele>225.2</ele>
        <time>2022-05-24T11:13:24Z</time>
      </trkpt>
      <trkpt lat="46.34177" lon="5.34016">
        <ele>225.6</ele>
        <time>2022-05-24T11:13:31Z</time>
      </trkpt>
      <trkpt lat="46.34173" lon="5.33997">
        <ele>225.4</ele>
        <time>2022-05-24T11:13:33Z</time>
      </trkpt>
      <trkpt lat="46.34162" lon="5.33915">
        <ele>225.2</ele>
        <time>2022-05-24T11:13:41Z</time>
      </trkpt>
      <trkpt lat="46.34161" lon="5.33904">
        <ele>225</ele>
        <time>2022-05-24T11:13:42Z</time>
      </trkpt>
      <trkpt lat="46.3416" lon="5.33893">
        <ele>225</ele>
        <time>2022-05-24T11:13:43Z</time>
      </trkpt>
      <trkpt lat="46.34152" lon="5.33815">
        <ele>223.8</ele>
        <time>2022-05-24T11:13:50Z</time>
      </trkpt>
      <trkpt lat="46.34145" lon="5.33738">
        <ele>222.8</ele>
        <time>2022-05-24T11:13:57Z</time>
      </trkpt>
      <trkpt lat="46.34144" lon="5.33727">
        <ele>222.6</ele>
        <time>2022-05-24T11:13:58Z</time>
      </trkpt>
      <trkpt lat="46.3414" lon="5.33708">
        <ele>222</ele>
        <time>2022-05-24T11:14:00Z</time>
      </trkpt>
      <trkpt lat="46.34134" lon="5.3369">
        <ele>222</ele>
        <time>2022-05-24T11:14:02Z</time>
      </trkpt>
      <trkpt lat="46.34125" lon="5.33675">
        <ele>221.6</ele>
        <time>2022-05-24T11:14:04Z</time>
      </trkpt>
      <trkpt lat="46.34119" lon="5.33669">
        <ele>221.6</ele>
        <time>2022-05-24T11:14:05Z</time>
      </trkpt>
      <trkpt lat="46.34108" lon="5.33659">
        <ele>221.4</ele>
        <time>2022-05-24T11:14:07Z</time>
      </trkpt>
      <trkpt lat="46.34076" lon="5.33629">
        <ele>222</ele>
        <time>2022-05-24T11:14:13Z</time>
      </trkpt>
      <trkpt lat="46.3403" lon="5.33585">
        <ele>222.2</ele>
        <time>2022-05-24T11:14:21Z</time>
      </trkpt>
      <trkpt lat="46.34002" lon="5.33558">
        <ele>221.8</ele>
        <time>2022-05-24T11:14:26Z</time>
      </trkpt>
      <trkpt lat="46.33956" lon="5.33514">
        <ele>221</ele>
        <time>2022-05-24T11:14:34Z</time>
      </trkpt>
      <trkpt lat="46.33951" lon="5.33509">
        <ele>221</ele>
        <time>2022-05-24T11:14:35Z</time>
      </trkpt>
      <trkpt lat="46.33905" lon="5.33466">
        <ele>221</ele>
        <time>2022-05-24T11:14:43Z</time>
      </trkpt>
      <trkpt lat="46.33872" lon="5.33434">
        <ele>220.6</ele>
        <time>2022-05-24T11:14:49Z</time>
      </trkpt>
      <trkpt lat="46.33861" lon="5.33424">
        <ele>220.6</ele>
        <time>2022-05-24T11:14:51Z</time>
      </trkpt>
      <trkpt lat="46.33831" lon="5.33395">
        <ele>220.4</ele>
        <time>2022-05-24T11:14:57Z</time>
      </trkpt>
      <trkpt lat="46.33786" lon="5.33351">
        <ele>220.6</ele>
        <time>2022-05-24T11:15:06Z</time>
      </trkpt>
      <trkpt lat="46.33781" lon="5.33346">
        <ele>220.6</ele>
        <time>2022-05-24T11:15:07Z</time>
      </trkpt>
      <trkpt lat="46.33735" lon="5.33302">
        <ele>221</ele>
        <time>2022-05-24T11:15:16Z</time>
      </trkpt>
      <trkpt lat="46.33724" lon="5.3329">
        <ele>221</ele>
        <time>2022-05-24T11:15:18Z</time>
      </trkpt>
      <trkpt lat="46.33713" lon="5.33279">
        <ele>221.2</ele>
        <time>2022-05-24T11:15:20Z</time>
      </trkpt>
      <trkpt lat="46.33705" lon="5.33265">
        <ele>221.2</ele>
        <time>2022-05-24T11:15:22Z</time>
      </trkpt>
      <trkpt lat="46.33702" lon="5.33257">
        <ele>221.2</ele>
        <time>2022-05-24T11:15:23Z</time>
      </trkpt>
      <trkpt lat="46.33679" lon="5.33192">
        <ele>220.6</ele>
        <time>2022-05-24T11:15:31Z</time>
      </trkpt>
      <trkpt lat="46.33677" lon="5.33184">
        <ele>220.6</ele>
        <time>2022-05-24T11:15:32Z</time>
      </trkpt>
      <trkpt lat="46.33672" lon="5.33131">
        <ele>221.8</ele>
        <time>2022-05-24T11:15:38Z</time>
      </trkpt>
      <trkpt lat="46.33672" lon="5.33122">
        <ele>221.8</ele>
        <time>2022-05-24T11:15:39Z</time>
      </trkpt>
      <trkpt lat="46.33674" lon="5.33049">
        <ele>221.6</ele>
        <time>2022-05-24T11:15:47Z</time>
      </trkpt>
      <trkpt lat="46.33675" lon="5.32977">
        <ele>221.6</ele>
        <time>2022-05-24T11:15:55Z</time>
      </trkpt>
      <trkpt lat="46.33672" lon="5.3293">
        <ele>222.8</ele>
        <time>2022-05-24T11:16:01Z</time>
      </trkpt>
      <trkpt lat="46.3367" lon="5.32921">
        <ele>223.2</ele>
        <time>2022-05-24T11:16:02Z</time>
      </trkpt>
      <trkpt lat="46.33654" lon="5.32872">
        <ele>224</ele>
        <time>2022-05-24T11:16:08Z</time>
      </trkpt>
      <trkpt lat="46.33634" lon="5.32828">
        <ele>223.6</ele>
        <time>2022-05-24T11:16:14Z</time>
      </trkpt>
      <trkpt lat="46.33623" lon="5.32813">
        <ele>223.4</ele>
        <time>2022-05-24T11:16:16Z</time>
      </trkpt>
      <trkpt lat="46.33605" lon="5.32798">
        <ele>223.2</ele>
        <time>2022-05-24T11:16:19Z</time>
      </trkpt>
      <trkpt lat="46.33552" lon="5.32765">
        <ele>223.6</ele>
        <time>2022-05-24T11:16:28Z</time>
      </trkpt>
      <trkpt lat="46.33535" lon="5.32754">
        <ele>224.2</ele>
        <time>2022-05-24T11:16:31Z</time>
      </trkpt>
      <trkpt lat="46.33502" lon="5.32732">
        <ele>225.2</ele>
        <time>2022-05-24T11:16:37Z</time>
      </trkpt>
      <trkpt lat="46.33485" lon="5.3272">
        <ele>225.4</ele>
        <time>2022-05-24T11:16:40Z</time>
      </trkpt>
      <trkpt lat="46.33436" lon="5.32676">
        <ele>224.6</ele>
        <time>2022-05-24T11:16:49Z</time>
      </trkpt>
      <trkpt lat="46.33406" lon="5.32634">
        <ele>224.2</ele>
        <time>2022-05-24T11:16:55Z</time>
      </trkpt>
      <trkpt lat="46.33399" lon="5.32621">
        <ele>224</ele>
        <time>2022-05-24T11:16:57Z</time>
      </trkpt>
      <trkpt lat="46.33381" lon="5.32593">
        <ele>224</ele>
        <time>2022-05-24T11:17:01Z</time>
      </trkpt>
      <trkpt lat="46.33376" lon="5.32589">
        <ele>224</ele>
        <time>2022-05-24T11:17:02Z</time>
      </trkpt>
      <trkpt lat="46.33371" lon="5.32588">
        <ele>224</ele>
        <time>2022-05-24T11:17:03Z</time>
      </trkpt>
      <trkpt lat="46.33367" lon="5.3259">
        <ele>224</ele>
        <time>2022-05-24T11:17:04Z</time>
      </trkpt>
      <trkpt lat="46.33363" lon="5.32594">
        <ele>224</ele>
        <time>2022-05-24T11:17:05Z</time>
      </trkpt>
      <trkpt lat="46.33348" lon="5.3261">
        <ele>224.4</ele>
        <time>2022-05-24T11:17:09Z</time>
      </trkpt>
      <trkpt lat="46.33336" lon="5.32622">
        <ele>225.6</ele>
        <time>2022-05-24T11:17:13Z</time>
      </trkpt>
      <trkpt lat="46.33332" lon="5.32626">
        <ele>225.8</ele>
        <time>2022-05-24T11:17:14Z</time>
      </trkpt>
      <trkpt lat="46.33324" lon="5.32633">
        <ele>226.2</ele>
        <time>2022-05-24T11:17:16Z</time>
      </trkpt>
      <trkpt lat="46.33313" lon="5.32638">
        <ele>226.8</ele>
        <time>2022-05-24T11:17:19Z</time>
      </trkpt>
      <trkpt lat="46.33304" lon="5.32643">
        <ele>227.8</ele>
        <time>2022-05-24T11:17:22Z</time>
      </trkpt>
      <trkpt lat="46.33296" lon="5.32649">
        <ele>229</ele>
        <time>2022-05-24T11:17:25Z</time>
      </trkpt>
      <trkpt lat="46.33293" lon="5.32651">
        <ele>229.2</ele>
        <time>2022-05-24T11:17:26Z</time>
      </trkpt>
      <trkpt lat="46.33285" lon="5.32658">
        <ele>230.6</ele>
        <time>2022-05-24T11:17:29Z</time>
      </trkpt>
      <trkpt lat="46.33277" lon="5.32663">
        <ele>232.2</ele>
        <time>2022-05-24T11:17:32Z</time>
      </trkpt>
      <trkpt lat="46.33275" lon="5.32665">
        <ele>232.4</ele>
        <time>2022-05-24T11:17:33Z</time>
      </trkpt>
      <trkpt lat="46.33268" lon="5.32673">
        <ele>233.4</ele>
        <time>2022-05-24T11:17:36Z</time>
      </trkpt>
      <trkpt lat="46.33257" lon="5.32686">
        <ele>234.4</ele>
        <time>2022-05-24T11:17:41Z</time>
      </trkpt>
      <trkpt lat="46.33255" lon="5.32689">
        <ele>234.6</ele>
        <time>2022-05-24T11:17:42Z</time>
      </trkpt>
      <trkpt lat="46.33249" lon="5.32698">
        <ele>235.6</ele>
        <time>2022-05-24T11:17:45Z</time>
      </trkpt>
      <trkpt lat="46.33242" lon="5.32711">
        <ele>236.6</ele>
        <time>2022-05-24T11:17:49Z</time>
      </trkpt>
      <trkpt lat="46.33237" lon="5.32721">
        <ele>238</ele>
        <time>2022-05-24T11:17:52Z</time>
      </trkpt>
      <trkpt lat="46.33229" lon="5.32734">
        <ele>239</ele>
        <time>2022-05-24T11:17:56Z</time>
      </trkpt>
      <trkpt lat="46.33221" lon="5.32753">
        <ele>240.2</ele>
        <time>2022-05-24T11:18:01Z</time>
      </trkpt>
      <trkpt lat="46.33218" lon="5.32761">
        <ele>240.4</ele>
        <time>2022-05-24T11:18:03Z</time>
      </trkpt>
      <trkpt lat="46.33209" lon="5.32794">
        <ele>241</ele>
        <time>2022-05-24T11:18:08Z</time>
      </trkpt>
      <trkpt lat="46.33204" lon="5.3281">
        <ele>241.2</ele>
        <time>2022-05-24T11:18:11Z</time>
      </trkpt>
      <trkpt lat="46.332" lon="5.32812">
        <ele>241.2</ele>
        <time>2022-05-24T11:18:12Z</time>
      </trkpt>
      <trkpt lat="46.33191" lon="5.32808">
        <ele>241.2</ele>
        <time>2022-05-24T11:18:14Z</time>
      </trkpt>
      <trkpt lat="46.33182" lon="5.32799">
        <ele>241</ele>
        <time>2022-05-24T11:18:16Z</time>
      </trkpt>
      <trkpt lat="46.33161" lon="5.32778">
        <ele>241</ele>
        <time>2022-05-24T11:18:21Z</time>
      </trkpt>
      <trkpt lat="46.33151" lon="5.32763">
        <ele>240.8</ele>
        <time>2022-05-24T11:18:24Z</time>
      </trkpt>
      <trkpt lat="46.33136" lon="5.32744">
        <ele>240.6</ele>
        <time>2022-05-24T11:18:28Z</time>
      </trkpt>
      <trkpt lat="46.33125" lon="5.32729">
        <ele>241.4</ele>
        <time>2022-05-24T11:18:31Z</time>
      </trkpt>
      <trkpt lat="46.33095" lon="5.32686">
        <ele>241.8</ele>
        <time>2022-05-24T11:18:39Z</time>
      </trkpt>
      <trkpt lat="46.33062" lon="5.32648">
        <ele>242.2</ele>
        <time>2022-05-24T11:18:47Z</time>
      </trkpt>
      <trkpt lat="46.33056" lon="5.32643">
        <ele>242.2</ele>
        <time>2022-05-24T11:18:48Z</time>
      </trkpt>
      <trkpt lat="46.33051" lon="5.32639">
        <ele>242.4</ele>
        <time>2022-05-24T11:18:49Z</time>
      </trkpt>
      <trkpt lat="46.33031" lon="5.32624">
        <ele>242.8</ele>
        <time>2022-05-24T11:18:53Z</time>
      </trkpt>
      <trkpt lat="46.3301" lon="5.32608">
        <ele>243.4</ele>
        <time>2022-05-24T11:18:57Z</time>
      </trkpt>
      <trkpt lat="46.33005" lon="5.32603">
        <ele>243.6</ele>
        <time>2022-05-24T11:18:58Z</time>
      </trkpt>
      <trkpt lat="46.3299" lon="5.32589">
        <ele>243.6</ele>
        <time>2022-05-24T11:19:01Z</time>
      </trkpt>
      <trkpt lat="46.32953" lon="5.32552">
        <ele>243.8</ele>
        <time>2022-05-24T11:19:09Z</time>
      </trkpt>
      <trkpt lat="46.32909" lon="5.32517">
        <ele>244.4</ele>
        <time>2022-05-24T11:19:18Z</time>
      </trkpt>
      <trkpt lat="46.32904" lon="5.32513">
        <ele>244.4</ele>
        <time>2022-05-24T11:19:19Z</time>
      </trkpt>
      <trkpt lat="46.32882" lon="5.325">
        <ele>244.6</ele>
        <time>2022-05-24T11:19:23Z</time>
      </trkpt>
      <trkpt lat="46.32876" lon="5.32497">
        <ele>244.6</ele>
        <time>2022-05-24T11:19:24Z</time>
      </trkpt>
      <trkpt lat="46.32843" lon="5.32483">
        <ele>244.4</ele>
        <time>2022-05-24T11:19:30Z</time>
      </trkpt>
      <trkpt lat="46.32786" lon="5.32463">
        <ele>244.8</ele>
        <time>2022-05-24T11:19:40Z</time>
      </trkpt>
      <trkpt lat="46.32759" lon="5.32456">
        <ele>244.8</ele>
        <time>2022-05-24T11:19:45Z</time>
      </trkpt>
      <trkpt lat="46.32746" lon="5.32448">
        <ele>244.6</ele>
        <time>2022-05-24T11:19:47Z</time>
      </trkpt>
      <trkpt lat="46.32698" lon="5.32408">
        <ele>244.6</ele>
        <time>2022-05-24T11:19:56Z</time>
      </trkpt>
      <trkpt lat="46.32693" lon="5.32401">
        <ele>244.6</ele>
        <time>2022-05-24T11:19:57Z</time>
      </trkpt>
      <trkpt lat="46.32684" lon="5.32388">
        <ele>244.6</ele>
        <time>2022-05-24T11:19:59Z</time>
      </trkpt>
      <trkpt lat="46.32678" lon="5.32373">
        <ele>244.2</ele>
        <time>2022-05-24T11:20:01Z</time>
      </trkpt>
      <trkpt lat="46.32671" lon="5.32357">
        <ele>244.2</ele>
        <time>2022-05-24T11:20:03Z</time>
      </trkpt>
      <trkpt lat="46.32657" lon="5.32336">
        <ele>244</ele>
        <time>2022-05-24T11:20:06Z</time>
      </trkpt>
      <trkpt lat="46.32652" lon="5.32329">
        <ele>244</ele>
        <time>2022-05-24T11:20:07Z</time>
      </trkpt>
      <trkpt lat="46.32635" lon="5.32314">
        <ele>244</ele>
        <time>2022-05-24T11:20:10Z</time>
      </trkpt>
      <trkpt lat="46.32628" lon="5.3231">
        <ele>243.8</ele>
        <time>2022-05-24T11:20:11Z</time>
      </trkpt>
      <trkpt lat="46.32582" lon="5.32274">
        <ele>243.8</ele>
        <time>2022-05-24T11:20:19Z</time>
      </trkpt>
      <trkpt lat="46.32548" lon="5.32244">
        <ele>244.2</ele>
        <time>2022-05-24T11:20:25Z</time>
      </trkpt>
      <trkpt lat="46.32511" lon="5.32204">
        <ele>244</ele>
        <time>2022-05-24T11:20:32Z</time>
      </trkpt>
      <trkpt lat="46.32473" lon="5.3216">
        <ele>244.6</ele>
        <time>2022-05-24T11:20:40Z</time>
      </trkpt>
      <trkpt lat="46.32456" lon="5.32139">
        <ele>245</ele>
        <time>2022-05-24T11:20:44Z</time>
      </trkpt>
      <trkpt lat="46.32452" lon="5.32133">
        <ele>245</ele>
        <time>2022-05-24T11:20:45Z</time>
      </trkpt>
      <trkpt lat="46.32443" lon="5.32116">
        <ele>245</ele>
        <time>2022-05-24T11:20:47Z</time>
      </trkpt>
      <trkpt lat="46.32423" lon="5.32062">
        <ele>245.6</ele>
        <time>2022-05-24T11:20:54Z</time>
      </trkpt>
      <trkpt lat="46.32419" lon="5.32055">
        <ele>245.6</ele>
        <time>2022-05-24T11:20:55Z</time>
      </trkpt>
      <trkpt lat="46.32402" lon="5.32029">
        <ele>245.8</ele>
        <time>2022-05-24T11:20:59Z</time>
      </trkpt>
      <trkpt lat="46.32375" lon="5.31979">
        <ele>245.8</ele>
        <time>2022-05-24T11:21:06Z</time>
      </trkpt>
      <trkpt lat="46.32354" lon="5.31926">
        <ele>245.8</ele>
        <time>2022-05-24T11:21:12Z</time>
      </trkpt>
      <trkpt lat="46.32345" lon="5.31907">
        <ele>245.6</ele>
        <time>2022-05-24T11:21:14Z</time>
      </trkpt>
      <trkpt lat="46.32328" lon="5.31882">
        <ele>245.2</ele>
        <time>2022-05-24T11:21:17Z</time>
      </trkpt>
      <trkpt lat="46.32291" lon="5.31837">
        <ele>244</ele>
        <time>2022-05-24T11:21:23Z</time>
      </trkpt>
      <trkpt lat="46.32285" lon="5.31828">
        <ele>244</ele>
        <time>2022-05-24T11:21:24Z</time>
      </trkpt>
      <trkpt lat="46.32265" lon="5.31791">
        <ele>243.6</ele>
        <time>2022-05-24T11:21:28Z</time>
      </trkpt>
      <trkpt lat="46.32246" lon="5.31731">
        <ele>243.8</ele>
        <time>2022-05-24T11:21:34Z</time>
      </trkpt>
      <trkpt lat="46.32237" lon="5.31704">
        <ele>244</ele>
        <time>2022-05-24T11:21:37Z</time>
      </trkpt>
      <trkpt lat="46.32229" lon="5.31689">
        <ele>244.2</ele>
        <time>2022-05-24T11:21:39Z</time>
      </trkpt>
      <trkpt lat="46.32218" lon="5.3168">
        <ele>244.8</ele>
        <time>2022-05-24T11:21:41Z</time>
      </trkpt>
      <trkpt lat="46.32212" lon="5.31677">
        <ele>245</ele>
        <time>2022-05-24T11:21:42Z</time>
      </trkpt>
      <trkpt lat="46.32206" lon="5.31676">
        <ele>245.2</ele>
        <time>2022-05-24T11:21:43Z</time>
      </trkpt>
      <trkpt lat="46.32193" lon="5.31676">
        <ele>245.8</ele>
        <time>2022-05-24T11:21:45Z</time>
      </trkpt>
      <trkpt lat="46.32186" lon="5.31678">
        <ele>246</ele>
        <time>2022-05-24T11:21:46Z</time>
      </trkpt>
      <trkpt lat="46.3218" lon="5.3168">
        <ele>246.2</ele>
        <time>2022-05-24T11:21:47Z</time>
      </trkpt>
      <trkpt lat="46.3215" lon="5.31691">
        <ele>247.2</ele>
        <time>2022-05-24T11:21:52Z</time>
      </trkpt>
      <trkpt lat="46.32144" lon="5.31692">
        <ele>247.2</ele>
        <time>2022-05-24T11:21:53Z</time>
      </trkpt>
      <trkpt lat="46.32084" lon="5.31686">
        <ele>248.2</ele>
        <time>2022-05-24T11:22:01Z</time>
      </trkpt>
      <trkpt lat="46.32035" lon="5.31668">
        <ele>247.8</ele>
        <time>2022-05-24T11:22:08Z</time>
      </trkpt>
      <trkpt lat="46.31989" lon="5.3164">
        <ele>247.2</ele>
        <time>2022-05-24T11:22:15Z</time>
      </trkpt>
      <trkpt lat="46.31962" lon="5.31607">
        <ele>246.8</ele>
        <time>2022-05-24T11:22:20Z</time>
      </trkpt>
      <trkpt lat="46.31951" lon="5.31582">
        <ele>246.6</ele>
        <time>2022-05-24T11:22:23Z</time>
      </trkpt>
      <trkpt lat="46.31948" lon="5.31573">
        <ele>246.6</ele>
        <time>2022-05-24T11:22:24Z</time>
      </trkpt>
      <trkpt lat="46.31944" lon="5.31554">
        <ele>246.4</ele>
        <time>2022-05-24T11:22:26Z</time>
      </trkpt>
      <trkpt lat="46.31943" lon="5.31544">
        <ele>246.4</ele>
        <time>2022-05-24T11:22:27Z</time>
      </trkpt>
      <trkpt lat="46.31943" lon="5.31534">
        <ele>246.2</ele>
        <time>2022-05-24T11:22:28Z</time>
      </trkpt>
      <trkpt lat="46.31942" lon="5.31524">
        <ele>246.2</ele>
        <time>2022-05-24T11:22:29Z</time>
      </trkpt>
      <trkpt lat="46.31939" lon="5.31506">
        <ele>246.2</ele>
        <time>2022-05-24T11:22:31Z</time>
      </trkpt>
      <trkpt lat="46.31932" lon="5.31489">
        <ele>246.4</ele>
        <time>2022-05-24T11:22:33Z</time>
      </trkpt>
      <trkpt lat="46.31907" lon="5.31458">
        <ele>246.6</ele>
        <time>2022-05-24T11:22:38Z</time>
      </trkpt>
      <trkpt lat="46.31902" lon="5.31453">
        <ele>246.6</ele>
        <time>2022-05-24T11:22:39Z</time>
      </trkpt>
      <trkpt lat="46.3189" lon="5.31449">
        <ele>247</ele>
        <time>2022-05-24T11:22:41Z</time>
      </trkpt>
      <trkpt lat="46.31865" lon="5.31461">
        <ele>247.2</ele>
        <time>2022-05-24T11:22:45Z</time>
      </trkpt>
      <trkpt lat="46.31853" lon="5.31469">
        <ele>247.2</ele>
        <time>2022-05-24T11:22:47Z</time>
      </trkpt>
      <trkpt lat="46.31844" lon="5.31481">
        <ele>247.2</ele>
        <time>2022-05-24T11:22:49Z</time>
      </trkpt>
      <trkpt lat="46.31841" lon="5.3149">
        <ele>247.2</ele>
        <time>2022-05-24T11:22:50Z</time>
      </trkpt>
      <trkpt lat="46.31839" lon="5.31499">
        <ele>247.4</ele>
        <time>2022-05-24T11:22:51Z</time>
      </trkpt>
      <trkpt lat="46.31835" lon="5.31518">
        <ele>247.6</ele>
        <time>2022-05-24T11:22:53Z</time>
      </trkpt>
      <trkpt lat="46.3182" lon="5.31578">
        <ele>247.4</ele>
        <time>2022-05-24T11:22:59Z</time>
      </trkpt>
      <trkpt lat="46.31809" lon="5.31617">
        <ele>247</ele>
        <time>2022-05-24T11:23:03Z</time>
      </trkpt>
      <trkpt lat="46.31796" lon="5.31655">
        <ele>246.4</ele>
        <time>2022-05-24T11:23:07Z</time>
      </trkpt>
      <trkpt lat="46.31773" lon="5.31724">
        <ele>246</ele>
        <time>2022-05-24T11:23:14Z</time>
      </trkpt>
      <trkpt lat="46.31768" lon="5.31732">
        <ele>245.8</ele>
        <time>2022-05-24T11:23:15Z</time>
      </trkpt>
      <trkpt lat="46.31763" lon="5.3174">
        <ele>245.6</ele>
        <time>2022-05-24T11:23:16Z</time>
      </trkpt>
      <trkpt lat="46.31749" lon="5.31752">
        <ele>245.4</ele>
        <time>2022-05-24T11:23:18Z</time>
      </trkpt>
      <trkpt lat="46.31697" lon="5.31784">
        <ele>244.4</ele>
        <time>2022-05-24T11:23:25Z</time>
      </trkpt>
      <trkpt lat="46.31653" lon="5.31809">
        <ele>243.6</ele>
        <time>2022-05-24T11:23:31Z</time>
      </trkpt>
      <trkpt lat="46.31629" lon="5.31819">
        <ele>243.4</ele>
        <time>2022-05-24T11:23:34Z</time>
      </trkpt>
      <trkpt lat="46.31621" lon="5.31821">
        <ele>243.2</ele>
        <time>2022-05-24T11:23:35Z</time>
      </trkpt>
      <trkpt lat="46.31612" lon="5.31821">
        <ele>243.2</ele>
        <time>2022-05-24T11:23:36Z</time>
      </trkpt>
      <trkpt lat="46.31577" lon="5.31824">
        <ele>242.2</ele>
        <time>2022-05-24T11:23:40Z</time>
      </trkpt>
      <trkpt lat="46.31568" lon="5.31826">
        <ele>241.6</ele>
        <time>2022-05-24T11:23:41Z</time>
      </trkpt>
      <trkpt lat="46.3155" lon="5.31832">
        <ele>241</ele>
        <time>2022-05-24T11:23:43Z</time>
      </trkpt>
      <trkpt lat="46.31535" lon="5.31843">
        <ele>240.4</ele>
        <time>2022-05-24T11:23:45Z</time>
      </trkpt>
      <trkpt lat="46.31523" lon="5.31862">
        <ele>240.2</ele>
        <time>2022-05-24T11:23:47Z</time>
      </trkpt>
      <trkpt lat="46.31519" lon="5.31874">
        <ele>239.8</ele>
        <time>2022-05-24T11:23:48Z</time>
      </trkpt>
      <trkpt lat="46.31516" lon="5.31885">
        <ele>239.8</ele>
        <time>2022-05-24T11:23:49Z</time>
      </trkpt>
      <trkpt lat="46.31514" lon="5.3191">
        <ele>239.6</ele>
        <time>2022-05-24T11:23:51Z</time>
      </trkpt>
      <trkpt lat="46.31521" lon="5.31968">
        <ele>239.6</ele>
        <time>2022-05-24T11:23:56Z</time>
      </trkpt>
      <trkpt lat="46.31522" lon="5.32034">
        <ele>239.6</ele>
        <time>2022-05-24T11:24:02Z</time>
      </trkpt>
      <trkpt lat="46.31522" lon="5.3209">
        <ele>240.2</ele>
        <time>2022-05-24T11:24:08Z</time>
      </trkpt>
      <trkpt lat="46.31519" lon="5.32107">
        <ele>240.8</ele>
        <time>2022-05-24T11:24:10Z</time>
      </trkpt>
      <trkpt lat="46.31516" lon="5.32115">
        <ele>241.6</ele>
        <time>2022-05-24T11:24:12Z</time>
      </trkpt>
      <trkpt lat="46.31513" lon="5.32123">
        <ele>242</ele>
        <time>2022-05-24T11:24:13Z</time>
      </trkpt>
      <trkpt lat="46.31496" lon="5.32152">
        <ele>242.8</ele>
        <time>2022-05-24T11:24:16Z</time>
      </trkpt>
      <trkpt lat="46.31493" lon="5.3216">
        <ele>242.8</ele>
        <time>2022-05-24T11:24:17Z</time>
      </trkpt>
      <trkpt lat="46.31486" lon="5.32177">
        <ele>243</ele>
        <time>2022-05-24T11:24:19Z</time>
      </trkpt>
      <trkpt lat="46.31465" lon="5.32226">
        <ele>243.6</ele>
        <time>2022-05-24T11:24:25Z</time>
      </trkpt>
      <trkpt lat="46.3145" lon="5.32266">
        <ele>243.4</ele>
        <time>2022-05-24T11:24:29Z</time>
      </trkpt>
      <trkpt lat="46.31445" lon="5.32289">
        <ele>242.6</ele>
        <time>2022-05-24T11:24:31Z</time>
      </trkpt>
      <trkpt lat="46.31442" lon="5.32314">
        <ele>242.2</ele>
        <time>2022-05-24T11:24:33Z</time>
      </trkpt>
      <trkpt lat="46.31441" lon="5.32326">
        <ele>242</ele>
        <time>2022-05-24T11:24:34Z</time>
      </trkpt>
      <trkpt lat="46.31439" lon="5.32362">
        <ele>241</ele>
        <time>2022-05-24T11:24:37Z</time>
      </trkpt>
      <trkpt lat="46.31437" lon="5.32408">
        <ele>240.6</ele>
        <time>2022-05-24T11:24:41Z</time>
      </trkpt>
      <trkpt lat="46.31427" lon="5.32454">
        <ele>240.8</ele>
        <time>2022-05-24T11:24:46Z</time>
      </trkpt>
      <trkpt lat="46.31418" lon="5.3248">
        <ele>242.4</ele>
        <time>2022-05-24T11:24:50Z</time>
      </trkpt>
      <trkpt lat="46.31416" lon="5.32485">
        <ele>243.2</ele>
        <time>2022-05-24T11:24:51Z</time>
      </trkpt>
      <trkpt lat="46.31414" lon="5.32491">
        <ele>243.4</ele>
        <time>2022-05-24T11:24:52Z</time>
      </trkpt>
      <trkpt lat="46.3141" lon="5.32502">
        <ele>244.6</ele>
        <time>2022-05-24T11:24:54Z</time>
      </trkpt>
      <trkpt lat="46.31408" lon="5.32508">
        <ele>245.4</ele>
        <time>2022-05-24T11:24:55Z</time>
      </trkpt>
      <trkpt lat="46.31405" lon="5.32514">
        <ele>245.8</ele>
        <time>2022-05-24T11:24:56Z</time>
      </trkpt>
      <trkpt lat="46.31404" lon="5.32519">
        <ele>246.6</ele>
        <time>2022-05-24T11:24:57Z</time>
      </trkpt>
      <trkpt lat="46.31402" lon="5.32524">
        <ele>247.2</ele>
        <time>2022-05-24T11:24:58Z</time>
      </trkpt>
      <trkpt lat="46.31397" lon="5.32541">
        <ele>248.2</ele>
        <time>2022-05-24T11:25:01Z</time>
      </trkpt>
      <trkpt lat="46.31392" lon="5.32556">
        <ele>249.4</ele>
        <time>2022-05-24T11:25:04Z</time>
      </trkpt>
      <trkpt lat="46.3139" lon="5.32561">
        <ele>249.8</ele>
        <time>2022-05-24T11:25:05Z</time>
      </trkpt>
      <trkpt lat="46.31383" lon="5.32576">
        <ele>250.4</ele>
        <time>2022-05-24T11:25:08Z</time>
      </trkpt>
      <trkpt lat="46.31377" lon="5.32586">
        <ele>250.6</ele>
        <time>2022-05-24T11:25:10Z</time>
      </trkpt>
      <trkpt lat="46.3137" lon="5.32596">
        <ele>250.6</ele>
        <time>2022-05-24T11:25:12Z</time>
      </trkpt>
      <trkpt lat="46.31363" lon="5.3261">
        <ele>250.6</ele>
        <time>2022-05-24T11:25:14Z</time>
      </trkpt>
      <trkpt lat="46.31361" lon="5.32617">
        <ele>250.4</ele>
        <time>2022-05-24T11:25:15Z</time>
      </trkpt>
      <trkpt lat="46.3135" lon="5.32647">
        <ele>250</ele>
        <time>2022-05-24T11:25:19Z</time>
      </trkpt>
      <trkpt lat="46.31334" lon="5.3269">
        <ele>249.4</ele>
        <time>2022-05-24T11:25:24Z</time>
      </trkpt>
      <trkpt lat="46.31321" lon="5.32734">
        <ele>249</ele>
        <time>2022-05-24T11:25:29Z</time>
      </trkpt>
      <trkpt lat="46.31319" lon="5.32744">
        <ele>249</ele>
        <time>2022-05-24T11:25:30Z</time>
      </trkpt>
      <trkpt lat="46.31318" lon="5.32753">
        <ele>249</ele>
        <time>2022-05-24T11:25:31Z</time>
      </trkpt>
      <trkpt lat="46.31317" lon="5.32791">
        <ele>248.8</ele>
        <time>2022-05-24T11:25:35Z</time>
      </trkpt>
      <trkpt lat="46.31317" lon="5.32811">
        <ele>248.8</ele>
        <time>2022-05-24T11:25:37Z</time>
      </trkpt>
      <trkpt lat="46.31316" lon="5.32853">
        <ele>248.6</ele>
        <time>2022-05-24T11:25:42Z</time>
      </trkpt>
      <trkpt lat="46.31316" lon="5.32879">
        <ele>248.4</ele>
        <time>2022-05-24T11:25:44Z</time>
      </trkpt>
      <trkpt lat="46.31314" lon="5.329">
        <ele>248.2</ele>
        <time>2022-05-24T11:25:46Z</time>
      </trkpt>
      <trkpt lat="46.31309" lon="5.32918">
        <ele>248</ele>
        <time>2022-05-24T11:25:48Z</time>
      </trkpt>
      <trkpt lat="46.31304" lon="5.32928">
        <ele>247.8</ele>
        <time>2022-05-24T11:25:49Z</time>
      </trkpt>
      <trkpt lat="46.31293" lon="5.3295">
        <ele>247.6</ele>
        <time>2022-05-24T11:25:51Z</time>
      </trkpt>
      <trkpt lat="46.31282" lon="5.32978">
        <ele>247.2</ele>
        <time>2022-05-24T11:25:53Z</time>
      </trkpt>
      <trkpt lat="46.31276" lon="5.32991">
        <ele>247</ele>
        <time>2022-05-24T11:25:54Z</time>
      </trkpt>
      <trkpt lat="46.31261" lon="5.33019">
        <ele>245.8</ele>
        <time>2022-05-24T11:25:56Z</time>
      </trkpt>
      <trkpt lat="46.31248" lon="5.33044">
        <ele>244.8</ele>
        <time>2022-05-24T11:25:58Z</time>
      </trkpt>
      <trkpt lat="46.31236" lon="5.33068">
        <ele>243.6</ele>
        <time>2022-05-24T11:26:00Z</time>
      </trkpt>
      <trkpt lat="46.31219" lon="5.33102">
        <ele>242.2</ele>
        <time>2022-05-24T11:26:03Z</time>
      </trkpt>
      <trkpt lat="46.31208" lon="5.33126">
        <ele>241</ele>
        <time>2022-05-24T11:26:05Z</time>
      </trkpt>
      <trkpt lat="46.31196" lon="5.33152">
        <ele>240.4</ele>
        <time>2022-05-24T11:26:07Z</time>
      </trkpt>
      <trkpt lat="46.31177" lon="5.33195">
        <ele>239.4</ele>
        <time>2022-05-24T11:26:10Z</time>
      </trkpt>
      <trkpt lat="46.31164" lon="5.33225">
        <ele>238.2</ele>
        <time>2022-05-24T11:26:12Z</time>
      </trkpt>
      <trkpt lat="46.31152" lon="5.33254">
        <ele>237.2</ele>
        <time>2022-05-24T11:26:14Z</time>
      </trkpt>
      <trkpt lat="46.31149" lon="5.33269">
        <ele>235.8</ele>
        <time>2022-05-24T11:26:15Z</time>
      </trkpt>
      <trkpt lat="46.31148" lon="5.33285">
        <ele>234</ele>
        <time>2022-05-24T11:26:16Z</time>
      </trkpt>
      <trkpt lat="46.3115" lon="5.33315">
        <ele>232.4</ele>
        <time>2022-05-24T11:26:18Z</time>
      </trkpt>
      <trkpt lat="46.31144" lon="5.33338">
        <ele>231.6</ele>
        <time>2022-05-24T11:26:20Z</time>
      </trkpt>
      <trkpt lat="46.31131" lon="5.33353">
        <ele>231.4</ele>
        <time>2022-05-24T11:26:22Z</time>
      </trkpt>
      <trkpt lat="46.31123" lon="5.33357">
        <ele>231.4</ele>
        <time>2022-05-24T11:26:23Z</time>
      </trkpt>
      <trkpt lat="46.31108" lon="5.33365">
        <ele>231.8</ele>
        <time>2022-05-24T11:26:25Z</time>
      </trkpt>
      <trkpt lat="46.31099" lon="5.3338">
        <ele>232.2</ele>
        <time>2022-05-24T11:26:27Z</time>
      </trkpt>
      <trkpt lat="46.31099" lon="5.33401">
        <ele>232.2</ele>
        <time>2022-05-24T11:26:29Z</time>
      </trkpt>
      <trkpt lat="46.31112" lon="5.3347">
        <ele>232</ele>
        <time>2022-05-24T11:26:35Z</time>
      </trkpt>
      <trkpt lat="46.31127" lon="5.33551">
        <ele>231.6</ele>
        <time>2022-05-24T11:26:42Z</time>
      </trkpt>
      <trkpt lat="46.3114" lon="5.33614">
        <ele>232</ele>
        <time>2022-05-24T11:26:48Z</time>
      </trkpt>
      <trkpt lat="46.31136" lon="5.33631">
        <ele>232.4</ele>
        <time>2022-05-24T11:26:50Z</time>
      </trkpt>
      <trkpt lat="46.31124" lon="5.33648">
        <ele>232.6</ele>
        <time>2022-05-24T11:26:53Z</time>
      </trkpt>
      <trkpt lat="46.31117" lon="5.33647">
        <ele>232.8</ele>
        <time>2022-05-24T11:26:54Z</time>
      </trkpt>
      <trkpt lat="46.31099" lon="5.33648">
        <ele>233.6</ele>
        <time>2022-05-24T11:26:57Z</time>
      </trkpt>
      <trkpt lat="46.3108" lon="5.33649">
        <ele>234.4</ele>
        <time>2022-05-24T11:27:00Z</time>
      </trkpt>
      <trkpt lat="46.31074" lon="5.3365">
        <ele>234.8</ele>
        <time>2022-05-24T11:27:01Z</time>
      </trkpt>
      <trkpt lat="46.31061" lon="5.33651">
        <ele>235.4</ele>
        <time>2022-05-24T11:27:03Z</time>
      </trkpt>
      <trkpt lat="46.31048" lon="5.33652">
        <ele>235.8</ele>
        <time>2022-05-24T11:27:05Z</time>
      </trkpt>
      <trkpt lat="46.31035" lon="5.33654">
        <ele>236.2</ele>
        <time>2022-05-24T11:27:07Z</time>
      </trkpt>
      <trkpt lat="46.30993" lon="5.33668">
        <ele>236.8</ele>
        <time>2022-05-24T11:27:14Z</time>
      </trkpt>
      <trkpt lat="46.30987" lon="5.33671">
        <ele>236.8</ele>
        <time>2022-05-24T11:27:15Z</time>
      </trkpt>
      <trkpt lat="46.30937" lon="5.33693">
        <ele>237.2</ele>
        <time>2022-05-24T11:27:22Z</time>
      </trkpt>
      <trkpt lat="46.30888" lon="5.33718">
        <ele>237</ele>
        <time>2022-05-24T11:27:29Z</time>
      </trkpt>
      <trkpt lat="46.30843" lon="5.33754">
        <ele>236.8</ele>
        <time>2022-05-24T11:27:36Z</time>
      </trkpt>
      <trkpt lat="46.30817" lon="5.33792">
        <ele>236.8</ele>
        <time>2022-05-24T11:27:41Z</time>
      </trkpt>
      <trkpt lat="46.30774" lon="5.33853">
        <ele>237.2</ele>
        <time>2022-05-24T11:27:49Z</time>
      </trkpt>
      <trkpt lat="46.30756" lon="5.33875">
        <ele>236.8</ele>
        <time>2022-05-24T11:27:52Z</time>
      </trkpt>
      <trkpt lat="46.30749" lon="5.33879">
        <ele>236.6</ele>
        <time>2022-05-24T11:27:53Z</time>
      </trkpt>
      <trkpt lat="46.30741" lon="5.33879">
        <ele>236.2</ele>
        <time>2022-05-24T11:27:54Z</time>
      </trkpt>
      <trkpt lat="46.30734" lon="5.33876">
        <ele>236</ele>
        <time>2022-05-24T11:27:55Z</time>
      </trkpt>
      <trkpt lat="46.30728" lon="5.33872">
        <ele>235.4</ele>
        <time>2022-05-24T11:27:56Z</time>
      </trkpt>
      <trkpt lat="46.30701" lon="5.33846">
        <ele>234.6</ele>
        <time>2022-05-24T11:28:00Z</time>
      </trkpt>
      <trkpt lat="46.30695" lon="5.33839">
        <ele>234.6</ele>
        <time>2022-05-24T11:28:01Z</time>
      </trkpt>
      <trkpt lat="46.30682" lon="5.33824">
        <ele>234.4</ele>
        <time>2022-05-24T11:28:03Z</time>
      </trkpt>
      <trkpt lat="46.30671" lon="5.33808">
        <ele>234.4</ele>
        <time>2022-05-24T11:28:05Z</time>
      </trkpt>
      <trkpt lat="46.30662" lon="5.3379">
        <ele>234.4</ele>
        <time>2022-05-24T11:28:07Z</time>
      </trkpt>
      <trkpt lat="46.30644" lon="5.33745">
        <ele>235.2</ele>
        <time>2022-05-24T11:28:13Z</time>
      </trkpt>
      <trkpt lat="46.30632" lon="5.33713">
        <ele>235.8</ele>
        <time>2022-05-24T11:28:16Z</time>
      </trkpt>
      <trkpt lat="46.30623" lon="5.33699">
        <ele>236.2</ele>
        <time>2022-05-24T11:28:18Z</time>
      </trkpt>
      <trkpt lat="46.30613" lon="5.33687">
        <ele>236.8</ele>
        <time>2022-05-24T11:28:20Z</time>
      </trkpt>
      <trkpt lat="46.30597" lon="5.33674">
        <ele>237.4</ele>
        <time>2022-05-24T11:28:23Z</time>
      </trkpt>
      <trkpt lat="46.30581" lon="5.33664">
        <ele>238.2</ele>
        <time>2022-05-24T11:28:26Z</time>
      </trkpt>
      <trkpt lat="46.30575" lon="5.33661">
        <ele>238.4</ele>
        <time>2022-05-24T11:28:27Z</time>
      </trkpt>
      <trkpt lat="46.30565" lon="5.33655">
        <ele>238.8</ele>
        <time>2022-05-24T11:28:29Z</time>
      </trkpt>
      <trkpt lat="46.30554" lon="5.33652">
        <ele>239.2</ele>
        <time>2022-05-24T11:28:31Z</time>
      </trkpt>
      <trkpt lat="46.30549" lon="5.33652">
        <ele>239.2</ele>
        <time>2022-05-24T11:28:32Z</time>
      </trkpt>
      <trkpt lat="46.30544" lon="5.33654">
        <ele>239.6</ele>
        <time>2022-05-24T11:28:33Z</time>
      </trkpt>
      <trkpt lat="46.30538" lon="5.33656">
        <ele>239.8</ele>
        <time>2022-05-24T11:28:34Z</time>
      </trkpt>
      <trkpt lat="46.30527" lon="5.33661">
        <ele>240.4</ele>
        <time>2022-05-24T11:28:36Z</time>
      </trkpt>
      <trkpt lat="46.30511" lon="5.33669">
        <ele>240.8</ele>
        <time>2022-05-24T11:28:39Z</time>
      </trkpt>
      <trkpt lat="46.30504" lon="5.33672">
        <ele>240.8</ele>
        <time>2022-05-24T11:28:40Z</time>
      </trkpt>
      <trkpt lat="46.30484" lon="5.33676">
        <ele>240.8</ele>
        <time>2022-05-24T11:28:43Z</time>
      </trkpt>
      <trkpt lat="46.3046" lon="5.3368">
        <ele>240.6</ele>
        <time>2022-05-24T11:28:46Z</time>
      </trkpt>
      <trkpt lat="46.30452" lon="5.33683">
        <ele>240.4</ele>
        <time>2022-05-24T11:28:47Z</time>
      </trkpt>
      <trkpt lat="46.30426" lon="5.33692">
        <ele>238.6</ele>
        <time>2022-05-24T11:28:50Z</time>
      </trkpt>
      <trkpt lat="46.3041" lon="5.33699">
        <ele>237.4</ele>
        <time>2022-05-24T11:28:52Z</time>
      </trkpt>
      <trkpt lat="46.30387" lon="5.33709">
        <ele>237</ele>
        <time>2022-05-24T11:28:55Z</time>
      </trkpt>
      <trkpt lat="46.30333" lon="5.33737">
        <ele>237</ele>
        <time>2022-05-24T11:29:03Z</time>
      </trkpt>
      <trkpt lat="46.30284" lon="5.33762">
        <ele>237.2</ele>
        <time>2022-05-24T11:29:10Z</time>
      </trkpt>
      <trkpt lat="46.30239" lon="5.3378">
        <ele>237.2</ele>
        <time>2022-05-24T11:29:16Z</time>
      </trkpt>
      <trkpt lat="46.30206" lon="5.33783">
        <ele>237.2</ele>
        <time>2022-05-24T11:29:21Z</time>
      </trkpt>
      <trkpt lat="46.30194" lon="5.33782">
        <ele>237.4</ele>
        <time>2022-05-24T11:29:23Z</time>
      </trkpt>
      <trkpt lat="46.30179" lon="5.33782">
        <ele>237.6</ele>
        <time>2022-05-24T11:29:26Z</time>
      </trkpt>
      <trkpt lat="46.30169" lon="5.3378">
        <ele>238.6</ele>
        <time>2022-05-24T11:29:28Z</time>
      </trkpt>
      <trkpt lat="46.3016" lon="5.33778">
        <ele>239.4</ele>
        <time>2022-05-24T11:29:30Z</time>
      </trkpt>
      <trkpt lat="46.30155" lon="5.33777">
        <ele>240.2</ele>
        <time>2022-05-24T11:29:31Z</time>
      </trkpt>
      <trkpt lat="46.30146" lon="5.33776">
        <ele>241.2</ele>
        <time>2022-05-24T11:29:33Z</time>
      </trkpt>
      <trkpt lat="46.30141" lon="5.33775">
        <ele>241.6</ele>
        <time>2022-05-24T11:29:34Z</time>
      </trkpt>
      <trkpt lat="46.30117" lon="5.33772">
        <ele>242.8</ele>
        <time>2022-05-24T11:29:39Z</time>
      </trkpt>
      <trkpt lat="46.30108" lon="5.3377">
        <ele>243.2</ele>
        <time>2022-05-24T11:29:41Z</time>
      </trkpt>
      <trkpt lat="46.30097" lon="5.33768">
        <ele>243.8</ele>
        <time>2022-05-24T11:29:44Z</time>
      </trkpt>
      <trkpt lat="46.30092" lon="5.33768">
        <ele>244.4</ele>
        <time>2022-05-24T11:29:45Z</time>
      </trkpt>
      <trkpt lat="46.30086" lon="5.33767">
        <ele>245</ele>
        <time>2022-05-24T11:29:46Z</time>
      </trkpt>
      <trkpt lat="46.30078" lon="5.33765">
        <ele>245.6</ele>
        <time>2022-05-24T11:29:48Z</time>
      </trkpt>
      <trkpt lat="46.30061" lon="5.33763">
        <ele>246.8</ele>
        <time>2022-05-24T11:29:52Z</time>
      </trkpt>
      <trkpt lat="46.30047" lon="5.33763">
        <ele>247.6</ele>
        <time>2022-05-24T11:29:55Z</time>
      </trkpt>
      <trkpt lat="46.30038" lon="5.33764">
        <ele>248</ele>
        <time>2022-05-24T11:29:57Z</time>
      </trkpt>
      <trkpt lat="46.30011" lon="5.33768">
        <ele>249</ele>
        <time>2022-05-24T11:30:03Z</time>
      </trkpt>
      <trkpt lat="46.30002" lon="5.33768">
        <ele>249.4</ele>
        <time>2022-05-24T11:30:05Z</time>
      </trkpt>
      <trkpt lat="46.29993" lon="5.33765">
        <ele>250</ele>
        <time>2022-05-24T11:30:07Z</time>
      </trkpt>
      <trkpt lat="46.29969" lon="5.33755">
        <ele>250.4</ele>
        <time>2022-05-24T11:30:12Z</time>
      </trkpt>
      <trkpt lat="46.2995" lon="5.33747">
        <ele>251</ele>
        <time>2022-05-24T11:30:16Z</time>
      </trkpt>
      <trkpt lat="46.2994" lon="5.33746">
        <ele>251.4</ele>
        <time>2022-05-24T11:30:18Z</time>
      </trkpt>
      <trkpt lat="46.29936" lon="5.33745">
        <ele>251.6</ele>
        <time>2022-05-24T11:30:19Z</time>
      </trkpt>
      <trkpt lat="46.29922" lon="5.33743">
        <ele>252.4</ele>
        <time>2022-05-24T11:30:22Z</time>
      </trkpt>
      <trkpt lat="46.29903" lon="5.33743">
        <ele>252.6</ele>
        <time>2022-05-24T11:30:26Z</time>
      </trkpt>
      <trkpt lat="46.29875" lon="5.33743">
        <ele>253.6</ele>
        <time>2022-05-24T11:30:32Z</time>
      </trkpt>
      <trkpt lat="46.29865" lon="5.33744">
        <ele>253.8</ele>
        <time>2022-05-24T11:30:34Z</time>
      </trkpt>
      <trkpt lat="46.29842" lon="5.33747">
        <ele>254.8</ele>
        <time>2022-05-24T11:30:39Z</time>
      </trkpt>
      <trkpt lat="46.29821" lon="5.3375">
        <ele>255.6</ele>
        <time>2022-05-24T11:30:44Z</time>
      </trkpt>
      <trkpt lat="46.2981" lon="5.33751">
        <ele>256</ele>
        <time>2022-05-24T11:30:46Z</time>
      </trkpt>
      <trkpt lat="46.29781" lon="5.33755">
        <ele>256.8</ele>
        <time>2022-05-24T11:30:52Z</time>
      </trkpt>
      <trkpt lat="46.29761" lon="5.33755">
        <ele>257</ele>
        <time>2022-05-24T11:30:56Z</time>
      </trkpt>
      <trkpt lat="46.29741" lon="5.33752">
        <ele>257.4</ele>
        <time>2022-05-24T11:31:00Z</time>
      </trkpt>
      <trkpt lat="46.29703" lon="5.33749">
        <ele>257.8</ele>
        <time>2022-05-24T11:31:08Z</time>
      </trkpt>
      <trkpt lat="46.29688" lon="5.33749">
        <ele>258.2</ele>
        <time>2022-05-24T11:31:11Z</time>
      </trkpt>
      <trkpt lat="46.29659" lon="5.33748">
        <ele>259</ele>
        <time>2022-05-24T11:31:17Z</time>
      </trkpt>
      <trkpt lat="46.2965" lon="5.33748">
        <ele>259.4</ele>
        <time>2022-05-24T11:31:19Z</time>
      </trkpt>
      <trkpt lat="46.29617" lon="5.33749">
        <ele>260.2</ele>
        <time>2022-05-24T11:31:26Z</time>
      </trkpt>
      <trkpt lat="46.29607" lon="5.33749">
        <ele>260.6</ele>
        <time>2022-05-24T11:31:28Z</time>
      </trkpt>
      <trkpt lat="46.29593" lon="5.33749">
        <ele>261</ele>
        <time>2022-05-24T11:31:31Z</time>
      </trkpt>
      <trkpt lat="46.29583" lon="5.33748">
        <ele>261.8</ele>
        <time>2022-05-24T11:31:33Z</time>
      </trkpt>
      <trkpt lat="46.29573" lon="5.33746">
        <ele>262</ele>
        <time>2022-05-24T11:31:35Z</time>
      </trkpt>
      <trkpt lat="46.29563" lon="5.33744">
        <ele>262.2</ele>
        <time>2022-05-24T11:31:37Z</time>
      </trkpt>
      <trkpt lat="46.29544" lon="5.3374">
        <ele>262.6</ele>
        <time>2022-05-24T11:31:41Z</time>
      </trkpt>
      <trkpt lat="46.29537" lon="5.33738">
        <ele>262.8</ele>
        <time>2022-05-24T11:31:43Z</time>
      </trkpt>
      <trkpt lat="46.29511" lon="5.33731">
        <ele>264</ele>
        <time>2022-05-24T11:31:48Z</time>
      </trkpt>
      <trkpt lat="46.29507" lon="5.33731">
        <ele>264.2</ele>
        <time>2022-05-24T11:31:49Z</time>
      </trkpt>
      <trkpt lat="46.29474" lon="5.33726">
        <ele>265</ele>
        <time>2022-05-24T11:31:56Z</time>
      </trkpt>
      <trkpt lat="46.29465" lon="5.33725">
        <ele>265.2</ele>
        <time>2022-05-24T11:31:58Z</time>
      </trkpt>
      <trkpt lat="46.29441" lon="5.33726">
        <ele>266</ele>
        <time>2022-05-24T11:32:03Z</time>
      </trkpt>
      <trkpt lat="46.29413" lon="5.3373">
        <ele>266.8</ele>
        <time>2022-05-24T11:32:09Z</time>
      </trkpt>
      <trkpt lat="46.29389" lon="5.33735">
        <ele>267.2</ele>
        <time>2022-05-24T11:32:14Z</time>
      </trkpt>
      <trkpt lat="46.29364" lon="5.3374">
        <ele>268.4</ele>
        <time>2022-05-24T11:32:19Z</time>
      </trkpt>
      <trkpt lat="46.29359" lon="5.33741">
        <ele>268.6</ele>
        <time>2022-05-24T11:32:20Z</time>
      </trkpt>
      <trkpt lat="46.29349" lon="5.33744">
        <ele>268.8</ele>
        <time>2022-05-24T11:32:22Z</time>
      </trkpt>
      <trkpt lat="46.29333" lon="5.33747">
        <ele>269.2</ele>
        <time>2022-05-24T11:32:25Z</time>
      </trkpt>
      <trkpt lat="46.29294" lon="5.33757">
        <ele>269.4</ele>
        <time>2022-05-24T11:32:32Z</time>
      </trkpt>
      <trkpt lat="46.29289" lon="5.33759">
        <ele>269.6</ele>
        <time>2022-05-24T11:32:33Z</time>
      </trkpt>
      <trkpt lat="46.29273" lon="5.33768">
        <ele>269.8</ele>
        <time>2022-05-24T11:32:36Z</time>
      </trkpt>
      <trkpt lat="46.29264" lon="5.33775">
        <ele>269.8</ele>
        <time>2022-05-24T11:32:38Z</time>
      </trkpt>
      <trkpt lat="46.29251" lon="5.33786">
        <ele>270</ele>
        <time>2022-05-24T11:32:41Z</time>
      </trkpt>
      <trkpt lat="46.29242" lon="5.33794">
        <ele>270.2</ele>
        <time>2022-05-24T11:32:43Z</time>
      </trkpt>
      <trkpt lat="46.29234" lon="5.338">
        <ele>270.8</ele>
        <time>2022-05-24T11:32:45Z</time>
      </trkpt>
      <trkpt lat="46.29225" lon="5.33808">
        <ele>271</ele>
        <time>2022-05-24T11:32:47Z</time>
      </trkpt>
      <trkpt lat="46.29216" lon="5.33816">
        <ele>271.4</ele>
        <time>2022-05-24T11:32:49Z</time>
      </trkpt>
      <trkpt lat="46.29206" lon="5.33827">
        <ele>271.8</ele>
        <time>2022-05-24T11:32:51Z</time>
      </trkpt>
      <trkpt lat="46.29186" lon="5.33841">
        <ele>272</ele>
        <time>2022-05-24T11:32:55Z</time>
      </trkpt>
      <trkpt lat="46.2915" lon="5.3386">
        <ele>272.6</ele>
        <time>2022-05-24T11:33:01Z</time>
      </trkpt>
      <trkpt lat="46.29138" lon="5.33866">
        <ele>272.8</ele>
        <time>2022-05-24T11:33:03Z</time>
      </trkpt>
      <trkpt lat="46.2911" lon="5.33874">
        <ele>273</ele>
        <time>2022-05-24T11:33:08Z</time>
      </trkpt>
      <trkpt lat="46.29061" lon="5.33891">
        <ele>274</ele>
        <time>2022-05-24T11:33:17Z</time>
      </trkpt>
      <trkpt lat="46.29045" lon="5.33896">
        <ele>274.2</ele>
        <time>2022-05-24T11:33:20Z</time>
      </trkpt>
      <trkpt lat="46.29006" lon="5.339">
        <ele>274.6</ele>
        <time>2022-05-24T11:33:27Z</time>
      </trkpt>
      <trkpt lat="46.28978" lon="5.33902">
        <ele>275</ele>
        <time>2022-05-24T11:33:32Z</time>
      </trkpt>
      <trkpt lat="46.28943" lon="5.33904">
        <ele>275.2</ele>
        <time>2022-05-24T11:33:38Z</time>
      </trkpt>
      <trkpt lat="46.28902" lon="5.33911">
        <ele>275.6</ele>
        <time>2022-05-24T11:33:45Z</time>
      </trkpt>
      <trkpt lat="46.28864" lon="5.33926">
        <ele>275.6</ele>
        <time>2022-05-24T11:33:51Z</time>
      </trkpt>
      <trkpt lat="46.28824" lon="5.33953">
        <ele>275</ele>
        <time>2022-05-24T11:33:57Z</time>
      </trkpt>
      <trkpt lat="46.28788" lon="5.33979">
        <ele>273.8</ele>
        <time>2022-05-24T11:34:02Z</time>
      </trkpt>
      <trkpt lat="46.28773" lon="5.33989">
        <ele>273.2</ele>
        <time>2022-05-24T11:34:04Z</time>
      </trkpt>
      <trkpt lat="46.28745" lon="5.34009">
        <ele>272.6</ele>
        <time>2022-05-24T11:34:08Z</time>
      </trkpt>
      <trkpt lat="46.28724" lon="5.34022">
        <ele>272.4</ele>
        <time>2022-05-24T11:34:11Z</time>
      </trkpt>
      <trkpt lat="46.28701" lon="5.3404">
        <ele>272.2</ele>
        <time>2022-05-24T11:34:15Z</time>
      </trkpt>
      <trkpt lat="46.28667" lon="5.34064">
        <ele>272.8</ele>
        <time>2022-05-24T11:34:20Z</time>
      </trkpt>
      <trkpt lat="46.28634" lon="5.34088">
        <ele>273.4</ele>
        <time>2022-05-24T11:34:26Z</time>
      </trkpt>
      <trkpt lat="46.28613" lon="5.34104">
        <ele>274.2</ele>
        <time>2022-05-24T11:34:30Z</time>
      </trkpt>
      <trkpt lat="46.28598" lon="5.34115">
        <ele>274.4</ele>
        <time>2022-05-24T11:34:33Z</time>
      </trkpt>
      <trkpt lat="46.28593" lon="5.3412">
        <ele>274.6</ele>
        <time>2022-05-24T11:34:34Z</time>
      </trkpt>
      <trkpt lat="46.28568" lon="5.34142">
        <ele>274.8</ele>
        <time>2022-05-24T11:34:39Z</time>
      </trkpt>
      <trkpt lat="46.28557" lon="5.3415">
        <ele>275</ele>
        <time>2022-05-24T11:34:41Z</time>
      </trkpt>
      <trkpt lat="46.28543" lon="5.3416">
        <ele>275</ele>
        <time>2022-05-24T11:34:44Z</time>
      </trkpt>
      <trkpt lat="46.28535" lon="5.34164">
        <ele>275</ele>
        <time>2022-05-24T11:34:46Z</time>
      </trkpt>
      <trkpt lat="46.28531" lon="5.34163">
        <ele>275</ele>
        <time>2022-05-24T11:34:47Z</time>
      </trkpt>
      <trkpt lat="46.28528" lon="5.3416">
        <ele>275</ele>
        <time>2022-05-24T11:34:48Z</time>
      </trkpt>
      <trkpt lat="46.28515" lon="5.34145">
        <ele>275.2</ele>
        <time>2022-05-24T11:34:51Z</time>
      </trkpt>
      <trkpt lat="46.2849" lon="5.34111">
        <ele>274.8</ele>
        <time>2022-05-24T11:34:56Z</time>
      </trkpt>
      <trkpt lat="46.28457" lon="5.34065">
        <ele>274.8</ele>
        <time>2022-05-24T11:35:03Z</time>
      </trkpt>
      <trkpt lat="46.28423" lon="5.34021">
        <ele>275.2</ele>
        <time>2022-05-24T11:35:10Z</time>
      </trkpt>
      <trkpt lat="46.28418" lon="5.34015">
        <ele>275.4</ele>
        <time>2022-05-24T11:35:12Z</time>
      </trkpt>
      <trkpt lat="46.28378" lon="5.33962">
        <ele>275.8</ele>
        <time>2022-05-24T11:35:19Z</time>
      </trkpt>
      <trkpt lat="46.28374" lon="5.33957">
        <ele>275.8</ele>
        <time>2022-05-24T11:35:20Z</time>
      </trkpt>
      <trkpt lat="46.28335" lon="5.33905">
        <ele>275.2</ele>
        <time>2022-05-24T11:35:28Z</time>
      </trkpt>
      <trkpt lat="46.28291" lon="5.3385">
        <ele>275.8</ele>
        <time>2022-05-24T11:35:37Z</time>
      </trkpt>
      <trkpt lat="46.28281" lon="5.33837">
        <ele>276</ele>
        <time>2022-05-24T11:35:39Z</time>
      </trkpt>
      <trkpt lat="46.28238" lon="5.33779">
        <ele>274.2</ele>
        <time>2022-05-24T11:35:48Z</time>
      </trkpt>
      <trkpt lat="46.28234" lon="5.33773">
        <ele>274</ele>
        <time>2022-05-24T11:35:49Z</time>
      </trkpt>
      <trkpt lat="46.28198" lon="5.33725">
        <ele>273.6</ele>
        <time>2022-05-24T11:35:56Z</time>
      </trkpt>
      <trkpt lat="46.28178" lon="5.33697">
        <ele>273.2</ele>
        <time>2022-05-24T11:36:01Z</time>
      </trkpt>
      <trkpt lat="46.28168" lon="5.33693">
        <ele>272.8</ele>
        <time>2022-05-24T11:36:03Z</time>
      </trkpt>
      <trkpt lat="46.28154" lon="5.33688">
        <ele>272.6</ele>
        <time>2022-05-24T11:36:05Z</time>
      </trkpt>
      <trkpt lat="46.2811" lon="5.33668">
        <ele>272.2</ele>
        <time>2022-05-24T11:36:11Z</time>
      </trkpt>
      <trkpt lat="46.28092" lon="5.33659">
        <ele>271.8</ele>
        <time>2022-05-24T11:36:14Z</time>
      </trkpt>
      <trkpt lat="46.28059" lon="5.33645">
        <ele>271.4</ele>
        <time>2022-05-24T11:36:18Z</time>
      </trkpt>
      <trkpt lat="46.28" lon="5.33619">
        <ele>271.6</ele>
        <time>2022-05-24T11:36:26Z</time>
      </trkpt>
      <trkpt lat="46.27963" lon="5.33602">
        <ele>271.6</ele>
        <time>2022-05-24T11:36:31Z</time>
      </trkpt>
      <trkpt lat="46.27956" lon="5.33598">
        <ele>271.4</ele>
        <time>2022-05-24T11:36:32Z</time>
      </trkpt>
      <trkpt lat="46.27903" lon="5.33573">
        <ele>271.6</ele>
        <time>2022-05-24T11:36:39Z</time>
      </trkpt>
      <trkpt lat="46.27888" lon="5.33566">
        <ele>271.6</ele>
        <time>2022-05-24T11:36:41Z</time>
      </trkpt>
      <trkpt lat="46.27834" lon="5.33542">
        <ele>272</ele>
        <time>2022-05-24T11:36:48Z</time>
      </trkpt>
      <trkpt lat="46.27811" lon="5.3353">
        <ele>272</ele>
        <time>2022-05-24T11:36:51Z</time>
      </trkpt>
      <trkpt lat="46.27797" lon="5.33517">
        <ele>271.8</ele>
        <time>2022-05-24T11:36:53Z</time>
      </trkpt>
      <trkpt lat="46.27764" lon="5.33466">
        <ele>271.4</ele>
        <time>2022-05-24T11:36:59Z</time>
      </trkpt>
      <trkpt lat="46.27726" lon="5.3341">
        <ele>271.4</ele>
        <time>2022-05-24T11:37:06Z</time>
      </trkpt>
      <trkpt lat="46.27693" lon="5.33379">
        <ele>271.2</ele>
        <time>2022-05-24T11:37:11Z</time>
      </trkpt>
      <trkpt lat="46.27658" lon="5.33359">
        <ele>271.4</ele>
        <time>2022-05-24T11:37:16Z</time>
      </trkpt>
      <trkpt lat="46.27643" lon="5.33355">
        <ele>271.4</ele>
        <time>2022-05-24T11:37:18Z</time>
      </trkpt>
      <trkpt lat="46.27627" lon="5.33349">
        <ele>271.4</ele>
        <time>2022-05-24T11:37:20Z</time>
      </trkpt>
      <trkpt lat="46.27606" lon="5.33335">
        <ele>271.4</ele>
        <time>2022-05-24T11:37:23Z</time>
      </trkpt>
      <trkpt lat="46.27563" lon="5.33288">
        <ele>271</ele>
        <time>2022-05-24T11:37:30Z</time>
      </trkpt>
      <trkpt lat="46.27517" lon="5.33231">
        <ele>271.4</ele>
        <time>2022-05-24T11:37:38Z</time>
      </trkpt>
      <trkpt lat="46.27511" lon="5.33223">
        <ele>271.4</ele>
        <time>2022-05-24T11:37:39Z</time>
      </trkpt>
      <trkpt lat="46.27482" lon="5.33173">
        <ele>271.4</ele>
        <time>2022-05-24T11:37:45Z</time>
      </trkpt>
      <trkpt lat="46.2747" lon="5.33145">
        <ele>271.2</ele>
        <time>2022-05-24T11:37:48Z</time>
      </trkpt>
      <trkpt lat="46.2744" lon="5.33082">
        <ele>270.4</ele>
        <time>2022-05-24T11:37:55Z</time>
      </trkpt>
      <trkpt lat="46.27428" lon="5.33055">
        <ele>270</ele>
        <time>2022-05-24T11:37:58Z</time>
      </trkpt>
      <trkpt lat="46.27405" lon="5.33009">
        <ele>269.4</ele>
        <time>2022-05-24T11:38:03Z</time>
      </trkpt>
      <trkpt lat="46.27397" lon="5.3299">
        <ele>269.2</ele>
        <time>2022-05-24T11:38:05Z</time>
      </trkpt>
      <trkpt lat="46.27394" lon="5.3298">
        <ele>268.8</ele>
        <time>2022-05-24T11:38:06Z</time>
      </trkpt>
      <trkpt lat="46.27391" lon="5.32969">
        <ele>268.8</ele>
        <time>2022-05-24T11:38:07Z</time>
      </trkpt>
      <trkpt lat="46.27374" lon="5.32908">
        <ele>267.8</ele>
        <time>2022-05-24T11:38:13Z</time>
      </trkpt>
      <trkpt lat="46.27367" lon="5.32891">
        <ele>267.4</ele>
        <time>2022-05-24T11:38:15Z</time>
      </trkpt>
      <trkpt lat="46.27356" lon="5.32879">
        <ele>267.2</ele>
        <time>2022-05-24T11:38:17Z</time>
      </trkpt>
      <trkpt lat="46.2735" lon="5.32875">
        <ele>267.2</ele>
        <time>2022-05-24T11:38:18Z</time>
      </trkpt>
      <trkpt lat="46.27343" lon="5.32873">
        <ele>267.2</ele>
        <time>2022-05-24T11:38:19Z</time>
      </trkpt>
      <trkpt lat="46.27318" lon="5.32868">
        <ele>266.8</ele>
        <time>2022-05-24T11:38:22Z</time>
      </trkpt>
      <trkpt lat="46.27301" lon="5.32864">
        <ele>266.4</ele>
        <time>2022-05-24T11:38:24Z</time>
      </trkpt>
      <trkpt lat="46.27259" lon="5.32858">
        <ele>265.4</ele>
        <time>2022-05-24T11:38:29Z</time>
      </trkpt>
      <trkpt lat="46.27251" lon="5.32858">
        <ele>265.4</ele>
        <time>2022-05-24T11:38:30Z</time>
      </trkpt>
      <trkpt lat="46.27234" lon="5.32865">
        <ele>265</ele>
        <time>2022-05-24T11:38:32Z</time>
      </trkpt>
      <trkpt lat="46.27215" lon="5.32891">
        <ele>264.6</ele>
        <time>2022-05-24T11:38:35Z</time>
      </trkpt>
      <trkpt lat="46.27208" lon="5.329">
        <ele>264.2</ele>
        <time>2022-05-24T11:38:36Z</time>
      </trkpt>
      <trkpt lat="46.27177" lon="5.32944">
        <ele>263.4</ele>
        <time>2022-05-24T11:38:41Z</time>
      </trkpt>
      <trkpt lat="46.2717" lon="5.32958">
        <ele>263.2</ele>
        <time>2022-05-24T11:38:43Z</time>
      </trkpt>
      <trkpt lat="46.2714" lon="5.33015">
        <ele>262.6</ele>
        <time>2022-05-24T11:38:48Z</time>
      </trkpt>
      <trkpt lat="46.27127" lon="5.33041">
        <ele>262.2</ele>
        <time>2022-05-24T11:38:50Z</time>
      </trkpt>
      <trkpt lat="46.27102" lon="5.33091">
        <ele>261</ele>
        <time>2022-05-24T11:38:54Z</time>
      </trkpt>
      <trkpt lat="46.27096" lon="5.33103">
        <ele>260.6</ele>
        <time>2022-05-24T11:38:55Z</time>
      </trkpt>
      <trkpt lat="46.27089" lon="5.33116">
        <ele>260</ele>
        <time>2022-05-24T11:38:56Z</time>
      </trkpt>
      <trkpt lat="46.27076" lon="5.33142">
        <ele>258.8</ele>
        <time>2022-05-24T11:38:58Z</time>
      </trkpt>
      <trkpt lat="46.27068" lon="5.33155">
        <ele>257.6</ele>
        <time>2022-05-24T11:38:59Z</time>
      </trkpt>
      <trkpt lat="46.27059" lon="5.33166">
        <ele>257.4</ele>
        <time>2022-05-24T11:39:00Z</time>
      </trkpt>
      <trkpt lat="46.2705" lon="5.33172">
        <ele>256.4</ele>
        <time>2022-05-24T11:39:01Z</time>
      </trkpt>
      <trkpt lat="46.27025" lon="5.33183">
        <ele>255.2</ele>
        <time>2022-05-24T11:39:03Z</time>
      </trkpt>
      <trkpt lat="46.27002" lon="5.33191">
        <ele>254</ele>
        <time>2022-05-24T11:39:05Z</time>
      </trkpt>
      <trkpt lat="46.26969" lon="5.33203">
        <ele>252.2</ele>
        <time>2022-05-24T11:39:08Z</time>
      </trkpt>
      <trkpt lat="46.26949" lon="5.3321">
        <ele>251.6</ele>
        <time>2022-05-24T11:39:10Z</time>
      </trkpt>
      <trkpt lat="46.26891" lon="5.33233">
        <ele>251.2</ele>
        <time>2022-05-24T11:39:16Z</time>
      </trkpt>
      <trkpt lat="46.26882" lon="5.33237">
        <ele>251.2</ele>
        <time>2022-05-24T11:39:17Z</time>
      </trkpt>
      <trkpt lat="46.26841" lon="5.33253">
        <ele>251.4</ele>
        <time>2022-05-24T11:39:22Z</time>
      </trkpt>
      <trkpt lat="46.268" lon="5.33269">
        <ele>253</ele>
        <time>2022-05-24T11:39:28Z</time>
      </trkpt>
      <trkpt lat="46.26794" lon="5.33272">
        <ele>253.4</ele>
        <time>2022-05-24T11:39:29Z</time>
      </trkpt>
      <trkpt lat="46.26775" lon="5.33278">
        <ele>254.6</ele>
        <time>2022-05-24T11:39:32Z</time>
      </trkpt>
      <trkpt lat="46.26767" lon="5.33281">
        <ele>254.8</ele>
        <time>2022-05-24T11:39:33Z</time>
      </trkpt>
      <trkpt lat="46.26741" lon="5.33291">
        <ele>256</ele>
        <time>2022-05-24T11:39:37Z</time>
      </trkpt>
      <trkpt lat="46.26722" lon="5.33297">
        <ele>256.6</ele>
        <time>2022-05-24T11:39:40Z</time>
      </trkpt>
      <trkpt lat="46.2671" lon="5.333">
        <ele>256.8</ele>
        <time>2022-05-24T11:39:42Z</time>
      </trkpt>
      <trkpt lat="46.26705" lon="5.333">
        <ele>257</ele>
        <time>2022-05-24T11:39:43Z</time>
      </trkpt>
      <trkpt lat="46.267" lon="5.33298">
        <ele>257.4</ele>
        <time>2022-05-24T11:39:44Z</time>
      </trkpt>
      <trkpt lat="46.26692" lon="5.3329">
        <ele>258</ele>
        <time>2022-05-24T11:39:46Z</time>
      </trkpt>
      <trkpt lat="46.26688" lon="5.33284">
        <ele>258</ele>
        <time>2022-05-24T11:39:47Z</time>
      </trkpt>
      <trkpt lat="46.26684" lon="5.33278">
        <ele>258.2</ele>
        <time>2022-05-24T11:39:48Z</time>
      </trkpt>
      <trkpt lat="46.26668" lon="5.33253">
        <ele>258.2</ele>
        <time>2022-05-24T11:39:52Z</time>
      </trkpt>
      <trkpt lat="46.26656" lon="5.33237">
        <ele>258.2</ele>
        <time>2022-05-24T11:39:54Z</time>
      </trkpt>
      <trkpt lat="46.26649" lon="5.3323">
        <ele>258</ele>
        <time>2022-05-24T11:39:55Z</time>
      </trkpt>
      <trkpt lat="46.26643" lon="5.33226">
        <ele>257.8</ele>
        <time>2022-05-24T11:39:56Z</time>
      </trkpt>
      <trkpt lat="46.26625" lon="5.33221">
        <ele>257.4</ele>
        <time>2022-05-24T11:39:58Z</time>
      </trkpt>
      <trkpt lat="46.26609" lon="5.33217">
        <ele>257.2</ele>
        <time>2022-05-24T11:40:00Z</time>
      </trkpt>
      <trkpt lat="46.26576" lon="5.33211">
        <ele>256.2</ele>
        <time>2022-05-24T11:40:04Z</time>
      </trkpt>
      <trkpt lat="46.26558" lon="5.33209">
        <ele>256</ele>
        <time>2022-05-24T11:40:06Z</time>
      </trkpt>
      <trkpt lat="46.26539" lon="5.33208">
        <ele>255.4</ele>
        <time>2022-05-24T11:40:08Z</time>
      </trkpt>
      <trkpt lat="46.2653" lon="5.33207">
        <ele>255.2</ele>
        <time>2022-05-24T11:40:09Z</time>
      </trkpt>
      <trkpt lat="46.26521" lon="5.33207">
        <ele>255</ele>
        <time>2022-05-24T11:40:10Z</time>
      </trkpt>
      <trkpt lat="46.26513" lon="5.33206">
        <ele>254.6</ele>
        <time>2022-05-24T11:40:11Z</time>
      </trkpt>
      <trkpt lat="46.26506" lon="5.33202">
        <ele>254.6</ele>
        <time>2022-05-24T11:40:12Z</time>
      </trkpt>
      <trkpt lat="46.26499" lon="5.33195">
        <ele>254.2</ele>
        <time>2022-05-24T11:40:13Z</time>
      </trkpt>
      <trkpt lat="46.2649" lon="5.33174">
        <ele>253.8</ele>
        <time>2022-05-24T11:40:15Z</time>
      </trkpt>
      <trkpt lat="46.26465" lon="5.33108">
        <ele>252.8</ele>
        <time>2022-05-24T11:40:21Z</time>
      </trkpt>
      <trkpt lat="46.26447" lon="5.33057">
        <ele>252.6</ele>
        <time>2022-05-24T11:40:26Z</time>
      </trkpt>
      <trkpt lat="46.26444" lon="5.33047">
        <ele>252.8</ele>
        <time>2022-05-24T11:40:27Z</time>
      </trkpt>
      <trkpt lat="46.26439" lon="5.33017">
        <ele>253</ele>
        <time>2022-05-24T11:40:30Z</time>
      </trkpt>
      <trkpt lat="46.26436" lon="5.32988">
        <ele>253.4</ele>
        <time>2022-05-24T11:40:33Z</time>
      </trkpt>
      <trkpt lat="46.26435" lon="5.32981">
        <ele>253.8</ele>
        <time>2022-05-24T11:40:34Z</time>
      </trkpt>
      <trkpt lat="46.26434" lon="5.32974">
        <ele>254.2</ele>
        <time>2022-05-24T11:40:35Z</time>
      </trkpt>
      <trkpt lat="46.26428" lon="5.32954">
        <ele>255</ele>
        <time>2022-05-24T11:40:38Z</time>
      </trkpt>
      <trkpt lat="46.26426" lon="5.32948">
        <ele>255.4</ele>
        <time>2022-05-24T11:40:39Z</time>
      </trkpt>
      <trkpt lat="46.26423" lon="5.32942">
        <ele>255.6</ele>
        <time>2022-05-24T11:40:40Z</time>
      </trkpt>
      <trkpt lat="46.26418" lon="5.32932">
        <ele>256.6</ele>
        <time>2022-05-24T11:40:42Z</time>
      </trkpt>
      <trkpt lat="46.26405" lon="5.32911">
        <ele>257.8</ele>
        <time>2022-05-24T11:40:46Z</time>
      </trkpt>
      <trkpt lat="46.26395" lon="5.32888">
        <ele>258.8</ele>
        <time>2022-05-24T11:40:51Z</time>
      </trkpt>
      <trkpt lat="46.26388" lon="5.32864">
        <ele>260.2</ele>
        <time>2022-05-24T11:40:55Z</time>
      </trkpt>
      <trkpt lat="46.26385" lon="5.32854">
        <ele>260.6</ele>
        <time>2022-05-24T11:40:57Z</time>
      </trkpt>
      <trkpt lat="46.26383" lon="5.32849">
        <ele>261.2</ele>
        <time>2022-05-24T11:40:58Z</time>
      </trkpt>
      <trkpt lat="46.26376" lon="5.32829">
        <ele>262.6</ele>
        <time>2022-05-24T11:41:02Z</time>
      </trkpt>
      <trkpt lat="46.26372" lon="5.32818">
        <ele>263</ele>
        <time>2022-05-24T11:41:04Z</time>
      </trkpt>
      <trkpt lat="46.26366" lon="5.32801">
        <ele>263.6</ele>
        <time>2022-05-24T11:41:07Z</time>
      </trkpt>
      <trkpt lat="46.26351" lon="5.32772">
        <ele>264.6</ele>
        <time>2022-05-24T11:41:13Z</time>
      </trkpt>
      <trkpt lat="46.26348" lon="5.32768">
        <ele>264.8</ele>
        <time>2022-05-24T11:41:14Z</time>
      </trkpt>
      <trkpt lat="46.26335" lon="5.32749">
        <ele>265.6</ele>
        <time>2022-05-24T11:41:18Z</time>
      </trkpt>
      <trkpt lat="46.26332" lon="5.32745">
        <ele>265.8</ele>
        <time>2022-05-24T11:41:19Z</time>
      </trkpt>
      <trkpt lat="46.26324" lon="5.32736">
        <ele>266</ele>
        <time>2022-05-24T11:41:21Z</time>
      </trkpt>
      <trkpt lat="46.26316" lon="5.32732">
        <ele>266.2</ele>
        <time>2022-05-24T11:41:23Z</time>
      </trkpt>
      <trkpt lat="46.26305" lon="5.32733">
        <ele>266.2</ele>
        <time>2022-05-24T11:41:25Z</time>
      </trkpt>
      <trkpt lat="46.26294" lon="5.32737">
        <ele>266.4</ele>
        <time>2022-05-24T11:41:27Z</time>
      </trkpt>
      <trkpt lat="46.26283" lon="5.3274">
        <ele>266.6</ele>
        <time>2022-05-24T11:41:29Z</time>
      </trkpt>
      <trkpt lat="46.26267" lon="5.32741">
        <ele>266.6</ele>
        <time>2022-05-24T11:41:32Z</time>
      </trkpt>
      <trkpt lat="46.2625" lon="5.32741">
        <ele>266.8</ele>
        <time>2022-05-24T11:41:35Z</time>
      </trkpt>
      <trkpt lat="46.26238" lon="5.3274">
        <ele>266.8</ele>
        <time>2022-05-24T11:41:37Z</time>
      </trkpt>
      <trkpt lat="46.26221" lon="5.3274">
        <ele>267</ele>
        <time>2022-05-24T11:41:40Z</time>
      </trkpt>
      <trkpt lat="46.26175" lon="5.32743">
        <ele>267.6</ele>
        <time>2022-05-24T11:41:48Z</time>
      </trkpt>
      <trkpt lat="46.26163" lon="5.32745">
        <ele>267.8</ele>
        <time>2022-05-24T11:41:50Z</time>
      </trkpt>
      <trkpt lat="46.26116" lon="5.32752">
        <ele>268.4</ele>
        <time>2022-05-24T11:41:58Z</time>
      </trkpt>
      <trkpt lat="46.26078" lon="5.3276">
        <ele>268.8</ele>
        <time>2022-05-24T11:42:04Z</time>
      </trkpt>
      <trkpt lat="46.26042" lon="5.32772">
        <ele>268.8</ele>
        <time>2022-05-24T11:42:10Z</time>
      </trkpt>
      <trkpt lat="46.26036" lon="5.32775">
        <ele>269</ele>
        <time>2022-05-24T11:42:11Z</time>
      </trkpt>
      <trkpt lat="46.26001" lon="5.32794">
        <ele>270</ele>
        <time>2022-05-24T11:42:17Z</time>
      </trkpt>
      <trkpt lat="46.25978" lon="5.32808">
        <ele>270.4</ele>
        <time>2022-05-24T11:42:21Z</time>
      </trkpt>
      <trkpt lat="46.25972" lon="5.32812">
        <ele>270.6</ele>
        <time>2022-05-24T11:42:22Z</time>
      </trkpt>
      <trkpt lat="46.25924" lon="5.32845">
        <ele>271</ele>
        <time>2022-05-24T11:42:31Z</time>
      </trkpt>
      <trkpt lat="46.25919" lon="5.32848">
        <ele>271</ele>
        <time>2022-05-24T11:42:32Z</time>
      </trkpt>
      <trkpt lat="46.25908" lon="5.32853">
        <ele>271</ele>
        <time>2022-05-24T11:42:35Z</time>
      </trkpt>
      <trkpt lat="46.25904" lon="5.32858">
        <ele>271</ele>
        <time>2022-05-24T11:42:36Z</time>
      </trkpt>
      <trkpt lat="46.25897" lon="5.32869">
        <ele>270.8</ele>
        <time>2022-05-24T11:42:38Z</time>
      </trkpt>
      <trkpt lat="46.25893" lon="5.32873">
        <ele>270.8</ele>
        <time>2022-05-24T11:42:39Z</time>
      </trkpt>
      <trkpt lat="46.25866" lon="5.32897">
        <ele>270.6</ele>
        <time>2022-05-24T11:42:44Z</time>
      </trkpt>
      <trkpt lat="46.25861" lon="5.32902">
        <ele>270.6</ele>
        <time>2022-05-24T11:42:45Z</time>
      </trkpt>
      <trkpt lat="46.25852" lon="5.32915">
        <ele>270.6</ele>
        <time>2022-05-24T11:42:47Z</time>
      </trkpt>
      <trkpt lat="46.25849" lon="5.32923">
        <ele>270.6</ele>
        <time>2022-05-24T11:42:48Z</time>
      </trkpt>
      <trkpt lat="46.25848" lon="5.32931">
        <ele>270.8</ele>
        <time>2022-05-24T11:42:49Z</time>
      </trkpt>
      <trkpt lat="46.25849" lon="5.32948">
        <ele>270.8</ele>
        <time>2022-05-24T11:42:51Z</time>
      </trkpt>
      <trkpt lat="46.25853" lon="5.32975">
        <ele>271.4</ele>
        <time>2022-05-24T11:42:54Z</time>
      </trkpt>
      <trkpt lat="46.25855" lon="5.32993">
        <ele>271.6</ele>
        <time>2022-05-24T11:42:56Z</time>
      </trkpt>
      <trkpt lat="46.25855" lon="5.33011">
        <ele>271.8</ele>
        <time>2022-05-24T11:42:58Z</time>
      </trkpt>
      <trkpt lat="46.2586" lon="5.33075">
        <ele>272.2</ele>
        <time>2022-05-24T11:43:05Z</time>
      </trkpt>
      <trkpt lat="46.25861" lon="5.33085">
        <ele>272.4</ele>
        <time>2022-05-24T11:43:06Z</time>
      </trkpt>
      <trkpt lat="46.25866" lon="5.33139">
        <ele>272.8</ele>
        <time>2022-05-24T11:43:12Z</time>
      </trkpt>
      <trkpt lat="46.25867" lon="5.33148">
        <ele>273</ele>
        <time>2022-05-24T11:43:13Z</time>
      </trkpt>
      <trkpt lat="46.25872" lon="5.332">
        <ele>273</ele>
        <time>2022-05-24T11:43:18Z</time>
      </trkpt>
      <trkpt lat="46.25867" lon="5.33248">
        <ele>272</ele>
        <time>2022-05-24T11:43:22Z</time>
      </trkpt>
      <trkpt lat="46.25867" lon="5.33274">
        <ele>271</ele>
        <time>2022-05-24T11:43:24Z</time>
      </trkpt>
      <trkpt lat="46.25869" lon="5.33315">
        <ele>270</ele>
        <time>2022-05-24T11:43:27Z</time>
      </trkpt>
      <trkpt lat="46.25869" lon="5.3333">
        <ele>269.8</ele>
        <time>2022-05-24T11:43:28Z</time>
      </trkpt>
      <trkpt lat="46.25866" lon="5.33348">
        <ele>268.6</ele>
        <time>2022-05-24T11:43:29Z</time>
      </trkpt>
      <trkpt lat="46.25862" lon="5.33358">
        <ele>268</ele>
        <time>2022-05-24T11:43:30Z</time>
      </trkpt>
      <trkpt lat="46.25846" lon="5.33377">
        <ele>267.4</ele>
        <time>2022-05-24T11:43:32Z</time>
      </trkpt>
      <trkpt lat="46.25829" lon="5.33393">
        <ele>265.8</ele>
        <time>2022-05-24T11:43:34Z</time>
      </trkpt>
      <trkpt lat="46.25805" lon="5.33415">
        <ele>264.8</ele>
        <time>2022-05-24T11:43:37Z</time>
      </trkpt>
      <trkpt lat="46.25756" lon="5.33462">
        <ele>264</ele>
        <time>2022-05-24T11:43:43Z</time>
      </trkpt>
      <trkpt lat="46.25742" lon="5.33477">
        <ele>263.6</ele>
        <time>2022-05-24T11:43:45Z</time>
      </trkpt>
      <trkpt lat="46.25717" lon="5.33504">
        <ele>263</ele>
        <time>2022-05-24T11:43:48Z</time>
      </trkpt>
      <trkpt lat="46.25702" lon="5.33518">
        <ele>262.4</ele>
        <time>2022-05-24T11:43:50Z</time>
      </trkpt>
      <trkpt lat="46.25694" lon="5.33526">
        <ele>262</ele>
        <time>2022-05-24T11:43:51Z</time>
      </trkpt>
      <trkpt lat="46.25675" lon="5.33542">
        <ele>261.2</ele>
        <time>2022-05-24T11:43:53Z</time>
      </trkpt>
      <trkpt lat="46.25657" lon="5.33553">
        <ele>260.6</ele>
        <time>2022-05-24T11:43:55Z</time>
      </trkpt>
      <trkpt lat="46.25639" lon="5.33564">
        <ele>260</ele>
        <time>2022-05-24T11:43:57Z</time>
      </trkpt>
      <trkpt lat="46.25621" lon="5.33575">
        <ele>259.6</ele>
        <time>2022-05-24T11:43:59Z</time>
      </trkpt>
      <trkpt lat="46.25613" lon="5.3358">
        <ele>259.6</ele>
        <time>2022-05-24T11:44:00Z</time>
      </trkpt>
      <trkpt lat="46.25598" lon="5.33589">
        <ele>259</ele>
        <time>2022-05-24T11:44:02Z</time>
      </trkpt>
      <trkpt lat="46.25563" lon="5.33608">
        <ele>258.6</ele>
        <time>2022-05-24T11:44:06Z</time>
      </trkpt>
      <trkpt lat="46.25509" lon="5.33637">
        <ele>258.8</ele>
        <time>2022-05-24T11:44:13Z</time>
      </trkpt>
      <trkpt lat="46.25502" lon="5.33641">
        <ele>258.8</ele>
        <time>2022-05-24T11:44:14Z</time>
      </trkpt>
      <trkpt lat="46.25444" lon="5.33672">
        <ele>259.4</ele>
        <time>2022-05-24T11:44:22Z</time>
      </trkpt>
      <trkpt lat="46.25392" lon="5.337">
        <ele>259.6</ele>
        <time>2022-05-24T11:44:29Z</time>
      </trkpt>
      <trkpt lat="46.25385" lon="5.33704">
        <ele>259.6</ele>
        <time>2022-05-24T11:44:30Z</time>
      </trkpt>
      <trkpt lat="46.25335" lon="5.33725">
        <ele>259.4</ele>
        <time>2022-05-24T11:44:37Z</time>
      </trkpt>
      <trkpt lat="46.25322" lon="5.33733">
        <ele>259.4</ele>
        <time>2022-05-24T11:44:39Z</time>
      </trkpt>
      <trkpt lat="46.25311" lon="5.33742">
        <ele>259.4</ele>
        <time>2022-05-24T11:44:41Z</time>
      </trkpt>
      <trkpt lat="46.25304" lon="5.3375">
        <ele>259.6</ele>
        <time>2022-05-24T11:44:42Z</time>
      </trkpt>
      <trkpt lat="46.25273" lon="5.33798">
        <ele>259.8</ele>
        <time>2022-05-24T11:44:48Z</time>
      </trkpt>
      <trkpt lat="46.25242" lon="5.33867">
        <ele>259.8</ele>
        <time>2022-05-24T11:44:56Z</time>
      </trkpt>
      <trkpt lat="46.25224" lon="5.33902">
        <ele>260</ele>
        <time>2022-05-24T11:45:00Z</time>
      </trkpt>
      <trkpt lat="46.25213" lon="5.33923">
        <ele>260.2</ele>
        <time>2022-05-24T11:45:03Z</time>
      </trkpt>
      <trkpt lat="46.2521" lon="5.33929">
        <ele>260.4</ele>
        <time>2022-05-24T11:45:04Z</time>
      </trkpt>
      <trkpt lat="46.25203" lon="5.33949">
        <ele>261.6</ele>
        <time>2022-05-24T11:45:07Z</time>
      </trkpt>
      <trkpt lat="46.25197" lon="5.33971">
        <ele>262.6</ele>
        <time>2022-05-24T11:45:11Z</time>
      </trkpt>
      <trkpt lat="46.25197" lon="5.33973">
        <ele>262.8</ele>
        <time>2022-05-24T11:45:12Z</time>
      </trkpt>
      <trkpt lat="46.25197" lon="5.33973">
        <ele>263</ele>
        <time>2022-05-24T11:45:15Z</time>
      </trkpt>
      <trkpt lat="46.25196" lon="5.33977">
        <ele>261.6</ele>
        <time>2022-05-24T11:45:58Z</time>
      </trkpt>
      <trkpt lat="46.25192" lon="5.33987">
        <ele>261.6</ele>
        <time>2022-05-24T11:46:00Z</time>
      </trkpt>
      <trkpt lat="46.25185" lon="5.33999">
        <ele>261.6</ele>
        <time>2022-05-24T11:46:02Z</time>
      </trkpt>
      <trkpt lat="46.25159" lon="5.34025">
        <ele>261.6</ele>
        <time>2022-05-24T11:46:07Z</time>
      </trkpt>
      <trkpt lat="46.25153" lon="5.34031">
        <ele>261.6</ele>
        <time>2022-05-24T11:46:08Z</time>
      </trkpt>
      <trkpt lat="46.25144" lon="5.34046">
        <ele>261.6</ele>
        <time>2022-05-24T11:46:10Z</time>
      </trkpt>
      <trkpt lat="46.2514" lon="5.34054">
        <ele>261.6</ele>
        <time>2022-05-24T11:46:11Z</time>
      </trkpt>
      <trkpt lat="46.25123" lon="5.3411">
        <ele>262</ele>
        <time>2022-05-24T11:46:17Z</time>
      </trkpt>
      <trkpt lat="46.25098" lon="5.34174">
        <ele>262.4</ele>
        <time>2022-05-24T11:46:24Z</time>
      </trkpt>
      <trkpt lat="46.2507" lon="5.34245">
        <ele>263</ele>
        <time>2022-05-24T11:46:32Z</time>
      </trkpt>
      <trkpt lat="46.25061" lon="5.34273">
        <ele>263.2</ele>
        <time>2022-05-24T11:46:35Z</time>
      </trkpt>
      <trkpt lat="46.25044" lon="5.34317">
        <ele>263.4</ele>
        <time>2022-05-24T11:46:40Z</time>
      </trkpt>
      <trkpt lat="46.25019" lon="5.34378">
        <ele>264</ele>
        <time>2022-05-24T11:46:47Z</time>
      </trkpt>
      <trkpt lat="46.2501" lon="5.34395">
        <ele>264.2</ele>
        <time>2022-05-24T11:46:49Z</time>
      </trkpt>
      <trkpt lat="46.25004" lon="5.34402">
        <ele>264.2</ele>
        <time>2022-05-24T11:46:50Z</time>
      </trkpt>
      <trkpt lat="46.24998" lon="5.34406">
        <ele>264.4</ele>
        <time>2022-05-24T11:46:51Z</time>
      </trkpt>
      <trkpt lat="46.24984" lon="5.34407">
        <ele>264.4</ele>
        <time>2022-05-24T11:46:53Z</time>
      </trkpt>
      <trkpt lat="46.24965" lon="5.34399">
        <ele>264.8</ele>
        <time>2022-05-24T11:46:56Z</time>
      </trkpt>
      <trkpt lat="46.24958" lon="5.34399">
        <ele>264.8</ele>
        <time>2022-05-24T11:46:57Z</time>
      </trkpt>
      <trkpt lat="46.24952" lon="5.34401">
        <ele>265</ele>
        <time>2022-05-24T11:46:58Z</time>
      </trkpt>
      <trkpt lat="46.24947" lon="5.34405">
        <ele>265</ele>
        <time>2022-05-24T11:46:59Z</time>
      </trkpt>
      <trkpt lat="46.24941" lon="5.34411">
        <ele>265.2</ele>
        <time>2022-05-24T11:47:00Z</time>
      </trkpt>
      <trkpt lat="46.24921" lon="5.34435">
        <ele>266</ele>
        <time>2022-05-24T11:47:04Z</time>
      </trkpt>
      <trkpt lat="46.24904" lon="5.34455">
        <ele>266.4</ele>
        <time>2022-05-24T11:47:07Z</time>
      </trkpt>
      <trkpt lat="46.24885" lon="5.34479">
        <ele>267.2</ele>
        <time>2022-05-24T11:47:12Z</time>
      </trkpt>
      <trkpt lat="46.24862" lon="5.34504">
        <ele>267.6</ele>
        <time>2022-05-24T11:47:16Z</time>
      </trkpt>
      <trkpt lat="46.24851" lon="5.34504">
        <ele>267.8</ele>
        <time>2022-05-24T11:47:18Z</time>
      </trkpt>
      <trkpt lat="46.24845" lon="5.34502">
        <ele>268.2</ele>
        <time>2022-05-24T11:47:19Z</time>
      </trkpt>
      <trkpt lat="46.24838" lon="5.34499">
        <ele>268.4</ele>
        <time>2022-05-24T11:47:20Z</time>
      </trkpt>
      <trkpt lat="46.24823" lon="5.34491">
        <ele>269.2</ele>
        <time>2022-05-24T11:47:23Z</time>
      </trkpt>
      <trkpt lat="46.24813" lon="5.34491">
        <ele>269.6</ele>
        <time>2022-05-24T11:47:25Z</time>
      </trkpt>
      <trkpt lat="46.24809" lon="5.34493">
        <ele>270</ele>
        <time>2022-05-24T11:47:26Z</time>
      </trkpt>
      <trkpt lat="46.248" lon="5.34498">
        <ele>270.4</ele>
        <time>2022-05-24T11:47:28Z</time>
      </trkpt>
      <trkpt lat="46.24796" lon="5.34502">
        <ele>270.6</ele>
        <time>2022-05-24T11:47:29Z</time>
      </trkpt>
      <trkpt lat="46.24787" lon="5.34509">
        <ele>271</ele>
        <time>2022-05-24T11:47:31Z</time>
      </trkpt>
      <trkpt lat="46.24776" lon="5.34515">
        <ele>271.6</ele>
        <time>2022-05-24T11:47:33Z</time>
      </trkpt>
      <trkpt lat="46.24771" lon="5.34516">
        <ele>271.8</ele>
        <time>2022-05-24T11:47:34Z</time>
      </trkpt>
      <trkpt lat="46.24766" lon="5.34517">
        <ele>272</ele>
        <time>2022-05-24T11:47:35Z</time>
      </trkpt>
      <trkpt lat="46.24762" lon="5.34516">
        <ele>272</ele>
        <time>2022-05-24T11:47:36Z</time>
      </trkpt>
      <trkpt lat="46.24755" lon="5.34511">
        <ele>272.6</ele>
        <time>2022-05-24T11:47:38Z</time>
      </trkpt>
      <trkpt lat="46.24748" lon="5.34504">
        <ele>273</ele>
        <time>2022-05-24T11:47:42Z</time>
      </trkpt>
      <trkpt lat="46.24743" lon="5.34499">
        <ele>273.2</ele>
        <time>2022-05-24T11:47:45Z</time>
      </trkpt>
      <trkpt lat="46.24741" lon="5.34502">
        <ele>273.2</ele>
        <time>2022-05-24T11:47:46Z</time>
      </trkpt>
      <trkpt lat="46.24739" lon="5.34508">
        <ele>273.4</ele>
        <time>2022-05-24T11:47:47Z</time>
      </trkpt>
      <trkpt lat="46.24733" lon="5.34526">
        <ele>273.4</ele>
        <time>2022-05-24T11:47:50Z</time>
      </trkpt>
      <trkpt lat="46.24724" lon="5.34554">
        <ele>273.6</ele>
        <time>2022-05-24T11:47:54Z</time>
      </trkpt>
      <trkpt lat="46.24721" lon="5.34561">
        <ele>273.6</ele>
        <time>2022-05-24T11:47:55Z</time>
      </trkpt>
      <trkpt lat="46.24699" lon="5.34614">
        <ele>273.8</ele>
        <time>2022-05-24T11:48:02Z</time>
      </trkpt>
      <trkpt lat="46.24675" lon="5.34666">
        <ele>273.4</ele>
        <time>2022-05-24T11:48:09Z</time>
      </trkpt>
      <trkpt lat="46.24666" lon="5.34691">
        <ele>273.2</ele>
        <time>2022-05-24T11:48:12Z</time>
      </trkpt>
      <trkpt lat="46.24659" lon="5.34715">
        <ele>273.2</ele>
        <time>2022-05-24T11:48:15Z</time>
      </trkpt>
      <trkpt lat="46.24646" lon="5.34778">
        <ele>273.6</ele>
        <time>2022-05-24T11:48:22Z</time>
      </trkpt>
      <trkpt lat="46.24642" lon="5.34814">
        <ele>274</ele>
        <time>2022-05-24T11:48:26Z</time>
      </trkpt>
      <trkpt lat="46.2464" lon="5.34822">
        <ele>274.2</ele>
        <time>2022-05-24T11:48:27Z</time>
      </trkpt>
      <trkpt lat="46.24626" lon="5.34869">
        <ele>274.8</ele>
        <time>2022-05-24T11:48:33Z</time>
      </trkpt>
      <trkpt lat="46.24623" lon="5.34876">
        <ele>275</ele>
        <time>2022-05-24T11:48:34Z</time>
      </trkpt>
      <trkpt lat="46.2461" lon="5.34919">
        <ele>276.2</ele>
        <time>2022-05-24T11:48:40Z</time>
      </trkpt>
      <trkpt lat="46.24606" lon="5.3493">
        <ele>276.4</ele>
        <time>2022-05-24T11:48:41Z</time>
      </trkpt>
      <trkpt lat="46.24596" lon="5.34976">
        <ele>277.4</ele>
        <time>2022-05-24T11:48:47Z</time>
      </trkpt>
      <trkpt lat="46.24593" lon="5.34985">
        <ele>277.6</ele>
        <time>2022-05-24T11:48:48Z</time>
      </trkpt>
      <trkpt lat="46.24573" lon="5.35033">
        <ele>278</ele>
        <time>2022-05-24T11:48:54Z</time>
      </trkpt>
      <trkpt lat="46.24554" lon="5.3507">
        <ele>277.6</ele>
        <time>2022-05-24T11:48:59Z</time>
      </trkpt>
      <trkpt lat="46.2455" lon="5.35075">
        <ele>277.6</ele>
        <time>2022-05-24T11:49:00Z</time>
      </trkpt>
      <trkpt lat="46.2454" lon="5.35079">
        <ele>277.4</ele>
        <time>2022-05-24T11:49:02Z</time>
      </trkpt>
      <trkpt lat="46.24531" lon="5.35074">
        <ele>277</ele>
        <time>2022-05-24T11:49:04Z</time>
      </trkpt>
      <trkpt lat="46.24525" lon="5.3507">
        <ele>277</ele>
        <time>2022-05-24T11:49:05Z</time>
      </trkpt>
      <trkpt lat="46.24497" lon="5.3505">
        <ele>277</ele>
        <time>2022-05-24T11:49:10Z</time>
      </trkpt>
      <trkpt lat="46.24482" lon="5.35039">
        <ele>277.6</ele>
        <time>2022-05-24T11:49:13Z</time>
      </trkpt>
      <trkpt lat="46.24467" lon="5.35027">
        <ele>277.8</ele>
        <time>2022-05-24T11:49:16Z</time>
      </trkpt>
      <trkpt lat="46.24462" lon="5.35022">
        <ele>278</ele>
        <time>2022-05-24T11:49:17Z</time>
      </trkpt>
      <trkpt lat="46.24453" lon="5.35014">
        <ele>278.6</ele>
        <time>2022-05-24T11:49:19Z</time>
      </trkpt>
      <trkpt lat="46.24439" lon="5.35002">
        <ele>279.4</ele>
        <time>2022-05-24T11:49:22Z</time>
      </trkpt>
      <trkpt lat="46.24434" lon="5.34998">
        <ele>279.6</ele>
        <time>2022-05-24T11:49:23Z</time>
      </trkpt>
      <trkpt lat="46.24429" lon="5.34993">
        <ele>279.8</ele>
        <time>2022-05-24T11:49:24Z</time>
      </trkpt>
      <trkpt lat="46.24417" lon="5.34988">
        <ele>280.2</ele>
        <time>2022-05-24T11:49:26Z</time>
      </trkpt>
      <trkpt lat="46.24412" lon="5.34986">
        <ele>280.4</ele>
        <time>2022-05-24T11:49:27Z</time>
      </trkpt>
      <trkpt lat="46.24393" lon="5.34986">
        <ele>281.2</ele>
        <time>2022-05-24T11:49:30Z</time>
      </trkpt>
      <trkpt lat="46.24387" lon="5.34985">
        <ele>281.6</ele>
        <time>2022-05-24T11:49:31Z</time>
      </trkpt>
      <trkpt lat="46.24376" lon="5.34984">
        <ele>282</ele>
        <time>2022-05-24T11:49:33Z</time>
      </trkpt>
      <trkpt lat="46.24371" lon="5.34983">
        <ele>282.2</ele>
        <time>2022-05-24T11:49:34Z</time>
      </trkpt>
      <trkpt lat="46.24361" lon="5.34983">
        <ele>282.6</ele>
        <time>2022-05-24T11:49:36Z</time>
      </trkpt>
      <trkpt lat="46.24351" lon="5.34983">
        <ele>283.2</ele>
        <time>2022-05-24T11:49:38Z</time>
      </trkpt>
      <trkpt lat="46.24334" lon="5.34981">
        <ele>283.8</ele>
        <time>2022-05-24T11:49:41Z</time>
      </trkpt>
      <trkpt lat="46.24307" lon="5.34977">
        <ele>284.4</ele>
        <time>2022-05-24T11:49:46Z</time>
      </trkpt>
      <trkpt lat="46.2429" lon="5.34975">
        <ele>284.8</ele>
        <time>2022-05-24T11:49:49Z</time>
      </trkpt>
      <trkpt lat="46.24262" lon="5.34971">
        <ele>285</ele>
        <time>2022-05-24T11:49:54Z</time>
      </trkpt>
      <trkpt lat="46.24256" lon="5.3497">
        <ele>285.2</ele>
        <time>2022-05-24T11:49:55Z</time>
      </trkpt>
      <trkpt lat="46.24234" lon="5.34957">
        <ele>285.2</ele>
        <time>2022-05-24T11:49:59Z</time>
      </trkpt>
      <trkpt lat="46.24196" lon="5.34928">
        <ele>285.8</ele>
        <time>2022-05-24T11:50:06Z</time>
      </trkpt>
      <trkpt lat="46.24191" lon="5.34923">
        <ele>286</ele>
        <time>2022-05-24T11:50:07Z</time>
      </trkpt>
      <trkpt lat="46.24176" lon="5.3491">
        <ele>286.4</ele>
        <time>2022-05-24T11:50:10Z</time>
      </trkpt>
      <trkpt lat="46.24157" lon="5.34897">
        <ele>286.6</ele>
        <time>2022-05-24T11:50:14Z</time>
      </trkpt>
      <trkpt lat="46.24139" lon="5.34887">
        <ele>287</ele>
        <time>2022-05-24T11:50:17Z</time>
      </trkpt>
      <trkpt lat="46.24116" lon="5.34879">
        <ele>287.4</ele>
        <time>2022-05-24T11:50:21Z</time>
      </trkpt>
      <trkpt lat="46.24099" lon="5.34872">
        <ele>288</ele>
        <time>2022-05-24T11:50:24Z</time>
      </trkpt>
      <trkpt lat="46.24088" lon="5.34869">
        <ele>288.2</ele>
        <time>2022-05-24T11:50:26Z</time>
      </trkpt>
      <trkpt lat="46.24078" lon="5.34865">
        <ele>288.8</ele>
        <time>2022-05-24T11:50:28Z</time>
      </trkpt>
      <trkpt lat="46.24062" lon="5.34859">
        <ele>289</ele>
        <time>2022-05-24T11:50:31Z</time>
      </trkpt>
      <trkpt lat="46.24047" lon="5.34852">
        <ele>289.2</ele>
        <time>2022-05-24T11:50:34Z</time>
      </trkpt>
      <trkpt lat="46.24042" lon="5.34848">
        <ele>289.2</ele>
        <time>2022-05-24T11:50:35Z</time>
      </trkpt>
      <trkpt lat="46.24033" lon="5.34841">
        <ele>289.8</ele>
        <time>2022-05-24T11:50:37Z</time>
      </trkpt>
      <trkpt lat="46.24006" lon="5.34815">
        <ele>290.8</ele>
        <time>2022-05-24T11:50:43Z</time>
      </trkpt>
      <trkpt lat="46.23992" lon="5.34802">
        <ele>291</ele>
        <time>2022-05-24T11:50:46Z</time>
      </trkpt>
      <trkpt lat="46.23975" lon="5.34785">
        <ele>291.6</ele>
        <time>2022-05-24T11:50:50Z</time>
      </trkpt>
      <trkpt lat="46.23966" lon="5.34777">
        <ele>292</ele>
        <time>2022-05-24T11:50:52Z</time>
      </trkpt>
      <trkpt lat="46.23962" lon="5.34774">
        <ele>292.4</ele>
        <time>2022-05-24T11:50:53Z</time>
      </trkpt>
      <trkpt lat="46.23939" lon="5.34758">
        <ele>293.6</ele>
        <time>2022-05-24T11:50:58Z</time>
      </trkpt>
      <trkpt lat="46.23925" lon="5.3475">
        <ele>294.2</ele>
        <time>2022-05-24T11:51:01Z</time>
      </trkpt>
      <trkpt lat="46.23921" lon="5.34747">
        <ele>294.4</ele>
        <time>2022-05-24T11:51:02Z</time>
      </trkpt>
      <trkpt lat="46.23894" lon="5.34726">
        <ele>295.8</ele>
        <time>2022-05-24T11:51:08Z</time>
      </trkpt>
      <trkpt lat="46.23881" lon="5.34713">
        <ele>297</ele>
        <time>2022-05-24T11:51:12Z</time>
      </trkpt>
      <trkpt lat="46.23866" lon="5.347">
        <ele>297.4</ele>
        <time>2022-05-24T11:51:15Z</time>
      </trkpt>
      <trkpt lat="46.23852" lon="5.34689">
        <ele>298.4</ele>
        <time>2022-05-24T11:51:18Z</time>
      </trkpt>
      <trkpt lat="46.2384" lon="5.3468">
        <ele>299.4</ele>
        <time>2022-05-24T11:51:21Z</time>
      </trkpt>
      <trkpt lat="46.23836" lon="5.34677">
        <ele>299.6</ele>
        <time>2022-05-24T11:51:22Z</time>
      </trkpt>
      <trkpt lat="46.23824" lon="5.34668">
        <ele>300.8</ele>
        <time>2022-05-24T11:51:25Z</time>
      </trkpt>
      <trkpt lat="46.2381" lon="5.34654">
        <ele>301.8</ele>
        <time>2022-05-24T11:51:29Z</time>
      </trkpt>
      <trkpt lat="46.23806" lon="5.34651">
        <ele>302</ele>
        <time>2022-05-24T11:51:30Z</time>
      </trkpt>
      <trkpt lat="46.238" lon="5.34642">
        <ele>302.6</ele>
        <time>2022-05-24T11:51:32Z</time>
      </trkpt>
      <trkpt lat="46.23794" lon="5.34632">
        <ele>303</ele>
        <time>2022-05-24T11:51:34Z</time>
      </trkpt>
      <trkpt lat="46.23791" lon="5.34627">
        <ele>303.2</ele>
        <time>2022-05-24T11:51:35Z</time>
      </trkpt>
      <trkpt lat="46.23779" lon="5.34608">
        <ele>304</ele>
        <time>2022-05-24T11:51:39Z</time>
      </trkpt>
      <trkpt lat="46.2377" lon="5.34592">
        <ele>304.8</ele>
        <time>2022-05-24T11:51:42Z</time>
      </trkpt>
      <trkpt lat="46.23766" lon="5.34588">
        <ele>305</ele>
        <time>2022-05-24T11:51:43Z</time>
      </trkpt>
      <trkpt lat="46.23762" lon="5.34583">
        <ele>305.2</ele>
        <time>2022-05-24T11:51:44Z</time>
      </trkpt>
      <trkpt lat="46.23757" lon="5.34578">
        <ele>305.2</ele>
        <time>2022-05-24T11:51:45Z</time>
      </trkpt>
      <trkpt lat="46.2374" lon="5.34564">
        <ele>305.4</ele>
        <time>2022-05-24T11:51:48Z</time>
      </trkpt>
      <trkpt lat="46.23706" lon="5.34537">
        <ele>305</ele>
        <time>2022-05-24T11:51:53Z</time>
      </trkpt>
      <trkpt lat="46.23692" lon="5.34526">
        <ele>304.2</ele>
        <time>2022-05-24T11:51:55Z</time>
      </trkpt>
      <trkpt lat="46.23669" lon="5.34511">
        <ele>303</ele>
        <time>2022-05-24T11:51:58Z</time>
      </trkpt>
      <trkpt lat="46.23652" lon="5.34503">
        <ele>302</ele>
        <time>2022-05-24T11:52:00Z</time>
      </trkpt>
      <trkpt lat="46.23625" lon="5.34494">
        <ele>300.8</ele>
        <time>2022-05-24T11:52:03Z</time>
      </trkpt>
      <trkpt lat="46.23605" lon="5.34488">
        <ele>300.2</ele>
        <time>2022-05-24T11:52:05Z</time>
      </trkpt>
      <trkpt lat="46.23587" lon="5.34482">
        <ele>299.8</ele>
        <time>2022-05-24T11:52:07Z</time>
      </trkpt>
      <trkpt lat="46.23552" lon="5.34467">
        <ele>298.8</ele>
        <time>2022-05-24T11:52:11Z</time>
      </trkpt>
      <trkpt lat="46.23545" lon="5.34464">
        <ele>298.2</ele>
        <time>2022-05-24T11:52:12Z</time>
      </trkpt>
      <trkpt lat="46.23505" lon="5.34438">
        <ele>297.6</ele>
        <time>2022-05-24T11:52:17Z</time>
      </trkpt>
      <trkpt lat="46.23462" lon="5.34405">
        <ele>297.4</ele>
        <time>2022-05-24T11:52:23Z</time>
      </trkpt>
      <trkpt lat="46.23425" lon="5.3437">
        <ele>297.8</ele>
        <time>2022-05-24T11:52:29Z</time>
      </trkpt>
      <trkpt lat="46.23414" lon="5.34358">
        <ele>298</ele>
        <time>2022-05-24T11:52:31Z</time>
      </trkpt>
      <trkpt lat="46.23394" lon="5.34335">
        <ele>298.8</ele>
        <time>2022-05-24T11:52:35Z</time>
      </trkpt>
      <trkpt lat="46.2338" lon="5.34319">
        <ele>299.8</ele>
        <time>2022-05-24T11:52:38Z</time>
      </trkpt>
      <trkpt lat="46.23363" lon="5.34301">
        <ele>300.4</ele>
        <time>2022-05-24T11:52:42Z</time>
      </trkpt>
      <trkpt lat="46.2334" lon="5.34274">
        <ele>300.8</ele>
        <time>2022-05-24T11:52:47Z</time>
      </trkpt>
      <trkpt lat="46.23332" lon="5.34264">
        <ele>301.4</ele>
        <time>2022-05-24T11:52:49Z</time>
      </trkpt>
      <trkpt lat="46.2332" lon="5.34249">
        <ele>302</ele>
        <time>2022-05-24T11:52:52Z</time>
      </trkpt>
      <trkpt lat="46.23305" lon="5.34228">
        <ele>303.2</ele>
        <time>2022-05-24T11:52:56Z</time>
      </trkpt>
      <trkpt lat="46.233" lon="5.34221">
        <ele>303.4</ele>
        <time>2022-05-24T11:52:57Z</time>
      </trkpt>
      <trkpt lat="46.23268" lon="5.34181">
        <ele>303.6</ele>
        <time>2022-05-24T11:53:04Z</time>
      </trkpt>
      <trkpt lat="46.2325" lon="5.34166">
        <ele>304</ele>
        <time>2022-05-24T11:53:07Z</time>
      </trkpt>
      <trkpt lat="46.23229" lon="5.3415">
        <ele>303.8</ele>
        <time>2022-05-24T11:53:10Z</time>
      </trkpt>
      <trkpt lat="46.23176" lon="5.34117">
        <ele>303.6</ele>
        <time>2022-05-24T11:53:17Z</time>
      </trkpt>
      <trkpt lat="46.23127" lon="5.34099">
        <ele>302.2</ele>
        <time>2022-05-24T11:53:23Z</time>
      </trkpt>
      <trkpt lat="46.23119" lon="5.34096">
        <ele>302</ele>
        <time>2022-05-24T11:53:24Z</time>
      </trkpt>
      <trkpt lat="46.23067" lon="5.34067">
        <ele>301.4</ele>
        <time>2022-05-24T11:53:31Z</time>
      </trkpt>
      <trkpt lat="46.23013" lon="5.34031">
        <ele>302.2</ele>
        <time>2022-05-24T11:53:39Z</time>
      </trkpt>
      <trkpt lat="46.22994" lon="5.34015">
        <ele>303</ele>
        <time>2022-05-24T11:53:42Z</time>
      </trkpt>
      <trkpt lat="46.22959" lon="5.33983">
        <ele>303.4</ele>
        <time>2022-05-24T11:53:48Z</time>
      </trkpt>
      <trkpt lat="46.22918" lon="5.3395">
        <ele>304</ele>
        <time>2022-05-24T11:53:55Z</time>
      </trkpt>
      <trkpt lat="46.22906" lon="5.33942">
        <ele>304.4</ele>
        <time>2022-05-24T11:53:57Z</time>
      </trkpt>
      <trkpt lat="46.22883" lon="5.3393">
        <ele>304.6</ele>
        <time>2022-05-24T11:54:01Z</time>
      </trkpt>
      <trkpt lat="46.22854" lon="5.33919">
        <ele>305.6</ele>
        <time>2022-05-24T11:54:06Z</time>
      </trkpt>
      <trkpt lat="46.22835" lon="5.33914">
        <ele>305.8</ele>
        <time>2022-05-24T11:54:09Z</time>
      </trkpt>
      <trkpt lat="46.2279" lon="5.33903">
        <ele>306.4</ele>
        <time>2022-05-24T11:54:16Z</time>
      </trkpt>
      <trkpt lat="46.22777" lon="5.33901">
        <ele>306.8</ele>
        <time>2022-05-24T11:54:18Z</time>
      </trkpt>
      <trkpt lat="46.22719" lon="5.33895">
        <ele>307</ele>
        <time>2022-05-24T11:54:27Z</time>
      </trkpt>
      <trkpt lat="46.22665" lon="5.33886">
        <ele>307.4</ele>
        <time>2022-05-24T11:54:35Z</time>
      </trkpt>
      <trkpt lat="46.22627" lon="5.3387">
        <ele>307.2</ele>
        <time>2022-05-24T11:54:40Z</time>
      </trkpt>
      <trkpt lat="46.22582" lon="5.33834">
        <ele>305.4</ele>
        <time>2022-05-24T11:54:46Z</time>
      </trkpt>
      <trkpt lat="46.22553" lon="5.33805">
        <ele>304</ele>
        <time>2022-05-24T11:54:50Z</time>
      </trkpt>
      <trkpt lat="46.22525" lon="5.33775">
        <ele>303</ele>
        <time>2022-05-24T11:54:54Z</time>
      </trkpt>
      <trkpt lat="46.22518" lon="5.33768">
        <ele>302.8</ele>
        <time>2022-05-24T11:54:55Z</time>
      </trkpt>
      <trkpt lat="46.22475" lon="5.33715">
        <ele>302.2</ele>
        <time>2022-05-24T11:55:02Z</time>
      </trkpt>
      <trkpt lat="46.22462" lon="5.337">
        <ele>301.8</ele>
        <time>2022-05-24T11:55:04Z</time>
      </trkpt>
      <trkpt lat="46.22421" lon="5.3365">
        <ele>301</ele>
        <time>2022-05-24T11:55:11Z</time>
      </trkpt>
      <trkpt lat="46.22415" lon="5.33644">
        <ele>300.8</ele>
        <time>2022-05-24T11:55:12Z</time>
      </trkpt>
      <trkpt lat="46.22402" lon="5.33631">
        <ele>300.8</ele>
        <time>2022-05-24T11:55:14Z</time>
      </trkpt>
      <trkpt lat="46.22361" lon="5.33586">
        <ele>300.6</ele>
        <time>2022-05-24T11:55:21Z</time>
      </trkpt>
      <trkpt lat="46.22318" lon="5.33531">
        <ele>300.6</ele>
        <time>2022-05-24T11:55:29Z</time>
      </trkpt>
      <trkpt lat="46.22276" lon="5.33473">
        <ele>301</ele>
        <time>2022-05-24T11:55:38Z</time>
      </trkpt>
      <trkpt lat="46.22262" lon="5.33456">
        <ele>302.2</ele>
        <time>2022-05-24T11:55:42Z</time>
      </trkpt>
      <trkpt lat="46.22233" lon="5.33421">
        <ele>302.8</ele>
        <time>2022-05-24T11:55:47Z</time>
      </trkpt>
      <trkpt lat="46.2219" lon="5.33368">
        <ele>303</ele>
        <time>2022-05-24T11:55:56Z</time>
      </trkpt>
      <trkpt lat="46.22185" lon="5.33363">
        <ele>303.2</ele>
        <time>2022-05-24T11:55:57Z</time>
      </trkpt>
      <trkpt lat="46.22156" lon="5.3333">
        <ele>304.4</ele>
        <time>2022-05-24T11:56:03Z</time>
      </trkpt>
      <trkpt lat="46.22141" lon="5.33313">
        <ele>304.6</ele>
        <time>2022-05-24T11:56:06Z</time>
      </trkpt>
      <trkpt lat="46.22095" lon="5.33267">
        <ele>304.2</ele>
        <time>2022-05-24T11:56:15Z</time>
      </trkpt>
      <trkpt lat="46.22079" lon="5.33253">
        <ele>304.8</ele>
        <time>2022-05-24T11:56:18Z</time>
      </trkpt>
      <trkpt lat="46.22042" lon="5.33216">
        <ele>305.4</ele>
        <time>2022-05-24T11:56:25Z</time>
      </trkpt>
      <trkpt lat="46.22031" lon="5.33204">
        <ele>305.4</ele>
        <time>2022-05-24T11:56:27Z</time>
      </trkpt>
      <trkpt lat="46.21984" lon="5.33153">
        <ele>305.2</ele>
        <time>2022-05-24T11:56:35Z</time>
      </trkpt>
      <trkpt lat="46.21941" lon="5.3311">
        <ele>305.4</ele>
        <time>2022-05-24T11:56:43Z</time>
      </trkpt>
      <trkpt lat="46.21892" lon="5.33062">
        <ele>305.2</ele>
        <time>2022-05-24T11:56:50Z</time>
      </trkpt>
      <trkpt lat="46.21886" lon="5.33056">
        <ele>305.2</ele>
        <time>2022-05-24T11:56:51Z</time>
      </trkpt>
      <trkpt lat="46.21838" lon="5.33009">
        <ele>305.4</ele>
        <time>2022-05-24T11:56:59Z</time>
      </trkpt>
      <trkpt lat="46.21827" lon="5.32997">
        <ele>305.6</ele>
        <time>2022-05-24T11:57:01Z</time>
      </trkpt>
      <trkpt lat="46.21808" lon="5.32981">
        <ele>305.6</ele>
        <time>2022-05-24T11:57:04Z</time>
      </trkpt>
      <trkpt lat="46.21772" lon="5.3295">
        <ele>306.2</ele>
        <time>2022-05-24T11:57:10Z</time>
      </trkpt>
      <trkpt lat="46.21759" lon="5.32941">
        <ele>306.4</ele>
        <time>2022-05-24T11:57:12Z</time>
      </trkpt>
      <trkpt lat="46.21735" lon="5.32922">
        <ele>306.8</ele>
        <time>2022-05-24T11:57:16Z</time>
      </trkpt>
      <trkpt lat="46.21697" lon="5.32894">
        <ele>307.6</ele>
        <time>2022-05-24T11:57:22Z</time>
      </trkpt>
      <trkpt lat="46.21691" lon="5.32889">
        <ele>307.6</ele>
        <time>2022-05-24T11:57:23Z</time>
      </trkpt>
      <trkpt lat="46.21653" lon="5.32862">
        <ele>308.4</ele>
        <time>2022-05-24T11:57:29Z</time>
      </trkpt>
      <trkpt lat="46.21641" lon="5.32853">
        <ele>308.8</ele>
        <time>2022-05-24T11:57:31Z</time>
      </trkpt>
      <trkpt lat="46.21608" lon="5.32824">
        <ele>309.4</ele>
        <time>2022-05-24T11:57:37Z</time>
      </trkpt>
      <trkpt lat="46.21598" lon="5.32814">
        <ele>309.6</ele>
        <time>2022-05-24T11:57:39Z</time>
      </trkpt>
      <trkpt lat="46.21586" lon="5.32804">
        <ele>310</ele>
        <time>2022-05-24T11:57:41Z</time>
      </trkpt>
      <trkpt lat="46.21574" lon="5.32796">
        <ele>310.2</ele>
        <time>2022-05-24T11:57:43Z</time>
      </trkpt>
      <trkpt lat="46.21558" lon="5.32782">
        <ele>310.2</ele>
        <time>2022-05-24T11:57:46Z</time>
      </trkpt>
      <trkpt lat="46.21548" lon="5.32767">
        <ele>310.2</ele>
        <time>2022-05-24T11:57:48Z</time>
      </trkpt>
      <trkpt lat="46.21536" lon="5.32754">
        <ele>310</ele>
        <time>2022-05-24T11:57:50Z</time>
      </trkpt>
      <trkpt lat="46.21523" lon="5.32744">
        <ele>309.4</ele>
        <time>2022-05-24T11:57:52Z</time>
      </trkpt>
      <trkpt lat="46.215" lon="5.32729">
        <ele>308.6</ele>
        <time>2022-05-24T11:57:55Z</time>
      </trkpt>
      <trkpt lat="46.21485" lon="5.32718">
        <ele>307.8</ele>
        <time>2022-05-24T11:57:57Z</time>
      </trkpt>
      <trkpt lat="46.2147" lon="5.32706">
        <ele>307.2</ele>
        <time>2022-05-24T11:57:59Z</time>
      </trkpt>
      <trkpt lat="46.2144" lon="5.32685">
        <ele>305.8</ele>
        <time>2022-05-24T11:58:03Z</time>
      </trkpt>
      <trkpt lat="46.21426" lon="5.32675">
        <ele>305.4</ele>
        <time>2022-05-24T11:58:05Z</time>
      </trkpt>
      <trkpt lat="46.2142" lon="5.3267">
        <ele>305.2</ele>
        <time>2022-05-24T11:58:06Z</time>
      </trkpt>
      <trkpt lat="46.21396" lon="5.32651">
        <ele>304.6</ele>
        <time>2022-05-24T11:58:10Z</time>
      </trkpt>
      <trkpt lat="46.21379" lon="5.32637">
        <ele>304.2</ele>
        <time>2022-05-24T11:58:12Z</time>
      </trkpt>
      <trkpt lat="46.21339" lon="5.32612">
        <ele>304.8</ele>
        <time>2022-05-24T11:58:18Z</time>
      </trkpt>
      <trkpt lat="46.21301" lon="5.32593">
        <ele>306</ele>
        <time>2022-05-24T11:58:24Z</time>
      </trkpt>
      <trkpt lat="46.21275" lon="5.32576">
        <ele>306.4</ele>
        <time>2022-05-24T11:58:28Z</time>
      </trkpt>
      <trkpt lat="46.21269" lon="5.32572">
        <ele>306.4</ele>
        <time>2022-05-24T11:58:29Z</time>
      </trkpt>
      <trkpt lat="46.21258" lon="5.32565">
        <ele>306.8</ele>
        <time>2022-05-24T11:58:31Z</time>
      </trkpt>
      <trkpt lat="46.21246" lon="5.32558">
        <ele>307</ele>
        <time>2022-05-24T11:58:33Z</time>
      </trkpt>
      <trkpt lat="46.21241" lon="5.32554">
        <ele>307.2</ele>
        <time>2022-05-24T11:58:34Z</time>
      </trkpt>
      <trkpt lat="46.21226" lon="5.32547">
        <ele>307.4</ele>
        <time>2022-05-24T11:58:37Z</time>
      </trkpt>
      <trkpt lat="46.21219" lon="5.32542">
        <ele>307.6</ele>
        <time>2022-05-24T11:58:40Z</time>
      </trkpt>
      <trkpt lat="46.21216" lon="5.32532">
        <ele>307.6</ele>
        <time>2022-05-24T11:58:44Z</time>
      </trkpt>
      <trkpt lat="46.21214" lon="5.32522">
        <ele>307.6</ele>
        <time>2022-05-24T11:58:46Z</time>
      </trkpt>
      <trkpt lat="46.21208" lon="5.32514">
        <ele>307.6</ele>
        <time>2022-05-24T11:58:48Z</time>
      </trkpt>
      <trkpt lat="46.21203" lon="5.32511">
        <ele>307.6</ele>
        <time>2022-05-24T11:58:49Z</time>
      </trkpt>
      <trkpt lat="46.21188" lon="5.32506">
        <ele>307.4</ele>
        <time>2022-05-24T11:58:52Z</time>
      </trkpt>
      <trkpt lat="46.21173" lon="5.32496">
        <ele>307.2</ele>
        <time>2022-05-24T11:58:55Z</time>
      </trkpt>
      <trkpt lat="46.21161" lon="5.32491">
        <ele>306.8</ele>
        <time>2022-05-24T11:58:57Z</time>
      </trkpt>
      <trkpt lat="46.21148" lon="5.32485">
        <ele>306.8</ele>
        <time>2022-05-24T11:58:59Z</time>
      </trkpt>
      <trkpt lat="46.21136" lon="5.32477">
        <ele>306.6</ele>
        <time>2022-05-24T11:59:01Z</time>
      </trkpt>
      <trkpt lat="46.21122" lon="5.32472">
        <ele>306.2</ele>
        <time>2022-05-24T11:59:03Z</time>
      </trkpt>
      <trkpt lat="46.21101" lon="5.32468">
        <ele>305.8</ele>
        <time>2022-05-24T11:59:06Z</time>
      </trkpt>
      <trkpt lat="46.21045" lon="5.32463">
        <ele>305.2</ele>
        <time>2022-05-24T11:59:14Z</time>
      </trkpt>
      <trkpt lat="46.20999" lon="5.32463">
        <ele>304.8</ele>
        <time>2022-05-24T11:59:20Z</time>
      </trkpt>
      <trkpt lat="46.20983" lon="5.32465">
        <ele>304.8</ele>
        <time>2022-05-24T11:59:22Z</time>
      </trkpt>
      <trkpt lat="46.20959" lon="5.32468">
        <ele>303.8</ele>
        <time>2022-05-24T11:59:25Z</time>
      </trkpt>
      <trkpt lat="46.20943" lon="5.3247">
        <ele>303.4</ele>
        <time>2022-05-24T11:59:27Z</time>
      </trkpt>
      <trkpt lat="46.20926" lon="5.32472">
        <ele>302.6</ele>
        <time>2022-05-24T11:59:29Z</time>
      </trkpt>
      <trkpt lat="46.20894" lon="5.32479">
        <ele>301.6</ele>
        <time>2022-05-24T11:59:33Z</time>
      </trkpt>
      <trkpt lat="46.20838" lon="5.32494">
        <ele>300.8</ele>
        <time>2022-05-24T11:59:40Z</time>
      </trkpt>
      <trkpt lat="46.20829" lon="5.32495">
        <ele>300.4</ele>
        <time>2022-05-24T11:59:42Z</time>
      </trkpt>
      <trkpt lat="46.20769" lon="5.32505">
        <ele>299.6</ele>
        <time>2022-05-24T11:59:48Z</time>
      </trkpt>
      <trkpt lat="46.20761" lon="5.32506">
        <ele>299.4</ele>
        <time>2022-05-24T11:59:49Z</time>
      </trkpt>
      <trkpt lat="46.20752" lon="5.32507">
        <ele>299.4</ele>
        <time>2022-05-24T11:59:50Z</time>
      </trkpt>
      <trkpt lat="46.20696" lon="5.32512">
        <ele>298.8</ele>
        <time>2022-05-24T11:59:57Z</time>
      </trkpt>
      <trkpt lat="46.20688" lon="5.32512">
        <ele>299</ele>
        <time>2022-05-24T11:59:58Z</time>
      </trkpt>
      <trkpt lat="46.20637" lon="5.32507">
        <ele>299.4</ele>
        <time>2022-05-24T12:00:05Z</time>
      </trkpt>
      <trkpt lat="46.20591" lon="5.32496">
        <ele>300.4</ele>
        <time>2022-05-24T12:00:12Z</time>
      </trkpt>
      <trkpt lat="46.20585" lon="5.32494">
        <ele>300.6</ele>
        <time>2022-05-24T12:00:13Z</time>
      </trkpt>
      <trkpt lat="46.20557" lon="5.32487">
        <ele>302</ele>
        <time>2022-05-24T12:00:18Z</time>
      </trkpt>
      <trkpt lat="46.20551" lon="5.32485">
        <ele>302.2</ele>
        <time>2022-05-24T12:00:19Z</time>
      </trkpt>
      <trkpt lat="46.20531" lon="5.3248">
        <ele>303</ele>
        <time>2022-05-24T12:00:23Z</time>
      </trkpt>
      <trkpt lat="46.20516" lon="5.32477">
        <ele>304</ele>
        <time>2022-05-24T12:00:26Z</time>
      </trkpt>
      <trkpt lat="46.20511" lon="5.32476">
        <ele>304.2</ele>
        <time>2022-05-24T12:00:27Z</time>
      </trkpt>
      <trkpt lat="46.20487" lon="5.32471">
        <ele>305.2</ele>
        <time>2022-05-24T12:00:32Z</time>
      </trkpt>
      <trkpt lat="46.20473" lon="5.32468">
        <ele>306.2</ele>
        <time>2022-05-24T12:00:35Z</time>
      </trkpt>
      <trkpt lat="46.20468" lon="5.32467">
        <ele>306.4</ele>
        <time>2022-05-24T12:00:36Z</time>
      </trkpt>
      <trkpt lat="46.20449" lon="5.32464">
        <ele>307.4</ele>
        <time>2022-05-24T12:00:40Z</time>
      </trkpt>
      <trkpt lat="46.20437" lon="5.32463">
        <ele>308.2</ele>
        <time>2022-05-24T12:00:43Z</time>
      </trkpt>
      <trkpt lat="46.20432" lon="5.32461">
        <ele>308.6</ele>
        <time>2022-05-24T12:00:44Z</time>
      </trkpt>
      <trkpt lat="46.20427" lon="5.3246">
        <ele>308.8</ele>
        <time>2022-05-24T12:00:45Z</time>
      </trkpt>
      <trkpt lat="46.20401" lon="5.32453">
        <ele>309.6</ele>
        <time>2022-05-24T12:00:50Z</time>
      </trkpt>
      <trkpt lat="46.2038" lon="5.32448">
        <ele>310.6</ele>
        <time>2022-05-24T12:00:54Z</time>
      </trkpt>
      <trkpt lat="46.20375" lon="5.32448">
        <ele>311</ele>
        <time>2022-05-24T12:00:55Z</time>
      </trkpt>
      <trkpt lat="46.2036" lon="5.32446">
        <ele>311.8</ele>
        <time>2022-05-24T12:00:58Z</time>
      </trkpt>
      <trkpt lat="46.20335" lon="5.32442">
        <ele>313.2</ele>
        <time>2022-05-24T12:01:03Z</time>
      </trkpt>
      <trkpt lat="46.20325" lon="5.32441">
        <ele>313.6</ele>
        <time>2022-05-24T12:01:05Z</time>
      </trkpt>
      <trkpt lat="46.20309" lon="5.32439">
        <ele>314.2</ele>
        <time>2022-05-24T12:01:08Z</time>
      </trkpt>
      <trkpt lat="46.20277" lon="5.32435">
        <ele>315</ele>
        <time>2022-05-24T12:01:14Z</time>
      </trkpt>
      <trkpt lat="46.20262" lon="5.32433">
        <ele>315.4</ele>
        <time>2022-05-24T12:01:17Z</time>
      </trkpt>
      <trkpt lat="46.20242" lon="5.32427">
        <ele>316.6</ele>
        <time>2022-05-24T12:01:21Z</time>
      </trkpt>
      <trkpt lat="46.20235" lon="5.32425">
        <ele>316.8</ele>
        <time>2022-05-24T12:01:22Z</time>
      </trkpt>
      <trkpt lat="46.20195" lon="5.32407">
        <ele>317.6</ele>
        <time>2022-05-24T12:01:30Z</time>
      </trkpt>
      <trkpt lat="46.20185" lon="5.32403">
        <ele>318</ele>
        <time>2022-05-24T12:01:32Z</time>
      </trkpt>
      <trkpt lat="46.20154" lon="5.32395">
        <ele>318.8</ele>
        <time>2022-05-24T12:01:38Z</time>
      </trkpt>
      <trkpt lat="46.20138" lon="5.32393">
        <ele>319</ele>
        <time>2022-05-24T12:01:41Z</time>
      </trkpt>
      <trkpt lat="46.20091" lon="5.32394">
        <ele>319.8</ele>
        <time>2022-05-24T12:01:49Z</time>
      </trkpt>
      <trkpt lat="46.20079" lon="5.32393">
        <ele>320</ele>
        <time>2022-05-24T12:01:51Z</time>
      </trkpt>
      <trkpt lat="46.20044" lon="5.32378">
        <ele>320.6</ele>
        <time>2022-05-24T12:01:57Z</time>
      </trkpt>
      <trkpt lat="46.20014" lon="5.32344">
        <ele>320.8</ele>
        <time>2022-05-24T12:02:03Z</time>
      </trkpt>
      <trkpt lat="46.19988" lon="5.32315">
        <ele>321</ele>
        <time>2022-05-24T12:02:08Z</time>
      </trkpt>
      <trkpt lat="46.19977" lon="5.32307">
        <ele>321</ele>
        <time>2022-05-24T12:02:10Z</time>
      </trkpt>
      <trkpt lat="46.19971" lon="5.32303">
        <ele>321.2</ele>
        <time>2022-05-24T12:02:11Z</time>
      </trkpt>
      <trkpt lat="46.19948" lon="5.32296">
        <ele>321.6</ele>
        <time>2022-05-24T12:02:15Z</time>
      </trkpt>
      <trkpt lat="46.19917" lon="5.32298">
        <ele>322.2</ele>
        <time>2022-05-24T12:02:20Z</time>
      </trkpt>
      <trkpt lat="46.19915" lon="5.32299">
        <ele>322.4</ele>
        <time>2022-05-24T12:02:21Z</time>
      </trkpt>
      <trkpt lat="46.19909" lon="5.323">
        <ele>322.6</ele>
        <time>2022-05-24T12:02:22Z</time>
      </trkpt>
      <trkpt lat="46.19877" lon="5.32308">
        <ele>323.4</ele>
        <time>2022-05-24T12:02:27Z</time>
      </trkpt>
      <trkpt lat="46.19852" lon="5.32313">
        <ele>323.8</ele>
        <time>2022-05-24T12:02:31Z</time>
      </trkpt>
      <trkpt lat="46.19809" lon="5.32314">
        <ele>324</ele>
        <time>2022-05-24T12:02:37Z</time>
      </trkpt>
      <trkpt lat="46.19755" lon="5.32306">
        <ele>323.6</ele>
        <time>2022-05-24T12:02:44Z</time>
      </trkpt>
      <trkpt lat="46.19722" lon="5.32297">
        <ele>322.2</ele>
        <time>2022-05-24T12:02:48Z</time>
      </trkpt>
      <trkpt lat="46.19699" lon="5.32289">
        <ele>321.8</ele>
        <time>2022-05-24T12:02:51Z</time>
      </trkpt>
      <trkpt lat="46.19644" lon="5.32268">
        <ele>322</ele>
        <time>2022-05-24T12:02:59Z</time>
      </trkpt>
      <trkpt lat="46.19638" lon="5.32266">
        <ele>322.2</ele>
        <time>2022-05-24T12:03:00Z</time>
      </trkpt>
      <trkpt lat="46.19625" lon="5.32261">
        <ele>323</ele>
        <time>2022-05-24T12:03:02Z</time>
      </trkpt>
      <trkpt lat="46.19608" lon="5.32256">
        <ele>323.4</ele>
        <time>2022-05-24T12:03:05Z</time>
      </trkpt>
      <trkpt lat="46.19603" lon="5.32254">
        <ele>323.8</ele>
        <time>2022-05-24T12:03:06Z</time>
      </trkpt>
      <trkpt lat="46.19569" lon="5.32242">
        <ele>324.8</ele>
        <time>2022-05-24T12:03:12Z</time>
      </trkpt>
      <trkpt lat="46.19564" lon="5.3224">
        <ele>325.6</ele>
        <time>2022-05-24T12:03:13Z</time>
      </trkpt>
      <trkpt lat="46.19548" lon="5.32235">
        <ele>326.6</ele>
        <time>2022-05-24T12:03:16Z</time>
      </trkpt>
      <trkpt lat="46.19538" lon="5.32231">
        <ele>326.8</ele>
        <time>2022-05-24T12:03:18Z</time>
      </trkpt>
      <trkpt lat="46.19532" lon="5.3223">
        <ele>327</ele>
        <time>2022-05-24T12:03:19Z</time>
      </trkpt>
      <trkpt lat="46.19498" lon="5.32223">
        <ele>327.6</ele>
        <time>2022-05-24T12:03:24Z</time>
      </trkpt>
      <trkpt lat="46.19455" lon="5.32219">
        <ele>327.4</ele>
        <time>2022-05-24T12:03:30Z</time>
      </trkpt>
      <trkpt lat="46.19439" lon="5.32218">
        <ele>327.2</ele>
        <time>2022-05-24T12:03:32Z</time>
      </trkpt>
      <trkpt lat="46.19408" lon="5.32213">
        <ele>326.6</ele>
        <time>2022-05-24T12:03:36Z</time>
      </trkpt>
      <trkpt lat="46.19359" lon="5.32202">
        <ele>326.4</ele>
        <time>2022-05-24T12:03:43Z</time>
      </trkpt>
      <trkpt lat="46.1932" lon="5.32185">
        <ele>327</ele>
        <time>2022-05-24T12:03:49Z</time>
      </trkpt>
      <trkpt lat="46.19274" lon="5.32163">
        <ele>327.4</ele>
        <time>2022-05-24T12:03:56Z</time>
      </trkpt>
      <trkpt lat="46.19223" lon="5.32142">
        <ele>327</ele>
        <time>2022-05-24T12:04:03Z</time>
      </trkpt>
      <trkpt lat="46.19166" lon="5.32124">
        <ele>326.2</ele>
        <time>2022-05-24T12:04:11Z</time>
      </trkpt>
      <trkpt lat="46.19156" lon="5.32123">
        <ele>326.2</ele>
        <time>2022-05-24T12:04:12Z</time>
      </trkpt>
      <trkpt lat="46.19104" lon="5.3213">
        <ele>326.2</ele>
        <time>2022-05-24T12:04:19Z</time>
      </trkpt>
      <trkpt lat="46.19053" lon="5.32145">
        <ele>325.4</ele>
        <time>2022-05-24T12:04:25Z</time>
      </trkpt>
      <trkpt lat="46.19014" lon="5.32155">
        <ele>324.2</ele>
        <time>2022-05-24T12:04:29Z</time>
      </trkpt>
      <trkpt lat="46.19004" lon="5.32156">
        <ele>322.8</ele>
        <time>2022-05-24T12:04:30Z</time>
      </trkpt>
      <trkpt lat="46.18993" lon="5.32156">
        <ele>322.4</ele>
        <time>2022-05-24T12:04:31Z</time>
      </trkpt>
      <trkpt lat="46.18983" lon="5.32156">
        <ele>321.4</ele>
        <time>2022-05-24T12:04:32Z</time>
      </trkpt>
      <trkpt lat="46.18957" lon="5.32151">
        <ele>319.8</ele>
        <time>2022-05-24T12:04:35Z</time>
      </trkpt>
      <trkpt lat="46.18921" lon="5.32151">
        <ele>319</ele>
        <time>2022-05-24T12:04:39Z</time>
      </trkpt>
      <trkpt lat="46.18901" lon="5.32156">
        <ele>318.6</ele>
        <time>2022-05-24T12:04:41Z</time>
      </trkpt>
      <trkpt lat="46.18881" lon="5.32167">
        <ele>317.4</ele>
        <time>2022-05-24T12:04:43Z</time>
      </trkpt>
      <trkpt lat="46.18862" lon="5.32181">
        <ele>316</ele>
        <time>2022-05-24T12:04:45Z</time>
      </trkpt>
      <trkpt lat="46.18839" lon="5.32199">
        <ele>314.8</ele>
        <time>2022-05-24T12:04:47Z</time>
      </trkpt>
      <trkpt lat="46.18828" lon="5.32206">
        <ele>314.2</ele>
        <time>2022-05-24T12:04:48Z</time>
      </trkpt>
      <trkpt lat="46.18817" lon="5.32212">
        <ele>313</ele>
        <time>2022-05-24T12:04:49Z</time>
      </trkpt>
      <trkpt lat="46.18805" lon="5.32217">
        <ele>312</ele>
        <time>2022-05-24T12:04:50Z</time>
      </trkpt>
      <trkpt lat="46.18793" lon="5.3222">
        <ele>310.6</ele>
        <time>2022-05-24T12:04:51Z</time>
      </trkpt>
      <trkpt lat="46.18781" lon="5.32223">
        <ele>310.4</ele>
        <time>2022-05-24T12:04:52Z</time>
      </trkpt>
      <trkpt lat="46.1877" lon="5.32225">
        <ele>309.4</ele>
        <time>2022-05-24T12:04:53Z</time>
      </trkpt>
      <trkpt lat="46.18747" lon="5.32228">
        <ele>307.8</ele>
        <time>2022-05-24T12:04:55Z</time>
      </trkpt>
      <trkpt lat="46.18707" lon="5.32234">
        <ele>307.4</ele>
        <time>2022-05-24T12:04:59Z</time>
      </trkpt>
      <trkpt lat="46.18662" lon="5.32247">
        <ele>308</ele>
        <time>2022-05-24T12:05:04Z</time>
      </trkpt>
      <trkpt lat="46.18647" lon="5.32252">
        <ele>308.8</ele>
        <time>2022-05-24T12:05:06Z</time>
      </trkpt>
      <trkpt lat="46.1863" lon="5.32259">
        <ele>310.2</ele>
        <time>2022-05-24T12:05:09Z</time>
      </trkpt>
      <trkpt lat="46.18604" lon="5.32268">
        <ele>311.2</ele>
        <time>2022-05-24T12:05:13Z</time>
      </trkpt>
      <trkpt lat="46.18593" lon="5.32273">
        <ele>311.6</ele>
        <time>2022-05-24T12:05:15Z</time>
      </trkpt>
      <trkpt lat="46.18582" lon="5.32277">
        <ele>312.4</ele>
        <time>2022-05-24T12:05:17Z</time>
      </trkpt>
      <trkpt lat="46.18571" lon="5.3228">
        <ele>314</ele>
        <time>2022-05-24T12:05:19Z</time>
      </trkpt>
      <trkpt lat="46.18556" lon="5.32285">
        <ele>314.6</ele>
        <time>2022-05-24T12:05:22Z</time>
      </trkpt>
      <trkpt lat="46.18551" lon="5.32285">
        <ele>315</ele>
        <time>2022-05-24T12:05:23Z</time>
      </trkpt>
      <trkpt lat="46.18536" lon="5.32287">
        <ele>316.4</ele>
        <time>2022-05-24T12:05:26Z</time>
      </trkpt>
      <trkpt lat="46.18531" lon="5.32288">
        <ele>316.6</ele>
        <time>2022-05-24T12:05:27Z</time>
      </trkpt>
      <trkpt lat="46.1851" lon="5.32293">
        <ele>317.2</ele>
        <time>2022-05-24T12:05:31Z</time>
      </trkpt>
      <trkpt lat="46.18505" lon="5.32294">
        <ele>317.6</ele>
        <time>2022-05-24T12:05:32Z</time>
      </trkpt>
      <trkpt lat="46.18494" lon="5.32296">
        <ele>317.8</ele>
        <time>2022-05-24T12:05:34Z</time>
      </trkpt>
      <trkpt lat="46.18467" lon="5.323">
        <ele>318.6</ele>
        <time>2022-05-24T12:05:39Z</time>
      </trkpt>
      <trkpt lat="46.18452" lon="5.32302">
        <ele>318.8</ele>
        <time>2022-05-24T12:05:42Z</time>
      </trkpt>
      <trkpt lat="46.18434" lon="5.32304">
        <ele>319.8</ele>
        <time>2022-05-24T12:05:46Z</time>
      </trkpt>
      <trkpt lat="46.18429" lon="5.32305">
        <ele>320.2</ele>
        <time>2022-05-24T12:05:47Z</time>
      </trkpt>
      <trkpt lat="46.1842" lon="5.32306">
        <ele>320.8</ele>
        <time>2022-05-24T12:05:49Z</time>
      </trkpt>
      <trkpt lat="46.18415" lon="5.32307">
        <ele>320.8</ele>
        <time>2022-05-24T12:05:50Z</time>
      </trkpt>
      <trkpt lat="46.18395" lon="5.32313">
        <ele>321.6</ele>
        <time>2022-05-24T12:05:54Z</time>
      </trkpt>
      <trkpt lat="46.18385" lon="5.32316">
        <ele>322.4</ele>
        <time>2022-05-24T12:05:56Z</time>
      </trkpt>
      <trkpt lat="46.18365" lon="5.32323">
        <ele>323.4</ele>
        <time>2022-05-24T12:06:00Z</time>
      </trkpt>
      <trkpt lat="46.18351" lon="5.32332">
        <ele>324.2</ele>
        <time>2022-05-24T12:06:03Z</time>
      </trkpt>
      <trkpt lat="46.18332" lon="5.32338">
        <ele>324.4</ele>
        <time>2022-05-24T12:06:07Z</time>
      </trkpt>
      <trkpt lat="46.18313" lon="5.32346">
        <ele>324.8</ele>
        <time>2022-05-24T12:06:11Z</time>
      </trkpt>
      <trkpt lat="46.18308" lon="5.32349">
        <ele>325</ele>
        <time>2022-05-24T12:06:12Z</time>
      </trkpt>
      <trkpt lat="46.18273" lon="5.32372">
        <ele>325.8</ele>
        <time>2022-05-24T12:06:19Z</time>
      </trkpt>
      <trkpt lat="46.18244" lon="5.32393">
        <ele>326</ele>
        <time>2022-05-24T12:06:24Z</time>
      </trkpt>
      <trkpt lat="46.18211" lon="5.32422">
        <ele>325.4</ele>
        <time>2022-05-24T12:06:29Z</time>
      </trkpt>
      <trkpt lat="46.18175" lon="5.32458">
        <ele>325</ele>
        <time>2022-05-24T12:06:35Z</time>
      </trkpt>
      <trkpt lat="46.18163" lon="5.32471">
        <ele>325</ele>
        <time>2022-05-24T12:06:37Z</time>
      </trkpt>
      <trkpt lat="46.18129" lon="5.32499">
        <ele>325.2</ele>
        <time>2022-05-24T12:06:42Z</time>
      </trkpt>
      <trkpt lat="46.18088" lon="5.32516">
        <ele>325.6</ele>
        <time>2022-05-24T12:06:48Z</time>
      </trkpt>
      <trkpt lat="46.18037" lon="5.3253">
        <ele>326</ele>
        <time>2022-05-24T12:06:55Z</time>
      </trkpt>
      <trkpt lat="46.17988" lon="5.32535">
        <ele>326.2</ele>
        <time>2022-05-24T12:07:02Z</time>
      </trkpt>
      <trkpt lat="46.17965" lon="5.32535">
        <ele>326.8</ele>
        <time>2022-05-24T12:07:06Z</time>
      </trkpt>
      <trkpt lat="46.17958" lon="5.32535">
        <ele>327</ele>
        <time>2022-05-24T12:07:07Z</time>
      </trkpt>
      <trkpt lat="46.17953" lon="5.32534">
        <ele>327.4</ele>
        <time>2022-05-24T12:07:08Z</time>
      </trkpt>
      <trkpt lat="46.17939" lon="5.32531">
        <ele>327.8</ele>
        <time>2022-05-24T12:07:11Z</time>
      </trkpt>
      <trkpt lat="46.17935" lon="5.32529">
        <ele>328.2</ele>
        <time>2022-05-24T12:07:12Z</time>
      </trkpt>
      <trkpt lat="46.17925" lon="5.32524">
        <ele>329.2</ele>
        <time>2022-05-24T12:07:15Z</time>
      </trkpt>
      <trkpt lat="46.17919" lon="5.32521">
        <ele>329.8</ele>
        <time>2022-05-24T12:07:17Z</time>
      </trkpt>
      <trkpt lat="46.17911" lon="5.32518">
        <ele>330.6</ele>
        <time>2022-05-24T12:07:19Z</time>
      </trkpt>
      <trkpt lat="46.17902" lon="5.32506">
        <ele>331.4</ele>
        <time>2022-05-24T12:07:22Z</time>
      </trkpt>
      <trkpt lat="46.17899" lon="5.32499">
        <ele>331.6</ele>
        <time>2022-05-24T12:07:23Z</time>
      </trkpt>
      <trkpt lat="46.17893" lon="5.32481">
        <ele>331.8</ele>
        <time>2022-05-24T12:07:25Z</time>
      </trkpt>
      <trkpt lat="46.17889" lon="5.32468">
        <ele>332</ele>
        <time>2022-05-24T12:07:27Z</time>
      </trkpt>
      <trkpt lat="46.17884" lon="5.32455">
        <ele>332</ele>
        <time>2022-05-24T12:07:29Z</time>
      </trkpt>
      <trkpt lat="46.1788" lon="5.3245">
        <ele>332</ele>
        <time>2022-05-24T12:07:30Z</time>
      </trkpt>
      <trkpt lat="46.17874" lon="5.32447">
        <ele>332</ele>
        <time>2022-05-24T12:07:31Z</time>
      </trkpt>
      <trkpt lat="46.17859" lon="5.32441">
        <ele>331.8</ele>
        <time>2022-05-24T12:07:33Z</time>
      </trkpt>
      <trkpt lat="46.17854" lon="5.3244">
        <ele>331.8</ele>
        <time>2022-05-24T12:07:34Z</time>
      </trkpt>
      <trkpt lat="46.17844" lon="5.32439">
        <ele>331.6</ele>
        <time>2022-05-24T12:07:36Z</time>
      </trkpt>
      <trkpt lat="46.17824" lon="5.32441">
        <ele>331.4</ele>
        <time>2022-05-24T12:07:40Z</time>
      </trkpt>
      <trkpt lat="46.17819" lon="5.32441">
        <ele>331.2</ele>
        <time>2022-05-24T12:07:41Z</time>
      </trkpt>
      <trkpt lat="46.17797" lon="5.32441">
        <ele>331</ele>
        <time>2022-05-24T12:07:46Z</time>
      </trkpt>
      <trkpt lat="46.17792" lon="5.32443">
        <ele>330.8</ele>
        <time>2022-05-24T12:07:47Z</time>
      </trkpt>
      <trkpt lat="46.17786" lon="5.32447">
        <ele>330.6</ele>
        <time>2022-05-24T12:07:48Z</time>
      </trkpt>
      <trkpt lat="46.17782" lon="5.3245">
        <ele>330.2</ele>
        <time>2022-05-24T12:07:49Z</time>
      </trkpt>
      <trkpt lat="46.17769" lon="5.32459">
        <ele>329.6</ele>
        <time>2022-05-24T12:07:51Z</time>
      </trkpt>
      <trkpt lat="46.17748" lon="5.32472">
        <ele>328.8</ele>
        <time>2022-05-24T12:07:54Z</time>
      </trkpt>
      <trkpt lat="46.17734" lon="5.3248">
        <ele>328.2</ele>
        <time>2022-05-24T12:07:56Z</time>
      </trkpt>
      <trkpt lat="46.17712" lon="5.32494">
        <ele>326.8</ele>
        <time>2022-05-24T12:07:59Z</time>
      </trkpt>
      <trkpt lat="46.17704" lon="5.325">
        <ele>326.8</ele>
        <time>2022-05-24T12:08:00Z</time>
      </trkpt>
      <trkpt lat="46.17697" lon="5.32507">
        <ele>326.2</ele>
        <time>2022-05-24T12:08:01Z</time>
      </trkpt>
      <trkpt lat="46.17685" lon="5.32523">
        <ele>325.6</ele>
        <time>2022-05-24T12:08:03Z</time>
      </trkpt>
      <trkpt lat="46.1768" lon="5.32531">
        <ele>324.8</ele>
        <time>2022-05-24T12:08:04Z</time>
      </trkpt>
      <trkpt lat="46.17675" lon="5.3254">
        <ele>324.4</ele>
        <time>2022-05-24T12:08:05Z</time>
      </trkpt>
      <trkpt lat="46.17665" lon="5.32554">
        <ele>323.4</ele>
        <time>2022-05-24T12:08:07Z</time>
      </trkpt>
      <trkpt lat="46.17652" lon="5.32562">
        <ele>322.2</ele>
        <time>2022-05-24T12:08:09Z</time>
      </trkpt>
      <trkpt lat="46.17645" lon="5.32563">
        <ele>321.4</ele>
        <time>2022-05-24T12:08:10Z</time>
      </trkpt>
      <trkpt lat="46.17637" lon="5.32562">
        <ele>320.6</ele>
        <time>2022-05-24T12:08:11Z</time>
      </trkpt>
      <trkpt lat="46.1763" lon="5.3256">
        <ele>319.4</ele>
        <time>2022-05-24T12:08:13Z</time>
      </trkpt>
      <trkpt lat="46.17617" lon="5.32558">
        <ele>319.2</ele>
        <time>2022-05-24T12:08:14Z</time>
      </trkpt>
      <trkpt lat="46.17609" lon="5.3256">
        <ele>318.6</ele>
        <time>2022-05-24T12:08:15Z</time>
      </trkpt>
      <trkpt lat="46.17599" lon="5.32564">
        <ele>318.6</ele>
        <time>2022-05-24T12:08:16Z</time>
      </trkpt>
      <trkpt lat="46.17588" lon="5.32575">
        <ele>318.4</ele>
        <time>2022-05-24T12:08:18Z</time>
      </trkpt>
      <trkpt lat="46.17558" lon="5.32607">
        <ele>319.4</ele>
        <time>2022-05-24T12:08:24Z</time>
      </trkpt>
      <trkpt lat="46.17548" lon="5.32615">
        <ele>320</ele>
        <time>2022-05-24T12:08:26Z</time>
      </trkpt>
      <trkpt lat="46.17543" lon="5.32618">
        <ele>320.6</ele>
        <time>2022-05-24T12:08:27Z</time>
      </trkpt>
      <trkpt lat="46.17534" lon="5.32623">
        <ele>321.2</ele>
        <time>2022-05-24T12:08:29Z</time>
      </trkpt>
      <trkpt lat="46.17528" lon="5.32625">
        <ele>321.4</ele>
        <time>2022-05-24T12:08:30Z</time>
      </trkpt>
      <trkpt lat="46.17523" lon="5.32627">
        <ele>321.6</ele>
        <time>2022-05-24T12:08:31Z</time>
      </trkpt>
      <trkpt lat="46.17518" lon="5.32629">
        <ele>322</ele>
        <time>2022-05-24T12:08:32Z</time>
      </trkpt>
      <trkpt lat="46.17509" lon="5.32629">
        <ele>322.6</ele>
        <time>2022-05-24T12:08:34Z</time>
      </trkpt>
      <trkpt lat="46.17504" lon="5.32627">
        <ele>322.8</ele>
        <time>2022-05-24T12:08:35Z</time>
      </trkpt>
      <trkpt lat="46.175" lon="5.32624">
        <ele>323</ele>
        <time>2022-05-24T12:08:36Z</time>
      </trkpt>
      <trkpt lat="46.17493" lon="5.32617">
        <ele>324</ele>
        <time>2022-05-24T12:08:38Z</time>
      </trkpt>
      <trkpt lat="46.17476" lon="5.32595">
        <ele>325</ele>
        <time>2022-05-24T12:08:43Z</time>
      </trkpt>
      <trkpt lat="46.17462" lon="5.32579">
        <ele>325.6</ele>
        <time>2022-05-24T12:08:47Z</time>
      </trkpt>
      <trkpt lat="46.17455" lon="5.32573">
        <ele>326.2</ele>
        <time>2022-05-24T12:08:49Z</time>
      </trkpt>
      <trkpt lat="46.17447" lon="5.3257">
        <ele>326.4</ele>
        <time>2022-05-24T12:08:51Z</time>
      </trkpt>
      <trkpt lat="46.17443" lon="5.32569">
        <ele>326.6</ele>
        <time>2022-05-24T12:08:52Z</time>
      </trkpt>
      <trkpt lat="46.17435" lon="5.3257">
        <ele>327.4</ele>
        <time>2022-05-24T12:08:54Z</time>
      </trkpt>
      <trkpt lat="46.17423" lon="5.32573">
        <ele>329</ele>
        <time>2022-05-24T12:08:57Z</time>
      </trkpt>
      <trkpt lat="46.17419" lon="5.32574">
        <ele>329.2</ele>
        <time>2022-05-24T12:08:58Z</time>
      </trkpt>
      <trkpt lat="46.17416" lon="5.32575">
        <ele>329.6</ele>
        <time>2022-05-24T12:08:59Z</time>
      </trkpt>
      <trkpt lat="46.17408" lon="5.32578">
        <ele>330</ele>
        <time>2022-05-24T12:09:01Z</time>
      </trkpt>
      <trkpt lat="46.17388" lon="5.32587">
        <ele>331.4</ele>
        <time>2022-05-24T12:09:06Z</time>
      </trkpt>
      <trkpt lat="46.17385" lon="5.32589">
        <ele>331.6</ele>
        <time>2022-05-24T12:09:07Z</time>
      </trkpt>
      <trkpt lat="46.17378" lon="5.32593">
        <ele>332.4</ele>
        <time>2022-05-24T12:09:09Z</time>
      </trkpt>
      <trkpt lat="46.1736" lon="5.32602">
        <ele>333.6</ele>
        <time>2022-05-24T12:09:14Z</time>
      </trkpt>
      <trkpt lat="46.17356" lon="5.32604">
        <ele>333.8</ele>
        <time>2022-05-24T12:09:15Z</time>
      </trkpt>
      <trkpt lat="46.17347" lon="5.3261">
        <ele>334.6</ele>
        <time>2022-05-24T12:09:18Z</time>
      </trkpt>
      <trkpt lat="46.17333" lon="5.32617">
        <ele>335.6</ele>
        <time>2022-05-24T12:09:22Z</time>
      </trkpt>
      <trkpt lat="46.17322" lon="5.32623">
        <ele>336.2</ele>
        <time>2022-05-24T12:09:25Z</time>
      </trkpt>
      <trkpt lat="46.17312" lon="5.32627">
        <ele>336.6</ele>
        <time>2022-05-24T12:09:28Z</time>
      </trkpt>
      <trkpt lat="46.17291" lon="5.32636">
        <ele>338</ele>
        <time>2022-05-24T12:09:34Z</time>
      </trkpt>
      <trkpt lat="46.17266" lon="5.32644">
        <ele>339.4</ele>
        <time>2022-05-24T12:09:41Z</time>
      </trkpt>
      <trkpt lat="46.17262" lon="5.32645">
        <ele>339.4</ele>
        <time>2022-05-24T12:09:42Z</time>
      </trkpt>
      <trkpt lat="46.1726" lon="5.32646">
        <ele>339.6</ele>
        <time>2022-05-24T12:09:43Z</time>
      </trkpt>
      <trkpt lat="46.17237" lon="5.32652">
        <ele>340.4</ele>
        <time>2022-05-24T12:09:48Z</time>
      </trkpt>
      <trkpt lat="46.17228" lon="5.32654">
        <ele>340.8</ele>
        <time>2022-05-24T12:09:50Z</time>
      </trkpt>
      <trkpt lat="46.17199" lon="5.32661">
        <ele>341.8</ele>
        <time>2022-05-24T12:09:57Z</time>
      </trkpt>
      <trkpt lat="46.1719" lon="5.32662">
        <ele>342.2</ele>
        <time>2022-05-24T12:09:59Z</time>
      </trkpt>
      <trkpt lat="46.17173" lon="5.32666">
        <ele>342.8</ele>
        <time>2022-05-24T12:10:03Z</time>
      </trkpt>
      <trkpt lat="46.17146" lon="5.32667">
        <ele>343.8</ele>
        <time>2022-05-24T12:10:09Z</time>
      </trkpt>
      <trkpt lat="46.17142" lon="5.32667">
        <ele>344</ele>
        <time>2022-05-24T12:10:10Z</time>
      </trkpt>
      <trkpt lat="46.171" lon="5.32667">
        <ele>345</ele>
        <time>2022-05-24T12:10:18Z</time>
      </trkpt>
      <trkpt lat="46.17094" lon="5.32668">
        <ele>345.2</ele>
        <time>2022-05-24T12:10:19Z</time>
      </trkpt>
      <trkpt lat="46.17051" lon="5.32673">
        <ele>345.6</ele>
        <time>2022-05-24T12:10:27Z</time>
      </trkpt>
      <trkpt lat="46.17034" lon="5.32675">
        <ele>346.2</ele>
        <time>2022-05-24T12:10:30Z</time>
      </trkpt>
      <trkpt lat="46.17012" lon="5.32677">
        <ele>347</ele>
        <time>2022-05-24T12:10:34Z</time>
      </trkpt>
      <trkpt lat="46.17006" lon="5.32677">
        <ele>347.2</ele>
        <time>2022-05-24T12:10:35Z</time>
      </trkpt>
      <trkpt lat="46.16968" lon="5.32684">
        <ele>347.8</ele>
        <time>2022-05-24T12:10:42Z</time>
      </trkpt>
      <trkpt lat="46.16938" lon="5.32689">
        <ele>348.2</ele>
        <time>2022-05-24T12:10:47Z</time>
      </trkpt>
      <trkpt lat="46.16932" lon="5.3269">
        <ele>348.4</ele>
        <time>2022-05-24T12:10:48Z</time>
      </trkpt>
      <trkpt lat="46.16891" lon="5.32698">
        <ele>349.2</ele>
        <time>2022-05-24T12:10:55Z</time>
      </trkpt>
      <trkpt lat="46.1688" lon="5.32699">
        <ele>349.4</ele>
        <time>2022-05-24T12:10:57Z</time>
      </trkpt>
      <trkpt lat="46.16868" lon="5.32702">
        <ele>349.6</ele>
        <time>2022-05-24T12:10:59Z</time>
      </trkpt>
      <trkpt lat="46.1685" lon="5.32706">
        <ele>350</ele>
        <time>2022-05-24T12:11:02Z</time>
      </trkpt>
      <trkpt lat="46.16815" lon="5.32711">
        <ele>350.2</ele>
        <time>2022-05-24T12:11:08Z</time>
      </trkpt>
      <trkpt lat="46.16808" lon="5.32713">
        <ele>350.4</ele>
        <time>2022-05-24T12:11:09Z</time>
      </trkpt>
      <trkpt lat="46.16762" lon="5.32721">
        <ele>351.2</ele>
        <time>2022-05-24T12:11:17Z</time>
      </trkpt>
      <trkpt lat="46.1675" lon="5.32722">
        <ele>351.6</ele>
        <time>2022-05-24T12:11:19Z</time>
      </trkpt>
      <trkpt lat="46.1672" lon="5.32728">
        <ele>352.4</ele>
        <time>2022-05-24T12:11:24Z</time>
      </trkpt>
      <trkpt lat="46.16695" lon="5.32733">
        <ele>352.6</ele>
        <time>2022-05-24T12:11:28Z</time>
      </trkpt>
      <trkpt lat="46.16686" lon="5.32734">
        <ele>352.6</ele>
        <time>2022-05-24T12:11:29Z</time>
      </trkpt>
      <trkpt lat="46.16633" lon="5.32746">
        <ele>352.2</ele>
        <time>2022-05-24T12:11:36Z</time>
      </trkpt>
      <trkpt lat="46.16618" lon="5.3275">
        <ele>351.4</ele>
        <time>2022-05-24T12:11:38Z</time>
      </trkpt>
      <trkpt lat="46.16602" lon="5.32754">
        <ele>351</ele>
        <time>2022-05-24T12:11:40Z</time>
      </trkpt>
      <trkpt lat="46.16586" lon="5.32757">
        <ele>350.6</ele>
        <time>2022-05-24T12:11:42Z</time>
      </trkpt>
      <trkpt lat="46.16578" lon="5.32759">
        <ele>350.4</ele>
        <time>2022-05-24T12:11:43Z</time>
      </trkpt>
      <trkpt lat="46.16554" lon="5.32766">
        <ele>349.4</ele>
        <time>2022-05-24T12:11:46Z</time>
      </trkpt>
      <trkpt lat="46.16546" lon="5.32767">
        <ele>349.2</ele>
        <time>2022-05-24T12:11:47Z</time>
      </trkpt>
      <trkpt lat="46.16538" lon="5.32769">
        <ele>349</ele>
        <time>2022-05-24T12:11:48Z</time>
      </trkpt>
      <trkpt lat="46.16495" lon="5.32782">
        <ele>348</ele>
        <time>2022-05-24T12:11:53Z</time>
      </trkpt>
      <trkpt lat="46.16486" lon="5.32785">
        <ele>347.6</ele>
        <time>2022-05-24T12:11:54Z</time>
      </trkpt>
      <trkpt lat="46.16467" lon="5.32789">
        <ele>346.8</ele>
        <time>2022-05-24T12:11:56Z</time>
      </trkpt>
      <trkpt lat="46.16448" lon="5.32794">
        <ele>346</ele>
        <time>2022-05-24T12:11:58Z</time>
      </trkpt>
      <trkpt lat="46.16439" lon="5.32799">
        <ele>345.6</ele>
        <time>2022-05-24T12:11:59Z</time>
      </trkpt>
      <trkpt lat="46.16431" lon="5.32804">
        <ele>345.2</ele>
        <time>2022-05-24T12:12:00Z</time>
      </trkpt>
      <trkpt lat="46.16418" lon="5.32821">
        <ele>344.4</ele>
        <time>2022-05-24T12:12:02Z</time>
      </trkpt>
      <trkpt lat="46.16408" lon="5.32841">
        <ele>343.8</ele>
        <time>2022-05-24T12:12:04Z</time>
      </trkpt>
      <trkpt lat="46.16405" lon="5.32851">
        <ele>343.8</ele>
        <time>2022-05-24T12:12:05Z</time>
      </trkpt>
      <trkpt lat="46.16384" lon="5.32901">
        <ele>343.8</ele>
        <time>2022-05-24T12:12:10Z</time>
      </trkpt>
      <trkpt lat="46.16371" lon="5.3294">
        <ele>344.2</ele>
        <time>2022-05-24T12:12:14Z</time>
      </trkpt>
      <trkpt lat="46.16366" lon="5.32958">
        <ele>345</ele>
        <time>2022-05-24T12:12:16Z</time>
      </trkpt>
      <trkpt lat="46.16359" lon="5.3297">
        <ele>345.4</ele>
        <time>2022-05-24T12:12:18Z</time>
      </trkpt>
      <trkpt lat="46.16345" lon="5.32978">
        <ele>346.6</ele>
        <time>2022-05-24T12:12:21Z</time>
      </trkpt>
      <trkpt lat="46.1634" lon="5.3298">
        <ele>347</ele>
        <time>2022-05-24T12:12:22Z</time>
      </trkpt>
      <trkpt lat="46.16334" lon="5.32982">
        <ele>347.2</ele>
        <time>2022-05-24T12:12:23Z</time>
      </trkpt>
      <trkpt lat="46.16322" lon="5.32981">
        <ele>347.4</ele>
        <time>2022-05-24T12:12:25Z</time>
      </trkpt>
      <trkpt lat="46.16316" lon="5.32981">
        <ele>347.6</ele>
        <time>2022-05-24T12:12:26Z</time>
      </trkpt>
      <trkpt lat="46.16309" lon="5.3298">
        <ele>347.6</ele>
        <time>2022-05-24T12:12:27Z</time>
      </trkpt>
      <trkpt lat="46.16297" lon="5.32976">
        <ele>347.6</ele>
        <time>2022-05-24T12:12:29Z</time>
      </trkpt>
      <trkpt lat="46.16287" lon="5.32972">
        <ele>347.4</ele>
        <time>2022-05-24T12:12:31Z</time>
      </trkpt>
      <trkpt lat="46.1628" lon="5.3297">
        <ele>346.8</ele>
        <time>2022-05-24T12:12:33Z</time>
      </trkpt>
      <trkpt lat="46.16278" lon="5.32975">
        <ele>346.4</ele>
        <time>2022-05-24T12:12:35Z</time>
      </trkpt>
      <trkpt lat="46.16278" lon="5.3298">
        <ele>346.2</ele>
        <time>2022-05-24T12:12:36Z</time>
      </trkpt>
      <trkpt lat="46.16272" lon="5.33009">
        <ele>345.4</ele>
        <time>2022-05-24T12:12:40Z</time>
      </trkpt>
      <trkpt lat="46.16265" lon="5.33039">
        <ele>345</ele>
        <time>2022-05-24T12:12:43Z</time>
      </trkpt>
      <trkpt lat="46.16264" lon="5.3305">
        <ele>345</ele>
        <time>2022-05-24T12:12:44Z</time>
      </trkpt>
      <trkpt lat="46.16262" lon="5.33084">
        <ele>343.8</ele>
        <time>2022-05-24T12:12:47Z</time>
      </trkpt>
      <trkpt lat="46.16263" lon="5.33107">
        <ele>342.8</ele>
        <time>2022-05-24T12:12:49Z</time>
      </trkpt>
      <trkpt lat="46.16262" lon="5.33119">
        <ele>342.2</ele>
        <time>2022-05-24T12:12:50Z</time>
      </trkpt>
      <trkpt lat="46.16261" lon="5.33131">
        <ele>342.2</ele>
        <time>2022-05-24T12:12:51Z</time>
      </trkpt>
      <trkpt lat="46.16258" lon="5.33151">
        <ele>341.8</ele>
        <time>2022-05-24T12:12:53Z</time>
      </trkpt>
      <trkpt lat="46.16254" lon="5.3316">
        <ele>341.8</ele>
        <time>2022-05-24T12:12:54Z</time>
      </trkpt>
      <trkpt lat="46.16249" lon="5.33167">
        <ele>341.8</ele>
        <time>2022-05-24T12:12:55Z</time>
      </trkpt>
      <trkpt lat="46.16239" lon="5.33179">
        <ele>341.8</ele>
        <time>2022-05-24T12:12:57Z</time>
      </trkpt>
      <trkpt lat="46.1623" lon="5.33191">
        <ele>341.8</ele>
        <time>2022-05-24T12:12:59Z</time>
      </trkpt>
      <trkpt lat="46.16225" lon="5.33204">
        <ele>342</ele>
        <time>2022-05-24T12:13:01Z</time>
      </trkpt>
      <trkpt lat="46.16219" lon="5.33223">
        <ele>343.2</ele>
        <time>2022-05-24T12:13:04Z</time>
      </trkpt>
      <trkpt lat="46.16217" lon="5.33229">
        <ele>343.2</ele>
        <time>2022-05-24T12:13:05Z</time>
      </trkpt>
      <trkpt lat="46.16214" lon="5.3324">
        <ele>343.8</ele>
        <time>2022-05-24T12:13:07Z</time>
      </trkpt>
      <trkpt lat="46.16212" lon="5.33245">
        <ele>344.4</ele>
        <time>2022-05-24T12:13:08Z</time>
      </trkpt>
      <trkpt lat="46.16206" lon="5.33267">
        <ele>345.4</ele>
        <time>2022-05-24T12:13:12Z</time>
      </trkpt>
      <trkpt lat="46.16204" lon="5.33273">
        <ele>345.8</ele>
        <time>2022-05-24T12:13:13Z</time>
      </trkpt>
      <trkpt lat="46.16203" lon="5.33284">
        <ele>346.4</ele>
        <time>2022-05-24T12:13:15Z</time>
      </trkpt>
      <trkpt lat="46.16201" lon="5.333">
        <ele>347.4</ele>
        <time>2022-05-24T12:13:18Z</time>
      </trkpt>
      <trkpt lat="46.16198" lon="5.33321">
        <ele>348.6</ele>
        <time>2022-05-24T12:13:22Z</time>
      </trkpt>
      <trkpt lat="46.16198" lon="5.33326">
        <ele>348.8</ele>
        <time>2022-05-24T12:13:23Z</time>
      </trkpt>
      <trkpt lat="46.16197" lon="5.33336">
        <ele>349.6</ele>
        <time>2022-05-24T12:13:25Z</time>
      </trkpt>
      <trkpt lat="46.16193" lon="5.33366">
        <ele>350.6</ele>
        <time>2022-05-24T12:13:31Z</time>
      </trkpt>
      <trkpt lat="46.16193" lon="5.33371">
        <ele>350.6</ele>
        <time>2022-05-24T12:13:32Z</time>
      </trkpt>
      <trkpt lat="46.16191" lon="5.33381">
        <ele>351.6</ele>
        <time>2022-05-24T12:13:34Z</time>
      </trkpt>
      <trkpt lat="46.16189" lon="5.33405">
        <ele>352.8</ele>
        <time>2022-05-24T12:13:39Z</time>
      </trkpt>
      <trkpt lat="46.16187" lon="5.33429">
        <ele>353.8</ele>
        <time>2022-05-24T12:13:44Z</time>
      </trkpt>
      <trkpt lat="46.16185" lon="5.33448">
        <ele>355</ele>
        <time>2022-05-24T12:13:48Z</time>
      </trkpt>
      <trkpt lat="46.16183" lon="5.33462">
        <ele>355.6</ele>
        <time>2022-05-24T12:13:51Z</time>
      </trkpt>
      <trkpt lat="46.16182" lon="5.33476">
        <ele>356.2</ele>
        <time>2022-05-24T12:13:54Z</time>
      </trkpt>
      <trkpt lat="46.16179" lon="5.33503">
        <ele>357.4</ele>
        <time>2022-05-24T12:14:00Z</time>
      </trkpt>
      <trkpt lat="46.16175" lon="5.33526">
        <ele>358.6</ele>
        <time>2022-05-24T12:14:05Z</time>
      </trkpt>
      <trkpt lat="46.16171" lon="5.33539">
        <ele>359.6</ele>
        <time>2022-05-24T12:14:08Z</time>
      </trkpt>
      <trkpt lat="46.16168" lon="5.33557">
        <ele>360.6</ele>
        <time>2022-05-24T12:14:13Z</time>
      </trkpt>
      <trkpt lat="46.16165" lon="5.33575">
        <ele>361.8</ele>
        <time>2022-05-24T12:14:16Z</time>
      </trkpt>
      <trkpt lat="46.16164" lon="5.33579">
        <ele>361.8</ele>
        <time>2022-05-24T12:14:17Z</time>
      </trkpt>
      <trkpt lat="46.16162" lon="5.33601">
        <ele>363</ele>
        <time>2022-05-24T12:14:22Z</time>
      </trkpt>
      <trkpt lat="46.16162" lon="5.33605">
        <ele>363.4</ele>
        <time>2022-05-24T12:14:23Z</time>
      </trkpt>
      <trkpt lat="46.16161" lon="5.33617">
        <ele>364.2</ele>
        <time>2022-05-24T12:14:26Z</time>
      </trkpt>
      <trkpt lat="46.1616" lon="5.33633">
        <ele>365.4</ele>
        <time>2022-05-24T12:14:30Z</time>
      </trkpt>
      <trkpt lat="46.1616" lon="5.33638">
        <ele>365.6</ele>
        <time>2022-05-24T12:14:31Z</time>
      </trkpt>
      <trkpt lat="46.16161" lon="5.33656">
        <ele>366.6</ele>
        <time>2022-05-24T12:14:35Z</time>
      </trkpt>
      <trkpt lat="46.16163" lon="5.33669">
        <ele>367.6</ele>
        <time>2022-05-24T12:14:38Z</time>
      </trkpt>
      <trkpt lat="46.16165" lon="5.33692">
        <ele>369</ele>
        <time>2022-05-24T12:14:43Z</time>
      </trkpt>
      <trkpt lat="46.16168" lon="5.33713">
        <ele>370</ele>
        <time>2022-05-24T12:14:48Z</time>
      </trkpt>
      <trkpt lat="46.1617" lon="5.33735">
        <ele>371.2</ele>
        <time>2022-05-24T12:14:53Z</time>
      </trkpt>
      <trkpt lat="46.16172" lon="5.33748">
        <ele>371.8</ele>
        <time>2022-05-24T12:14:56Z</time>
      </trkpt>
      <trkpt lat="46.16172" lon="5.33753">
        <ele>372.2</ele>
        <time>2022-05-24T12:14:57Z</time>
      </trkpt>
      <trkpt lat="46.16175" lon="5.33776">
        <ele>373.2</ele>
        <time>2022-05-24T12:15:02Z</time>
      </trkpt>
      <trkpt lat="46.16176" lon="5.33785">
        <ele>373.6</ele>
        <time>2022-05-24T12:15:04Z</time>
      </trkpt>
      <trkpt lat="46.16177" lon="5.33799">
        <ele>374.6</ele>
        <time>2022-05-24T12:15:07Z</time>
      </trkpt>
      <trkpt lat="46.16179" lon="5.33822">
        <ele>375.8</ele>
        <time>2022-05-24T12:15:13Z</time>
      </trkpt>
      <trkpt lat="46.16179" lon="5.33827">
        <ele>376.2</ele>
        <time>2022-05-24T12:15:14Z</time>
      </trkpt>
      <trkpt lat="46.16181" lon="5.33845">
        <ele>377</ele>
        <time>2022-05-24T12:15:18Z</time>
      </trkpt>
      <trkpt lat="46.16181" lon="5.33858">
        <ele>377.8</ele>
        <time>2022-05-24T12:15:21Z</time>
      </trkpt>
      <trkpt lat="46.16181" lon="5.33866">
        <ele>378.2</ele>
        <time>2022-05-24T12:15:23Z</time>
      </trkpt>
      <trkpt lat="46.16179" lon="5.33888">
        <ele>379.2</ele>
        <time>2022-05-24T12:15:28Z</time>
      </trkpt>
      <trkpt lat="46.16177" lon="5.33906">
        <ele>380.4</ele>
        <time>2022-05-24T12:15:32Z</time>
      </trkpt>
      <trkpt lat="46.16174" lon="5.33924">
        <ele>381.4</ele>
        <time>2022-05-24T12:15:36Z</time>
      </trkpt>
      <trkpt lat="46.16173" lon="5.33932">
        <ele>381.8</ele>
        <time>2022-05-24T12:15:38Z</time>
      </trkpt>
      <trkpt lat="46.16171" lon="5.3394">
        <ele>382.4</ele>
        <time>2022-05-24T12:15:40Z</time>
      </trkpt>
      <trkpt lat="46.16166" lon="5.33957">
        <ele>383.4</ele>
        <time>2022-05-24T12:15:44Z</time>
      </trkpt>
      <trkpt lat="46.16163" lon="5.33969">
        <ele>384.2</ele>
        <time>2022-05-24T12:15:47Z</time>
      </trkpt>
      <trkpt lat="46.16162" lon="5.33973">
        <ele>384.6</ele>
        <time>2022-05-24T12:15:48Z</time>
      </trkpt>
      <trkpt lat="46.16157" lon="5.33989">
        <ele>385.6</ele>
        <time>2022-05-24T12:15:52Z</time>
      </trkpt>
      <trkpt lat="46.16153" lon="5.34">
        <ele>386.4</ele>
        <time>2022-05-24T12:15:55Z</time>
      </trkpt>
      <trkpt lat="46.16151" lon="5.34008">
        <ele>386.8</ele>
        <time>2022-05-24T12:15:57Z</time>
      </trkpt>
      <trkpt lat="46.16143" lon="5.34031">
        <ele>387.8</ele>
        <time>2022-05-24T12:16:03Z</time>
      </trkpt>
      <trkpt lat="46.16142" lon="5.34035">
        <ele>388</ele>
        <time>2022-05-24T12:16:04Z</time>
      </trkpt>
      <trkpt lat="46.16138" lon="5.34047">
        <ele>389</ele>
        <time>2022-05-24T12:16:07Z</time>
      </trkpt>
      <trkpt lat="46.16132" lon="5.34068">
        <ele>390.2</ele>
        <time>2022-05-24T12:16:12Z</time>
      </trkpt>
      <trkpt lat="46.16129" lon="5.3408">
        <ele>391</ele>
        <time>2022-05-24T12:16:15Z</time>
      </trkpt>
      <trkpt lat="46.16127" lon="5.34084">
        <ele>391.2</ele>
        <time>2022-05-24T12:16:16Z</time>
      </trkpt>
      <trkpt lat="46.16123" lon="5.34101">
        <ele>392.4</ele>
        <time>2022-05-24T12:16:20Z</time>
      </trkpt>
      <trkpt lat="46.1612" lon="5.34114">
        <ele>393.4</ele>
        <time>2022-05-24T12:16:23Z</time>
      </trkpt>
      <trkpt lat="46.16118" lon="5.34122">
        <ele>393.8</ele>
        <time>2022-05-24T12:16:25Z</time>
      </trkpt>
      <trkpt lat="46.16117" lon="5.3414">
        <ele>394.6</ele>
        <time>2022-05-24T12:16:29Z</time>
      </trkpt>
      <trkpt lat="46.16117" lon="5.34162">
        <ele>395.8</ele>
        <time>2022-05-24T12:16:34Z</time>
      </trkpt>
      <trkpt lat="46.16117" lon="5.34179">
        <ele>396.8</ele>
        <time>2022-05-24T12:16:38Z</time>
      </trkpt>
      <trkpt lat="46.16117" lon="5.34197">
        <ele>398</ele>
        <time>2022-05-24T12:16:42Z</time>
      </trkpt>
      <trkpt lat="46.16117" lon="5.34201">
        <ele>398</ele>
        <time>2022-05-24T12:16:43Z</time>
      </trkpt>
      <trkpt lat="46.16116" lon="5.34223">
        <ele>399.4</ele>
        <time>2022-05-24T12:16:48Z</time>
      </trkpt>
      <trkpt lat="46.16116" lon="5.34244">
        <ele>400.2</ele>
        <time>2022-05-24T12:16:53Z</time>
      </trkpt>
      <trkpt lat="46.16116" lon="5.34251">
        <ele>400.4</ele>
        <time>2022-05-24T12:16:54Z</time>
      </trkpt>
      <trkpt lat="46.16115" lon="5.34275">
        <ele>401.4</ele>
        <time>2022-05-24T12:16:59Z</time>
      </trkpt>
      <trkpt lat="46.16114" lon="5.3429">
        <ele>401.8</ele>
        <time>2022-05-24T12:17:02Z</time>
      </trkpt>
      <trkpt lat="46.16113" lon="5.34306">
        <ele>402.4</ele>
        <time>2022-05-24T12:17:05Z</time>
      </trkpt>
      <trkpt lat="46.1611" lon="5.34341">
        <ele>403.4</ele>
        <time>2022-05-24T12:17:11Z</time>
      </trkpt>
      <trkpt lat="46.16109" lon="5.34347">
        <ele>403.6</ele>
        <time>2022-05-24T12:17:12Z</time>
      </trkpt>
      <trkpt lat="46.16107" lon="5.34379">
        <ele>404.4</ele>
        <time>2022-05-24T12:17:17Z</time>
      </trkpt>
      <trkpt lat="46.16102" lon="5.34423">
        <ele>404.4</ele>
        <time>2022-05-24T12:17:22Z</time>
      </trkpt>
      <trkpt lat="46.16099" lon="5.34486">
        <ele>403.4</ele>
        <time>2022-05-24T12:17:28Z</time>
      </trkpt>
      <trkpt lat="46.16099" lon="5.34509">
        <ele>402.2</ele>
        <time>2022-05-24T12:17:30Z</time>
      </trkpt>
      <trkpt lat="46.16099" lon="5.34541">
        <ele>401.2</ele>
        <time>2022-05-24T12:17:33Z</time>
      </trkpt>
      <trkpt lat="46.16096" lon="5.34564">
        <ele>401</ele>
        <time>2022-05-24T12:17:35Z</time>
      </trkpt>
      <trkpt lat="46.16082" lon="5.34616">
        <ele>400.6</ele>
        <time>2022-05-24T12:17:40Z</time>
      </trkpt>
      <trkpt lat="46.16056" lon="5.34676">
        <ele>400.8</ele>
        <time>2022-05-24T12:17:47Z</time>
      </trkpt>
      <trkpt lat="46.16028" lon="5.34726">
        <ele>401.6</ele>
        <time>2022-05-24T12:17:54Z</time>
      </trkpt>
      <trkpt lat="46.16017" lon="5.34747">
        <ele>402.2</ele>
        <time>2022-05-24T12:17:57Z</time>
      </trkpt>
      <trkpt lat="46.16002" lon="5.34783">
        <ele>403</ele>
        <time>2022-05-24T12:18:02Z</time>
      </trkpt>
      <trkpt lat="46.15999" lon="5.3479">
        <ele>403.2</ele>
        <time>2022-05-24T12:18:03Z</time>
      </trkpt>
      <trkpt lat="46.15988" lon="5.34821">
        <ele>404.4</ele>
        <time>2022-05-24T12:18:08Z</time>
      </trkpt>
      <trkpt lat="46.15975" lon="5.34867">
        <ele>404.8</ele>
        <time>2022-05-24T12:18:12Z</time>
      </trkpt>
      <trkpt lat="46.15958" lon="5.34936">
        <ele>404.4</ele>
        <time>2022-05-24T12:18:18Z</time>
      </trkpt>
      <trkpt lat="46.15949" lon="5.34972">
        <ele>403.4</ele>
        <time>2022-05-24T12:18:21Z</time>
      </trkpt>
      <trkpt lat="46.1594" lon="5.35009">
        <ele>402.2</ele>
        <time>2022-05-24T12:18:24Z</time>
      </trkpt>
      <trkpt lat="46.15937" lon="5.35021">
        <ele>402</ele>
        <time>2022-05-24T12:18:25Z</time>
      </trkpt>
      <trkpt lat="46.15926" lon="5.3507">
        <ele>401</ele>
        <time>2022-05-24T12:18:29Z</time>
      </trkpt>
      <trkpt lat="46.15912" lon="5.35118">
        <ele>400.4</ele>
        <time>2022-05-24T12:18:33Z</time>
      </trkpt>
      <trkpt lat="46.15907" lon="5.35129">
        <ele>400.4</ele>
        <time>2022-05-24T12:18:34Z</time>
      </trkpt>
      <trkpt lat="46.15901" lon="5.35139">
        <ele>400</ele>
        <time>2022-05-24T12:18:35Z</time>
      </trkpt>
      <trkpt lat="46.15881" lon="5.35163">
        <ele>399.8</ele>
        <time>2022-05-24T12:18:38Z</time>
      </trkpt>
      <trkpt lat="46.15873" lon="5.3517">
        <ele>399.6</ele>
        <time>2022-05-24T12:18:39Z</time>
      </trkpt>
      <trkpt lat="46.1585" lon="5.35183">
        <ele>399.4</ele>
        <time>2022-05-24T12:18:42Z</time>
      </trkpt>
      <trkpt lat="46.15809" lon="5.35203">
        <ele>400</ele>
        <time>2022-05-24T12:18:48Z</time>
      </trkpt>
      <trkpt lat="46.15791" lon="5.3521">
        <ele>401.2</ele>
        <time>2022-05-24T12:18:51Z</time>
      </trkpt>
      <trkpt lat="46.1578" lon="5.35215">
        <ele>401.6</ele>
        <time>2022-05-24T12:18:53Z</time>
      </trkpt>
      <trkpt lat="46.15776" lon="5.35218">
        <ele>402</ele>
        <time>2022-05-24T12:18:54Z</time>
      </trkpt>
      <trkpt lat="46.1577" lon="5.35222">
        <ele>402.2</ele>
        <time>2022-05-24T12:18:55Z</time>
      </trkpt>
      <trkpt lat="46.15765" lon="5.35224">
        <ele>402.6</ele>
        <time>2022-05-24T12:18:56Z</time>
      </trkpt>
      <trkpt lat="46.15756" lon="5.35229">
        <ele>402.8</ele>
        <time>2022-05-24T12:18:58Z</time>
      </trkpt>
      <trkpt lat="46.15752" lon="5.35233">
        <ele>403</ele>
        <time>2022-05-24T12:18:59Z</time>
      </trkpt>
      <trkpt lat="46.15747" lon="5.35237">
        <ele>403.2</ele>
        <time>2022-05-24T12:19:00Z</time>
      </trkpt>
      <trkpt lat="46.15744" lon="5.35242">
        <ele>403.6</ele>
        <time>2022-05-24T12:19:01Z</time>
      </trkpt>
      <trkpt lat="46.15734" lon="5.35253">
        <ele>404.8</ele>
        <time>2022-05-24T12:19:04Z</time>
      </trkpt>
      <trkpt lat="46.15731" lon="5.35257">
        <ele>405.4</ele>
        <time>2022-05-24T12:19:05Z</time>
      </trkpt>
      <trkpt lat="46.15728" lon="5.35261">
        <ele>406</ele>
        <time>2022-05-24T12:19:06Z</time>
      </trkpt>
      <trkpt lat="46.15718" lon="5.3528">
        <ele>407</ele>
        <time>2022-05-24T12:19:10Z</time>
      </trkpt>
      <trkpt lat="46.15716" lon="5.35285">
        <ele>407.2</ele>
        <time>2022-05-24T12:19:11Z</time>
      </trkpt>
      <trkpt lat="46.15704" lon="5.35307">
        <ele>408.4</ele>
        <time>2022-05-24T12:19:16Z</time>
      </trkpt>
      <trkpt lat="46.15702" lon="5.35312">
        <ele>408.8</ele>
        <time>2022-05-24T12:19:17Z</time>
      </trkpt>
      <trkpt lat="46.15696" lon="5.35325">
        <ele>409.6</ele>
        <time>2022-05-24T12:19:20Z</time>
      </trkpt>
      <trkpt lat="46.15688" lon="5.35342">
        <ele>410.8</ele>
        <time>2022-05-24T12:19:24Z</time>
      </trkpt>
      <trkpt lat="46.15686" lon="5.35347">
        <ele>411</ele>
        <time>2022-05-24T12:19:25Z</time>
      </trkpt>
      <trkpt lat="46.15679" lon="5.35359">
        <ele>411.8</ele>
        <time>2022-05-24T12:19:28Z</time>
      </trkpt>
      <trkpt lat="46.15672" lon="5.3537">
        <ele>412.8</ele>
        <time>2022-05-24T12:19:31Z</time>
      </trkpt>
      <trkpt lat="46.15665" lon="5.35382">
        <ele>413.8</ele>
        <time>2022-05-24T12:19:34Z</time>
      </trkpt>
      <trkpt lat="46.15663" lon="5.35386">
        <ele>414</ele>
        <time>2022-05-24T12:19:35Z</time>
      </trkpt>
      <trkpt lat="46.15655" lon="5.354">
        <ele>415</ele>
        <time>2022-05-24T12:19:39Z</time>
      </trkpt>
      <trkpt lat="46.15651" lon="5.35407">
        <ele>415.4</ele>
        <time>2022-05-24T12:19:41Z</time>
      </trkpt>
      <trkpt lat="46.15647" lon="5.35413">
        <ele>416</ele>
        <time>2022-05-24T12:19:43Z</time>
      </trkpt>
      <trkpt lat="46.15637" lon="5.35428">
        <ele>417.2</ele>
        <time>2022-05-24T12:19:48Z</time>
      </trkpt>
      <trkpt lat="46.15635" lon="5.35431">
        <ele>417.4</ele>
        <time>2022-05-24T12:19:49Z</time>
      </trkpt>
      <trkpt lat="46.15624" lon="5.35447">
        <ele>418.6</ele>
        <time>2022-05-24T12:19:54Z</time>
      </trkpt>
      <trkpt lat="46.15617" lon="5.35455">
        <ele>419.2</ele>
        <time>2022-05-24T12:19:57Z</time>
      </trkpt>
      <trkpt lat="46.15613" lon="5.3546">
        <ele>419.8</ele>
        <time>2022-05-24T12:19:59Z</time>
      </trkpt>
      <trkpt lat="46.15602" lon="5.35475">
        <ele>421</ele>
        <time>2022-05-24T12:20:04Z</time>
      </trkpt>
      <trkpt lat="46.15593" lon="5.35486">
        <ele>422</ele>
        <time>2022-05-24T12:20:08Z</time>
      </trkpt>
      <trkpt lat="46.15584" lon="5.35498">
        <ele>422.6</ele>
        <time>2022-05-24T12:20:12Z</time>
      </trkpt>
      <trkpt lat="46.15578" lon="5.35509">
        <ele>423.2</ele>
        <time>2022-05-24T12:20:15Z</time>
      </trkpt>
      <trkpt lat="46.15572" lon="5.3552">
        <ele>424.2</ele>
        <time>2022-05-24T12:20:18Z</time>
      </trkpt>
      <trkpt lat="46.15564" lon="5.35538">
        <ele>424.8</ele>
        <time>2022-05-24T12:20:22Z</time>
      </trkpt>
      <trkpt lat="46.15555" lon="5.35567">
        <ele>425.2</ele>
        <time>2022-05-24T12:20:27Z</time>
      </trkpt>
      <trkpt lat="46.15554" lon="5.35573">
        <ele>425.2</ele>
        <time>2022-05-24T12:20:28Z</time>
      </trkpt>
      <trkpt lat="46.15553" lon="5.3558">
        <ele>425.4</ele>
        <time>2022-05-24T12:20:29Z</time>
      </trkpt>
      <trkpt lat="46.15552" lon="5.356">
        <ele>425.8</ele>
        <time>2022-05-24T12:20:32Z</time>
      </trkpt>
      <trkpt lat="46.15552" lon="5.35607">
        <ele>425.8</ele>
        <time>2022-05-24T12:20:33Z</time>
      </trkpt>
      <trkpt lat="46.15554" lon="5.35642">
        <ele>426.2</ele>
        <time>2022-05-24T12:20:38Z</time>
      </trkpt>
      <trkpt lat="46.15555" lon="5.35649">
        <ele>426.4</ele>
        <time>2022-05-24T12:20:39Z</time>
      </trkpt>
      <trkpt lat="46.15558" lon="5.35682">
        <ele>427</ele>
        <time>2022-05-24T12:20:44Z</time>
      </trkpt>
      <trkpt lat="46.15557" lon="5.35689">
        <ele>427</ele>
        <time>2022-05-24T12:20:45Z</time>
      </trkpt>
      <trkpt lat="46.15555" lon="5.35699">
        <ele>427.2</ele>
        <time>2022-05-24T12:20:46Z</time>
      </trkpt>
      <trkpt lat="46.15554" lon="5.35706">
        <ele>427.4</ele>
        <time>2022-05-24T12:20:47Z</time>
      </trkpt>
      <trkpt lat="46.15546" lon="5.35738">
        <ele>427.8</ele>
        <time>2022-05-24T12:20:51Z</time>
      </trkpt>
      <trkpt lat="46.15531" lon="5.35798">
        <ele>427.4</ele>
        <time>2022-05-24T12:20:58Z</time>
      </trkpt>
      <trkpt lat="46.15517" lon="5.35855">
        <ele>427</ele>
        <time>2022-05-24T12:21:04Z</time>
      </trkpt>
      <trkpt lat="46.1551" lon="5.35871">
        <ele>427</ele>
        <time>2022-05-24T12:21:06Z</time>
      </trkpt>
      <trkpt lat="46.15504" lon="5.35878">
        <ele>427</ele>
        <time>2022-05-24T12:21:07Z</time>
      </trkpt>
      <trkpt lat="46.15498" lon="5.35883">
        <ele>426.8</ele>
        <time>2022-05-24T12:21:08Z</time>
      </trkpt>
      <trkpt lat="46.15475" lon="5.35894">
        <ele>426.4</ele>
        <time>2022-05-24T12:21:11Z</time>
      </trkpt>
      <trkpt lat="46.15467" lon="5.35897">
        <ele>426.4</ele>
        <time>2022-05-24T12:21:12Z</time>
      </trkpt>
      <trkpt lat="46.1544" lon="5.35913">
        <ele>426</ele>
        <time>2022-05-24T12:21:15Z</time>
      </trkpt>
      <trkpt lat="46.15423" lon="5.35924">
        <ele>425.2</ele>
        <time>2022-05-24T12:21:17Z</time>
      </trkpt>
      <trkpt lat="46.15405" lon="5.35933">
        <ele>424</ele>
        <time>2022-05-24T12:21:19Z</time>
      </trkpt>
      <trkpt lat="46.15395" lon="5.35936">
        <ele>423.2</ele>
        <time>2022-05-24T12:21:20Z</time>
      </trkpt>
      <trkpt lat="46.15375" lon="5.3594">
        <ele>421.8</ele>
        <time>2022-05-24T12:21:22Z</time>
      </trkpt>
      <trkpt lat="46.15364" lon="5.35941">
        <ele>420.2</ele>
        <time>2022-05-24T12:21:23Z</time>
      </trkpt>
      <trkpt lat="46.15353" lon="5.35942">
        <ele>419.2</ele>
        <time>2022-05-24T12:21:24Z</time>
      </trkpt>
      <trkpt lat="46.15342" lon="5.35941">
        <ele>418</ele>
        <time>2022-05-24T12:21:25Z</time>
      </trkpt>
      <trkpt lat="46.15319" lon="5.35938">
        <ele>416.8</ele>
        <time>2022-05-24T12:21:27Z</time>
      </trkpt>
      <trkpt lat="46.15308" lon="5.35935">
        <ele>416.6</ele>
        <time>2022-05-24T12:21:28Z</time>
      </trkpt>
      <trkpt lat="46.15285" lon="5.3593">
        <ele>415</ele>
        <time>2022-05-24T12:21:30Z</time>
      </trkpt>
      <trkpt lat="46.15262" lon="5.35926">
        <ele>413</ele>
        <time>2022-05-24T12:21:32Z</time>
      </trkpt>
      <trkpt lat="46.1524" lon="5.35921">
        <ele>410.8</ele>
        <time>2022-05-24T12:21:34Z</time>
      </trkpt>
      <trkpt lat="46.15228" lon="5.35919">
        <ele>409.8</ele>
        <time>2022-05-24T12:21:35Z</time>
      </trkpt>
      <trkpt lat="46.15217" lon="5.35916">
        <ele>408.8</ele>
        <time>2022-05-24T12:21:36Z</time>
      </trkpt>
      <trkpt lat="46.15195" lon="5.35911">
        <ele>407.6</ele>
        <time>2022-05-24T12:21:38Z</time>
      </trkpt>
      <trkpt lat="46.15162" lon="5.35903">
        <ele>405.4</ele>
        <time>2022-05-24T12:21:41Z</time>
      </trkpt>
      <trkpt lat="46.15162" lon="5.35903">
        <ele>404.8</ele>
        <time>2022-05-24T12:21:42Z</time>
      </trkpt>
      <trkpt lat="46.15148" lon="5.359">
        <ele>404.2</ele>
        <time>2022-05-24T12:21:43Z</time>
      </trkpt>
      <trkpt lat="46.15093" lon="5.35888">
        <ele>403</ele>
        <time>2022-05-24T12:21:47Z</time>
      </trkpt>
      <trkpt lat="46.15082" lon="5.35886">
        <ele>402.8</ele>
        <time>2022-05-24T12:21:48Z</time>
      </trkpt>
      <trkpt lat="46.15059" lon="5.35884">
        <ele>402</ele>
        <time>2022-05-24T12:21:50Z</time>
      </trkpt>
      <trkpt lat="46.15048" lon="5.35883">
        <ele>400.8</ele>
        <time>2022-05-24T12:21:51Z</time>
      </trkpt>
      <trkpt lat="46.15026" lon="5.35883">
        <ele>399</ele>
        <time>2022-05-24T12:21:53Z</time>
      </trkpt>
      <trkpt lat="46.15005" lon="5.35886">
        <ele>398.2</ele>
        <time>2022-05-24T12:21:55Z</time>
      </trkpt>
      <trkpt lat="46.14994" lon="5.35887">
        <ele>397.8</ele>
        <time>2022-05-24T12:21:56Z</time>
      </trkpt>
      <trkpt lat="46.14974" lon="5.35888">
        <ele>396.4</ele>
        <time>2022-05-24T12:21:58Z</time>
      </trkpt>
      <trkpt lat="46.14945" lon="5.3589">
        <ele>396</ele>
        <time>2022-05-24T12:22:01Z</time>
      </trkpt>
      <trkpt lat="46.14917" lon="5.35893">
        <ele>395.4</ele>
        <time>2022-05-24T12:22:04Z</time>
      </trkpt>
      <trkpt lat="46.14889" lon="5.35895">
        <ele>394.2</ele>
        <time>2022-05-24T12:22:07Z</time>
      </trkpt>
      <trkpt lat="46.14844" lon="5.35897">
        <ele>392.6</ele>
        <time>2022-05-24T12:22:12Z</time>
      </trkpt>
      <trkpt lat="46.14804" lon="5.359">
        <ele>391.6</ele>
        <time>2022-05-24T12:22:16Z</time>
      </trkpt>
      <trkpt lat="46.14793" lon="5.35901">
        <ele>391.2</ele>
        <time>2022-05-24T12:22:17Z</time>
      </trkpt>
      <trkpt lat="46.14783" lon="5.35902">
        <ele>390.4</ele>
        <time>2022-05-24T12:22:18Z</time>
      </trkpt>
      <trkpt lat="46.14751" lon="5.35899">
        <ele>389.4</ele>
        <time>2022-05-24T12:22:21Z</time>
      </trkpt>
      <trkpt lat="46.1474" lon="5.35896">
        <ele>389.2</ele>
        <time>2022-05-24T12:22:22Z</time>
      </trkpt>
      <trkpt lat="46.14709" lon="5.35883">
        <ele>388.2</ele>
        <time>2022-05-24T12:22:25Z</time>
      </trkpt>
      <trkpt lat="46.14689" lon="5.35874">
        <ele>386.8</ele>
        <time>2022-05-24T12:22:27Z</time>
      </trkpt>
      <trkpt lat="46.14668" lon="5.35865">
        <ele>385.4</ele>
        <time>2022-05-24T12:22:29Z</time>
      </trkpt>
      <trkpt lat="46.14646" lon="5.35855">
        <ele>384.4</ele>
        <time>2022-05-24T12:22:31Z</time>
      </trkpt>
      <trkpt lat="46.14613" lon="5.35836">
        <ele>383.4</ele>
        <time>2022-05-24T12:22:34Z</time>
      </trkpt>
      <trkpt lat="46.14602" lon="5.35828">
        <ele>382.8</ele>
        <time>2022-05-24T12:22:35Z</time>
      </trkpt>
      <trkpt lat="46.14579" lon="5.35812">
        <ele>381.6</ele>
        <time>2022-05-24T12:22:37Z</time>
      </trkpt>
      <trkpt lat="46.14556" lon="5.35795">
        <ele>379.8</ele>
        <time>2022-05-24T12:22:39Z</time>
      </trkpt>
      <trkpt lat="46.14544" lon="5.35787">
        <ele>379</ele>
        <time>2022-05-24T12:22:40Z</time>
      </trkpt>
      <trkpt lat="46.14533" lon="5.35779">
        <ele>377.6</ele>
        <time>2022-05-24T12:22:41Z</time>
      </trkpt>
      <trkpt lat="46.14521" lon="5.35773">
        <ele>376.2</ele>
        <time>2022-05-24T12:22:42Z</time>
      </trkpt>
      <trkpt lat="46.14509" lon="5.35767">
        <ele>375.6</ele>
        <time>2022-05-24T12:22:43Z</time>
      </trkpt>
      <trkpt lat="46.14496" lon="5.35763">
        <ele>373.6</ele>
        <time>2022-05-24T12:22:44Z</time>
      </trkpt>
      <trkpt lat="46.14471" lon="5.35759">
        <ele>372.6</ele>
        <time>2022-05-24T12:22:46Z</time>
      </trkpt>
      <trkpt lat="46.14433" lon="5.35758">
        <ele>370.6</ele>
        <time>2022-05-24T12:22:49Z</time>
      </trkpt>
      <trkpt lat="46.14409" lon="5.35767">
        <ele>368.8</ele>
        <time>2022-05-24T12:22:51Z</time>
      </trkpt>
      <trkpt lat="46.14385" lon="5.35777">
        <ele>366.8</ele>
        <time>2022-05-24T12:22:53Z</time>
      </trkpt>
      <trkpt lat="46.14363" lon="5.35786">
        <ele>365</ele>
        <time>2022-05-24T12:22:55Z</time>
      </trkpt>
      <trkpt lat="46.14352" lon="5.3579">
        <ele>363.8</ele>
        <time>2022-05-24T12:22:56Z</time>
      </trkpt>
      <trkpt lat="46.1433" lon="5.35798">
        <ele>361.8</ele>
        <time>2022-05-24T12:22:58Z</time>
      </trkpt>
      <trkpt lat="46.14309" lon="5.35805">
        <ele>359.8</ele>
        <time>2022-05-24T12:23:00Z</time>
      </trkpt>
      <trkpt lat="46.143" lon="5.35806">
        <ele>359</ele>
        <time>2022-05-24T12:23:01Z</time>
      </trkpt>
      <trkpt lat="46.14291" lon="5.35805">
        <ele>358</ele>
        <time>2022-05-24T12:23:02Z</time>
      </trkpt>
      <trkpt lat="46.14275" lon="5.35802">
        <ele>357</ele>
        <time>2022-05-24T12:23:04Z</time>
      </trkpt>
      <trkpt lat="46.14267" lon="5.358">
        <ele>356.2</ele>
        <time>2022-05-24T12:23:05Z</time>
      </trkpt>
      <trkpt lat="46.14261" lon="5.358">
        <ele>355.6</ele>
        <time>2022-05-24T12:23:06Z</time>
      </trkpt>
      <trkpt lat="46.14256" lon="5.35798">
        <ele>354.8</ele>
        <time>2022-05-24T12:23:07Z</time>
      </trkpt>
      <trkpt lat="46.14251" lon="5.35795">
        <ele>354.4</ele>
        <time>2022-05-24T12:23:08Z</time>
      </trkpt>
      <trkpt lat="46.14245" lon="5.35793">
        <ele>354</ele>
        <time>2022-05-24T12:23:09Z</time>
      </trkpt>
      <trkpt lat="46.14232" lon="5.35789">
        <ele>353.6</ele>
        <time>2022-05-24T12:23:11Z</time>
      </trkpt>
      <trkpt lat="46.14225" lon="5.35787">
        <ele>353.4</ele>
        <time>2022-05-24T12:23:12Z</time>
      </trkpt>
      <trkpt lat="46.1422" lon="5.35787">
        <ele>353.4</ele>
        <time>2022-05-24T12:23:13Z</time>
      </trkpt>
      <trkpt lat="46.14212" lon="5.35787">
        <ele>353.4</ele>
        <time>2022-05-24T12:23:14Z</time>
      </trkpt>
      <trkpt lat="46.14203" lon="5.35788">
        <ele>353.2</ele>
        <time>2022-05-24T12:23:15Z</time>
      </trkpt>
      <trkpt lat="46.14185" lon="5.35788">
        <ele>351.8</ele>
        <time>2022-05-24T12:23:17Z</time>
      </trkpt>
      <trkpt lat="46.14169" lon="5.35787">
        <ele>350.8</ele>
        <time>2022-05-24T12:23:19Z</time>
      </trkpt>
      <trkpt lat="46.1415" lon="5.35786">
        <ele>350.6</ele>
        <time>2022-05-24T12:23:22Z</time>
      </trkpt>
      <trkpt lat="46.14134" lon="5.35784">
        <ele>350.4</ele>
        <time>2022-05-24T12:23:25Z</time>
      </trkpt>
      <trkpt lat="46.1413" lon="5.35783">
        <ele>350.8</ele>
        <time>2022-05-24T12:23:26Z</time>
      </trkpt>
      <trkpt lat="46.14123" lon="5.35781">
        <ele>351.8</ele>
        <time>2022-05-24T12:23:28Z</time>
      </trkpt>
      <trkpt lat="46.1412" lon="5.35779">
        <ele>352</ele>
        <time>2022-05-24T12:23:29Z</time>
      </trkpt>
      <trkpt lat="46.14111" lon="5.35771">
        <ele>353</ele>
        <time>2022-05-24T12:23:32Z</time>
      </trkpt>
      <trkpt lat="46.14108" lon="5.35767">
        <ele>353.8</ele>
        <time>2022-05-24T12:23:33Z</time>
      </trkpt>
      <trkpt lat="46.14102" lon="5.35762">
        <ele>354.4</ele>
        <time>2022-05-24T12:23:35Z</time>
      </trkpt>
      <trkpt lat="46.14098" lon="5.35758">
        <ele>355</ele>
        <time>2022-05-24T12:23:37Z</time>
      </trkpt>
      <trkpt lat="46.14097" lon="5.35755">
        <ele>355.4</ele>
        <time>2022-05-24T12:23:38Z</time>
      </trkpt>
      <trkpt lat="46.14097" lon="5.35749">
        <ele>355.8</ele>
        <time>2022-05-24T12:23:39Z</time>
      </trkpt>
      <trkpt lat="46.14097" lon="5.35727">
        <ele>356.6</ele>
        <time>2022-05-24T12:23:43Z</time>
      </trkpt>
      <trkpt lat="46.14096" lon="5.35716">
        <ele>356.8</ele>
        <time>2022-05-24T12:23:45Z</time>
      </trkpt>
      <trkpt lat="46.14091" lon="5.35689">
        <ele>357.8</ele>
        <time>2022-05-24T12:23:50Z</time>
      </trkpt>
      <trkpt lat="46.1409" lon="5.35685">
        <ele>358.4</ele>
        <time>2022-05-24T12:23:51Z</time>
      </trkpt>
      <trkpt lat="46.14088" lon="5.35681">
        <ele>358.4</ele>
        <time>2022-05-24T12:23:52Z</time>
      </trkpt>
      <trkpt lat="46.14085" lon="5.35676">
        <ele>359.2</ele>
        <time>2022-05-24T12:23:54Z</time>
      </trkpt>
      <trkpt lat="46.14081" lon="5.35672">
        <ele>359.6</ele>
        <time>2022-05-24T12:23:56Z</time>
      </trkpt>
      <trkpt lat="46.14076" lon="5.35666">
        <ele>359.8</ele>
        <time>2022-05-24T12:23:59Z</time>
      </trkpt>
      <trkpt lat="46.14064" lon="5.35653">
        <ele>360.2</ele>
        <time>2022-05-24T12:24:04Z</time>
      </trkpt>
      <trkpt lat="46.14064" lon="5.35655">
        <ele>360.4</ele>
        <time>2022-05-24T12:24:06Z</time>
      </trkpt>
      <trkpt lat="46.14066" lon="5.35657">
        <ele>360.4</ele>
        <time>2022-05-24T12:24:07Z</time>
      </trkpt>
      <trkpt lat="46.14069" lon="5.35659">
        <ele>360.6</ele>
        <time>2022-05-24T12:24:08Z</time>
      </trkpt>
      <trkpt lat="46.14071" lon="5.35661">
        <ele>360.6</ele>
        <time>2022-05-24T12:24:09Z</time>
      </trkpt>
      <trkpt lat="46.14083" lon="5.35675">
        <ele>360.6</ele>
        <time>2022-05-24T12:24:13Z</time>
      </trkpt>
      <trkpt lat="46.1409" lon="5.35702">
        <ele>360.2</ele>
        <time>2022-05-24T12:24:18Z</time>
      </trkpt>
      <trkpt lat="46.14091" lon="5.35709">
        <ele>360.2</ele>
        <time>2022-05-24T12:24:19Z</time>
      </trkpt>
      <trkpt lat="46.14091" lon="5.35729">
        <ele>359.8</ele>
        <time>2022-05-24T12:24:22Z</time>
      </trkpt>
      <trkpt lat="46.1409" lon="5.35741">
        <ele>359.4</ele>
        <time>2022-05-24T12:24:24Z</time>
      </trkpt>
      <trkpt lat="46.14088" lon="5.35749">
        <ele>359.2</ele>
        <time>2022-05-24T12:24:26Z</time>
      </trkpt>
      <trkpt lat="46.14091" lon="5.35755">
        <ele>358.2</ele>
        <time>2022-05-24T12:24:30Z</time>
      </trkpt>
      <trkpt lat="46.14097" lon="5.3576">
        <ele>357.8</ele>
        <time>2022-05-24T12:24:33Z</time>
      </trkpt>
      <trkpt lat="46.14102" lon="5.35766">
        <ele>357.6</ele>
        <time>2022-05-24T12:24:35Z</time>
      </trkpt>
      <trkpt lat="46.14107" lon="5.35773">
        <ele>357.6</ele>
        <time>2022-05-24T12:24:38Z</time>
      </trkpt>
      <trkpt lat="46.14108" lon="5.35774">
        <ele>357.4</ele>
        <time>2022-05-24T12:24:39Z</time>
      </trkpt>
      <trkpt lat="46.14111" lon="5.35771">
        <ele>357.4</ele>
        <time>2022-05-24T12:24:41Z</time>
      </trkpt>
      <trkpt lat="46.14111" lon="5.35771">
        <ele>357.2</ele>
        <time>2022-05-24T12:24:43Z</time>
      </trkpt>
      <trkpt lat="46.14112" lon="5.35769">
        <ele>357.2</ele>
        <time>2022-05-24T12:26:33Z</time>
      </trkpt>
      <trkpt lat="46.14114" lon="5.35765">
        <ele>357.2</ele>
        <time>2022-05-24T12:26:35Z</time>
      </trkpt>
      <trkpt lat="46.14119" lon="5.35755">
        <ele>357.2</ele>
        <time>2022-05-24T12:26:38Z</time>
      </trkpt>
      <trkpt lat="46.14126" lon="5.35732">
        <ele>357.6</ele>
        <time>2022-05-24T12:26:43Z</time>
      </trkpt>
      <trkpt lat="46.14131" lon="5.35692">
        <ele>357.8</ele>
        <time>2022-05-24T12:26:49Z</time>
      </trkpt>
      <trkpt lat="46.14132" lon="5.35685">
        <ele>357.8</ele>
        <time>2022-05-24T12:26:50Z</time>
      </trkpt>
      <trkpt lat="46.14136" lon="5.35656">
        <ele>357.8</ele>
        <time>2022-05-24T12:26:54Z</time>
      </trkpt>
      <trkpt lat="46.14144" lon="5.35608">
        <ele>358.4</ele>
        <time>2022-05-24T12:27:02Z</time>
      </trkpt>
      <trkpt lat="46.14151" lon="5.35591">
        <ele>358.6</ele>
        <time>2022-05-24T12:27:06Z</time>
      </trkpt>
      <trkpt lat="46.14153" lon="5.35586">
        <ele>358.6</ele>
        <time>2022-05-24T12:27:07Z</time>
      </trkpt>
      <trkpt lat="46.14165" lon="5.35569">
        <ele>358.8</ele>
        <time>2022-05-24T12:27:12Z</time>
      </trkpt>
      <trkpt lat="46.14172" lon="5.35565">
        <ele>358.6</ele>
        <time>2022-05-24T12:27:14Z</time>
      </trkpt>
      <trkpt lat="46.14188" lon="5.35558">
        <ele>358.4</ele>
        <time>2022-05-24T12:27:17Z</time>
      </trkpt>
      <trkpt lat="46.14209" lon="5.35548">
        <ele>357.6</ele>
        <time>2022-05-24T12:27:21Z</time>
      </trkpt>
      <trkpt lat="46.14219" lon="5.35542">
        <ele>357.2</ele>
        <time>2022-05-24T12:27:23Z</time>
      </trkpt>
      <trkpt lat="46.14237" lon="5.35534">
        <ele>357</ele>
        <time>2022-05-24T12:27:27Z</time>
      </trkpt>
      <trkpt lat="46.14246" lon="5.35531">
        <ele>357</ele>
        <time>2022-05-24T12:27:29Z</time>
      </trkpt>
      <trkpt lat="46.1425" lon="5.35528">
        <ele>357</ele>
        <time>2022-05-24T12:27:30Z</time>
      </trkpt>
      <trkpt lat="46.14258" lon="5.35524">
        <ele>357</ele>
        <time>2022-05-24T12:27:32Z</time>
      </trkpt>
      <trkpt lat="46.14263" lon="5.35522">
        <ele>357</ele>
        <time>2022-05-24T12:27:33Z</time>
      </trkpt>
      <trkpt lat="46.14271" lon="5.35517">
        <ele>357.2</ele>
        <time>2022-05-24T12:27:35Z</time>
      </trkpt>
      <trkpt lat="46.14279" lon="5.35513">
        <ele>357.4</ele>
        <time>2022-05-24T12:27:37Z</time>
      </trkpt>
      <trkpt lat="46.14283" lon="5.35512">
        <ele>357.6</ele>
        <time>2022-05-24T12:27:38Z</time>
      </trkpt>
      <trkpt lat="46.14303" lon="5.355">
        <ele>358.6</ele>
        <time>2022-05-24T12:27:43Z</time>
      </trkpt>
      <trkpt lat="46.14318" lon="5.35489">
        <ele>359.4</ele>
        <time>2022-05-24T12:27:46Z</time>
      </trkpt>
      <trkpt lat="46.14326" lon="5.35478">
        <ele>359.8</ele>
        <time>2022-05-24T12:27:48Z</time>
      </trkpt>
      <trkpt lat="46.14329" lon="5.35472">
        <ele>359.8</ele>
        <time>2022-05-24T12:27:49Z</time>
      </trkpt>
      <trkpt lat="46.14332" lon="5.35466">
        <ele>360</ele>
        <time>2022-05-24T12:27:50Z</time>
      </trkpt>
      <trkpt lat="46.14334" lon="5.35459">
        <ele>360</ele>
        <time>2022-05-24T12:27:51Z</time>
      </trkpt>
      <trkpt lat="46.14335" lon="5.35452">
        <ele>360.2</ele>
        <time>2022-05-24T12:27:52Z</time>
      </trkpt>
      <trkpt lat="46.14337" lon="5.35445">
        <ele>360.2</ele>
        <time>2022-05-24T12:27:53Z</time>
      </trkpt>
      <trkpt lat="46.1434" lon="5.3543">
        <ele>360.4</ele>
        <time>2022-05-24T12:27:55Z</time>
      </trkpt>
      <trkpt lat="46.1434" lon="5.35422">
        <ele>360.4</ele>
        <time>2022-05-24T12:27:56Z</time>
      </trkpt>
      <trkpt lat="46.14339" lon="5.35392">
        <ele>360.8</ele>
        <time>2022-05-24T12:28:00Z</time>
      </trkpt>
      <trkpt lat="46.14336" lon="5.35379">
        <ele>361</ele>
        <time>2022-05-24T12:28:02Z</time>
      </trkpt>
      <trkpt lat="46.14326" lon="5.35352">
        <ele>361.8</ele>
        <time>2022-05-24T12:28:07Z</time>
      </trkpt>
      <trkpt lat="46.14322" lon="5.3534">
        <ele>362.4</ele>
        <time>2022-05-24T12:28:09Z</time>
      </trkpt>
      <trkpt lat="46.1432" lon="5.3533">
        <ele>362.8</ele>
        <time>2022-05-24T12:28:11Z</time>
      </trkpt>
      <trkpt lat="46.14315" lon="5.35315">
        <ele>364</ele>
        <time>2022-05-24T12:28:15Z</time>
      </trkpt>
      <trkpt lat="46.14308" lon="5.35298">
        <ele>365.2</ele>
        <time>2022-05-24T12:28:19Z</time>
      </trkpt>
      <trkpt lat="46.143" lon="5.35289">
        <ele>366.6</ele>
        <time>2022-05-24T12:28:23Z</time>
      </trkpt>
      <trkpt lat="46.14297" lon="5.35288">
        <ele>366.8</ele>
        <time>2022-05-24T12:28:24Z</time>
      </trkpt>
      <trkpt lat="46.14279" lon="5.35285">
        <ele>367.4</ele>
        <time>2022-05-24T12:28:28Z</time>
      </trkpt>
      <trkpt lat="46.14276" lon="5.35286">
        <ele>367.4</ele>
        <time>2022-05-24T12:28:29Z</time>
      </trkpt>
      <trkpt lat="46.14271" lon="5.35288">
        <ele>367.4</ele>
        <time>2022-05-24T12:28:30Z</time>
      </trkpt>
      <trkpt lat="46.14261" lon="5.35291">
        <ele>367.4</ele>
        <time>2022-05-24T12:28:32Z</time>
      </trkpt>
      <trkpt lat="46.1425" lon="5.35292">
        <ele>367.6</ele>
        <time>2022-05-24T12:28:34Z</time>
      </trkpt>
      <trkpt lat="46.14244" lon="5.35292">
        <ele>367.6</ele>
        <time>2022-05-24T12:28:35Z</time>
      </trkpt>
      <trkpt lat="46.14228" lon="5.35289">
        <ele>367.6</ele>
        <time>2022-05-24T12:28:38Z</time>
      </trkpt>
      <trkpt lat="46.14222" lon="5.35286">
        <ele>367.6</ele>
        <time>2022-05-24T12:28:39Z</time>
      </trkpt>
      <trkpt lat="46.14197" lon="5.35274">
        <ele>367.8</ele>
        <time>2022-05-24T12:28:44Z</time>
      </trkpt>
      <trkpt lat="46.14179" lon="5.35264">
        <ele>368</ele>
        <time>2022-05-24T12:28:48Z</time>
      </trkpt>
      <trkpt lat="46.14172" lon="5.35256">
        <ele>368.6</ele>
        <time>2022-05-24T12:28:50Z</time>
      </trkpt>
      <trkpt lat="46.14168" lon="5.35252">
        <ele>368.8</ele>
        <time>2022-05-24T12:28:51Z</time>
      </trkpt>
      <trkpt lat="46.14155" lon="5.35234">
        <ele>370</ele>
        <time>2022-05-24T12:28:55Z</time>
      </trkpt>
      <trkpt lat="46.14146" lon="5.35221">
        <ele>370.8</ele>
        <time>2022-05-24T12:28:58Z</time>
      </trkpt>
      <trkpt lat="46.14141" lon="5.35212">
        <ele>371</ele>
        <time>2022-05-24T12:29:00Z</time>
      </trkpt>
      <trkpt lat="46.14125" lon="5.35189">
        <ele>372.2</ele>
        <time>2022-05-24T12:29:06Z</time>
      </trkpt>
      <trkpt lat="46.14122" lon="5.35185">
        <ele>372.8</ele>
        <time>2022-05-24T12:29:07Z</time>
      </trkpt>
      <trkpt lat="46.14117" lon="5.35177">
        <ele>373.4</ele>
        <time>2022-05-24T12:29:09Z</time>
      </trkpt>
      <trkpt lat="46.14111" lon="5.35167">
        <ele>374.6</ele>
        <time>2022-05-24T12:29:12Z</time>
      </trkpt>
      <trkpt lat="46.14109" lon="5.35165">
        <ele>374.8</ele>
        <time>2022-05-24T12:29:13Z</time>
      </trkpt>
      <trkpt lat="46.14095" lon="5.3514">
        <ele>376</ele>
        <time>2022-05-24T12:29:19Z</time>
      </trkpt>
      <trkpt lat="46.14089" lon="5.35131">
        <ele>376.8</ele>
        <time>2022-05-24T12:29:21Z</time>
      </trkpt>
      <trkpt lat="46.14084" lon="5.35121">
        <ele>377.2</ele>
        <time>2022-05-24T12:29:23Z</time>
      </trkpt>
      <trkpt lat="46.14078" lon="5.35113">
        <ele>377.4</ele>
        <time>2022-05-24T12:29:25Z</time>
      </trkpt>
      <trkpt lat="46.14064" lon="5.3509">
        <ele>378.6</ele>
        <time>2022-05-24T12:29:31Z</time>
      </trkpt>
      <trkpt lat="46.14056" lon="5.35079">
        <ele>379</ele>
        <time>2022-05-24T12:29:34Z</time>
      </trkpt>
      <trkpt lat="46.14049" lon="5.35068">
        <ele>379.8</ele>
        <time>2022-05-24T12:29:37Z</time>
      </trkpt>
      <trkpt lat="46.1404" lon="5.35057">
        <ele>380.4</ele>
        <time>2022-05-24T12:29:40Z</time>
      </trkpt>
      <trkpt lat="46.14035" lon="5.3505">
        <ele>381</ele>
        <time>2022-05-24T12:29:42Z</time>
      </trkpt>
      <trkpt lat="46.14016" lon="5.35029">
        <ele>382</ele>
        <time>2022-05-24T12:29:49Z</time>
      </trkpt>
      <trkpt lat="46.14014" lon="5.35026">
        <ele>382.2</ele>
        <time>2022-05-24T12:29:50Z</time>
      </trkpt>
      <trkpt lat="46.14004" lon="5.35014">
        <ele>383.4</ele>
        <time>2022-05-24T12:29:54Z</time>
      </trkpt>
      <trkpt lat="46.13994" lon="5.35003">
        <ele>384.4</ele>
        <time>2022-05-24T12:29:58Z</time>
      </trkpt>
      <trkpt lat="46.13992" lon="5.34999">
        <ele>384.6</ele>
        <time>2022-05-24T12:29:59Z</time>
      </trkpt>
      <trkpt lat="46.13986" lon="5.34992">
        <ele>385.4</ele>
        <time>2022-05-24T12:30:02Z</time>
      </trkpt>
      <trkpt lat="46.13982" lon="5.34987">
        <ele>386</ele>
        <time>2022-05-24T12:30:04Z</time>
      </trkpt>
      <trkpt lat="46.13978" lon="5.34981">
        <ele>386.6</ele>
        <time>2022-05-24T12:30:06Z</time>
      </trkpt>
      <trkpt lat="46.1397" lon="5.34968">
        <ele>387.8</ele>
        <time>2022-05-24T12:30:10Z</time>
      </trkpt>
      <trkpt lat="46.13967" lon="5.34965">
        <ele>387.8</ele>
        <time>2022-05-24T12:30:11Z</time>
      </trkpt>
      <trkpt lat="46.1396" lon="5.34954">
        <ele>389.2</ele>
        <time>2022-05-24T12:30:15Z</time>
      </trkpt>
      <trkpt lat="46.13956" lon="5.34947">
        <ele>389.6</ele>
        <time>2022-05-24T12:30:17Z</time>
      </trkpt>
      <trkpt lat="46.13951" lon="5.34939">
        <ele>390.2</ele>
        <time>2022-05-24T12:30:19Z</time>
      </trkpt>
      <trkpt lat="46.13944" lon="5.34925">
        <ele>390.8</ele>
        <time>2022-05-24T12:30:22Z</time>
      </trkpt>
      <trkpt lat="46.13941" lon="5.34917">
        <ele>391.2</ele>
        <time>2022-05-24T12:30:24Z</time>
      </trkpt>
      <trkpt lat="46.13933" lon="5.34902">
        <ele>392</ele>
        <time>2022-05-24T12:30:27Z</time>
      </trkpt>
      <trkpt lat="46.1393" lon="5.34897">
        <ele>392.2</ele>
        <time>2022-05-24T12:30:28Z</time>
      </trkpt>
      <trkpt lat="46.13918" lon="5.34877">
        <ele>393.4</ele>
        <time>2022-05-24T12:30:33Z</time>
      </trkpt>
      <trkpt lat="46.13912" lon="5.3487">
        <ele>393.8</ele>
        <time>2022-05-24T12:30:35Z</time>
      </trkpt>
      <trkpt lat="46.13905" lon="5.34861">
        <ele>394.6</ele>
        <time>2022-05-24T12:30:38Z</time>
      </trkpt>
      <trkpt lat="46.13894" lon="5.34848">
        <ele>395.8</ele>
        <time>2022-05-24T12:30:43Z</time>
      </trkpt>
      <trkpt lat="46.13892" lon="5.34846">
        <ele>396</ele>
        <time>2022-05-24T12:30:44Z</time>
      </trkpt>
      <trkpt lat="46.13884" lon="5.3484">
        <ele>396.8</ele>
        <time>2022-05-24T12:30:47Z</time>
      </trkpt>
      <trkpt lat="46.13875" lon="5.34833">
        <ele>397.8</ele>
        <time>2022-05-24T12:30:51Z</time>
      </trkpt>
      <trkpt lat="46.13872" lon="5.34831">
        <ele>398</ele>
        <time>2022-05-24T12:30:52Z</time>
      </trkpt>
      <trkpt lat="46.13862" lon="5.34821">
        <ele>399.2</ele>
        <time>2022-05-24T12:30:57Z</time>
      </trkpt>
      <trkpt lat="46.13857" lon="5.34816">
        <ele>399.8</ele>
        <time>2022-05-24T12:30:59Z</time>
      </trkpt>
      <trkpt lat="46.13853" lon="5.34812">
        <ele>400.4</ele>
        <time>2022-05-24T12:31:01Z</time>
      </trkpt>
      <trkpt lat="46.13846" lon="5.34802">
        <ele>401.4</ele>
        <time>2022-05-24T12:31:05Z</time>
      </trkpt>
      <trkpt lat="46.13842" lon="5.34798">
        <ele>402</ele>
        <time>2022-05-24T12:31:07Z</time>
      </trkpt>
      <trkpt lat="46.13839" lon="5.34793">
        <ele>402.8</ele>
        <time>2022-05-24T12:31:09Z</time>
      </trkpt>
      <trkpt lat="46.13831" lon="5.34783">
        <ele>404.2</ele>
        <time>2022-05-24T12:31:13Z</time>
      </trkpt>
      <trkpt lat="46.13827" lon="5.34778">
        <ele>404.6</ele>
        <time>2022-05-24T12:31:15Z</time>
      </trkpt>
      <trkpt lat="46.13821" lon="5.3477">
        <ele>405.2</ele>
        <time>2022-05-24T12:31:18Z</time>
      </trkpt>
      <trkpt lat="46.13812" lon="5.34758">
        <ele>406.2</ele>
        <time>2022-05-24T12:31:23Z</time>
      </trkpt>
      <trkpt lat="46.1381" lon="5.34755">
        <ele>406.4</ele>
        <time>2022-05-24T12:31:24Z</time>
      </trkpt>
      <trkpt lat="46.13803" lon="5.34746">
        <ele>407.4</ele>
        <time>2022-05-24T12:31:28Z</time>
      </trkpt>
      <trkpt lat="46.13795" lon="5.34737">
        <ele>409</ele>
        <time>2022-05-24T12:31:32Z</time>
      </trkpt>
      <trkpt lat="46.13793" lon="5.34735">
        <ele>409</ele>
        <time>2022-05-24T12:31:33Z</time>
      </trkpt>
      <trkpt lat="46.13786" lon="5.34726">
        <ele>410.2</ele>
        <time>2022-05-24T12:31:37Z</time>
      </trkpt>
      <trkpt lat="46.13777" lon="5.34716">
        <ele>411</ele>
        <time>2022-05-24T12:31:41Z</time>
      </trkpt>
      <trkpt lat="46.13775" lon="5.34713">
        <ele>411.2</ele>
        <time>2022-05-24T12:31:42Z</time>
      </trkpt>
      <trkpt lat="46.13762" lon="5.34698">
        <ele>412.4</ele>
        <time>2022-05-24T12:31:48Z</time>
      </trkpt>
      <trkpt lat="46.13756" lon="5.3469">
        <ele>413</ele>
        <time>2022-05-24T12:31:51Z</time>
      </trkpt>
      <trkpt lat="46.13751" lon="5.34684">
        <ele>413.4</ele>
        <time>2022-05-24T12:31:53Z</time>
      </trkpt>
      <trkpt lat="46.13743" lon="5.34675">
        <ele>415</ele>
        <time>2022-05-24T12:31:57Z</time>
      </trkpt>
      <trkpt lat="46.13738" lon="5.34668">
        <ele>415.8</ele>
        <time>2022-05-24T12:32:00Z</time>
      </trkpt>
      <trkpt lat="46.13733" lon="5.34664">
        <ele>416.2</ele>
        <time>2022-05-24T12:32:02Z</time>
      </trkpt>
      <trkpt lat="46.13724" lon="5.34652">
        <ele>417.4</ele>
        <time>2022-05-24T12:32:07Z</time>
      </trkpt>
      <trkpt lat="46.13722" lon="5.3465">
        <ele>417.6</ele>
        <time>2022-05-24T12:32:08Z</time>
      </trkpt>
      <trkpt lat="46.13712" lon="5.34638">
        <ele>418.8</ele>
        <time>2022-05-24T12:32:13Z</time>
      </trkpt>
      <trkpt lat="46.13702" lon="5.34627">
        <ele>419.4</ele>
        <time>2022-05-24T12:32:18Z</time>
      </trkpt>
      <trkpt lat="46.13698" lon="5.34623">
        <ele>420</ele>
        <time>2022-05-24T12:32:20Z</time>
      </trkpt>
      <trkpt lat="46.13689" lon="5.34612">
        <ele>421.2</ele>
        <time>2022-05-24T12:32:25Z</time>
      </trkpt>
      <trkpt lat="46.13685" lon="5.34608">
        <ele>421.8</ele>
        <time>2022-05-24T12:32:27Z</time>
      </trkpt>
      <trkpt lat="46.13681" lon="5.34604">
        <ele>422.4</ele>
        <time>2022-05-24T12:32:29Z</time>
      </trkpt>
      <trkpt lat="46.13672" lon="5.34593">
        <ele>423.6</ele>
        <time>2022-05-24T12:32:34Z</time>
      </trkpt>
      <trkpt lat="46.13665" lon="5.34584">
        <ele>424.2</ele>
        <time>2022-05-24T12:32:38Z</time>
      </trkpt>
      <trkpt lat="46.13661" lon="5.3458">
        <ele>424.6</ele>
        <time>2022-05-24T12:32:40Z</time>
      </trkpt>
      <trkpt lat="46.13657" lon="5.34576">
        <ele>425.8</ele>
        <time>2022-05-24T12:32:42Z</time>
      </trkpt>
      <trkpt lat="46.13647" lon="5.34565">
        <ele>427</ele>
        <time>2022-05-24T12:32:47Z</time>
      </trkpt>
      <trkpt lat="46.13645" lon="5.34563">
        <ele>427.4</ele>
        <time>2022-05-24T12:32:48Z</time>
      </trkpt>
      <trkpt lat="46.13637" lon="5.34555">
        <ele>428.2</ele>
        <time>2022-05-24T12:32:52Z</time>
      </trkpt>
      <trkpt lat="46.13632" lon="5.34551">
        <ele>429.2</ele>
        <time>2022-05-24T12:32:55Z</time>
      </trkpt>
      <trkpt lat="46.13627" lon="5.34547">
        <ele>430</ele>
        <time>2022-05-24T12:32:57Z</time>
      </trkpt>
      <trkpt lat="46.13625" lon="5.34546">
        <ele>430.4</ele>
        <time>2022-05-24T12:32:58Z</time>
      </trkpt>
      <trkpt lat="46.13615" lon="5.34538">
        <ele>431.6</ele>
        <time>2022-05-24T12:33:03Z</time>
      </trkpt>
      <trkpt lat="46.13613" lon="5.34536">
        <ele>431.8</ele>
        <time>2022-05-24T12:33:04Z</time>
      </trkpt>
      <trkpt lat="46.13611" lon="5.34535">
        <ele>432</ele>
        <time>2022-05-24T12:33:05Z</time>
      </trkpt>
      <trkpt lat="46.13601" lon="5.34528">
        <ele>433</ele>
        <time>2022-05-24T12:33:09Z</time>
      </trkpt>
      <trkpt lat="46.13592" lon="5.34522">
        <ele>433.8</ele>
        <time>2022-05-24T12:33:13Z</time>
      </trkpt>
      <trkpt lat="46.13587" lon="5.34518">
        <ele>434</ele>
        <time>2022-05-24T12:33:15Z</time>
      </trkpt>
      <trkpt lat="46.13576" lon="5.3451">
        <ele>435</ele>
        <time>2022-05-24T12:33:20Z</time>
      </trkpt>
      <trkpt lat="46.13574" lon="5.34509">
        <ele>435.2</ele>
        <time>2022-05-24T12:33:21Z</time>
      </trkpt>
      <trkpt lat="46.13561" lon="5.345">
        <ele>436.2</ele>
        <time>2022-05-24T12:33:26Z</time>
      </trkpt>
      <trkpt lat="46.13552" lon="5.34493">
        <ele>436.8</ele>
        <time>2022-05-24T12:33:30Z</time>
      </trkpt>
      <trkpt lat="46.13544" lon="5.34488">
        <ele>437.4</ele>
        <time>2022-05-24T12:33:33Z</time>
      </trkpt>
      <trkpt lat="46.13527" lon="5.34474">
        <ele>438.6</ele>
        <time>2022-05-24T12:33:40Z</time>
      </trkpt>
      <trkpt lat="46.13517" lon="5.34452">
        <ele>439.8</ele>
        <time>2022-05-24T12:33:46Z</time>
      </trkpt>
      <trkpt lat="46.13507" lon="5.34417">
        <ele>440.8</ele>
        <time>2022-05-24T12:33:53Z</time>
      </trkpt>
      <trkpt lat="46.13504" lon="5.34411">
        <ele>440.8</ele>
        <time>2022-05-24T12:33:54Z</time>
      </trkpt>
      <trkpt lat="46.13499" lon="5.344">
        <ele>441</ele>
        <time>2022-05-24T12:33:56Z</time>
      </trkpt>
      <trkpt lat="46.13493" lon="5.3439">
        <ele>441.2</ele>
        <time>2022-05-24T12:33:58Z</time>
      </trkpt>
      <trkpt lat="46.13489" lon="5.34386">
        <ele>441.4</ele>
        <time>2022-05-24T12:33:59Z</time>
      </trkpt>
      <trkpt lat="46.13472" lon="5.34376">
        <ele>441.8</ele>
        <time>2022-05-24T12:34:03Z</time>
      </trkpt>
      <trkpt lat="46.13453" lon="5.34365">
        <ele>442.2</ele>
        <time>2022-05-24T12:34:07Z</time>
      </trkpt>
      <trkpt lat="46.13426" lon="5.3435">
        <ele>442.8</ele>
        <time>2022-05-24T12:34:13Z</time>
      </trkpt>
      <trkpt lat="46.13413" lon="5.34342">
        <ele>443.2</ele>
        <time>2022-05-24T12:34:15Z</time>
      </trkpt>
      <trkpt lat="46.13372" lon="5.34314">
        <ele>443.6</ele>
        <time>2022-05-24T12:34:23Z</time>
      </trkpt>
      <trkpt lat="46.13338" lon="5.34292">
        <ele>442.8</ele>
        <time>2022-05-24T12:34:29Z</time>
      </trkpt>
      <trkpt lat="46.133" lon="5.34266">
        <ele>441.8</ele>
        <time>2022-05-24T12:34:35Z</time>
      </trkpt>
      <trkpt lat="46.1327" lon="5.34237">
        <ele>441.2</ele>
        <time>2022-05-24T12:34:39Z</time>
      </trkpt>
      <trkpt lat="46.13257" lon="5.34216">
        <ele>439.4</ele>
        <time>2022-05-24T12:34:41Z</time>
      </trkpt>
      <trkpt lat="46.1325" lon="5.34205">
        <ele>438.6</ele>
        <time>2022-05-24T12:34:42Z</time>
      </trkpt>
      <trkpt lat="46.1324" lon="5.34193">
        <ele>437.4</ele>
        <time>2022-05-24T12:34:43Z</time>
      </trkpt>
      <trkpt lat="46.1322" lon="5.34177">
        <ele>436.4</ele>
        <time>2022-05-24T12:34:45Z</time>
      </trkpt>
      <trkpt lat="46.13199" lon="5.34164">
        <ele>435</ele>
        <time>2022-05-24T12:34:47Z</time>
      </trkpt>
      <trkpt lat="46.13178" lon="5.34153">
        <ele>433.6</ele>
        <time>2022-05-24T12:34:49Z</time>
      </trkpt>
      <trkpt lat="46.13137" lon="5.34134">
        <ele>433</ele>
        <time>2022-05-24T12:34:53Z</time>
      </trkpt>
      <trkpt lat="46.13128" lon="5.34129">
        <ele>431.6</ele>
        <time>2022-05-24T12:34:54Z</time>
      </trkpt>
      <trkpt lat="46.13118" lon="5.34124">
        <ele>430.2</ele>
        <time>2022-05-24T12:34:55Z</time>
      </trkpt>
      <trkpt lat="46.131" lon="5.34114">
        <ele>429</ele>
        <time>2022-05-24T12:34:57Z</time>
      </trkpt>
      <trkpt lat="46.13074" lon="5.34101">
        <ele>428.8</ele>
        <time>2022-05-24T12:35:00Z</time>
      </trkpt>
      <trkpt lat="46.13054" lon="5.34092">
        <ele>427.6</ele>
        <time>2022-05-24T12:35:02Z</time>
      </trkpt>
      <trkpt lat="46.13033" lon="5.34081">
        <ele>426.4</ele>
        <time>2022-05-24T12:35:04Z</time>
      </trkpt>
      <trkpt lat="46.13022" lon="5.34074">
        <ele>426.2</ele>
        <time>2022-05-24T12:35:05Z</time>
      </trkpt>
      <trkpt lat="46.13001" lon="5.34061">
        <ele>425.4</ele>
        <time>2022-05-24T12:35:07Z</time>
      </trkpt>
      <trkpt lat="46.12991" lon="5.34054">
        <ele>424</ele>
        <time>2022-05-24T12:35:08Z</time>
      </trkpt>
      <trkpt lat="46.12978" lon="5.34046">
        <ele>422.6</ele>
        <time>2022-05-24T12:35:09Z</time>
      </trkpt>
      <trkpt lat="46.1296" lon="5.34034">
        <ele>421.6</ele>
        <time>2022-05-24T12:35:11Z</time>
      </trkpt>
      <trkpt lat="46.12942" lon="5.34021">
        <ele>421</ele>
        <time>2022-05-24T12:35:13Z</time>
      </trkpt>
      <trkpt lat="46.12922" lon="5.34007">
        <ele>419.8</ele>
        <time>2022-05-24T12:35:15Z</time>
      </trkpt>
      <trkpt lat="46.12869" lon="5.33973">
        <ele>418.8</ele>
        <time>2022-05-24T12:35:20Z</time>
      </trkpt>
      <trkpt lat="46.12859" lon="5.33968">
        <ele>418.8</ele>
        <time>2022-05-24T12:35:21Z</time>
      </trkpt>
      <trkpt lat="46.12829" lon="5.33958">
        <ele>418.2</ele>
        <time>2022-05-24T12:35:24Z</time>
      </trkpt>
      <trkpt lat="46.12795" lon="5.33951">
        <ele>417</ele>
        <time>2022-05-24T12:35:27Z</time>
      </trkpt>
      <trkpt lat="46.12774" lon="5.33947">
        <ele>415.6</ele>
        <time>2022-05-24T12:35:29Z</time>
      </trkpt>
      <trkpt lat="46.12761" lon="5.33947">
        <ele>414.8</ele>
        <time>2022-05-24T12:35:30Z</time>
      </trkpt>
      <trkpt lat="46.1275" lon="5.33947">
        <ele>414.4</ele>
        <time>2022-05-24T12:35:31Z</time>
      </trkpt>
      <trkpt lat="46.12728" lon="5.33951">
        <ele>413.2</ele>
        <time>2022-05-24T12:35:33Z</time>
      </trkpt>
      <trkpt lat="46.12706" lon="5.33956">
        <ele>412.2</ele>
        <time>2022-05-24T12:35:35Z</time>
      </trkpt>
      <trkpt lat="46.12696" lon="5.33959">
        <ele>411</ele>
        <time>2022-05-24T12:35:36Z</time>
      </trkpt>
      <trkpt lat="46.12687" lon="5.33961">
        <ele>409.6</ele>
        <time>2022-05-24T12:35:37Z</time>
      </trkpt>
      <trkpt lat="46.12665" lon="5.33968">
        <ele>408.2</ele>
        <time>2022-05-24T12:35:39Z</time>
      </trkpt>
      <trkpt lat="46.12636" lon="5.33974">
        <ele>407.4</ele>
        <time>2022-05-24T12:35:42Z</time>
      </trkpt>
      <trkpt lat="46.12626" lon="5.33975">
        <ele>407</ele>
        <time>2022-05-24T12:35:43Z</time>
      </trkpt>
      <trkpt lat="46.12576" lon="5.33979">
        <ele>406</ele>
        <time>2022-05-24T12:35:48Z</time>
      </trkpt>
      <trkpt lat="46.12557" lon="5.3398">
        <ele>405.6</ele>
        <time>2022-05-24T12:35:50Z</time>
      </trkpt>
      <trkpt lat="46.12498" lon="5.33986">
        <ele>404.8</ele>
        <time>2022-05-24T12:35:56Z</time>
      </trkpt>
      <trkpt lat="46.1244" lon="5.33993">
        <ele>403.6</ele>
        <time>2022-05-24T12:36:02Z</time>
      </trkpt>
      <trkpt lat="46.1242" lon="5.33997">
        <ele>403</ele>
        <time>2022-05-24T12:36:04Z</time>
      </trkpt>
      <trkpt lat="46.1241" lon="5.33999">
        <ele>402.2</ele>
        <time>2022-05-24T12:36:05Z</time>
      </trkpt>
      <trkpt lat="46.12381" lon="5.34005">
        <ele>401.2</ele>
        <time>2022-05-24T12:36:08Z</time>
      </trkpt>
      <trkpt lat="46.12363" lon="5.34011">
        <ele>400.6</ele>
        <time>2022-05-24T12:36:10Z</time>
      </trkpt>
      <trkpt lat="46.12342" lon="5.34022">
        <ele>399.6</ele>
        <time>2022-05-24T12:36:12Z</time>
      </trkpt>
      <trkpt lat="46.12325" lon="5.34034">
        <ele>398.4</ele>
        <time>2022-05-24T12:36:14Z</time>
      </trkpt>
      <trkpt lat="46.12317" lon="5.34039">
        <ele>398</ele>
        <time>2022-05-24T12:36:15Z</time>
      </trkpt>
      <trkpt lat="46.12284" lon="5.34061">
        <ele>397</ele>
        <time>2022-05-24T12:36:19Z</time>
      </trkpt>
      <trkpt lat="46.12269" lon="5.34072">
        <ele>396.8</ele>
        <time>2022-05-24T12:36:21Z</time>
      </trkpt>
      <trkpt lat="46.12243" lon="5.34092">
        <ele>396</ele>
        <time>2022-05-24T12:36:24Z</time>
      </trkpt>
      <trkpt lat="46.1222" lon="5.34112">
        <ele>395.4</ele>
        <time>2022-05-24T12:36:27Z</time>
      </trkpt>
      <trkpt lat="46.12204" lon="5.34125">
        <ele>395</ele>
        <time>2022-05-24T12:36:29Z</time>
      </trkpt>
      <trkpt lat="46.12174" lon="5.34149">
        <ele>393.8</ele>
        <time>2022-05-24T12:36:33Z</time>
      </trkpt>
      <trkpt lat="46.12122" lon="5.34176">
        <ele>392.4</ele>
        <time>2022-05-24T12:36:39Z</time>
      </trkpt>
      <trkpt lat="46.12105" lon="5.34183">
        <ele>391.8</ele>
        <time>2022-05-24T12:36:41Z</time>
      </trkpt>
      <trkpt lat="46.12097" lon="5.34187">
        <ele>391.2</ele>
        <time>2022-05-24T12:36:42Z</time>
      </trkpt>
      <trkpt lat="46.12072" lon="5.34194">
        <ele>390.2</ele>
        <time>2022-05-24T12:36:45Z</time>
      </trkpt>
      <trkpt lat="46.12061" lon="5.34199">
        <ele>389.8</ele>
        <time>2022-05-24T12:36:46Z</time>
      </trkpt>
      <trkpt lat="46.12034" lon="5.34213">
        <ele>388.8</ele>
        <time>2022-05-24T12:36:49Z</time>
      </trkpt>
      <trkpt lat="46.11998" lon="5.34232">
        <ele>387.6</ele>
        <time>2022-05-24T12:36:53Z</time>
      </trkpt>
      <trkpt lat="46.11954" lon="5.34259">
        <ele>386.6</ele>
        <time>2022-05-24T12:36:58Z</time>
      </trkpt>
      <trkpt lat="46.11934" lon="5.34269">
        <ele>386.4</ele>
        <time>2022-05-24T12:37:00Z</time>
      </trkpt>
      <trkpt lat="46.11919" lon="5.34273">
        <ele>386.2</ele>
        <time>2022-05-24T12:37:02Z</time>
      </trkpt>
      <trkpt lat="46.11902" lon="5.34268">
        <ele>386</ele>
        <time>2022-05-24T12:37:04Z</time>
      </trkpt>
      <trkpt lat="46.11895" lon="5.34263">
        <ele>386</ele>
        <time>2022-05-24T12:37:05Z</time>
      </trkpt>
      <trkpt lat="46.11855" lon="5.34244">
        <ele>386</ele>
        <time>2022-05-24T12:37:10Z</time>
      </trkpt>
      <trkpt lat="46.11821" lon="5.34235">
        <ele>385.8</ele>
        <time>2022-05-24T12:37:14Z</time>
      </trkpt>
      <trkpt lat="46.11811" lon="5.34235">
        <ele>385.8</ele>
        <time>2022-05-24T12:37:15Z</time>
      </trkpt>
      <trkpt lat="46.11796" lon="5.34238">
        <ele>385.6</ele>
        <time>2022-05-24T12:37:17Z</time>
      </trkpt>
      <trkpt lat="46.11779" lon="5.34246">
        <ele>385.6</ele>
        <time>2022-05-24T12:37:19Z</time>
      </trkpt>
      <trkpt lat="46.11742" lon="5.34261">
        <ele>385.8</ele>
        <time>2022-05-24T12:37:24Z</time>
      </trkpt>
      <trkpt lat="46.1171" lon="5.34271">
        <ele>386.6</ele>
        <time>2022-05-24T12:37:29Z</time>
      </trkpt>
      <trkpt lat="46.11697" lon="5.34273">
        <ele>388</ele>
        <time>2022-05-24T12:37:31Z</time>
      </trkpt>
      <trkpt lat="46.11678" lon="5.34279">
        <ele>388.6</ele>
        <time>2022-05-24T12:37:34Z</time>
      </trkpt>
      <trkpt lat="46.11673" lon="5.3428">
        <ele>389</ele>
        <time>2022-05-24T12:37:35Z</time>
      </trkpt>
      <trkpt lat="46.11657" lon="5.34284">
        <ele>390</ele>
        <time>2022-05-24T12:37:38Z</time>
      </trkpt>
      <trkpt lat="46.1164" lon="5.34286">
        <ele>390.4</ele>
        <time>2022-05-24T12:37:41Z</time>
      </trkpt>
      <trkpt lat="46.11608" lon="5.34287">
        <ele>390.4</ele>
        <time>2022-05-24T12:37:46Z</time>
      </trkpt>
      <trkpt lat="46.11569" lon="5.34293">
        <ele>389.6</ele>
        <time>2022-05-24T12:37:52Z</time>
      </trkpt>
      <trkpt lat="46.11563" lon="5.34297">
        <ele>389.6</ele>
        <time>2022-05-24T12:37:53Z</time>
      </trkpt>
      <trkpt lat="46.11555" lon="5.34309">
        <ele>389.2</ele>
        <time>2022-05-24T12:37:55Z</time>
      </trkpt>
      <trkpt lat="46.1155" lon="5.34328">
        <ele>388.8</ele>
        <time>2022-05-24T12:37:57Z</time>
      </trkpt>
      <trkpt lat="46.11543" lon="5.34348">
        <ele>388.4</ele>
        <time>2022-05-24T12:37:59Z</time>
      </trkpt>
      <trkpt lat="46.11539" lon="5.34357">
        <ele>388.2</ele>
        <time>2022-05-24T12:38:00Z</time>
      </trkpt>
      <trkpt lat="46.11533" lon="5.34366">
        <ele>387.8</ele>
        <time>2022-05-24T12:38:01Z</time>
      </trkpt>
      <trkpt lat="46.11526" lon="5.34375">
        <ele>387.8</ele>
        <time>2022-05-24T12:38:02Z</time>
      </trkpt>
      <trkpt lat="46.11512" lon="5.3439">
        <ele>387.4</ele>
        <time>2022-05-24T12:38:04Z</time>
      </trkpt>
      <trkpt lat="46.11496" lon="5.34405">
        <ele>386.2</ele>
        <time>2022-05-24T12:38:06Z</time>
      </trkpt>
      <trkpt lat="46.1147" lon="5.34424">
        <ele>385.4</ele>
        <time>2022-05-24T12:38:09Z</time>
      </trkpt>
      <trkpt lat="46.11461" lon="5.34429">
        <ele>384.8</ele>
        <time>2022-05-24T12:38:10Z</time>
      </trkpt>
      <trkpt lat="46.11439" lon="5.34434">
        <ele>383</ele>
        <time>2022-05-24T12:38:12Z</time>
      </trkpt>
      <trkpt lat="46.11433" lon="5.34436">
        <ele>381.8</ele>
        <time>2022-05-24T12:38:13Z</time>
      </trkpt>
      <trkpt lat="46.11397" lon="5.34441">
        <ele>380.8</ele>
        <time>2022-05-24T12:38:16Z</time>
      </trkpt>
      <trkpt lat="46.11378" lon="5.3444">
        <ele>380</ele>
        <time>2022-05-24T12:38:18Z</time>
      </trkpt>
      <trkpt lat="46.11366" lon="5.34439">
        <ele>379.4</ele>
        <time>2022-05-24T12:38:19Z</time>
      </trkpt>
      <trkpt lat="46.11344" lon="5.34434">
        <ele>378</ele>
        <time>2022-05-24T12:38:21Z</time>
      </trkpt>
      <trkpt lat="46.1133" lon="5.34431">
        <ele>376.8</ele>
        <time>2022-05-24T12:38:22Z</time>
      </trkpt>
      <trkpt lat="46.11319" lon="5.34427">
        <ele>376.4</ele>
        <time>2022-05-24T12:38:23Z</time>
      </trkpt>
      <trkpt lat="46.11308" lon="5.34423">
        <ele>375.4</ele>
        <time>2022-05-24T12:38:24Z</time>
      </trkpt>
      <trkpt lat="46.11286" lon="5.34413">
        <ele>374.2</ele>
        <time>2022-05-24T12:38:26Z</time>
      </trkpt>
      <trkpt lat="46.11263" lon="5.34401">
        <ele>372.8</ele>
        <time>2022-05-24T12:38:28Z</time>
      </trkpt>
      <trkpt lat="46.11243" lon="5.34391">
        <ele>371.6</ele>
        <time>2022-05-24T12:38:30Z</time>
      </trkpt>
      <trkpt lat="46.11232" lon="5.34385">
        <ele>370.6</ele>
        <time>2022-05-24T12:38:31Z</time>
      </trkpt>
      <trkpt lat="46.1121" lon="5.34371">
        <ele>369</ele>
        <time>2022-05-24T12:38:33Z</time>
      </trkpt>
      <trkpt lat="46.11199" lon="5.34365">
        <ele>368.4</ele>
        <time>2022-05-24T12:38:34Z</time>
      </trkpt>
      <trkpt lat="46.11187" lon="5.34358">
        <ele>367.8</ele>
        <time>2022-05-24T12:38:35Z</time>
      </trkpt>
      <trkpt lat="46.11179" lon="5.34356">
        <ele>366.8</ele>
        <time>2022-05-24T12:38:36Z</time>
      </trkpt>
      <trkpt lat="46.11167" lon="5.34355">
        <ele>366.4</ele>
        <time>2022-05-24T12:38:37Z</time>
      </trkpt>
      <trkpt lat="46.1116" lon="5.34357">
        <ele>365.8</ele>
        <time>2022-05-24T12:38:38Z</time>
      </trkpt>
      <trkpt lat="46.1115" lon="5.3436">
        <ele>365.4</ele>
        <time>2022-05-24T12:38:39Z</time>
      </trkpt>
      <trkpt lat="46.11141" lon="5.34366">
        <ele>365</ele>
        <time>2022-05-24T12:38:40Z</time>
      </trkpt>
      <trkpt lat="46.1113" lon="5.34375">
        <ele>364.2</ele>
        <time>2022-05-24T12:38:41Z</time>
      </trkpt>
      <trkpt lat="46.11123" lon="5.34384">
        <ele>363.8</ele>
        <time>2022-05-24T12:38:42Z</time>
      </trkpt>
      <trkpt lat="46.11115" lon="5.34395">
        <ele>362</ele>
        <time>2022-05-24T12:38:43Z</time>
      </trkpt>
      <trkpt lat="46.11089" lon="5.34428">
        <ele>360.8</ele>
        <time>2022-05-24T12:38:46Z</time>
      </trkpt>
      <trkpt lat="46.1108" lon="5.34434">
        <ele>360.4</ele>
        <time>2022-05-24T12:38:47Z</time>
      </trkpt>
      <trkpt lat="46.11068" lon="5.3444">
        <ele>359.6</ele>
        <time>2022-05-24T12:38:48Z</time>
      </trkpt>
      <trkpt lat="46.11042" lon="5.34445">
        <ele>358.4</ele>
        <time>2022-05-24T12:38:50Z</time>
      </trkpt>
      <trkpt lat="46.11019" lon="5.34446">
        <ele>356.8</ele>
        <time>2022-05-24T12:38:52Z</time>
      </trkpt>
      <trkpt lat="46.10992" lon="5.34448">
        <ele>355.2</ele>
        <time>2022-05-24T12:38:54Z</time>
      </trkpt>
      <trkpt lat="46.10969" lon="5.34453">
        <ele>353.8</ele>
        <time>2022-05-24T12:38:56Z</time>
      </trkpt>
      <trkpt lat="46.10948" lon="5.34458">
        <ele>352.8</ele>
        <time>2022-05-24T12:38:58Z</time>
      </trkpt>
      <trkpt lat="46.10935" lon="5.34462">
        <ele>351.8</ele>
        <time>2022-05-24T12:38:59Z</time>
      </trkpt>
      <trkpt lat="46.10913" lon="5.34468">
        <ele>351</ele>
        <time>2022-05-24T12:39:01Z</time>
      </trkpt>
      <trkpt lat="46.10904" lon="5.34472">
        <ele>350.6</ele>
        <time>2022-05-24T12:39:02Z</time>
      </trkpt>
      <trkpt lat="46.10866" lon="5.34489">
        <ele>350.2</ele>
        <time>2022-05-24T12:39:06Z</time>
      </trkpt>
      <trkpt lat="46.10812" lon="5.34507">
        <ele>349.8</ele>
        <time>2022-05-24T12:39:11Z</time>
      </trkpt>
      <trkpt lat="46.10802" lon="5.34509">
        <ele>349.2</ele>
        <time>2022-05-24T12:39:12Z</time>
      </trkpt>
      <trkpt lat="46.10774" lon="5.34513">
        <ele>348</ele>
        <time>2022-05-24T12:39:15Z</time>
      </trkpt>
      <trkpt lat="46.10738" lon="5.3452">
        <ele>347</ele>
        <time>2022-05-24T12:39:18Z</time>
      </trkpt>
      <trkpt lat="46.10728" lon="5.34525">
        <ele>347</ele>
        <time>2022-05-24T12:39:19Z</time>
      </trkpt>
      <trkpt lat="46.10701" lon="5.34541">
        <ele>346.6</ele>
        <time>2022-05-24T12:39:22Z</time>
      </trkpt>
      <trkpt lat="46.10677" lon="5.34572">
        <ele>346.4</ele>
        <time>2022-05-24T12:39:25Z</time>
      </trkpt>
      <trkpt lat="46.10668" lon="5.34582">
        <ele>346.2</ele>
        <time>2022-05-24T12:39:26Z</time>
      </trkpt>
      <trkpt lat="46.10661" lon="5.34588">
        <ele>345.8</ele>
        <time>2022-05-24T12:39:27Z</time>
      </trkpt>
      <trkpt lat="46.10652" lon="5.34594">
        <ele>345.8</ele>
        <time>2022-05-24T12:39:28Z</time>
      </trkpt>
      <trkpt lat="46.10632" lon="5.34602">
        <ele>345.6</ele>
        <time>2022-05-24T12:39:30Z</time>
      </trkpt>
      <trkpt lat="46.10625" lon="5.34607">
        <ele>345.4</ele>
        <time>2022-05-24T12:39:31Z</time>
      </trkpt>
      <trkpt lat="46.1061" lon="5.34622">
        <ele>345</ele>
        <time>2022-05-24T12:39:33Z</time>
      </trkpt>
      <trkpt lat="46.10605" lon="5.34631">
        <ele>344.8</ele>
        <time>2022-05-24T12:39:34Z</time>
      </trkpt>
      <trkpt lat="46.10601" lon="5.34644">
        <ele>344.8</ele>
        <time>2022-05-24T12:39:35Z</time>
      </trkpt>
      <trkpt lat="46.10597" lon="5.34664">
        <ele>344.6</ele>
        <time>2022-05-24T12:39:37Z</time>
      </trkpt>
      <trkpt lat="46.10594" lon="5.34676">
        <ele>344.6</ele>
        <time>2022-05-24T12:39:38Z</time>
      </trkpt>
      <trkpt lat="46.1058" lon="5.34715">
        <ele>344.6</ele>
        <time>2022-05-24T12:39:41Z</time>
      </trkpt>
      <trkpt lat="46.10556" lon="5.34742">
        <ele>344</ele>
        <time>2022-05-24T12:39:44Z</time>
      </trkpt>
      <trkpt lat="46.10543" lon="5.34755">
        <ele>343.6</ele>
        <time>2022-05-24T12:39:46Z</time>
      </trkpt>
      <trkpt lat="46.10536" lon="5.34763">
        <ele>343.6</ele>
        <time>2022-05-24T12:39:47Z</time>
      </trkpt>
      <trkpt lat="46.10521" lon="5.34777">
        <ele>343.4</ele>
        <time>2022-05-24T12:39:49Z</time>
      </trkpt>
      <trkpt lat="46.10494" lon="5.34794">
        <ele>342.4</ele>
        <time>2022-05-24T12:39:53Z</time>
      </trkpt>
      <trkpt lat="46.10487" lon="5.34798">
        <ele>342.4</ele>
        <time>2022-05-24T12:39:54Z</time>
      </trkpt>
      <trkpt lat="46.10463" lon="5.34812">
        <ele>342.4</ele>
        <time>2022-05-24T12:39:57Z</time>
      </trkpt>
      <trkpt lat="46.10449" lon="5.34821">
        <ele>342.2</ele>
        <time>2022-05-24T12:39:59Z</time>
      </trkpt>
      <trkpt lat="46.10418" lon="5.34832">
        <ele>342</ele>
        <time>2022-05-24T12:40:03Z</time>
      </trkpt>
      <trkpt lat="46.10396" lon="5.34844">
        <ele>341.8</ele>
        <time>2022-05-24T12:40:06Z</time>
      </trkpt>
      <trkpt lat="46.10383" lon="5.34856">
        <ele>342</ele>
        <time>2022-05-24T12:40:08Z</time>
      </trkpt>
      <trkpt lat="46.10346" lon="5.34896">
        <ele>342</ele>
        <time>2022-05-24T12:40:14Z</time>
      </trkpt>
      <trkpt lat="46.10323" lon="5.34907">
        <ele>342.2</ele>
        <time>2022-05-24T12:40:17Z</time>
      </trkpt>
      <trkpt lat="46.10314" lon="5.34909">
        <ele>342</ele>
        <time>2022-05-24T12:40:18Z</time>
      </trkpt>
      <trkpt lat="46.10297" lon="5.34913">
        <ele>341.4</ele>
        <time>2022-05-24T12:40:20Z</time>
      </trkpt>
      <trkpt lat="46.10273" lon="5.34922">
        <ele>340</ele>
        <time>2022-05-24T12:40:23Z</time>
      </trkpt>
      <trkpt lat="46.10264" lon="5.34924">
        <ele>339.8</ele>
        <time>2022-05-24T12:40:24Z</time>
      </trkpt>
      <trkpt lat="46.10239" lon="5.3493">
        <ele>339.2</ele>
        <time>2022-05-24T12:40:27Z</time>
      </trkpt>
      <trkpt lat="46.10228" lon="5.34933">
        <ele>339</ele>
        <time>2022-05-24T12:40:28Z</time>
      </trkpt>
      <trkpt lat="46.10183" lon="5.34946">
        <ele>338</ele>
        <time>2022-05-24T12:40:33Z</time>
      </trkpt>
      <trkpt lat="46.10165" lon="5.34952">
        <ele>336.4</ele>
        <time>2022-05-24T12:40:35Z</time>
      </trkpt>
      <trkpt lat="46.10132" lon="5.3497">
        <ele>334.8</ele>
        <time>2022-05-24T12:40:39Z</time>
      </trkpt>
      <trkpt lat="46.10117" lon="5.34978">
        <ele>333.8</ele>
        <time>2022-05-24T12:40:41Z</time>
      </trkpt>
      <trkpt lat="46.10093" lon="5.34991">
        <ele>332.8</ele>
        <time>2022-05-24T12:40:43Z</time>
      </trkpt>
      <trkpt lat="46.10085" lon="5.34994">
        <ele>332.6</ele>
        <time>2022-05-24T12:40:44Z</time>
      </trkpt>
      <trkpt lat="46.10076" lon="5.34997">
        <ele>332.4</ele>
        <time>2022-05-24T12:40:45Z</time>
      </trkpt>
      <trkpt lat="46.10066" lon="5.35001">
        <ele>331.4</ele>
        <time>2022-05-24T12:40:46Z</time>
      </trkpt>
      <trkpt lat="46.10037" lon="5.35011">
        <ele>330.4</ele>
        <time>2022-05-24T12:40:49Z</time>
      </trkpt>
      <trkpt lat="46.10024" lon="5.35015">
        <ele>329.4</ele>
        <time>2022-05-24T12:40:51Z</time>
      </trkpt>
      <trkpt lat="46.10019" lon="5.35017">
        <ele>329.2</ele>
        <time>2022-05-24T12:40:52Z</time>
      </trkpt>
      <trkpt lat="46.10017" lon="5.3502">
        <ele>328.6</ele>
        <time>2022-05-24T12:40:53Z</time>
      </trkpt>
      <trkpt lat="46.10017" lon="5.35027">
        <ele>328.2</ele>
        <time>2022-05-24T12:40:55Z</time>
      </trkpt>
      <trkpt lat="46.10018" lon="5.35031">
        <ele>328</ele>
        <time>2022-05-24T12:40:56Z</time>
      </trkpt>
      <trkpt lat="46.10025" lon="5.35053">
        <ele>328</ele>
        <time>2022-05-24T12:41:01Z</time>
      </trkpt>
      <trkpt lat="46.10027" lon="5.35059">
        <ele>328</ele>
        <time>2022-05-24T12:41:02Z</time>
      </trkpt>
      <trkpt lat="46.10035" lon="5.3509">
        <ele>327.8</ele>
        <time>2022-05-24T12:41:06Z</time>
      </trkpt>
      <trkpt lat="46.1005" lon="5.35139">
        <ele>327.6</ele>
        <time>2022-05-24T12:41:11Z</time>
      </trkpt>
      <trkpt lat="46.10053" lon="5.35149">
        <ele>327</ele>
        <time>2022-05-24T12:41:12Z</time>
      </trkpt>
      <trkpt lat="46.10062" lon="5.35199">
        <ele>326</ele>
        <time>2022-05-24T12:41:16Z</time>
      </trkpt>
      <trkpt lat="46.10063" lon="5.35209">
        <ele>325.8</ele>
        <time>2022-05-24T12:41:17Z</time>
      </trkpt>
      <trkpt lat="46.10072" lon="5.35259">
        <ele>324.6</ele>
        <time>2022-05-24T12:41:21Z</time>
      </trkpt>
      <trkpt lat="46.10078" lon="5.35282">
        <ele>324.2</ele>
        <time>2022-05-24T12:41:23Z</time>
      </trkpt>
      <trkpt lat="46.10098" lon="5.3532">
        <ele>323.6</ele>
        <time>2022-05-24T12:41:27Z</time>
      </trkpt>
      <trkpt lat="46.10113" lon="5.35361">
        <ele>323.8</ele>
        <time>2022-05-24T12:41:31Z</time>
      </trkpt>
      <trkpt lat="46.10116" lon="5.35371">
        <ele>323.8</ele>
        <time>2022-05-24T12:41:32Z</time>
      </trkpt>
      <trkpt lat="46.10123" lon="5.35403">
        <ele>323.8</ele>
        <time>2022-05-24T12:41:35Z</time>
      </trkpt>
      <trkpt lat="46.10129" lon="5.35422">
        <ele>323.8</ele>
        <time>2022-05-24T12:41:37Z</time>
      </trkpt>
      <trkpt lat="46.10133" lon="5.3543">
        <ele>323.8</ele>
        <time>2022-05-24T12:41:38Z</time>
      </trkpt>
      <trkpt lat="46.10151" lon="5.35462">
        <ele>324.8</ele>
        <time>2022-05-24T12:41:42Z</time>
      </trkpt>
      <trkpt lat="46.10162" lon="5.35476">
        <ele>325</ele>
        <time>2022-05-24T12:41:44Z</time>
      </trkpt>
      <trkpt lat="46.10184" lon="5.355">
        <ele>325.2</ele>
        <time>2022-05-24T12:41:48Z</time>
      </trkpt>
      <trkpt lat="46.10226" lon="5.35547">
        <ele>325.4</ele>
        <time>2022-05-24T12:41:55Z</time>
      </trkpt>
      <trkpt lat="46.10231" lon="5.35555">
        <ele>325.4</ele>
        <time>2022-05-24T12:41:56Z</time>
      </trkpt>
      <trkpt lat="46.10236" lon="5.35564">
        <ele>325.2</ele>
        <time>2022-05-24T12:41:57Z</time>
      </trkpt>
      <trkpt lat="46.10241" lon="5.35584">
        <ele>325</ele>
        <time>2022-05-24T12:41:59Z</time>
      </trkpt>
      <trkpt lat="46.10237" lon="5.35627">
        <ele>324.2</ele>
        <time>2022-05-24T12:42:03Z</time>
      </trkpt>
      <trkpt lat="46.10235" lon="5.35653">
        <ele>323.8</ele>
        <time>2022-05-24T12:42:05Z</time>
      </trkpt>
      <trkpt lat="46.10233" lon="5.35704">
        <ele>322.8</ele>
        <time>2022-05-24T12:42:09Z</time>
      </trkpt>
      <trkpt lat="46.10232" lon="5.35718">
        <ele>322.6</ele>
        <time>2022-05-24T12:42:10Z</time>
      </trkpt>
      <trkpt lat="46.10227" lon="5.35785">
        <ele>321.6</ele>
        <time>2022-05-24T12:42:15Z</time>
      </trkpt>
      <trkpt lat="46.10225" lon="5.35796">
        <ele>321.2</ele>
        <time>2022-05-24T12:42:16Z</time>
      </trkpt>
      <trkpt lat="46.1022" lon="5.35822">
        <ele>320.4</ele>
        <time>2022-05-24T12:42:18Z</time>
      </trkpt>
      <trkpt lat="46.1021" lon="5.3586">
        <ele>319.4</ele>
        <time>2022-05-24T12:42:21Z</time>
      </trkpt>
      <trkpt lat="46.10204" lon="5.35886">
        <ele>318.8</ele>
        <time>2022-05-24T12:42:23Z</time>
      </trkpt>
      <trkpt lat="46.10198" lon="5.35913">
        <ele>318.2</ele>
        <time>2022-05-24T12:42:25Z</time>
      </trkpt>
      <trkpt lat="46.10186" lon="5.35977">
        <ele>317.8</ele>
        <time>2022-05-24T12:42:30Z</time>
      </trkpt>
      <trkpt lat="46.10184" lon="5.3599">
        <ele>317.6</ele>
        <time>2022-05-24T12:42:31Z</time>
      </trkpt>
      <trkpt lat="46.10187" lon="5.36016">
        <ele>317.2</ele>
        <time>2022-05-24T12:42:33Z</time>
      </trkpt>
      <trkpt lat="46.10208" lon="5.36055">
        <ele>316</ele>
        <time>2022-05-24T12:42:37Z</time>
      </trkpt>
      <trkpt lat="46.10214" lon="5.36077">
        <ele>315.6</ele>
        <time>2022-05-24T12:42:39Z</time>
      </trkpt>
      <trkpt lat="46.10215" lon="5.36089">
        <ele>315.4</ele>
        <time>2022-05-24T12:42:40Z</time>
      </trkpt>
      <trkpt lat="46.1022" lon="5.36165">
        <ele>315.4</ele>
        <time>2022-05-24T12:42:46Z</time>
      </trkpt>
      <trkpt lat="46.10217" lon="5.36214">
        <ele>314.8</ele>
        <time>2022-05-24T12:42:50Z</time>
      </trkpt>
      <trkpt lat="46.10214" lon="5.36239">
        <ele>314.4</ele>
        <time>2022-05-24T12:42:52Z</time>
      </trkpt>
      <trkpt lat="46.10209" lon="5.36278">
        <ele>314.8</ele>
        <time>2022-05-24T12:42:56Z</time>
      </trkpt>
      <trkpt lat="46.10202" lon="5.36318">
        <ele>316</ele>
        <time>2022-05-24T12:43:00Z</time>
      </trkpt>
      <trkpt lat="46.10202" lon="5.3633">
        <ele>316.4</ele>
        <time>2022-05-24T12:43:01Z</time>
      </trkpt>
      <trkpt lat="46.10204" lon="5.3634">
        <ele>316.6</ele>
        <time>2022-05-24T12:43:02Z</time>
      </trkpt>
      <trkpt lat="46.1021" lon="5.36358">
        <ele>316.8</ele>
        <time>2022-05-24T12:43:04Z</time>
      </trkpt>
      <trkpt lat="46.10241" lon="5.36428">
        <ele>316.6</ele>
        <time>2022-05-24T12:43:11Z</time>
      </trkpt>
      <trkpt lat="46.1026" lon="5.36469">
        <ele>316.4</ele>
        <time>2022-05-24T12:43:16Z</time>
      </trkpt>
      <trkpt lat="46.10274" lon="5.36491">
        <ele>316.8</ele>
        <time>2022-05-24T12:43:19Z</time>
      </trkpt>
      <trkpt lat="46.10281" lon="5.36497">
        <ele>317</ele>
        <time>2022-05-24T12:43:20Z</time>
      </trkpt>
      <trkpt lat="46.10287" lon="5.36501">
        <ele>317</ele>
        <time>2022-05-24T12:43:21Z</time>
      </trkpt>
      <trkpt lat="46.10299" lon="5.36504">
        <ele>317.2</ele>
        <time>2022-05-24T12:43:23Z</time>
      </trkpt>
      <trkpt lat="46.10312" lon="5.36508">
        <ele>317</ele>
        <time>2022-05-24T12:43:25Z</time>
      </trkpt>
      <trkpt lat="46.10327" lon="5.36519">
        <ele>317</ele>
        <time>2022-05-24T12:43:27Z</time>
      </trkpt>
      <trkpt lat="46.10337" lon="5.36534">
        <ele>316.8</ele>
        <time>2022-05-24T12:43:29Z</time>
      </trkpt>
      <trkpt lat="46.10341" lon="5.36543">
        <ele>316.8</ele>
        <time>2022-05-24T12:43:30Z</time>
      </trkpt>
      <trkpt lat="46.10344" lon="5.36551">
        <ele>316.8</ele>
        <time>2022-05-24T12:43:31Z</time>
      </trkpt>
      <trkpt lat="46.10354" lon="5.36575">
        <ele>316.8</ele>
        <time>2022-05-24T12:43:34Z</time>
      </trkpt>
      <trkpt lat="46.10365" lon="5.36598">
        <ele>317</ele>
        <time>2022-05-24T12:43:37Z</time>
      </trkpt>
      <trkpt lat="46.10379" lon="5.36623">
        <ele>317.4</ele>
        <time>2022-05-24T12:43:40Z</time>
      </trkpt>
      <trkpt lat="46.10394" lon="5.36647">
        <ele>317.4</ele>
        <time>2022-05-24T12:43:43Z</time>
      </trkpt>
      <trkpt lat="46.10408" lon="5.36673">
        <ele>316.6</ele>
        <time>2022-05-24T12:43:46Z</time>
      </trkpt>
      <trkpt lat="46.10425" lon="5.36699">
        <ele>316</ele>
        <time>2022-05-24T12:43:49Z</time>
      </trkpt>
      <trkpt lat="46.10437" lon="5.36715">
        <ele>315.6</ele>
        <time>2022-05-24T12:43:51Z</time>
      </trkpt>
      <trkpt lat="46.10454" lon="5.3674">
        <ele>314.6</ele>
        <time>2022-05-24T12:43:54Z</time>
      </trkpt>
      <trkpt lat="46.10458" lon="5.36749">
        <ele>314.4</ele>
        <time>2022-05-24T12:43:55Z</time>
      </trkpt>
      <trkpt lat="46.10462" lon="5.36759">
        <ele>314.2</ele>
        <time>2022-05-24T12:43:56Z</time>
      </trkpt>
      <trkpt lat="46.10465" lon="5.36769">
        <ele>314.2</ele>
        <time>2022-05-24T12:43:57Z</time>
      </trkpt>
      <trkpt lat="46.10471" lon="5.36799">
        <ele>314.4</ele>
        <time>2022-05-24T12:44:00Z</time>
      </trkpt>
      <trkpt lat="46.10478" lon="5.36845">
        <ele>315.2</ele>
        <time>2022-05-24T12:44:05Z</time>
      </trkpt>
      <trkpt lat="46.10479" lon="5.36864">
        <ele>315.4</ele>
        <time>2022-05-24T12:44:07Z</time>
      </trkpt>
      <trkpt lat="46.10476" lon="5.36917">
        <ele>315.6</ele>
        <time>2022-05-24T12:44:12Z</time>
      </trkpt>
      <trkpt lat="46.10467" lon="5.36986">
        <ele>313.8</ele>
        <time>2022-05-24T12:44:18Z</time>
      </trkpt>
      <trkpt lat="46.10464" lon="5.36994">
        <ele>313.6</ele>
        <time>2022-05-24T12:44:19Z</time>
      </trkpt>
      <trkpt lat="46.10451" lon="5.37012">
        <ele>313.2</ele>
        <time>2022-05-24T12:44:21Z</time>
      </trkpt>
      <trkpt lat="46.10432" lon="5.37028">
        <ele>313.2</ele>
        <time>2022-05-24T12:44:24Z</time>
      </trkpt>
      <trkpt lat="46.10426" lon="5.37036">
        <ele>313</ele>
        <time>2022-05-24T12:44:25Z</time>
      </trkpt>
      <trkpt lat="46.10423" lon="5.37042">
        <ele>313</ele>
        <time>2022-05-24T12:44:26Z</time>
      </trkpt>
      <trkpt lat="46.10416" lon="5.37059">
        <ele>313.2</ele>
        <time>2022-05-24T12:44:28Z</time>
      </trkpt>
      <trkpt lat="46.10415" lon="5.37067">
        <ele>313.2</ele>
        <time>2022-05-24T12:44:29Z</time>
      </trkpt>
      <trkpt lat="46.10414" lon="5.37107">
        <ele>314.8</ele>
        <time>2022-05-24T12:44:34Z</time>
      </trkpt>
      <trkpt lat="46.10414" lon="5.37114">
        <ele>315.2</ele>
        <time>2022-05-24T12:44:35Z</time>
      </trkpt>
      <trkpt lat="46.10411" lon="5.37137">
        <ele>316.2</ele>
        <time>2022-05-24T12:44:38Z</time>
      </trkpt>
      <trkpt lat="46.10409" lon="5.37157">
        <ele>317.2</ele>
        <time>2022-05-24T12:44:41Z</time>
      </trkpt>
      <trkpt lat="46.10408" lon="5.37166">
        <ele>317.4</ele>
        <time>2022-05-24T12:44:42Z</time>
      </trkpt>
      <trkpt lat="46.10407" lon="5.37174">
        <ele>317.6</ele>
        <time>2022-05-24T12:44:43Z</time>
      </trkpt>
      <trkpt lat="46.1041" lon="5.37203">
        <ele>317.8</ele>
        <time>2022-05-24T12:44:46Z</time>
      </trkpt>
      <trkpt lat="46.10418" lon="5.37218">
        <ele>317.8</ele>
        <time>2022-05-24T12:44:48Z</time>
      </trkpt>
      <trkpt lat="46.10423" lon="5.37225">
        <ele>317.8</ele>
        <time>2022-05-24T12:44:49Z</time>
      </trkpt>
      <trkpt lat="46.10438" lon="5.37242">
        <ele>317.6</ele>
        <time>2022-05-24T12:44:52Z</time>
      </trkpt>
      <trkpt lat="46.10443" lon="5.37257">
        <ele>317.4</ele>
        <time>2022-05-24T12:44:54Z</time>
      </trkpt>
      <trkpt lat="46.10441" lon="5.3727">
        <ele>317.2</ele>
        <time>2022-05-24T12:44:56Z</time>
      </trkpt>
      <trkpt lat="46.10438" lon="5.37277">
        <ele>317.2</ele>
        <time>2022-05-24T12:44:57Z</time>
      </trkpt>
      <trkpt lat="46.1042" lon="5.37308">
        <ele>316.8</ele>
        <time>2022-05-24T12:45:01Z</time>
      </trkpt>
      <trkpt lat="46.10404" lon="5.3734">
        <ele>316.4</ele>
        <time>2022-05-24T12:45:05Z</time>
      </trkpt>
      <trkpt lat="46.10396" lon="5.37354">
        <ele>316.2</ele>
        <time>2022-05-24T12:45:07Z</time>
      </trkpt>
      <trkpt lat="46.1038" lon="5.37382">
        <ele>315.8</ele>
        <time>2022-05-24T12:45:10Z</time>
      </trkpt>
      <trkpt lat="46.10375" lon="5.37393">
        <ele>315.4</ele>
        <time>2022-05-24T12:45:11Z</time>
      </trkpt>
      <trkpt lat="46.10371" lon="5.37404">
        <ele>315.2</ele>
        <time>2022-05-24T12:45:12Z</time>
      </trkpt>
      <trkpt lat="46.10361" lon="5.37442">
        <ele>314.4</ele>
        <time>2022-05-24T12:45:15Z</time>
      </trkpt>
      <trkpt lat="46.10357" lon="5.37453">
        <ele>313.6</ele>
        <time>2022-05-24T12:45:16Z</time>
      </trkpt>
      <trkpt lat="46.10351" lon="5.37475">
        <ele>312.6</ele>
        <time>2022-05-24T12:45:18Z</time>
      </trkpt>
      <trkpt lat="46.10346" lon="5.37495">
        <ele>312.2</ele>
        <time>2022-05-24T12:45:20Z</time>
      </trkpt>
      <trkpt lat="46.10347" lon="5.37513">
        <ele>312.2</ele>
        <time>2022-05-24T12:45:22Z</time>
      </trkpt>
      <trkpt lat="46.10348" lon="5.3752">
        <ele>312.2</ele>
        <time>2022-05-24T12:45:23Z</time>
      </trkpt>
      <trkpt lat="46.10351" lon="5.37525">
        <ele>312.4</ele>
        <time>2022-05-24T12:45:24Z</time>
      </trkpt>
      <trkpt lat="46.1036" lon="5.37536">
        <ele>312.8</ele>
        <time>2022-05-24T12:45:26Z</time>
      </trkpt>
      <trkpt lat="46.10364" lon="5.37541">
        <ele>313.8</ele>
        <time>2022-05-24T12:45:27Z</time>
      </trkpt>
      <trkpt lat="46.10372" lon="5.3755">
        <ele>315</ele>
        <time>2022-05-24T12:45:29Z</time>
      </trkpt>
      <trkpt lat="46.10383" lon="5.37564">
        <ele>315.6</ele>
        <time>2022-05-24T12:45:31Z</time>
      </trkpt>
      <trkpt lat="46.10388" lon="5.37572">
        <ele>315.6</ele>
        <time>2022-05-24T12:45:32Z</time>
      </trkpt>
      <trkpt lat="46.10396" lon="5.37589">
        <ele>315.8</ele>
        <time>2022-05-24T12:45:34Z</time>
      </trkpt>
      <trkpt lat="46.10415" lon="5.37627">
        <ele>315.2</ele>
        <time>2022-05-24T12:45:38Z</time>
      </trkpt>
      <trkpt lat="46.1043" lon="5.37654">
        <ele>314.2</ele>
        <time>2022-05-24T12:45:41Z</time>
      </trkpt>
      <trkpt lat="46.10435" lon="5.37661">
        <ele>314</ele>
        <time>2022-05-24T12:45:42Z</time>
      </trkpt>
      <trkpt lat="46.10439" lon="5.3767">
        <ele>313.8</ele>
        <time>2022-05-24T12:45:43Z</time>
      </trkpt>
      <trkpt lat="46.10441" lon="5.3769">
        <ele>313.4</ele>
        <time>2022-05-24T12:45:45Z</time>
      </trkpt>
      <trkpt lat="46.10435" lon="5.37709">
        <ele>312.8</ele>
        <time>2022-05-24T12:45:47Z</time>
      </trkpt>
      <trkpt lat="46.1043" lon="5.37717">
        <ele>312.2</ele>
        <time>2022-05-24T12:45:48Z</time>
      </trkpt>
      <trkpt lat="46.10425" lon="5.37725">
        <ele>311.8</ele>
        <time>2022-05-24T12:45:49Z</time>
      </trkpt>
      <trkpt lat="46.1042" lon="5.37735">
        <ele>311.8</ele>
        <time>2022-05-24T12:45:50Z</time>
      </trkpt>
      <trkpt lat="46.10405" lon="5.37764">
        <ele>311.2</ele>
        <time>2022-05-24T12:45:53Z</time>
      </trkpt>
      <trkpt lat="46.10396" lon="5.37786">
        <ele>310.2</ele>
        <time>2022-05-24T12:45:55Z</time>
      </trkpt>
      <trkpt lat="46.10393" lon="5.37798">
        <ele>309.2</ele>
        <time>2022-05-24T12:45:56Z</time>
      </trkpt>
      <trkpt lat="46.10391" lon="5.37812">
        <ele>308.8</ele>
        <time>2022-05-24T12:45:57Z</time>
      </trkpt>
      <trkpt lat="46.10391" lon="5.37827">
        <ele>308</ele>
        <time>2022-05-24T12:45:58Z</time>
      </trkpt>
      <trkpt lat="46.10392" lon="5.37841">
        <ele>307.6</ele>
        <time>2022-05-24T12:45:59Z</time>
      </trkpt>
      <trkpt lat="46.10394" lon="5.37855">
        <ele>306.6</ele>
        <time>2022-05-24T12:46:00Z</time>
      </trkpt>
      <trkpt lat="46.10399" lon="5.379">
        <ele>304.6</ele>
        <time>2022-05-24T12:46:03Z</time>
      </trkpt>
      <trkpt lat="46.10399" lon="5.37912">
        <ele>304</ele>
        <time>2022-05-24T12:46:04Z</time>
      </trkpt>
      <trkpt lat="46.10399" lon="5.3793">
        <ele>302.6</ele>
        <time>2022-05-24T12:46:05Z</time>
      </trkpt>
      <trkpt lat="46.104" lon="5.37956">
        <ele>301.2</ele>
        <time>2022-05-24T12:46:07Z</time>
      </trkpt>
      <trkpt lat="46.10401" lon="5.37964">
        <ele>301</ele>
        <time>2022-05-24T12:46:08Z</time>
      </trkpt>
      <trkpt lat="46.10401" lon="5.37974">
        <ele>300</ele>
        <time>2022-05-24T12:46:09Z</time>
      </trkpt>
      <trkpt lat="46.10395" lon="5.37983">
        <ele>299.2</ele>
        <time>2022-05-24T12:46:11Z</time>
      </trkpt>
      <trkpt lat="46.1039" lon="5.37978">
        <ele>298.6</ele>
        <time>2022-05-24T12:46:12Z</time>
      </trkpt>
      <trkpt lat="46.10387" lon="5.37973">
        <ele>298.6</ele>
        <time>2022-05-24T12:46:13Z</time>
      </trkpt>
      <trkpt lat="46.10386" lon="5.37957">
        <ele>298.2</ele>
        <time>2022-05-24T12:46:15Z</time>
      </trkpt>
      <trkpt lat="46.10386" lon="5.37949">
        <ele>297.6</ele>
        <time>2022-05-24T12:46:16Z</time>
      </trkpt>
      <trkpt lat="46.10385" lon="5.37938">
        <ele>297.2</ele>
        <time>2022-05-24T12:46:17Z</time>
      </trkpt>
      <trkpt lat="46.10379" lon="5.37915">
        <ele>296.6</ele>
        <time>2022-05-24T12:46:19Z</time>
      </trkpt>
      <trkpt lat="46.10372" lon="5.37896">
        <ele>295.8</ele>
        <time>2022-05-24T12:46:21Z</time>
      </trkpt>
      <trkpt lat="46.1036" lon="5.37869">
        <ele>295.2</ele>
        <time>2022-05-24T12:46:23Z</time>
      </trkpt>
      <trkpt lat="46.1035" lon="5.37845">
        <ele>294.2</ele>
        <time>2022-05-24T12:46:25Z</time>
      </trkpt>
      <trkpt lat="46.10343" lon="5.37829">
        <ele>293.8</ele>
        <time>2022-05-24T12:46:26Z</time>
      </trkpt>
      <trkpt lat="46.10336" lon="5.37816">
        <ele>293.2</ele>
        <time>2022-05-24T12:46:27Z</time>
      </trkpt>
      <trkpt lat="46.1033" lon="5.37803">
        <ele>292</ele>
        <time>2022-05-24T12:46:28Z</time>
      </trkpt>
      <trkpt lat="46.10319" lon="5.37781">
        <ele>290.6</ele>
        <time>2022-05-24T12:46:30Z</time>
      </trkpt>
      <trkpt lat="46.10306" lon="5.37757">
        <ele>289.4</ele>
        <time>2022-05-24T12:46:32Z</time>
      </trkpt>
      <trkpt lat="46.10299" lon="5.37747">
        <ele>289</ele>
        <time>2022-05-24T12:46:33Z</time>
      </trkpt>
      <trkpt lat="46.10287" lon="5.37734">
        <ele>288.4</ele>
        <time>2022-05-24T12:46:35Z</time>
      </trkpt>
      <trkpt lat="46.10273" lon="5.37719">
        <ele>288.2</ele>
        <time>2022-05-24T12:46:37Z</time>
      </trkpt>
      <trkpt lat="46.10235" lon="5.37692">
        <ele>288.4</ele>
        <time>2022-05-24T12:46:42Z</time>
      </trkpt>
      <trkpt lat="46.10195" lon="5.37683">
        <ele>288</ele>
        <time>2022-05-24T12:46:46Z</time>
      </trkpt>
      <trkpt lat="46.10185" lon="5.37682">
        <ele>287.6</ele>
        <time>2022-05-24T12:46:47Z</time>
      </trkpt>
      <trkpt lat="46.10178" lon="5.37684">
        <ele>287.2</ele>
        <time>2022-05-24T12:46:48Z</time>
      </trkpt>
      <trkpt lat="46.10166" lon="5.37689">
        <ele>286.2</ele>
        <time>2022-05-24T12:46:49Z</time>
      </trkpt>
      <trkpt lat="46.10148" lon="5.37711">
        <ele>285</ele>
        <time>2022-05-24T12:46:51Z</time>
      </trkpt>
      <trkpt lat="46.10142" lon="5.37724">
        <ele>284.4</ele>
        <time>2022-05-24T12:46:52Z</time>
      </trkpt>
      <trkpt lat="46.10136" lon="5.37737">
        <ele>283.4</ele>
        <time>2022-05-24T12:46:53Z</time>
      </trkpt>
      <trkpt lat="46.10129" lon="5.37751">
        <ele>281.6</ele>
        <time>2022-05-24T12:46:54Z</time>
      </trkpt>
      <trkpt lat="46.10119" lon="5.37776">
        <ele>279.6</ele>
        <time>2022-05-24T12:46:56Z</time>
      </trkpt>
      <trkpt lat="46.10114" lon="5.37789">
        <ele>278.8</ele>
        <time>2022-05-24T12:46:57Z</time>
      </trkpt>
      <trkpt lat="46.1011" lon="5.37802">
        <ele>277.4</ele>
        <time>2022-05-24T12:46:58Z</time>
      </trkpt>
      <trkpt lat="46.10103" lon="5.37827">
        <ele>276.6</ele>
        <time>2022-05-24T12:47:00Z</time>
      </trkpt>
      <trkpt lat="46.10099" lon="5.3784">
        <ele>276.2</ele>
        <time>2022-05-24T12:47:01Z</time>
      </trkpt>
      <trkpt lat="46.1009" lon="5.37862">
        <ele>276</ele>
        <time>2022-05-24T12:47:03Z</time>
      </trkpt>
      <trkpt lat="46.10086" lon="5.37873">
        <ele>276</ele>
        <time>2022-05-24T12:47:04Z</time>
      </trkpt>
      <trkpt lat="46.10076" lon="5.37904">
        <ele>276</ele>
        <time>2022-05-24T12:47:07Z</time>
      </trkpt>
      <trkpt lat="46.10071" lon="5.37921">
        <ele>276</ele>
        <time>2022-05-24T12:47:09Z</time>
      </trkpt>
      <trkpt lat="46.10066" lon="5.37936">
        <ele>276.8</ele>
        <time>2022-05-24T12:47:11Z</time>
      </trkpt>
      <trkpt lat="46.10062" lon="5.3795">
        <ele>277.6</ele>
        <time>2022-05-24T12:47:13Z</time>
      </trkpt>
      <trkpt lat="46.1006" lon="5.37956">
        <ele>278.6</ele>
        <time>2022-05-24T12:47:14Z</time>
      </trkpt>
      <trkpt lat="46.10057" lon="5.37961">
        <ele>279.8</ele>
        <time>2022-05-24T12:47:15Z</time>
      </trkpt>
      <trkpt lat="46.10055" lon="5.37966">
        <ele>280.4</ele>
        <time>2022-05-24T12:47:16Z</time>
      </trkpt>
      <trkpt lat="46.10052" lon="5.37972">
        <ele>281.4</ele>
        <time>2022-05-24T12:47:17Z</time>
      </trkpt>
      <trkpt lat="46.10049" lon="5.37976">
        <ele>281.8</ele>
        <time>2022-05-24T12:47:18Z</time>
      </trkpt>
      <trkpt lat="46.10046" lon="5.3798">
        <ele>282.6</ele>
        <time>2022-05-24T12:47:19Z</time>
      </trkpt>
      <trkpt lat="46.1004" lon="5.37987">
        <ele>284</ele>
        <time>2022-05-24T12:47:21Z</time>
      </trkpt>
      <trkpt lat="46.10036" lon="5.3799">
        <ele>284.8</ele>
        <time>2022-05-24T12:47:22Z</time>
      </trkpt>
      <trkpt lat="46.10033" lon="5.37993">
        <ele>285</ele>
        <time>2022-05-24T12:47:23Z</time>
      </trkpt>
      <trkpt lat="46.10021" lon="5.37999">
        <ele>286.6</ele>
        <time>2022-05-24T12:47:26Z</time>
      </trkpt>
      <trkpt lat="46.10015" lon="5.38001">
        <ele>287.4</ele>
        <time>2022-05-24T12:47:28Z</time>
      </trkpt>
      <trkpt lat="46.1001" lon="5.38002">
        <ele>287.8</ele>
        <time>2022-05-24T12:47:29Z</time>
      </trkpt>
      <trkpt lat="46.10003" lon="5.38">
        <ele>288.4</ele>
        <time>2022-05-24T12:47:31Z</time>
      </trkpt>
      <trkpt lat="46.09996" lon="5.37997">
        <ele>289</ele>
        <time>2022-05-24T12:47:33Z</time>
      </trkpt>
      <trkpt lat="46.09986" lon="5.3799">
        <ele>290</ele>
        <time>2022-05-24T12:47:36Z</time>
      </trkpt>
      <trkpt lat="46.09972" lon="5.37986">
        <ele>291</ele>
        <time>2022-05-24T12:47:40Z</time>
      </trkpt>
      <trkpt lat="46.0996" lon="5.37988">
        <ele>292.4</ele>
        <time>2022-05-24T12:47:44Z</time>
      </trkpt>
      <trkpt lat="46.09958" lon="5.3799">
        <ele>292.6</ele>
        <time>2022-05-24T12:47:45Z</time>
      </trkpt>
      <trkpt lat="46.0995" lon="5.38001">
        <ele>293.6</ele>
        <time>2022-05-24T12:47:49Z</time>
      </trkpt>
      <trkpt lat="46.09945" lon="5.38009">
        <ele>294.8</ele>
        <time>2022-05-24T12:47:52Z</time>
      </trkpt>
      <trkpt lat="46.09941" lon="5.38019">
        <ele>295.8</ele>
        <time>2022-05-24T12:47:55Z</time>
      </trkpt>
      <trkpt lat="46.09936" lon="5.38026">
        <ele>296.8</ele>
        <time>2022-05-24T12:47:58Z</time>
      </trkpt>
      <trkpt lat="46.09935" lon="5.38028">
        <ele>297.2</ele>
        <time>2022-05-24T12:47:59Z</time>
      </trkpt>
      <trkpt lat="46.09926" lon="5.38039">
        <ele>298.2</ele>
        <time>2022-05-24T12:48:04Z</time>
      </trkpt>
      <trkpt lat="46.09924" lon="5.38041">
        <ele>298.6</ele>
        <time>2022-05-24T12:48:05Z</time>
      </trkpt>
      <trkpt lat="46.0992" lon="5.38045">
        <ele>299.6</ele>
        <time>2022-05-24T12:48:07Z</time>
      </trkpt>
      <trkpt lat="46.09911" lon="5.38052">
        <ele>301</ele>
        <time>2022-05-24T12:48:12Z</time>
      </trkpt>
      <trkpt lat="46.09909" lon="5.38053">
        <ele>301.4</ele>
        <time>2022-05-24T12:48:13Z</time>
      </trkpt>
      <trkpt lat="46.09905" lon="5.38054">
        <ele>302</ele>
        <time>2022-05-24T12:48:15Z</time>
      </trkpt>
      <trkpt lat="46.09896" lon="5.38057">
        <ele>303</ele>
        <time>2022-05-24T12:48:19Z</time>
      </trkpt>
      <trkpt lat="46.09892" lon="5.38058">
        <ele>303.4</ele>
        <time>2022-05-24T12:48:21Z</time>
      </trkpt>
      <trkpt lat="46.09884" lon="5.38058">
        <ele>304</ele>
        <time>2022-05-24T12:48:24Z</time>
      </trkpt>
      <trkpt lat="46.09871" lon="5.38059">
        <ele>305</ele>
        <time>2022-05-24T12:48:29Z</time>
      </trkpt>
      <trkpt lat="46.09864" lon="5.38059">
        <ele>305</ele>
        <time>2022-05-24T12:48:31Z</time>
      </trkpt>
      <trkpt lat="46.09843" lon="5.3806">
        <ele>306</ele>
        <time>2022-05-24T12:48:37Z</time>
      </trkpt>
      <trkpt lat="46.09838" lon="5.3806">
        <ele>306.2</ele>
        <time>2022-05-24T12:48:38Z</time>
      </trkpt>
      <trkpt lat="46.0982" lon="5.38062">
        <ele>306.2</ele>
        <time>2022-05-24T12:48:42Z</time>
      </trkpt>
      <trkpt lat="46.09808" lon="5.38067">
        <ele>306.4</ele>
        <time>2022-05-24T12:48:45Z</time>
      </trkpt>
      <trkpt lat="46.09793" lon="5.38074">
        <ele>306.4</ele>
        <time>2022-05-24T12:48:48Z</time>
      </trkpt>
      <trkpt lat="46.09761" lon="5.38091">
        <ele>306.8</ele>
        <time>2022-05-24T12:48:55Z</time>
      </trkpt>
      <trkpt lat="46.09756" lon="5.38093">
        <ele>306.8</ele>
        <time>2022-05-24T12:48:56Z</time>
      </trkpt>
      <trkpt lat="46.09731" lon="5.38104">
        <ele>307</ele>
        <time>2022-05-24T12:49:01Z</time>
      </trkpt>
      <trkpt lat="46.09722" lon="5.38107">
        <ele>307.2</ele>
        <time>2022-05-24T12:49:03Z</time>
      </trkpt>
      <trkpt lat="46.09713" lon="5.38113">
        <ele>307.4</ele>
        <time>2022-05-24T12:49:05Z</time>
      </trkpt>
      <trkpt lat="46.09704" lon="5.38123">
        <ele>307.8</ele>
        <time>2022-05-24T12:49:07Z</time>
      </trkpt>
      <trkpt lat="46.097" lon="5.38128">
        <ele>307.8</ele>
        <time>2022-05-24T12:49:08Z</time>
      </trkpt>
      <trkpt lat="46.09696" lon="5.38132">
        <ele>308</ele>
        <time>2022-05-24T12:49:09Z</time>
      </trkpt>
      <trkpt lat="46.09684" lon="5.38148">
        <ele>308.2</ele>
        <time>2022-05-24T12:49:12Z</time>
      </trkpt>
      <trkpt lat="46.09681" lon="5.38152">
        <ele>308.2</ele>
        <time>2022-05-24T12:49:14Z</time>
      </trkpt>
      <trkpt lat="46.09678" lon="5.38156">
        <ele>308.2</ele>
        <time>2022-05-24T12:49:15Z</time>
      </trkpt>
      <trkpt lat="46.09672" lon="5.38165">
        <ele>308.2</ele>
        <time>2022-05-24T12:49:17Z</time>
      </trkpt>
      <trkpt lat="46.09672" lon="5.38171">
        <ele>308.2</ele>
        <time>2022-05-24T12:49:18Z</time>
      </trkpt>
      <trkpt lat="46.09677" lon="5.38182">
        <ele>308.2</ele>
        <time>2022-05-24T12:49:20Z</time>
      </trkpt>
      <trkpt lat="46.09681" lon="5.38187">
        <ele>308.2</ele>
        <time>2022-05-24T12:49:21Z</time>
      </trkpt>
      <trkpt lat="46.09713" lon="5.38217">
        <ele>308.2</ele>
        <time>2022-05-24T12:49:27Z</time>
      </trkpt>
      <trkpt lat="46.09745" lon="5.38234">
        <ele>307.2</ele>
        <time>2022-05-24T12:49:32Z</time>
      </trkpt>
      <trkpt lat="46.09752" lon="5.38236">
        <ele>307.2</ele>
        <time>2022-05-24T12:49:33Z</time>
      </trkpt>
      <trkpt lat="46.09794" lon="5.38253">
        <ele>306.8</ele>
        <time>2022-05-24T12:49:40Z</time>
      </trkpt>
      <trkpt lat="46.09833" lon="5.38284">
        <ele>307.4</ele>
        <time>2022-05-24T12:49:47Z</time>
      </trkpt>
      <trkpt lat="46.09872" lon="5.38324">
        <ele>307.8</ele>
        <time>2022-05-24T12:49:54Z</time>
      </trkpt>
      <trkpt lat="46.09876" lon="5.38331">
        <ele>307.8</ele>
        <time>2022-05-24T12:49:55Z</time>
      </trkpt>
      <trkpt lat="46.09881" lon="5.38338">
        <ele>307.6</ele>
        <time>2022-05-24T12:49:56Z</time>
      </trkpt>
      <trkpt lat="46.09896" lon="5.38359">
        <ele>307.4</ele>
        <time>2022-05-24T12:49:59Z</time>
      </trkpt>
      <trkpt lat="46.0992" lon="5.38396">
        <ele>306.8</ele>
        <time>2022-05-24T12:50:04Z</time>
      </trkpt>
      <trkpt lat="46.09953" lon="5.38451">
        <ele>307.6</ele>
        <time>2022-05-24T12:50:12Z</time>
      </trkpt>
      <trkpt lat="46.09984" lon="5.38482">
        <ele>307.8</ele>
        <time>2022-05-24T12:50:17Z</time>
      </trkpt>
      <trkpt lat="46.10025" lon="5.38511">
        <ele>307</ele>
        <time>2022-05-24T12:50:23Z</time>
      </trkpt>
      <trkpt lat="46.10061" lon="5.38541">
        <ele>307.6</ele>
        <time>2022-05-24T12:50:29Z</time>
      </trkpt>
      <trkpt lat="46.10087" lon="5.38568">
        <ele>308.4</ele>
        <time>2022-05-24T12:50:34Z</time>
      </trkpt>
      <trkpt lat="46.10103" lon="5.38585">
        <ele>309.6</ele>
        <time>2022-05-24T12:50:37Z</time>
      </trkpt>
      <trkpt lat="46.10135" lon="5.38621">
        <ele>309.8</ele>
        <time>2022-05-24T12:50:42Z</time>
      </trkpt>
      <trkpt lat="46.10141" lon="5.38629">
        <ele>309.8</ele>
        <time>2022-05-24T12:50:44Z</time>
      </trkpt>
      <trkpt lat="46.10172" lon="5.38676">
        <ele>309</ele>
        <time>2022-05-24T12:50:49Z</time>
      </trkpt>
      <trkpt lat="46.10189" lon="5.38709">
        <ele>308.4</ele>
        <time>2022-05-24T12:50:52Z</time>
      </trkpt>
      <trkpt lat="46.1021" lon="5.3875">
        <ele>307.4</ele>
        <time>2022-05-24T12:50:56Z</time>
      </trkpt>
      <trkpt lat="46.10215" lon="5.3876">
        <ele>307.2</ele>
        <time>2022-05-24T12:50:57Z</time>
      </trkpt>
      <trkpt lat="46.10237" lon="5.38794">
        <ele>306.8</ele>
        <time>2022-05-24T12:51:01Z</time>
      </trkpt>
      <trkpt lat="46.10266" lon="5.38824">
        <ele>307.2</ele>
        <time>2022-05-24T12:51:06Z</time>
      </trkpt>
      <trkpt lat="46.10291" lon="5.38839">
        <ele>308.2</ele>
        <time>2022-05-24T12:51:10Z</time>
      </trkpt>
      <trkpt lat="46.10306" lon="5.38845">
        <ele>308.6</ele>
        <time>2022-05-24T12:51:12Z</time>
      </trkpt>
      <trkpt lat="46.10364" lon="5.38865">
        <ele>308.4</ele>
        <time>2022-05-24T12:51:20Z</time>
      </trkpt>
      <trkpt lat="46.10393" lon="5.38876">
        <ele>308.2</ele>
        <time>2022-05-24T12:51:24Z</time>
      </trkpt>
      <trkpt lat="46.10452" lon="5.38898">
        <ele>307.6</ele>
        <time>2022-05-24T12:51:32Z</time>
      </trkpt>
      <trkpt lat="46.10467" lon="5.38904">
        <ele>307.6</ele>
        <time>2022-05-24T12:51:34Z</time>
      </trkpt>
      <trkpt lat="46.10506" lon="5.38933">
        <ele>308</ele>
        <time>2022-05-24T12:51:40Z</time>
      </trkpt>
      <trkpt lat="46.10537" lon="5.38972">
        <ele>308.8</ele>
        <time>2022-05-24T12:51:46Z</time>
      </trkpt>
      <trkpt lat="46.10548" lon="5.3899">
        <ele>309.2</ele>
        <time>2022-05-24T12:51:48Z</time>
      </trkpt>
      <trkpt lat="46.10573" lon="5.39028">
        <ele>309.8</ele>
        <time>2022-05-24T12:51:53Z</time>
      </trkpt>
      <trkpt lat="46.10591" lon="5.39048">
        <ele>310.2</ele>
        <time>2022-05-24T12:51:56Z</time>
      </trkpt>
      <trkpt lat="46.1061" lon="5.39067">
        <ele>310.4</ele>
        <time>2022-05-24T12:51:59Z</time>
      </trkpt>
      <trkpt lat="46.10638" lon="5.39102">
        <ele>311</ele>
        <time>2022-05-24T12:52:04Z</time>
      </trkpt>
      <trkpt lat="46.10669" lon="5.39133">
        <ele>311</ele>
        <time>2022-05-24T12:52:09Z</time>
      </trkpt>
      <trkpt lat="46.10704" lon="5.39154">
        <ele>310.8</ele>
        <time>2022-05-24T12:52:14Z</time>
      </trkpt>
      <trkpt lat="46.10755" lon="5.39173">
        <ele>310.4</ele>
        <time>2022-05-24T12:52:20Z</time>
      </trkpt>
      <trkpt lat="46.10792" lon="5.39197">
        <ele>310</ele>
        <time>2022-05-24T12:52:25Z</time>
      </trkpt>
      <trkpt lat="46.108" lon="5.39204">
        <ele>309.8</ele>
        <time>2022-05-24T12:52:26Z</time>
      </trkpt>
      <trkpt lat="46.10818" lon="5.39216">
        <ele>309.8</ele>
        <time>2022-05-24T12:52:29Z</time>
      </trkpt>
      <trkpt lat="46.10861" lon="5.39234">
        <ele>311.2</ele>
        <time>2022-05-24T12:52:36Z</time>
      </trkpt>
      <trkpt lat="46.10867" lon="5.39237">
        <ele>311.4</ele>
        <time>2022-05-24T12:52:37Z</time>
      </trkpt>
      <trkpt lat="46.10896" lon="5.39247">
        <ele>312.6</ele>
        <time>2022-05-24T12:52:42Z</time>
      </trkpt>
      <trkpt lat="46.109" lon="5.39249">
        <ele>312.8</ele>
        <time>2022-05-24T12:52:43Z</time>
      </trkpt>
      <trkpt lat="46.10935" lon="5.39263">
        <ele>313.6</ele>
        <time>2022-05-24T12:52:49Z</time>
      </trkpt>
      <trkpt lat="46.1095" lon="5.39272">
        <ele>314.4</ele>
        <time>2022-05-24T12:52:52Z</time>
      </trkpt>
      <trkpt lat="46.10956" lon="5.39277">
        <ele>314.8</ele>
        <time>2022-05-24T12:52:53Z</time>
      </trkpt>
      <trkpt lat="46.10985" lon="5.39303">
        <ele>315.8</ele>
        <time>2022-05-24T12:52:59Z</time>
      </trkpt>
      <trkpt lat="46.11021" lon="5.39336">
        <ele>315.8</ele>
        <time>2022-05-24T12:53:06Z</time>
      </trkpt>
      <trkpt lat="46.11033" lon="5.39351">
        <ele>315.4</ele>
        <time>2022-05-24T12:53:09Z</time>
      </trkpt>
      <trkpt lat="46.11039" lon="5.39365">
        <ele>315.2</ele>
        <time>2022-05-24T12:53:11Z</time>
      </trkpt>
      <trkpt lat="46.11066" lon="5.39416">
        <ele>314.8</ele>
        <time>2022-05-24T12:53:18Z</time>
      </trkpt>
      <trkpt lat="46.11095" lon="5.39472">
        <ele>314.6</ele>
        <time>2022-05-24T12:53:26Z</time>
      </trkpt>
      <trkpt lat="46.1111" lon="5.39503">
        <ele>316</ele>
        <time>2022-05-24T12:53:31Z</time>
      </trkpt>
      <trkpt lat="46.11116" lon="5.39515">
        <ele>316.4</ele>
        <time>2022-05-24T12:53:33Z</time>
      </trkpt>
      <trkpt lat="46.11121" lon="5.39528">
        <ele>317.2</ele>
        <time>2022-05-24T12:53:35Z</time>
      </trkpt>
      <trkpt lat="46.11126" lon="5.3954">
        <ele>317.6</ele>
        <time>2022-05-24T12:53:37Z</time>
      </trkpt>
      <trkpt lat="46.1113" lon="5.39552">
        <ele>318.2</ele>
        <time>2022-05-24T12:53:39Z</time>
      </trkpt>
      <trkpt lat="46.11139" lon="5.39578">
        <ele>319.4</ele>
        <time>2022-05-24T12:53:43Z</time>
      </trkpt>
      <trkpt lat="46.11149" lon="5.39603">
        <ele>320.4</ele>
        <time>2022-05-24T12:53:47Z</time>
      </trkpt>
      <trkpt lat="46.11152" lon="5.3961">
        <ele>320.4</ele>
        <time>2022-05-24T12:53:48Z</time>
      </trkpt>
      <trkpt lat="46.11167" lon="5.3964">
        <ele>321.6</ele>
        <time>2022-05-24T12:53:53Z</time>
      </trkpt>
      <trkpt lat="46.11171" lon="5.39645">
        <ele>321.8</ele>
        <time>2022-05-24T12:53:54Z</time>
      </trkpt>
      <trkpt lat="46.11188" lon="5.39672">
        <ele>322.8</ele>
        <time>2022-05-24T12:53:59Z</time>
      </trkpt>
      <trkpt lat="46.11202" lon="5.39692">
        <ele>323.6</ele>
        <time>2022-05-24T12:54:03Z</time>
      </trkpt>
      <trkpt lat="46.11214" lon="5.39707">
        <ele>324.2</ele>
        <time>2022-05-24T12:54:06Z</time>
      </trkpt>
      <trkpt lat="46.11221" lon="5.39717">
        <ele>324.6</ele>
        <time>2022-05-24T12:54:08Z</time>
      </trkpt>
      <trkpt lat="46.11233" lon="5.3973">
        <ele>325.2</ele>
        <time>2022-05-24T12:54:11Z</time>
      </trkpt>
      <trkpt lat="46.11239" lon="5.39736">
        <ele>325.4</ele>
        <time>2022-05-24T12:54:12Z</time>
      </trkpt>
      <trkpt lat="46.1126" lon="5.39749">
        <ele>326.6</ele>
        <time>2022-05-24T12:54:17Z</time>
      </trkpt>
      <trkpt lat="46.11279" lon="5.39762">
        <ele>327.6</ele>
        <time>2022-05-24T12:54:22Z</time>
      </trkpt>
      <trkpt lat="46.11284" lon="5.39764">
        <ele>327.6</ele>
        <time>2022-05-24T12:54:23Z</time>
      </trkpt>
      <trkpt lat="46.11289" lon="5.39766">
        <ele>327.8</ele>
        <time>2022-05-24T12:54:24Z</time>
      </trkpt>
      <trkpt lat="46.11304" lon="5.39775">
        <ele>328.8</ele>
        <time>2022-05-24T12:54:27Z</time>
      </trkpt>
      <trkpt lat="46.11308" lon="5.39778">
        <ele>328.8</ele>
        <time>2022-05-24T12:54:28Z</time>
      </trkpt>
      <trkpt lat="46.11334" lon="5.39793">
        <ele>330</ele>
        <time>2022-05-24T12:54:33Z</time>
      </trkpt>
      <trkpt lat="46.11338" lon="5.39796">
        <ele>330.2</ele>
        <time>2022-05-24T12:54:34Z</time>
      </trkpt>
      <trkpt lat="46.11343" lon="5.39799">
        <ele>330.4</ele>
        <time>2022-05-24T12:54:35Z</time>
      </trkpt>
      <trkpt lat="46.11358" lon="5.39805">
        <ele>331.4</ele>
        <time>2022-05-24T12:54:38Z</time>
      </trkpt>
      <trkpt lat="46.11361" lon="5.39806">
        <ele>331.6</ele>
        <time>2022-05-24T12:54:39Z</time>
      </trkpt>
      <trkpt lat="46.11376" lon="5.39816">
        <ele>332.2</ele>
        <time>2022-05-24T12:54:43Z</time>
      </trkpt>
      <trkpt lat="46.1138" lon="5.39818">
        <ele>332.2</ele>
        <time>2022-05-24T12:54:44Z</time>
      </trkpt>
      <trkpt lat="46.11384" lon="5.3982">
        <ele>332.6</ele>
        <time>2022-05-24T12:54:45Z</time>
      </trkpt>
      <trkpt lat="46.11392" lon="5.39824">
        <ele>333</ele>
        <time>2022-05-24T12:54:47Z</time>
      </trkpt>
      <trkpt lat="46.11396" lon="5.39825">
        <ele>333.2</ele>
        <time>2022-05-24T12:54:48Z</time>
      </trkpt>
      <trkpt lat="46.11414" lon="5.3983">
        <ele>334.2</ele>
        <time>2022-05-24T12:54:52Z</time>
      </trkpt>
      <trkpt lat="46.11419" lon="5.39833">
        <ele>334.4</ele>
        <time>2022-05-24T12:54:53Z</time>
      </trkpt>
      <trkpt lat="46.11424" lon="5.39835">
        <ele>334.4</ele>
        <time>2022-05-24T12:54:54Z</time>
      </trkpt>
      <trkpt lat="46.11452" lon="5.39846">
        <ele>335.4</ele>
        <time>2022-05-24T12:55:00Z</time>
      </trkpt>
      <trkpt lat="46.11457" lon="5.39848">
        <ele>335.6</ele>
        <time>2022-05-24T12:55:01Z</time>
      </trkpt>
      <trkpt lat="46.1146" lon="5.3985">
        <ele>335.8</ele>
        <time>2022-05-24T12:55:02Z</time>
      </trkpt>
      <trkpt lat="46.11477" lon="5.39857">
        <ele>336.4</ele>
        <time>2022-05-24T12:55:06Z</time>
      </trkpt>
      <trkpt lat="46.1149" lon="5.39864">
        <ele>337.2</ele>
        <time>2022-05-24T12:55:10Z</time>
      </trkpt>
      <trkpt lat="46.11501" lon="5.39869">
        <ele>337.6</ele>
        <time>2022-05-24T12:55:12Z</time>
      </trkpt>
      <trkpt lat="46.11512" lon="5.39875">
        <ele>338.6</ele>
        <time>2022-05-24T12:55:15Z</time>
      </trkpt>
      <trkpt lat="46.11538" lon="5.39888">
        <ele>340</ele>
        <time>2022-05-24T12:55:20Z</time>
      </trkpt>
      <trkpt lat="46.11548" lon="5.39891">
        <ele>340.4</ele>
        <time>2022-05-24T12:55:22Z</time>
      </trkpt>
      <trkpt lat="46.11563" lon="5.39895">
        <ele>341</ele>
        <time>2022-05-24T12:55:25Z</time>
      </trkpt>
      <trkpt lat="46.11594" lon="5.39907">
        <ele>342</ele>
        <time>2022-05-24T12:55:31Z</time>
      </trkpt>
      <trkpt lat="46.11631" lon="5.39924">
        <ele>343</ele>
        <time>2022-05-24T12:55:39Z</time>
      </trkpt>
      <trkpt lat="46.11636" lon="5.39927">
        <ele>343.2</ele>
        <time>2022-05-24T12:55:40Z</time>
      </trkpt>
      <trkpt lat="46.11667" lon="5.39939">
        <ele>344.2</ele>
        <time>2022-05-24T12:55:46Z</time>
      </trkpt>
      <trkpt lat="46.11672" lon="5.3994">
        <ele>344.2</ele>
        <time>2022-05-24T12:55:47Z</time>
      </trkpt>
      <trkpt lat="46.11709" lon="5.39947">
        <ele>345</ele>
        <time>2022-05-24T12:55:54Z</time>
      </trkpt>
      <trkpt lat="46.1172" lon="5.39947">
        <ele>345.2</ele>
        <time>2022-05-24T12:55:56Z</time>
      </trkpt>
      <trkpt lat="46.11725" lon="5.39949">
        <ele>345.4</ele>
        <time>2022-05-24T12:55:57Z</time>
      </trkpt>
      <trkpt lat="46.11735" lon="5.39952">
        <ele>345.6</ele>
        <time>2022-05-24T12:55:59Z</time>
      </trkpt>
      <trkpt lat="46.1174" lon="5.39953">
        <ele>345.8</ele>
        <time>2022-05-24T12:56:00Z</time>
      </trkpt>
      <trkpt lat="46.11764" lon="5.39952">
        <ele>346.6</ele>
        <time>2022-05-24T12:56:04Z</time>
      </trkpt>
      <trkpt lat="46.11776" lon="5.39951">
        <ele>346.8</ele>
        <time>2022-05-24T12:56:06Z</time>
      </trkpt>
      <trkpt lat="46.11809" lon="5.39938">
        <ele>347.2</ele>
        <time>2022-05-24T12:56:12Z</time>
      </trkpt>
      <trkpt lat="46.11819" lon="5.39932">
        <ele>347.6</ele>
        <time>2022-05-24T12:56:14Z</time>
      </trkpt>
      <trkpt lat="46.11844" lon="5.3992">
        <ele>348.6</ele>
        <time>2022-05-24T12:56:19Z</time>
      </trkpt>
      <trkpt lat="46.11849" lon="5.39918">
        <ele>348.6</ele>
        <time>2022-05-24T12:56:20Z</time>
      </trkpt>
      <trkpt lat="46.1186" lon="5.39913">
        <ele>349</ele>
        <time>2022-05-24T12:56:22Z</time>
      </trkpt>
      <trkpt lat="46.11877" lon="5.39907">
        <ele>349.2</ele>
        <time>2022-05-24T12:56:25Z</time>
      </trkpt>
      <trkpt lat="46.11895" lon="5.39902">
        <ele>349.4</ele>
        <time>2022-05-24T12:56:28Z</time>
      </trkpt>
      <trkpt lat="46.11907" lon="5.39898">
        <ele>349.2</ele>
        <time>2022-05-24T12:56:30Z</time>
      </trkpt>
      <trkpt lat="46.11954" lon="5.39881">
        <ele>349</ele>
        <time>2022-05-24T12:56:38Z</time>
      </trkpt>
      <trkpt lat="46.11997" lon="5.39876">
        <ele>348.4</ele>
        <time>2022-05-24T12:56:45Z</time>
      </trkpt>
      <trkpt lat="46.12034" lon="5.39867">
        <ele>347.6</ele>
        <time>2022-05-24T12:56:50Z</time>
      </trkpt>
      <trkpt lat="46.12041" lon="5.39865">
        <ele>347.4</ele>
        <time>2022-05-24T12:56:51Z</time>
      </trkpt>
      <trkpt lat="46.12079" lon="5.39851">
        <ele>346.6</ele>
        <time>2022-05-24T12:56:56Z</time>
      </trkpt>
      <trkpt lat="46.12087" lon="5.39849">
        <ele>346.4</ele>
        <time>2022-05-24T12:56:57Z</time>
      </trkpt>
      <trkpt lat="46.12111" lon="5.39847">
        <ele>345.2</ele>
        <time>2022-05-24T12:57:00Z</time>
      </trkpt>
      <trkpt lat="46.1212" lon="5.39846">
        <ele>344.8</ele>
        <time>2022-05-24T12:57:01Z</time>
      </trkpt>
      <trkpt lat="46.12137" lon="5.39845">
        <ele>344</ele>
        <time>2022-05-24T12:57:03Z</time>
      </trkpt>
      <trkpt lat="46.1217" lon="5.39845">
        <ele>343.2</ele>
        <time>2022-05-24T12:57:07Z</time>
      </trkpt>
      <trkpt lat="46.12179" lon="5.39847">
        <ele>343.2</ele>
        <time>2022-05-24T12:57:08Z</time>
      </trkpt>
      <trkpt lat="46.12186" lon="5.3985">
        <ele>342.8</ele>
        <time>2022-05-24T12:57:09Z</time>
      </trkpt>
      <trkpt lat="46.12217" lon="5.39867">
        <ele>342.4</ele>
        <time>2022-05-24T12:57:13Z</time>
      </trkpt>
      <trkpt lat="46.12266" lon="5.39889">
        <ele>342.4</ele>
        <time>2022-05-24T12:57:20Z</time>
      </trkpt>
      <trkpt lat="46.12298" lon="5.39895">
        <ele>343.4</ele>
        <time>2022-05-24T12:57:25Z</time>
      </trkpt>
      <trkpt lat="46.12316" lon="5.39893">
        <ele>344.6</ele>
        <time>2022-05-24T12:57:28Z</time>
      </trkpt>
      <trkpt lat="46.12327" lon="5.3989">
        <ele>345.2</ele>
        <time>2022-05-24T12:57:30Z</time>
      </trkpt>
      <trkpt lat="46.12336" lon="5.39888">
        <ele>345.8</ele>
        <time>2022-05-24T12:57:32Z</time>
      </trkpt>
      <trkpt lat="46.12343" lon="5.39886">
        <ele>346</ele>
        <time>2022-05-24T12:57:33Z</time>
      </trkpt>
      <trkpt lat="46.12353" lon="5.39884">
        <ele>347.2</ele>
        <time>2022-05-24T12:57:35Z</time>
      </trkpt>
      <trkpt lat="46.12373" lon="5.39883">
        <ele>348.2</ele>
        <time>2022-05-24T12:57:39Z</time>
      </trkpt>
      <trkpt lat="46.12383" lon="5.39884">
        <ele>348.6</ele>
        <time>2022-05-24T12:57:41Z</time>
      </trkpt>
      <trkpt lat="46.12388" lon="5.39884">
        <ele>348.8</ele>
        <time>2022-05-24T12:57:42Z</time>
      </trkpt>
      <trkpt lat="46.1241" lon="5.39888">
        <ele>349.6</ele>
        <time>2022-05-24T12:57:46Z</time>
      </trkpt>
      <trkpt lat="46.12427" lon="5.39891">
        <ele>350</ele>
        <time>2022-05-24T12:57:49Z</time>
      </trkpt>
      <trkpt lat="46.12458" lon="5.39892">
        <ele>350.2</ele>
        <time>2022-05-24T12:57:54Z</time>
      </trkpt>
      <trkpt lat="46.12473" lon="5.39893">
        <ele>349.8</ele>
        <time>2022-05-24T12:57:56Z</time>
      </trkpt>
      <trkpt lat="46.12485" lon="5.39898">
        <ele>349</ele>
        <time>2022-05-24T12:57:58Z</time>
      </trkpt>
      <trkpt lat="46.12497" lon="5.39908">
        <ele>348.6</ele>
        <time>2022-05-24T12:58:00Z</time>
      </trkpt>
      <trkpt lat="46.12502" lon="5.39915">
        <ele>348.4</ele>
        <time>2022-05-24T12:58:01Z</time>
      </trkpt>
      <trkpt lat="46.12506" lon="5.39925">
        <ele>348.2</ele>
        <time>2022-05-24T12:58:02Z</time>
      </trkpt>
      <trkpt lat="46.12518" lon="5.39959">
        <ele>348</ele>
        <time>2022-05-24T12:58:06Z</time>
      </trkpt>
      <trkpt lat="46.12539" lon="5.40019">
        <ele>348.8</ele>
        <time>2022-05-24T12:58:14Z</time>
      </trkpt>
      <trkpt lat="46.12542" lon="5.40026">
        <ele>349</ele>
        <time>2022-05-24T12:58:15Z</time>
      </trkpt>
      <trkpt lat="46.12546" lon="5.40033">
        <ele>349</ele>
        <time>2022-05-24T12:58:16Z</time>
      </trkpt>
      <trkpt lat="46.12554" lon="5.40043">
        <ele>349.6</ele>
        <time>2022-05-24T12:58:18Z</time>
      </trkpt>
      <trkpt lat="46.12559" lon="5.40047">
        <ele>349.6</ele>
        <time>2022-05-24T12:58:19Z</time>
      </trkpt>
      <trkpt lat="46.12579" lon="5.40062">
        <ele>350.8</ele>
        <time>2022-05-24T12:58:23Z</time>
      </trkpt>
      <trkpt lat="46.12609" lon="5.40086">
        <ele>351.8</ele>
        <time>2022-05-24T12:58:29Z</time>
      </trkpt>
      <trkpt lat="46.12619" lon="5.40097">
        <ele>352</ele>
        <time>2022-05-24T12:58:31Z</time>
      </trkpt>
      <trkpt lat="46.12631" lon="5.40114">
        <ele>352.4</ele>
        <time>2022-05-24T12:58:34Z</time>
      </trkpt>
      <trkpt lat="46.12636" lon="5.40122">
        <ele>352.4</ele>
        <time>2022-05-24T12:58:35Z</time>
      </trkpt>
      <trkpt lat="46.12652" lon="5.40155">
        <ele>353</ele>
        <time>2022-05-24T12:58:40Z</time>
      </trkpt>
      <trkpt lat="46.12664" lon="5.40179">
        <ele>353.8</ele>
        <time>2022-05-24T12:58:44Z</time>
      </trkpt>
      <trkpt lat="46.12667" lon="5.40185">
        <ele>354</ele>
        <time>2022-05-24T12:58:45Z</time>
      </trkpt>
      <trkpt lat="46.1267" lon="5.4019">
        <ele>354.4</ele>
        <time>2022-05-24T12:58:46Z</time>
      </trkpt>
      <trkpt lat="46.1268" lon="5.40205">
        <ele>355.2</ele>
        <time>2022-05-24T12:58:49Z</time>
      </trkpt>
      <trkpt lat="46.12688" lon="5.40212">
        <ele>355.6</ele>
        <time>2022-05-24T12:58:51Z</time>
      </trkpt>
      <trkpt lat="46.12694" lon="5.40219">
        <ele>356.2</ele>
        <time>2022-05-24T12:58:53Z</time>
      </trkpt>
      <trkpt lat="46.12701" lon="5.40224">
        <ele>357</ele>
        <time>2022-05-24T12:58:55Z</time>
      </trkpt>
      <trkpt lat="46.1271" lon="5.40232">
        <ele>357.8</ele>
        <time>2022-05-24T12:58:58Z</time>
      </trkpt>
      <trkpt lat="46.12713" lon="5.40236">
        <ele>358</ele>
        <time>2022-05-24T12:58:59Z</time>
      </trkpt>
      <trkpt lat="46.12722" lon="5.40244">
        <ele>359.4</ele>
        <time>2022-05-24T12:59:02Z</time>
      </trkpt>
      <trkpt lat="46.12729" lon="5.40249">
        <ele>360.2</ele>
        <time>2022-05-24T12:59:04Z</time>
      </trkpt>
      <trkpt lat="46.12732" lon="5.40253">
        <ele>360.6</ele>
        <time>2022-05-24T12:59:05Z</time>
      </trkpt>
      <trkpt lat="46.12742" lon="5.40267">
        <ele>361.2</ele>
        <time>2022-05-24T12:59:08Z</time>
      </trkpt>
      <trkpt lat="46.12744" lon="5.40272">
        <ele>361.8</ele>
        <time>2022-05-24T12:59:09Z</time>
      </trkpt>
      <trkpt lat="46.12751" lon="5.40286">
        <ele>363</ele>
        <time>2022-05-24T12:59:12Z</time>
      </trkpt>
      <trkpt lat="46.12759" lon="5.40303">
        <ele>363.4</ele>
        <time>2022-05-24T12:59:15Z</time>
      </trkpt>
      <trkpt lat="46.12764" lon="5.40322">
        <ele>364.4</ele>
        <time>2022-05-24T12:59:18Z</time>
      </trkpt>
      <trkpt lat="46.12767" lon="5.40339">
        <ele>365.4</ele>
        <time>2022-05-24T12:59:20Z</time>
      </trkpt>
      <trkpt lat="46.12773" lon="5.40362">
        <ele>366.2</ele>
        <time>2022-05-24T12:59:24Z</time>
      </trkpt>
      <trkpt lat="46.12777" lon="5.40375">
        <ele>367</ele>
        <time>2022-05-24T12:59:26Z</time>
      </trkpt>
      <trkpt lat="46.12782" lon="5.40384">
        <ele>367.2</ele>
        <time>2022-05-24T12:59:28Z</time>
      </trkpt>
      <trkpt lat="46.1279" lon="5.40399">
        <ele>367.2</ele>
        <time>2022-05-24T12:59:31Z</time>
      </trkpt>
      <trkpt lat="46.12794" lon="5.40405">
        <ele>367.6</ele>
        <time>2022-05-24T12:59:32Z</time>
      </trkpt>
      <trkpt lat="46.128" lon="5.40416">
        <ele>368</ele>
        <time>2022-05-24T12:59:34Z</time>
      </trkpt>
      <trkpt lat="46.12809" lon="5.40433">
        <ele>368.2</ele>
        <time>2022-05-24T12:59:37Z</time>
      </trkpt>
      <trkpt lat="46.12814" lon="5.40445">
        <ele>368.4</ele>
        <time>2022-05-24T12:59:39Z</time>
      </trkpt>
      <trkpt lat="46.12822" lon="5.40473">
        <ele>369</ele>
        <time>2022-05-24T12:59:43Z</time>
      </trkpt>
      <trkpt lat="46.12823" lon="5.40479">
        <ele>369.4</ele>
        <time>2022-05-24T12:59:44Z</time>
      </trkpt>
      <trkpt lat="46.12825" lon="5.40494">
        <ele>369.8</ele>
        <time>2022-05-24T12:59:46Z</time>
      </trkpt>
      <trkpt lat="46.12828" lon="5.40507">
        <ele>370.2</ele>
        <time>2022-05-24T12:59:48Z</time>
      </trkpt>
      <trkpt lat="46.12829" lon="5.40515">
        <ele>370.4</ele>
        <time>2022-05-24T12:59:49Z</time>
      </trkpt>
      <trkpt lat="46.1283" lon="5.40523">
        <ele>370.6</ele>
        <time>2022-05-24T12:59:50Z</time>
      </trkpt>
      <trkpt lat="46.12833" lon="5.40543">
        <ele>371.4</ele>
        <time>2022-05-24T12:59:53Z</time>
      </trkpt>
      <trkpt lat="46.12835" lon="5.40555">
        <ele>371.8</ele>
        <time>2022-05-24T12:59:55Z</time>
      </trkpt>
      <trkpt lat="46.12836" lon="5.40561">
        <ele>372</ele>
        <time>2022-05-24T12:59:56Z</time>
      </trkpt>
      <trkpt lat="46.12839" lon="5.40573">
        <ele>372.2</ele>
        <time>2022-05-24T12:59:58Z</time>
      </trkpt>
      <trkpt lat="46.12841" lon="5.40581">
        <ele>372.4</ele>
        <time>2022-05-24T12:59:59Z</time>
      </trkpt>
      <trkpt lat="46.1285" lon="5.40598">
        <ele>372.8</ele>
        <time>2022-05-24T13:00:02Z</time>
      </trkpt>
      <trkpt lat="46.12852" lon="5.40601">
        <ele>372.8</ele>
        <time>2022-05-24T13:00:03Z</time>
      </trkpt>
      <trkpt lat="46.12867" lon="5.40615">
        <ele>373.8</ele>
        <time>2022-05-24T13:00:07Z</time>
      </trkpt>
      <trkpt lat="46.12871" lon="5.40617">
        <ele>373.8</ele>
        <time>2022-05-24T13:00:08Z</time>
      </trkpt>
      <trkpt lat="46.12888" lon="5.4062">
        <ele>375.2</ele>
        <time>2022-05-24T13:00:12Z</time>
      </trkpt>
      <trkpt lat="46.12901" lon="5.40622">
        <ele>375.8</ele>
        <time>2022-05-24T13:00:15Z</time>
      </trkpt>
      <trkpt lat="46.12905" lon="5.40622">
        <ele>376.2</ele>
        <time>2022-05-24T13:00:16Z</time>
      </trkpt>
      <trkpt lat="46.12915" lon="5.40623">
        <ele>376.4</ele>
        <time>2022-05-24T13:00:18Z</time>
      </trkpt>
      <trkpt lat="46.12928" lon="5.40623">
        <ele>377.2</ele>
        <time>2022-05-24T13:00:21Z</time>
      </trkpt>
      <trkpt lat="46.12933" lon="5.40623">
        <ele>377.6</ele>
        <time>2022-05-24T13:00:22Z</time>
      </trkpt>
      <trkpt lat="46.1296" lon="5.40623">
        <ele>378.4</ele>
        <time>2022-05-24T13:00:28Z</time>
      </trkpt>
      <trkpt lat="46.12977" lon="5.40625">
        <ele>379</ele>
        <time>2022-05-24T13:00:32Z</time>
      </trkpt>
      <trkpt lat="46.1299" lon="5.40627">
        <ele>379.4</ele>
        <time>2022-05-24T13:00:35Z</time>
      </trkpt>
      <trkpt lat="46.13008" lon="5.40628">
        <ele>380.2</ele>
        <time>2022-05-24T13:00:39Z</time>
      </trkpt>
      <trkpt lat="46.13016" lon="5.40629">
        <ele>380.6</ele>
        <time>2022-05-24T13:00:41Z</time>
      </trkpt>
      <trkpt lat="46.13031" lon="5.4063">
        <ele>381.8</ele>
        <time>2022-05-24T13:00:45Z</time>
      </trkpt>
      <trkpt lat="46.13056" lon="5.40633">
        <ele>383</ele>
        <time>2022-05-24T13:00:51Z</time>
      </trkpt>
      <trkpt lat="46.13069" lon="5.40634">
        <ele>383.8</ele>
        <time>2022-05-24T13:00:54Z</time>
      </trkpt>
      <trkpt lat="46.13073" lon="5.40634">
        <ele>384.2</ele>
        <time>2022-05-24T13:00:55Z</time>
      </trkpt>
      <trkpt lat="46.13081" lon="5.40636">
        <ele>385</ele>
        <time>2022-05-24T13:00:57Z</time>
      </trkpt>
      <trkpt lat="46.13085" lon="5.40636">
        <ele>385.4</ele>
        <time>2022-05-24T13:00:58Z</time>
      </trkpt>
      <trkpt lat="46.13089" lon="5.40637">
        <ele>385.6</ele>
        <time>2022-05-24T13:00:59Z</time>
      </trkpt>
      <trkpt lat="46.13097" lon="5.40637">
        <ele>386.6</ele>
        <time>2022-05-24T13:01:01Z</time>
      </trkpt>
      <trkpt lat="46.1311" lon="5.40639">
        <ele>387</ele>
        <time>2022-05-24T13:01:04Z</time>
      </trkpt>
      <trkpt lat="46.13118" lon="5.4064">
        <ele>387.4</ele>
        <time>2022-05-24T13:01:06Z</time>
      </trkpt>
      <trkpt lat="46.13123" lon="5.4064">
        <ele>387.6</ele>
        <time>2022-05-24T13:01:07Z</time>
      </trkpt>
      <trkpt lat="46.13136" lon="5.40641">
        <ele>388.4</ele>
        <time>2022-05-24T13:01:10Z</time>
      </trkpt>
      <trkpt lat="46.13145" lon="5.40641">
        <ele>388.8</ele>
        <time>2022-05-24T13:01:12Z</time>
      </trkpt>
      <trkpt lat="46.13153" lon="5.40643">
        <ele>389</ele>
        <time>2022-05-24T13:01:14Z</time>
      </trkpt>
      <trkpt lat="46.13162" lon="5.40644">
        <ele>389.2</ele>
        <time>2022-05-24T13:01:16Z</time>
      </trkpt>
      <trkpt lat="46.13175" lon="5.40642">
        <ele>390</ele>
        <time>2022-05-24T13:01:19Z</time>
      </trkpt>
      <trkpt lat="46.13179" lon="5.40642">
        <ele>390</ele>
        <time>2022-05-24T13:01:20Z</time>
      </trkpt>
      <trkpt lat="46.13201" lon="5.40642">
        <ele>391.2</ele>
        <time>2022-05-24T13:01:25Z</time>
      </trkpt>
      <trkpt lat="46.13223" lon="5.4064">
        <ele>392.2</ele>
        <time>2022-05-24T13:01:30Z</time>
      </trkpt>
      <trkpt lat="46.13236" lon="5.40638">
        <ele>393.4</ele>
        <time>2022-05-24T13:01:33Z</time>
      </trkpt>
      <trkpt lat="46.13266" lon="5.40632">
        <ele>394.4</ele>
        <time>2022-05-24T13:01:40Z</time>
      </trkpt>
      <trkpt lat="46.13282" lon="5.40628">
        <ele>395.2</ele>
        <time>2022-05-24T13:01:43Z</time>
      </trkpt>
      <trkpt lat="46.13282" lon="5.40628">
        <ele>395.8</ele>
        <time>2022-05-24T13:01:44Z</time>
      </trkpt>
      <trkpt lat="46.13305" lon="5.4062">
        <ele>396.8</ele>
        <time>2022-05-24T13:01:49Z</time>
      </trkpt>
      <trkpt lat="46.13318" lon="5.40615">
        <ele>397.4</ele>
        <time>2022-05-24T13:01:52Z</time>
      </trkpt>
      <trkpt lat="46.13336" lon="5.40609">
        <ele>398</ele>
        <time>2022-05-24T13:01:56Z</time>
      </trkpt>
      <trkpt lat="46.13358" lon="5.40604">
        <ele>399.2</ele>
        <time>2022-05-24T13:02:01Z</time>
      </trkpt>
      <trkpt lat="46.13362" lon="5.40602">
        <ele>399.2</ele>
        <time>2022-05-24T13:02:02Z</time>
      </trkpt>
      <trkpt lat="46.13379" lon="5.406">
        <ele>400.4</ele>
        <time>2022-05-24T13:02:06Z</time>
      </trkpt>
      <trkpt lat="46.13388" lon="5.40599">
        <ele>400.8</ele>
        <time>2022-05-24T13:02:08Z</time>
      </trkpt>
      <trkpt lat="46.13396" lon="5.40599">
        <ele>401.2</ele>
        <time>2022-05-24T13:02:10Z</time>
      </trkpt>
      <trkpt lat="46.13401" lon="5.40599">
        <ele>401.4</ele>
        <time>2022-05-24T13:02:11Z</time>
      </trkpt>
      <trkpt lat="46.13405" lon="5.406">
        <ele>402</ele>
        <time>2022-05-24T13:02:12Z</time>
      </trkpt>
      <trkpt lat="46.13414" lon="5.40601">
        <ele>402.6</ele>
        <time>2022-05-24T13:02:14Z</time>
      </trkpt>
      <trkpt lat="46.13422" lon="5.40602">
        <ele>403</ele>
        <time>2022-05-24T13:02:16Z</time>
      </trkpt>
      <trkpt lat="46.13433" lon="5.40604">
        <ele>403.8</ele>
        <time>2022-05-24T13:02:19Z</time>
      </trkpt>
      <trkpt lat="46.1344" lon="5.40607">
        <ele>404.4</ele>
        <time>2022-05-24T13:02:21Z</time>
      </trkpt>
      <trkpt lat="46.13444" lon="5.40609">
        <ele>404.8</ele>
        <time>2022-05-24T13:02:22Z</time>
      </trkpt>
      <trkpt lat="46.13459" lon="5.40622">
        <ele>406</ele>
        <time>2022-05-24T13:02:26Z</time>
      </trkpt>
      <trkpt lat="46.13466" lon="5.40628">
        <ele>406.6</ele>
        <time>2022-05-24T13:02:28Z</time>
      </trkpt>
      <trkpt lat="46.13471" lon="5.40634">
        <ele>407.2</ele>
        <time>2022-05-24T13:02:29Z</time>
      </trkpt>
      <trkpt lat="46.13478" lon="5.40642">
        <ele>407.8</ele>
        <time>2022-05-24T13:02:31Z</time>
      </trkpt>
      <trkpt lat="46.13489" lon="5.40655">
        <ele>408.2</ele>
        <time>2022-05-24T13:02:34Z</time>
      </trkpt>
      <trkpt lat="46.13492" lon="5.4066">
        <ele>408.6</ele>
        <time>2022-05-24T13:02:35Z</time>
      </trkpt>
      <trkpt lat="46.135" lon="5.4067">
        <ele>409.4</ele>
        <time>2022-05-24T13:02:38Z</time>
      </trkpt>
      <trkpt lat="46.13504" lon="5.40674">
        <ele>409.6</ele>
        <time>2022-05-24T13:02:39Z</time>
      </trkpt>
      <trkpt lat="46.13508" lon="5.40677">
        <ele>409.8</ele>
        <time>2022-05-24T13:02:40Z</time>
      </trkpt>
      <trkpt lat="46.13521" lon="5.40692">
        <ele>410.4</ele>
        <time>2022-05-24T13:02:43Z</time>
      </trkpt>
      <trkpt lat="46.13527" lon="5.40697">
        <ele>411</ele>
        <time>2022-05-24T13:02:45Z</time>
      </trkpt>
      <trkpt lat="46.13535" lon="5.40704">
        <ele>411.6</ele>
        <time>2022-05-24T13:02:47Z</time>
      </trkpt>
      <trkpt lat="46.1355" lon="5.40713">
        <ele>413</ele>
        <time>2022-05-24T13:02:51Z</time>
      </trkpt>
      <trkpt lat="46.13557" lon="5.40719">
        <ele>413.4</ele>
        <time>2022-05-24T13:02:53Z</time>
      </trkpt>
      <trkpt lat="46.13577" lon="5.40727">
        <ele>414</ele>
        <time>2022-05-24T13:02:58Z</time>
      </trkpt>
      <trkpt lat="46.13585" lon="5.4073">
        <ele>414.6</ele>
        <time>2022-05-24T13:03:00Z</time>
      </trkpt>
      <trkpt lat="46.13594" lon="5.40731">
        <ele>415.2</ele>
        <time>2022-05-24T13:03:02Z</time>
      </trkpt>
      <trkpt lat="46.13615" lon="5.40733">
        <ele>416.2</ele>
        <time>2022-05-24T13:03:07Z</time>
      </trkpt>
      <trkpt lat="46.13629" lon="5.40733">
        <ele>417.4</ele>
        <time>2022-05-24T13:03:10Z</time>
      </trkpt>
      <trkpt lat="46.13652" lon="5.40731">
        <ele>418.6</ele>
        <time>2022-05-24T13:03:15Z</time>
      </trkpt>
      <trkpt lat="46.1366" lon="5.4073">
        <ele>419.2</ele>
        <time>2022-05-24T13:03:17Z</time>
      </trkpt>
      <trkpt lat="46.13669" lon="5.4073">
        <ele>419.8</ele>
        <time>2022-05-24T13:03:19Z</time>
      </trkpt>
      <trkpt lat="46.13698" lon="5.4073">
        <ele>420.8</ele>
        <time>2022-05-24T13:03:26Z</time>
      </trkpt>
      <trkpt lat="46.13707" lon="5.4073">
        <ele>421.2</ele>
        <time>2022-05-24T13:03:28Z</time>
      </trkpt>
      <trkpt lat="46.13719" lon="5.40732">
        <ele>422.2</ele>
        <time>2022-05-24T13:03:31Z</time>
      </trkpt>
      <trkpt lat="46.13737" lon="5.40734">
        <ele>423.2</ele>
        <time>2022-05-24T13:03:35Z</time>
      </trkpt>
      <trkpt lat="46.13741" lon="5.40734">
        <ele>423.4</ele>
        <time>2022-05-24T13:03:36Z</time>
      </trkpt>
      <trkpt lat="46.13768" lon="5.40733">
        <ele>424.4</ele>
        <time>2022-05-24T13:03:42Z</time>
      </trkpt>
      <trkpt lat="46.13775" lon="5.40732">
        <ele>424.8</ele>
        <time>2022-05-24T13:03:44Z</time>
      </trkpt>
      <trkpt lat="46.13779" lon="5.40731">
        <ele>425.4</ele>
        <time>2022-05-24T13:03:45Z</time>
      </trkpt>
      <trkpt lat="46.13795" lon="5.40728">
        <ele>426.4</ele>
        <time>2022-05-24T13:03:49Z</time>
      </trkpt>
      <trkpt lat="46.13799" lon="5.40727">
        <ele>426.6</ele>
        <time>2022-05-24T13:03:50Z</time>
      </trkpt>
      <trkpt lat="46.13804" lon="5.40725">
        <ele>426.6</ele>
        <time>2022-05-24T13:03:51Z</time>
      </trkpt>
      <trkpt lat="46.13817" lon="5.4072">
        <ele>427.6</ele>
        <time>2022-05-24T13:03:54Z</time>
      </trkpt>
      <trkpt lat="46.13846" lon="5.4071">
        <ele>428.6</ele>
        <time>2022-05-24T13:04:00Z</time>
      </trkpt>
      <trkpt lat="46.1385" lon="5.40708">
        <ele>429</ele>
        <time>2022-05-24T13:04:01Z</time>
      </trkpt>
      <trkpt lat="46.13869" lon="5.40704">
        <ele>429.8</ele>
        <time>2022-05-24T13:04:05Z</time>
      </trkpt>
      <trkpt lat="46.13883" lon="5.40702">
        <ele>430.8</ele>
        <time>2022-05-24T13:04:08Z</time>
      </trkpt>
      <trkpt lat="46.13888" lon="5.40702">
        <ele>430.8</ele>
        <time>2022-05-24T13:04:09Z</time>
      </trkpt>
      <trkpt lat="46.13911" lon="5.40703">
        <ele>432</ele>
        <time>2022-05-24T13:04:14Z</time>
      </trkpt>
      <trkpt lat="46.1392" lon="5.40704">
        <ele>432.6</ele>
        <time>2022-05-24T13:04:16Z</time>
      </trkpt>
      <trkpt lat="46.13924" lon="5.40705">
        <ele>433.2</ele>
        <time>2022-05-24T13:04:17Z</time>
      </trkpt>
      <trkpt lat="46.13955" lon="5.40711">
        <ele>434.2</ele>
        <time>2022-05-24T13:04:24Z</time>
      </trkpt>
      <trkpt lat="46.1396" lon="5.40712">
        <ele>434.4</ele>
        <time>2022-05-24T13:04:25Z</time>
      </trkpt>
      <trkpt lat="46.13986" lon="5.40718">
        <ele>435.2</ele>
        <time>2022-05-24T13:04:31Z</time>
      </trkpt>
      <trkpt lat="46.13991" lon="5.40719">
        <ele>435.6</ele>
        <time>2022-05-24T13:04:32Z</time>
      </trkpt>
      <trkpt lat="46.14009" lon="5.40725">
        <ele>436.6</ele>
        <time>2022-05-24T13:04:36Z</time>
      </trkpt>
      <trkpt lat="46.14031" lon="5.40731">
        <ele>437.6</ele>
        <time>2022-05-24T13:04:41Z</time>
      </trkpt>
      <trkpt lat="46.14038" lon="5.40733">
        <ele>437.8</ele>
        <time>2022-05-24T13:04:42Z</time>
      </trkpt>
      <trkpt lat="46.14048" lon="5.40735">
        <ele>438.8</ele>
        <time>2022-05-24T13:04:45Z</time>
      </trkpt>
      <trkpt lat="46.14076" lon="5.40745">
        <ele>439.8</ele>
        <time>2022-05-24T13:04:51Z</time>
      </trkpt>
      <trkpt lat="46.1409" lon="5.4075">
        <ele>440.6</ele>
        <time>2022-05-24T13:04:54Z</time>
      </trkpt>
      <trkpt lat="46.14094" lon="5.40751">
        <ele>441</ele>
        <time>2022-05-24T13:04:55Z</time>
      </trkpt>
      <trkpt lat="46.14103" lon="5.40753">
        <ele>441.4</ele>
        <time>2022-05-24T13:04:57Z</time>
      </trkpt>
      <trkpt lat="46.14117" lon="5.40756">
        <ele>442</ele>
        <time>2022-05-24T13:05:00Z</time>
      </trkpt>
      <trkpt lat="46.1413" lon="5.40759">
        <ele>443</ele>
        <time>2022-05-24T13:05:03Z</time>
      </trkpt>
      <trkpt lat="46.14139" lon="5.40761">
        <ele>443.6</ele>
        <time>2022-05-24T13:05:05Z</time>
      </trkpt>
      <trkpt lat="46.14148" lon="5.40764">
        <ele>444.2</ele>
        <time>2022-05-24T13:05:07Z</time>
      </trkpt>
      <trkpt lat="46.14175" lon="5.40774">
        <ele>445.4</ele>
        <time>2022-05-24T13:05:13Z</time>
      </trkpt>
      <trkpt lat="46.14179" lon="5.40776">
        <ele>445.4</ele>
        <time>2022-05-24T13:05:14Z</time>
      </trkpt>
      <trkpt lat="46.14192" lon="5.40781">
        <ele>446.4</ele>
        <time>2022-05-24T13:05:17Z</time>
      </trkpt>
      <trkpt lat="46.14204" lon="5.40787">
        <ele>447</ele>
        <time>2022-05-24T13:05:20Z</time>
      </trkpt>
      <trkpt lat="46.14213" lon="5.4079">
        <ele>447.6</ele>
        <time>2022-05-24T13:05:22Z</time>
      </trkpt>
      <trkpt lat="46.1423" lon="5.408">
        <ele>448.4</ele>
        <time>2022-05-24T13:05:26Z</time>
      </trkpt>
      <trkpt lat="46.14234" lon="5.40802">
        <ele>448.6</ele>
        <time>2022-05-24T13:05:27Z</time>
      </trkpt>
      <trkpt lat="46.14251" lon="5.40813">
        <ele>449.8</ele>
        <time>2022-05-24T13:05:31Z</time>
      </trkpt>
      <trkpt lat="46.14263" lon="5.40821">
        <ele>450.8</ele>
        <time>2022-05-24T13:05:34Z</time>
      </trkpt>
      <trkpt lat="46.14267" lon="5.40824">
        <ele>450.8</ele>
        <time>2022-05-24T13:05:35Z</time>
      </trkpt>
      <trkpt lat="46.14274" lon="5.40831">
        <ele>451.2</ele>
        <time>2022-05-24T13:05:37Z</time>
      </trkpt>
      <trkpt lat="46.14288" lon="5.40847">
        <ele>452</ele>
        <time>2022-05-24T13:05:41Z</time>
      </trkpt>
      <trkpt lat="46.14292" lon="5.40851">
        <ele>452.2</ele>
        <time>2022-05-24T13:05:42Z</time>
      </trkpt>
      <trkpt lat="46.143" lon="5.4086">
        <ele>453.2</ele>
        <time>2022-05-24T13:05:45Z</time>
      </trkpt>
      <trkpt lat="46.14304" lon="5.40865">
        <ele>453.4</ele>
        <time>2022-05-24T13:05:46Z</time>
      </trkpt>
      <trkpt lat="46.14314" lon="5.40874">
        <ele>454.4</ele>
        <time>2022-05-24T13:05:49Z</time>
      </trkpt>
      <trkpt lat="46.14322" lon="5.40879">
        <ele>455</ele>
        <time>2022-05-24T13:05:51Z</time>
      </trkpt>
      <trkpt lat="46.14326" lon="5.40881">
        <ele>455.4</ele>
        <time>2022-05-24T13:05:52Z</time>
      </trkpt>
      <trkpt lat="46.14329" lon="5.40883">
        <ele>455.8</ele>
        <time>2022-05-24T13:05:53Z</time>
      </trkpt>
      <trkpt lat="46.14338" lon="5.40888">
        <ele>456.4</ele>
        <time>2022-05-24T13:05:55Z</time>
      </trkpt>
      <trkpt lat="46.14348" lon="5.40892">
        <ele>457</ele>
        <time>2022-05-24T13:05:57Z</time>
      </trkpt>
      <trkpt lat="46.14357" lon="5.40897">
        <ele>457.6</ele>
        <time>2022-05-24T13:05:59Z</time>
      </trkpt>
      <trkpt lat="46.14373" lon="5.40906">
        <ele>458.2</ele>
        <time>2022-05-24T13:06:03Z</time>
      </trkpt>
      <trkpt lat="46.14391" lon="5.40912">
        <ele>458.8</ele>
        <time>2022-05-24T13:06:07Z</time>
      </trkpt>
      <trkpt lat="46.14404" lon="5.40916">
        <ele>459.2</ele>
        <time>2022-05-24T13:06:10Z</time>
      </trkpt>
      <trkpt lat="46.14413" lon="5.40919">
        <ele>459.4</ele>
        <time>2022-05-24T13:06:12Z</time>
      </trkpt>
      <trkpt lat="46.14417" lon="5.4092">
        <ele>459.8</ele>
        <time>2022-05-24T13:06:13Z</time>
      </trkpt>
      <trkpt lat="46.14449" lon="5.40927">
        <ele>461</ele>
        <time>2022-05-24T13:06:20Z</time>
      </trkpt>
      <trkpt lat="46.14468" lon="5.40931">
        <ele>462</ele>
        <time>2022-05-24T13:06:24Z</time>
      </trkpt>
      <trkpt lat="46.14504" lon="5.40935">
        <ele>463</ele>
        <time>2022-05-24T13:06:31Z</time>
      </trkpt>
      <trkpt lat="46.1451" lon="5.40936">
        <ele>463.2</ele>
        <time>2022-05-24T13:06:32Z</time>
      </trkpt>
      <trkpt lat="46.14549" lon="5.40945">
        <ele>463.4</ele>
        <time>2022-05-24T13:06:38Z</time>
      </trkpt>
      <trkpt lat="46.14562" lon="5.40955">
        <ele>463.2</ele>
        <time>2022-05-24T13:06:40Z</time>
      </trkpt>
      <trkpt lat="46.14574" lon="5.4097">
        <ele>462.6</ele>
        <time>2022-05-24T13:06:42Z</time>
      </trkpt>
      <trkpt lat="46.14582" lon="5.4099">
        <ele>462.4</ele>
        <time>2022-05-24T13:06:44Z</time>
      </trkpt>
      <trkpt lat="46.14584" lon="5.41001">
        <ele>462.2</ele>
        <time>2022-05-24T13:06:45Z</time>
      </trkpt>
      <trkpt lat="46.14586" lon="5.41013">
        <ele>461.6</ele>
        <time>2022-05-24T13:06:46Z</time>
      </trkpt>
      <trkpt lat="46.1459" lon="5.41052">
        <ele>460.6</ele>
        <time>2022-05-24T13:06:49Z</time>
      </trkpt>
      <trkpt lat="46.14591" lon="5.41062">
        <ele>460</ele>
        <time>2022-05-24T13:06:50Z</time>
      </trkpt>
      <trkpt lat="46.14597" lon="5.41091">
        <ele>459</ele>
        <time>2022-05-24T13:06:52Z</time>
      </trkpt>
      <trkpt lat="46.14604" lon="5.41117">
        <ele>459</ele>
        <time>2022-05-24T13:06:54Z</time>
      </trkpt>
      <trkpt lat="46.14617" lon="5.41158">
        <ele>457.8</ele>
        <time>2022-05-24T13:06:57Z</time>
      </trkpt>
      <trkpt lat="46.14621" lon="5.41171">
        <ele>456.6</ele>
        <time>2022-05-24T13:06:58Z</time>
      </trkpt>
      <trkpt lat="46.14625" lon="5.41183">
        <ele>456</ele>
        <time>2022-05-24T13:06:59Z</time>
      </trkpt>
      <trkpt lat="46.14631" lon="5.412">
        <ele>454.6</ele>
        <time>2022-05-24T13:07:00Z</time>
      </trkpt>
      <trkpt lat="46.14641" lon="5.41226">
        <ele>453.2</ele>
        <time>2022-05-24T13:07:02Z</time>
      </trkpt>
      <trkpt lat="46.14646" lon="5.41237">
        <ele>452.8</ele>
        <time>2022-05-24T13:07:03Z</time>
      </trkpt>
      <trkpt lat="46.14655" lon="5.41251">
        <ele>452</ele>
        <time>2022-05-24T13:07:04Z</time>
      </trkpt>
      <trkpt lat="46.14672" lon="5.41272">
        <ele>451</ele>
        <time>2022-05-24T13:07:06Z</time>
      </trkpt>
      <trkpt lat="46.14681" lon="5.41283">
        <ele>449.8</ele>
        <time>2022-05-24T13:07:07Z</time>
      </trkpt>
      <trkpt lat="46.14688" lon="5.41294">
        <ele>449.4</ele>
        <time>2022-05-24T13:07:08Z</time>
      </trkpt>
      <trkpt lat="46.14695" lon="5.41307">
        <ele>448.2</ele>
        <time>2022-05-24T13:07:09Z</time>
      </trkpt>
      <trkpt lat="46.14699" lon="5.41322">
        <ele>447.6</ele>
        <time>2022-05-24T13:07:10Z</time>
      </trkpt>
      <trkpt lat="46.14702" lon="5.41339">
        <ele>446.6</ele>
        <time>2022-05-24T13:07:11Z</time>
      </trkpt>
      <trkpt lat="46.14702" lon="5.41363">
        <ele>446.2</ele>
        <time>2022-05-24T13:07:12Z</time>
      </trkpt>
      <trkpt lat="46.14702" lon="5.4138">
        <ele>446</ele>
        <time>2022-05-24T13:07:13Z</time>
      </trkpt>
      <trkpt lat="46.14702" lon="5.4138">
        <ele>445.4</ele>
        <time>2022-05-24T13:07:14Z</time>
      </trkpt>
      <trkpt lat="46.14704" lon="5.41421">
        <ele>444</ele>
        <time>2022-05-24T13:07:16Z</time>
      </trkpt>
      <trkpt lat="46.1471" lon="5.41457">
        <ele>441.8</ele>
        <time>2022-05-24T13:07:18Z</time>
      </trkpt>
      <trkpt lat="46.14714" lon="5.41472">
        <ele>440.8</ele>
        <time>2022-05-24T13:07:19Z</time>
      </trkpt>
      <trkpt lat="46.14725" lon="5.41503">
        <ele>439.8</ele>
        <time>2022-05-24T13:07:21Z</time>
      </trkpt>
      <trkpt lat="46.14729" lon="5.41519">
        <ele>439.6</ele>
        <time>2022-05-24T13:07:22Z</time>
      </trkpt>
      <trkpt lat="46.14732" lon="5.41537">
        <ele>437.4</ele>
        <time>2022-05-24T13:07:23Z</time>
      </trkpt>
      <trkpt lat="46.14734" lon="5.41554">
        <ele>436.8</ele>
        <time>2022-05-24T13:07:24Z</time>
      </trkpt>
      <trkpt lat="46.14734" lon="5.41568">
        <ele>436</ele>
        <time>2022-05-24T13:07:25Z</time>
      </trkpt>
      <trkpt lat="46.14735" lon="5.41607">
        <ele>434.2</ele>
        <time>2022-05-24T13:07:27Z</time>
      </trkpt>
      <trkpt lat="46.14736" lon="5.41624">
        <ele>433.4</ele>
        <time>2022-05-24T13:07:28Z</time>
      </trkpt>
      <trkpt lat="46.14739" lon="5.41641">
        <ele>433.2</ele>
        <time>2022-05-24T13:07:29Z</time>
      </trkpt>
      <trkpt lat="46.14743" lon="5.41657">
        <ele>432</ele>
        <time>2022-05-24T13:07:30Z</time>
      </trkpt>
      <trkpt lat="46.14752" lon="5.41689">
        <ele>430.6</ele>
        <time>2022-05-24T13:07:32Z</time>
      </trkpt>
      <trkpt lat="46.14763" lon="5.41721">
        <ele>429.2</ele>
        <time>2022-05-24T13:07:34Z</time>
      </trkpt>
      <trkpt lat="46.14768" lon="5.41737">
        <ele>427.8</ele>
        <time>2022-05-24T13:07:35Z</time>
      </trkpt>
      <trkpt lat="46.14778" lon="5.41767">
        <ele>426</ele>
        <time>2022-05-24T13:07:37Z</time>
      </trkpt>
      <trkpt lat="46.14787" lon="5.41795">
        <ele>425</ele>
        <time>2022-05-24T13:07:39Z</time>
      </trkpt>
      <trkpt lat="46.14804" lon="5.41844">
        <ele>423.2</ele>
        <time>2022-05-24T13:07:42Z</time>
      </trkpt>
      <trkpt lat="46.14811" lon="5.41858">
        <ele>422.6</ele>
        <time>2022-05-24T13:07:43Z</time>
      </trkpt>
      <trkpt lat="46.14819" lon="5.41871">
        <ele>421.8</ele>
        <time>2022-05-24T13:07:44Z</time>
      </trkpt>
      <trkpt lat="46.14828" lon="5.41883">
        <ele>421.4</ele>
        <time>2022-05-24T13:07:45Z</time>
      </trkpt>
      <trkpt lat="46.14839" lon="5.41893">
        <ele>420</ele>
        <time>2022-05-24T13:07:46Z</time>
      </trkpt>
      <trkpt lat="46.1485" lon="5.419">
        <ele>419</ele>
        <time>2022-05-24T13:07:47Z</time>
      </trkpt>
      <trkpt lat="46.14862" lon="5.41906">
        <ele>417.8</ele>
        <time>2022-05-24T13:07:48Z</time>
      </trkpt>
      <trkpt lat="46.14875" lon="5.4191">
        <ele>416.8</ele>
        <time>2022-05-24T13:07:49Z</time>
      </trkpt>
      <trkpt lat="46.149" lon="5.41913">
        <ele>415.2</ele>
        <time>2022-05-24T13:07:51Z</time>
      </trkpt>
      <trkpt lat="46.14925" lon="5.41916">
        <ele>412.8</ele>
        <time>2022-05-24T13:07:53Z</time>
      </trkpt>
      <trkpt lat="46.14949" lon="5.4192">
        <ele>411.2</ele>
        <time>2022-05-24T13:07:55Z</time>
      </trkpt>
      <trkpt lat="46.1496" lon="5.41924">
        <ele>409.8</ele>
        <time>2022-05-24T13:07:56Z</time>
      </trkpt>
      <trkpt lat="46.14982" lon="5.41932">
        <ele>408.6</ele>
        <time>2022-05-24T13:07:58Z</time>
      </trkpt>
      <trkpt lat="46.15012" lon="5.41944">
        <ele>407.6</ele>
        <time>2022-05-24T13:08:01Z</time>
      </trkpt>
      <trkpt lat="46.15024" lon="5.41949">
        <ele>407.2</ele>
        <time>2022-05-24T13:08:02Z</time>
      </trkpt>
      <trkpt lat="46.15072" lon="5.4197">
        <ele>406.4</ele>
        <time>2022-05-24T13:08:07Z</time>
      </trkpt>
      <trkpt lat="46.15092" lon="5.41979">
        <ele>406.4</ele>
        <time>2022-05-24T13:08:09Z</time>
      </trkpt>
      <trkpt lat="46.1512" lon="5.4199">
        <ele>406.4</ele>
        <time>2022-05-24T13:08:12Z</time>
      </trkpt>
      <trkpt lat="46.15129" lon="5.41992">
        <ele>406.4</ele>
        <time>2022-05-24T13:08:13Z</time>
      </trkpt>
      <trkpt lat="46.15145" lon="5.41988">
        <ele>406.4</ele>
        <time>2022-05-24T13:08:15Z</time>
      </trkpt>
      <trkpt lat="46.15155" lon="5.41966">
        <ele>406.2</ele>
        <time>2022-05-24T13:08:17Z</time>
      </trkpt>
      <trkpt lat="46.15171" lon="5.41891">
        <ele>405.2</ele>
        <time>2022-05-24T13:08:23Z</time>
      </trkpt>
      <trkpt lat="46.15184" lon="5.41842">
        <ele>404.4</ele>
        <time>2022-05-24T13:08:27Z</time>
      </trkpt>
      <trkpt lat="46.15189" lon="5.41833">
        <ele>404.2</ele>
        <time>2022-05-24T13:08:28Z</time>
      </trkpt>
      <trkpt lat="46.15195" lon="5.41827">
        <ele>404.2</ele>
        <time>2022-05-24T13:08:29Z</time>
      </trkpt>
      <trkpt lat="46.15203" lon="5.41822">
        <ele>404.2</ele>
        <time>2022-05-24T13:08:30Z</time>
      </trkpt>
      <trkpt lat="46.15211" lon="5.41819">
        <ele>404.2</ele>
        <time>2022-05-24T13:08:31Z</time>
      </trkpt>
      <trkpt lat="46.15228" lon="5.41817">
        <ele>404</ele>
        <time>2022-05-24T13:08:33Z</time>
      </trkpt>
      <trkpt lat="46.15245" lon="5.41824">
        <ele>403.8</ele>
        <time>2022-05-24T13:08:35Z</time>
      </trkpt>
      <trkpt lat="46.15253" lon="5.4183">
        <ele>403.8</ele>
        <time>2022-05-24T13:08:36Z</time>
      </trkpt>
      <trkpt lat="46.15262" lon="5.41836">
        <ele>403.8</ele>
        <time>2022-05-24T13:08:37Z</time>
      </trkpt>
      <trkpt lat="46.1528" lon="5.41843">
        <ele>403.2</ele>
        <time>2022-05-24T13:08:39Z</time>
      </trkpt>
      <trkpt lat="46.1529" lon="5.41847">
        <ele>402.8</ele>
        <time>2022-05-24T13:08:40Z</time>
      </trkpt>
      <trkpt lat="46.15299" lon="5.41849">
        <ele>402.6</ele>
        <time>2022-05-24T13:08:41Z</time>
      </trkpt>
      <trkpt lat="46.15319" lon="5.41853">
        <ele>401.8</ele>
        <time>2022-05-24T13:08:43Z</time>
      </trkpt>
      <trkpt lat="46.15329" lon="5.41855">
        <ele>401</ele>
        <time>2022-05-24T13:08:44Z</time>
      </trkpt>
      <trkpt lat="46.15339" lon="5.41858">
        <ele>400.6</ele>
        <time>2022-05-24T13:08:45Z</time>
      </trkpt>
      <trkpt lat="46.1536" lon="5.41862">
        <ele>398.8</ele>
        <time>2022-05-24T13:08:47Z</time>
      </trkpt>
      <trkpt lat="46.15406" lon="5.41868">
        <ele>397.4</ele>
        <time>2022-05-24T13:08:51Z</time>
      </trkpt>
      <trkpt lat="46.15406" lon="5.41868">
        <ele>397.2</ele>
        <time>2022-05-24T13:08:52Z</time>
      </trkpt>
      <trkpt lat="46.15441" lon="5.41872">
        <ele>396</ele>
        <time>2022-05-24T13:08:55Z</time>
      </trkpt>
      <trkpt lat="46.15463" lon="5.41872">
        <ele>394.8</ele>
        <time>2022-05-24T13:08:57Z</time>
      </trkpt>
      <trkpt lat="46.15474" lon="5.4187">
        <ele>394.2</ele>
        <time>2022-05-24T13:08:58Z</time>
      </trkpt>
      <trkpt lat="46.15485" lon="5.41867">
        <ele>393.6</ele>
        <time>2022-05-24T13:08:59Z</time>
      </trkpt>
      <trkpt lat="46.15507" lon="5.4186">
        <ele>392</ele>
        <time>2022-05-24T13:09:01Z</time>
      </trkpt>
      <trkpt lat="46.15528" lon="5.4185">
        <ele>390</ele>
        <time>2022-05-24T13:09:03Z</time>
      </trkpt>
      <trkpt lat="46.1556" lon="5.41835">
        <ele>388.8</ele>
        <time>2022-05-24T13:09:06Z</time>
      </trkpt>
      <trkpt lat="46.15571" lon="5.4183">
        <ele>387.8</ele>
        <time>2022-05-24T13:09:07Z</time>
      </trkpt>
      <trkpt lat="46.15582" lon="5.41825">
        <ele>386.2</ele>
        <time>2022-05-24T13:09:08Z</time>
      </trkpt>
      <trkpt lat="46.15604" lon="5.41816">
        <ele>384.6</ele>
        <time>2022-05-24T13:09:10Z</time>
      </trkpt>
      <trkpt lat="46.15625" lon="5.41806">
        <ele>382.8</ele>
        <time>2022-05-24T13:09:12Z</time>
      </trkpt>
      <trkpt lat="46.15647" lon="5.41797">
        <ele>381</ele>
        <time>2022-05-24T13:09:14Z</time>
      </trkpt>
      <trkpt lat="46.15669" lon="5.41789">
        <ele>379.6</ele>
        <time>2022-05-24T13:09:16Z</time>
      </trkpt>
      <trkpt lat="46.15699" lon="5.41778">
        <ele>378.8</ele>
        <time>2022-05-24T13:09:19Z</time>
      </trkpt>
      <trkpt lat="46.15718" lon="5.4177">
        <ele>378.6</ele>
        <time>2022-05-24T13:09:21Z</time>
      </trkpt>
      <trkpt lat="46.15734" lon="5.41758">
        <ele>378.6</ele>
        <time>2022-05-24T13:09:23Z</time>
      </trkpt>
      <trkpt lat="46.15767" lon="5.41724">
        <ele>379.2</ele>
        <time>2022-05-24T13:09:28Z</time>
      </trkpt>
      <trkpt lat="46.15781" lon="5.41713">
        <ele>379.8</ele>
        <time>2022-05-24T13:09:30Z</time>
      </trkpt>
      <trkpt lat="46.15817" lon="5.41687">
        <ele>380</ele>
        <time>2022-05-24T13:09:35Z</time>
      </trkpt>
      <trkpt lat="46.15825" lon="5.41684">
        <ele>380</ele>
        <time>2022-05-24T13:09:36Z</time>
      </trkpt>
      <trkpt lat="46.15842" lon="5.41683">
        <ele>379.6</ele>
        <time>2022-05-24T13:09:38Z</time>
      </trkpt>
      <trkpt lat="46.15866" lon="5.41689">
        <ele>379</ele>
        <time>2022-05-24T13:09:41Z</time>
      </trkpt>
      <trkpt lat="46.15874" lon="5.41693">
        <ele>378.6</ele>
        <time>2022-05-24T13:09:42Z</time>
      </trkpt>
      <trkpt lat="46.15899" lon="5.41708">
        <ele>377.6</ele>
        <time>2022-05-24T13:09:45Z</time>
      </trkpt>
      <trkpt lat="46.15915" lon="5.41715">
        <ele>376.6</ele>
        <time>2022-05-24T13:09:47Z</time>
      </trkpt>
      <trkpt lat="46.15933" lon="5.4172">
        <ele>375.6</ele>
        <time>2022-05-24T13:09:50Z</time>
      </trkpt>
      <trkpt lat="46.15937" lon="5.4172">
        <ele>375.2</ele>
        <time>2022-05-24T13:09:51Z</time>
      </trkpt>
      <trkpt lat="46.15941" lon="5.41721">
        <ele>374.6</ele>
        <time>2022-05-24T13:09:52Z</time>
      </trkpt>
      <trkpt lat="46.15947" lon="5.41722">
        <ele>374.2</ele>
        <time>2022-05-24T13:09:54Z</time>
      </trkpt>
      <trkpt lat="46.15955" lon="5.41725">
        <ele>374.2</ele>
        <time>2022-05-24T13:09:56Z</time>
      </trkpt>
      <trkpt lat="46.1596" lon="5.41727">
        <ele>374</ele>
        <time>2022-05-24T13:09:57Z</time>
      </trkpt>
      <trkpt lat="46.15976" lon="5.41734">
        <ele>374.2</ele>
        <time>2022-05-24T13:10:00Z</time>
      </trkpt>
      <trkpt lat="46.15993" lon="5.41741">
        <ele>374.6</ele>
        <time>2022-05-24T13:10:03Z</time>
      </trkpt>
      <trkpt lat="46.1601" lon="5.41747">
        <ele>375.4</ele>
        <time>2022-05-24T13:10:06Z</time>
      </trkpt>
      <trkpt lat="46.1602" lon="5.41748">
        <ele>375.8</ele>
        <time>2022-05-24T13:10:08Z</time>
      </trkpt>
      <trkpt lat="46.16029" lon="5.41747">
        <ele>376.4</ele>
        <time>2022-05-24T13:10:10Z</time>
      </trkpt>
      <trkpt lat="46.16038" lon="5.41747">
        <ele>377.4</ele>
        <time>2022-05-24T13:10:13Z</time>
      </trkpt>
      <trkpt lat="46.16039" lon="5.41747">
        <ele>377.6</ele>
        <time>2022-05-24T13:10:14Z</time>
      </trkpt>
      <trkpt lat="46.16041" lon="5.41746">
        <ele>377.8</ele>
        <time>2022-05-24T13:10:16Z</time>
      </trkpt>
      <trkpt lat="46.16041" lon="5.41745">
        <ele>378</ele>
        <time>2022-05-24T13:10:17Z</time>
      </trkpt>
      <trkpt lat="46.1604" lon="5.41737">
        <ele>378</ele>
        <time>2022-05-24T13:10:20Z</time>
      </trkpt>
      <trkpt lat="46.1604" lon="5.41734">
        <ele>378</ele>
        <time>2022-05-24T13:10:21Z</time>
      </trkpt>
      <trkpt lat="46.16041" lon="5.41732">
        <ele>378</ele>
        <time>2022-05-24T13:10:25Z</time>
      </trkpt>
      <trkpt lat="46.16039" lon="5.41737">
        <ele>378.2</ele>
        <time>2022-05-24T13:10:46Z</time>
      </trkpt>
      <trkpt lat="46.1604" lon="5.41743">
        <ele>378.4</ele>
        <time>2022-05-24T13:10:48Z</time>
      </trkpt>
      <trkpt lat="46.16044" lon="5.41747">
        <ele>378.4</ele>
        <time>2022-05-24T13:10:50Z</time>
      </trkpt>
      <trkpt lat="46.16056" lon="5.41761">
        <ele>378.4</ele>
        <time>2022-05-24T13:10:55Z</time>
      </trkpt>
      <trkpt lat="46.16068" lon="5.41781">
        <ele>378</ele>
        <time>2022-05-24T13:11:00Z</time>
      </trkpt>
      <trkpt lat="46.1607" lon="5.41785">
        <ele>377.8</ele>
        <time>2022-05-24T13:11:01Z</time>
      </trkpt>
      <trkpt lat="46.16075" lon="5.41797">
        <ele>377.4</ele>
        <time>2022-05-24T13:11:03Z</time>
      </trkpt>
      <trkpt lat="46.16079" lon="5.41804">
        <ele>377.2</ele>
        <time>2022-05-24T13:11:04Z</time>
      </trkpt>
      <trkpt lat="46.16083" lon="5.41811">
        <ele>377.2</ele>
        <time>2022-05-24T13:11:05Z</time>
      </trkpt>
      <trkpt lat="46.16095" lon="5.41819">
        <ele>376.6</ele>
        <time>2022-05-24T13:11:07Z</time>
      </trkpt>
      <trkpt lat="46.16102" lon="5.4182">
        <ele>376.4</ele>
        <time>2022-05-24T13:11:08Z</time>
      </trkpt>
      <trkpt lat="46.16124" lon="5.41823">
        <ele>375.6</ele>
        <time>2022-05-24T13:11:11Z</time>
      </trkpt>
      <trkpt lat="46.16132" lon="5.41827">
        <ele>375</ele>
        <time>2022-05-24T13:11:12Z</time>
      </trkpt>
      <trkpt lat="46.16148" lon="5.41837">
        <ele>374</ele>
        <time>2022-05-24T13:11:14Z</time>
      </trkpt>
      <trkpt lat="46.16162" lon="5.41853">
        <ele>373</ele>
        <time>2022-05-24T13:11:16Z</time>
      </trkpt>
      <trkpt lat="46.16186" lon="5.4188">
        <ele>371.8</ele>
        <time>2022-05-24T13:11:19Z</time>
      </trkpt>
      <trkpt lat="46.16202" lon="5.419">
        <ele>370.4</ele>
        <time>2022-05-24T13:11:21Z</time>
      </trkpt>
      <trkpt lat="46.1621" lon="5.41912">
        <ele>369.4</ele>
        <time>2022-05-24T13:11:22Z</time>
      </trkpt>
      <trkpt lat="46.16227" lon="5.41935">
        <ele>367.8</ele>
        <time>2022-05-24T13:11:24Z</time>
      </trkpt>
      <trkpt lat="46.16242" lon="5.41959">
        <ele>366.4</ele>
        <time>2022-05-24T13:11:26Z</time>
      </trkpt>
      <trkpt lat="46.16264" lon="5.41997">
        <ele>364.4</ele>
        <time>2022-05-24T13:11:29Z</time>
      </trkpt>
      <trkpt lat="46.16272" lon="5.42008">
        <ele>364</ele>
        <time>2022-05-24T13:11:30Z</time>
      </trkpt>
      <trkpt lat="46.1628" lon="5.42017">
        <ele>363.2</ele>
        <time>2022-05-24T13:11:31Z</time>
      </trkpt>
      <trkpt lat="46.16298" lon="5.42034">
        <ele>361.8</ele>
        <time>2022-05-24T13:11:33Z</time>
      </trkpt>
      <trkpt lat="46.16308" lon="5.42042">
        <ele>361.6</ele>
        <time>2022-05-24T13:11:34Z</time>
      </trkpt>
      <trkpt lat="46.16317" lon="5.4205">
        <ele>361</ele>
        <time>2022-05-24T13:11:35Z</time>
      </trkpt>
      <trkpt lat="46.16337" lon="5.42064">
        <ele>359.8</ele>
        <time>2022-05-24T13:11:37Z</time>
      </trkpt>
      <trkpt lat="46.16358" lon="5.42075">
        <ele>359</ele>
        <time>2022-05-24T13:11:39Z</time>
      </trkpt>
      <trkpt lat="46.16368" lon="5.42079">
        <ele>358.2</ele>
        <time>2022-05-24T13:11:40Z</time>
      </trkpt>
      <trkpt lat="46.164" lon="5.42087">
        <ele>357.4</ele>
        <time>2022-05-24T13:11:43Z</time>
      </trkpt>
      <trkpt lat="46.16411" lon="5.42089">
        <ele>357</ele>
        <time>2022-05-24T13:11:44Z</time>
      </trkpt>
      <trkpt lat="46.16442" lon="5.42093">
        <ele>355.4</ele>
        <time>2022-05-24T13:11:47Z</time>
      </trkpt>
      <trkpt lat="46.16462" lon="5.42096">
        <ele>354.6</ele>
        <time>2022-05-24T13:11:49Z</time>
      </trkpt>
      <trkpt lat="46.16471" lon="5.42098">
        <ele>354.4</ele>
        <time>2022-05-24T13:11:50Z</time>
      </trkpt>
      <trkpt lat="46.16511" lon="5.42104">
        <ele>353.2</ele>
        <time>2022-05-24T13:11:54Z</time>
      </trkpt>
      <trkpt lat="46.16541" lon="5.42109">
        <ele>352.6</ele>
        <time>2022-05-24T13:11:57Z</time>
      </trkpt>
      <trkpt lat="46.16581" lon="5.42121">
        <ele>351.6</ele>
        <time>2022-05-24T13:12:01Z</time>
      </trkpt>
      <trkpt lat="46.16591" lon="5.42125">
        <ele>351</ele>
        <time>2022-05-24T13:12:02Z</time>
      </trkpt>
      <trkpt lat="46.16601" lon="5.42129">
        <ele>350.4</ele>
        <time>2022-05-24T13:12:03Z</time>
      </trkpt>
      <trkpt lat="46.1664" lon="5.42146">
        <ele>349.2</ele>
        <time>2022-05-24T13:12:07Z</time>
      </trkpt>
      <trkpt lat="46.16682" lon="5.42161">
        <ele>349</ele>
        <time>2022-05-24T13:12:11Z</time>
      </trkpt>
      <trkpt lat="46.16738" lon="5.42189">
        <ele>348.4</ele>
        <time>2022-05-24T13:12:18Z</time>
      </trkpt>
      <trkpt lat="46.16755" lon="5.422">
        <ele>348.2</ele>
        <time>2022-05-24T13:12:20Z</time>
      </trkpt>
      <trkpt lat="46.16805" lon="5.42237">
        <ele>348.2</ele>
        <time>2022-05-24T13:12:26Z</time>
      </trkpt>
      <trkpt lat="46.16813" lon="5.42244">
        <ele>347.6</ele>
        <time>2022-05-24T13:12:27Z</time>
      </trkpt>
      <trkpt lat="46.1683" lon="5.42256">
        <ele>347.2</ele>
        <time>2022-05-24T13:12:29Z</time>
      </trkpt>
      <trkpt lat="46.16847" lon="5.42269">
        <ele>347</ele>
        <time>2022-05-24T13:12:31Z</time>
      </trkpt>
      <trkpt lat="46.16879" lon="5.42292">
        <ele>346.2</ele>
        <time>2022-05-24T13:12:35Z</time>
      </trkpt>
      <trkpt lat="46.16895" lon="5.42304">
        <ele>345.8</ele>
        <time>2022-05-24T13:12:37Z</time>
      </trkpt>
      <trkpt lat="46.16949" lon="5.42339">
        <ele>345.8</ele>
        <time>2022-05-24T13:12:44Z</time>
      </trkpt>
      <trkpt lat="46.16999" lon="5.42365">
        <ele>345</ele>
        <time>2022-05-24T13:12:50Z</time>
      </trkpt>
      <trkpt lat="46.17024" lon="5.42381">
        <ele>344.6</ele>
        <time>2022-05-24T13:12:53Z</time>
      </trkpt>
      <trkpt lat="46.17038" lon="5.42393">
        <ele>344</ele>
        <time>2022-05-24T13:12:55Z</time>
      </trkpt>
      <trkpt lat="46.17066" lon="5.42418">
        <ele>343.4</ele>
        <time>2022-05-24T13:12:59Z</time>
      </trkpt>
      <trkpt lat="46.17092" lon="5.42445">
        <ele>343</ele>
        <time>2022-05-24T13:13:03Z</time>
      </trkpt>
      <trkpt lat="46.17111" lon="5.42464">
        <ele>343</ele>
        <time>2022-05-24T13:13:06Z</time>
      </trkpt>
      <trkpt lat="46.17129" lon="5.42482">
        <ele>344</ele>
        <time>2022-05-24T13:13:09Z</time>
      </trkpt>
      <trkpt lat="46.17158" lon="5.42504">
        <ele>344.6</ele>
        <time>2022-05-24T13:13:13Z</time>
      </trkpt>
      <trkpt lat="46.1721" lon="5.42535">
        <ele>345</ele>
        <time>2022-05-24T13:13:21Z</time>
      </trkpt>
      <trkpt lat="46.17244" lon="5.42564">
        <ele>344.6</ele>
        <time>2022-05-24T13:13:26Z</time>
      </trkpt>
      <trkpt lat="46.17291" lon="5.42618">
        <ele>345.6</ele>
        <time>2022-05-24T13:13:34Z</time>
      </trkpt>
      <trkpt lat="46.17297" lon="5.42624">
        <ele>345.8</ele>
        <time>2022-05-24T13:13:35Z</time>
      </trkpt>
      <trkpt lat="46.17309" lon="5.42636">
        <ele>346.2</ele>
        <time>2022-05-24T13:13:37Z</time>
      </trkpt>
      <trkpt lat="46.17338" lon="5.42664">
        <ele>347.2</ele>
        <time>2022-05-24T13:13:42Z</time>
      </trkpt>
      <trkpt lat="46.17343" lon="5.42669">
        <ele>347.6</ele>
        <time>2022-05-24T13:13:43Z</time>
      </trkpt>
      <trkpt lat="46.17366" lon="5.42691">
        <ele>348.4</ele>
        <time>2022-05-24T13:13:47Z</time>
      </trkpt>
      <trkpt lat="46.17383" lon="5.42707">
        <ele>349.6</ele>
        <time>2022-05-24T13:13:50Z</time>
      </trkpt>
      <trkpt lat="46.17389" lon="5.42713">
        <ele>349.8</ele>
        <time>2022-05-24T13:13:51Z</time>
      </trkpt>
      <trkpt lat="46.17414" lon="5.42734">
        <ele>350.6</ele>
        <time>2022-05-24T13:13:55Z</time>
      </trkpt>
      <trkpt lat="46.17444" lon="5.42759">
        <ele>351.2</ele>
        <time>2022-05-24T13:14:00Z</time>
      </trkpt>
      <trkpt lat="46.17496" lon="5.42804">
        <ele>351.2</ele>
        <time>2022-05-24T13:14:08Z</time>
      </trkpt>
      <trkpt lat="46.17524" lon="5.4283">
        <ele>351.2</ele>
        <time>2022-05-24T13:14:12Z</time>
      </trkpt>
      <trkpt lat="46.17543" lon="5.42849">
        <ele>351.8</ele>
        <time>2022-05-24T13:14:16Z</time>
      </trkpt>
      <trkpt lat="46.1757" lon="5.42879">
        <ele>352.6</ele>
        <time>2022-05-24T13:14:21Z</time>
      </trkpt>
      <trkpt lat="46.17581" lon="5.42891">
        <ele>353.2</ele>
        <time>2022-05-24T13:14:23Z</time>
      </trkpt>
      <trkpt lat="46.17625" lon="5.42935">
        <ele>354</ele>
        <time>2022-05-24T13:14:31Z</time>
      </trkpt>
      <trkpt lat="46.17659" lon="5.42958">
        <ele>354</ele>
        <time>2022-05-24T13:14:36Z</time>
      </trkpt>
      <trkpt lat="46.17711" lon="5.42989">
        <ele>353.8</ele>
        <time>2022-05-24T13:14:43Z</time>
      </trkpt>
      <trkpt lat="46.17765" lon="5.43026">
        <ele>353.8</ele>
        <time>2022-05-24T13:14:50Z</time>
      </trkpt>
      <trkpt lat="46.17781" lon="5.43036">
        <ele>354</ele>
        <time>2022-05-24T13:14:52Z</time>
      </trkpt>
      <trkpt lat="46.17837" lon="5.43069">
        <ele>353.4</ele>
        <time>2022-05-24T13:14:59Z</time>
      </trkpt>
      <trkpt lat="46.17853" lon="5.43078">
        <ele>352.8</ele>
        <time>2022-05-24T13:15:01Z</time>
      </trkpt>
      <trkpt lat="46.17894" lon="5.43099">
        <ele>352.2</ele>
        <time>2022-05-24T13:15:06Z</time>
      </trkpt>
      <trkpt lat="46.17921" lon="5.43114">
        <ele>351.6</ele>
        <time>2022-05-24T13:15:09Z</time>
      </trkpt>
      <trkpt lat="46.17947" lon="5.43133">
        <ele>351.2</ele>
        <time>2022-05-24T13:15:12Z</time>
      </trkpt>
      <trkpt lat="46.17954" lon="5.43139">
        <ele>351</ele>
        <time>2022-05-24T13:15:13Z</time>
      </trkpt>
      <trkpt lat="46.17964" lon="5.43149">
        <ele>350.6</ele>
        <time>2022-05-24T13:15:14Z</time>
      </trkpt>
      <trkpt lat="46.17979" lon="5.43167">
        <ele>349.2</ele>
        <time>2022-05-24T13:15:16Z</time>
      </trkpt>
      <trkpt lat="46.17993" lon="5.43186">
        <ele>348</ele>
        <time>2022-05-24T13:15:18Z</time>
      </trkpt>
      <trkpt lat="46.18023" lon="5.43223">
        <ele>347.2</ele>
        <time>2022-05-24T13:15:22Z</time>
      </trkpt>
      <trkpt lat="46.1803" lon="5.43232">
        <ele>347</ele>
        <time>2022-05-24T13:15:23Z</time>
      </trkpt>
      <trkpt lat="46.18062" lon="5.43264">
        <ele>345.6</ele>
        <time>2022-05-24T13:15:27Z</time>
      </trkpt>
      <trkpt lat="46.18098" lon="5.43291">
        <ele>344.4</ele>
        <time>2022-05-24T13:15:31Z</time>
      </trkpt>
      <trkpt lat="46.18116" lon="5.43305">
        <ele>343.2</ele>
        <time>2022-05-24T13:15:33Z</time>
      </trkpt>
      <trkpt lat="46.18134" lon="5.43319">
        <ele>342.8</ele>
        <time>2022-05-24T13:15:35Z</time>
      </trkpt>
      <trkpt lat="46.18177" lon="5.43351">
        <ele>342</ele>
        <time>2022-05-24T13:15:39Z</time>
      </trkpt>
      <trkpt lat="46.18209" lon="5.43373">
        <ele>340.8</ele>
        <time>2022-05-24T13:15:43Z</time>
      </trkpt>
      <trkpt lat="46.18219" lon="5.43379">
        <ele>340.4</ele>
        <time>2022-05-24T13:15:44Z</time>
      </trkpt>
      <trkpt lat="46.18249" lon="5.43398">
        <ele>339.6</ele>
        <time>2022-05-24T13:15:47Z</time>
      </trkpt>
      <trkpt lat="46.18279" lon="5.43416">
        <ele>338.4</ele>
        <time>2022-05-24T13:15:50Z</time>
      </trkpt>
      <trkpt lat="46.18306" lon="5.43433">
        <ele>337.2</ele>
        <time>2022-05-24T13:15:53Z</time>
      </trkpt>
      <trkpt lat="46.18317" lon="5.4344">
        <ele>337.2</ele>
        <time>2022-05-24T13:15:54Z</time>
      </trkpt>
      <trkpt lat="46.18375" lon="5.4348">
        <ele>336.4</ele>
        <time>2022-05-24T13:16:00Z</time>
      </trkpt>
      <trkpt lat="46.18385" lon="5.43486">
        <ele>336</ele>
        <time>2022-05-24T13:16:01Z</time>
      </trkpt>
      <trkpt lat="46.18413" lon="5.43506">
        <ele>335</ele>
        <time>2022-05-24T13:16:04Z</time>
      </trkpt>
      <trkpt lat="46.18422" lon="5.43513">
        <ele>334.8</ele>
        <time>2022-05-24T13:16:05Z</time>
      </trkpt>
      <trkpt lat="46.18477" lon="5.43551">
        <ele>334.6</ele>
        <time>2022-05-24T13:16:11Z</time>
      </trkpt>
      <trkpt lat="46.18511" lon="5.43578">
        <ele>334</ele>
        <time>2022-05-24T13:16:15Z</time>
      </trkpt>
      <trkpt lat="46.18537" lon="5.43603">
        <ele>333.6</ele>
        <time>2022-05-24T13:16:18Z</time>
      </trkpt>
      <trkpt lat="46.18552" lon="5.43622">
        <ele>333</ele>
        <time>2022-05-24T13:16:20Z</time>
      </trkpt>
      <trkpt lat="46.18568" lon="5.43643">
        <ele>332.4</ele>
        <time>2022-05-24T13:16:22Z</time>
      </trkpt>
      <trkpt lat="46.18615" lon="5.43704">
        <ele>331.4</ele>
        <time>2022-05-24T13:16:28Z</time>
      </trkpt>
      <trkpt lat="46.18651" lon="5.43745">
        <ele>331.8</ele>
        <time>2022-05-24T13:16:33Z</time>
      </trkpt>
      <trkpt lat="46.18701" lon="5.43793">
        <ele>332.6</ele>
        <time>2022-05-24T13:16:40Z</time>
      </trkpt>
      <trkpt lat="46.18709" lon="5.438">
        <ele>332.6</ele>
        <time>2022-05-24T13:16:41Z</time>
      </trkpt>
      <trkpt lat="46.1876" lon="5.43844">
        <ele>332.6</ele>
        <time>2022-05-24T13:16:48Z</time>
      </trkpt>
      <trkpt lat="46.18768" lon="5.43851">
        <ele>332.6</ele>
        <time>2022-05-24T13:16:49Z</time>
      </trkpt>
      <trkpt lat="46.18815" lon="5.43901">
        <ele>332.6</ele>
        <time>2022-05-24T13:16:56Z</time>
      </trkpt>
      <trkpt lat="46.18821" lon="5.43908">
        <ele>332.8</ele>
        <time>2022-05-24T13:16:57Z</time>
      </trkpt>
      <trkpt lat="46.18839" lon="5.43929">
        <ele>333.6</ele>
        <time>2022-05-24T13:17:00Z</time>
      </trkpt>
      <trkpt lat="46.18862" lon="5.43957">
        <ele>334.8</ele>
        <time>2022-05-24T13:17:04Z</time>
      </trkpt>
      <trkpt lat="46.18873" lon="5.4397">
        <ele>335.2</ele>
        <time>2022-05-24T13:17:06Z</time>
      </trkpt>
      <trkpt lat="46.18889" lon="5.4399">
        <ele>336</ele>
        <time>2022-05-24T13:17:09Z</time>
      </trkpt>
      <trkpt lat="46.18915" lon="5.44021">
        <ele>337.4</ele>
        <time>2022-05-24T13:17:14Z</time>
      </trkpt>
      <trkpt lat="46.18931" lon="5.44042">
        <ele>338.4</ele>
        <time>2022-05-24T13:17:17Z</time>
      </trkpt>
      <trkpt lat="46.18955" lon="5.4408">
        <ele>339.4</ele>
        <time>2022-05-24T13:17:22Z</time>
      </trkpt>
      <trkpt lat="46.1896" lon="5.44087">
        <ele>339.6</ele>
        <time>2022-05-24T13:17:23Z</time>
      </trkpt>
      <trkpt lat="46.18982" lon="5.44116">
        <ele>340.6</ele>
        <time>2022-05-24T13:17:27Z</time>
      </trkpt>
      <trkpt lat="46.18988" lon="5.44123">
        <ele>341</ele>
        <time>2022-05-24T13:17:28Z</time>
      </trkpt>
      <trkpt lat="46.19008" lon="5.44139">
        <ele>341.8</ele>
        <time>2022-05-24T13:17:31Z</time>
      </trkpt>
      <trkpt lat="46.19015" lon="5.44144">
        <ele>342</ele>
        <time>2022-05-24T13:17:32Z</time>
      </trkpt>
      <trkpt lat="46.19021" lon="5.44147">
        <ele>342.2</ele>
        <time>2022-05-24T13:17:33Z</time>
      </trkpt>
      <trkpt lat="46.19055" lon="5.44158">
        <ele>343</ele>
        <time>2022-05-24T13:17:38Z</time>
      </trkpt>
      <trkpt lat="46.19063" lon="5.44159">
        <ele>343.2</ele>
        <time>2022-05-24T13:17:39Z</time>
      </trkpt>
      <trkpt lat="46.19081" lon="5.44161">
        <ele>344</ele>
        <time>2022-05-24T13:17:42Z</time>
      </trkpt>
      <trkpt lat="46.19088" lon="5.44161">
        <ele>344.4</ele>
        <time>2022-05-24T13:17:43Z</time>
      </trkpt>
      <trkpt lat="46.19095" lon="5.44161">
        <ele>345.2</ele>
        <time>2022-05-24T13:17:44Z</time>
      </trkpt>
      <trkpt lat="46.19102" lon="5.44161">
        <ele>345.6</ele>
        <time>2022-05-24T13:17:45Z</time>
      </trkpt>
      <trkpt lat="46.19136" lon="5.4416">
        <ele>346.6</ele>
        <time>2022-05-24T13:17:50Z</time>
      </trkpt>
      <trkpt lat="46.19156" lon="5.44159">
        <ele>347.2</ele>
        <time>2022-05-24T13:17:53Z</time>
      </trkpt>
      <trkpt lat="46.19209" lon="5.44163">
        <ele>347.4</ele>
        <time>2022-05-24T13:18:00Z</time>
      </trkpt>
      <trkpt lat="46.1927" lon="5.44171">
        <ele>346.6</ele>
        <time>2022-05-24T13:18:07Z</time>
      </trkpt>
      <trkpt lat="46.19307" lon="5.44178">
        <ele>345.4</ele>
        <time>2022-05-24T13:18:11Z</time>
      </trkpt>
      <trkpt lat="46.19331" lon="5.44182">
        <ele>344.4</ele>
        <time>2022-05-24T13:18:13Z</time>
      </trkpt>
      <trkpt lat="46.19366" lon="5.44188">
        <ele>343.6</ele>
        <time>2022-05-24T13:18:17Z</time>
      </trkpt>
      <trkpt lat="46.19408" lon="5.44192">
        <ele>342.4</ele>
        <time>2022-05-24T13:18:21Z</time>
      </trkpt>
      <trkpt lat="46.1945" lon="5.44185">
        <ele>341.4</ele>
        <time>2022-05-24T13:18:25Z</time>
      </trkpt>
      <trkpt lat="46.19503" lon="5.4417">
        <ele>340.2</ele>
        <time>2022-05-24T13:18:30Z</time>
      </trkpt>
      <trkpt lat="46.19515" lon="5.44168">
        <ele>340</ele>
        <time>2022-05-24T13:18:31Z</time>
      </trkpt>
      <trkpt lat="46.19545" lon="5.4417">
        <ele>340</ele>
        <time>2022-05-24T13:18:34Z</time>
      </trkpt>
      <trkpt lat="46.19554" lon="5.44173">
        <ele>339.8</ele>
        <time>2022-05-24T13:18:35Z</time>
      </trkpt>
      <trkpt lat="46.196" lon="5.44197">
        <ele>339.8</ele>
        <time>2022-05-24T13:18:40Z</time>
      </trkpt>
      <trkpt lat="46.19652" lon="5.44231">
        <ele>339.4</ele>
        <time>2022-05-24T13:18:45Z</time>
      </trkpt>
      <trkpt lat="46.1968" lon="5.44251">
        <ele>339</ele>
        <time>2022-05-24T13:18:48Z</time>
      </trkpt>
      <trkpt lat="46.19698" lon="5.44267">
        <ele>338.4</ele>
        <time>2022-05-24T13:18:50Z</time>
      </trkpt>
      <trkpt lat="46.19714" lon="5.44286">
        <ele>338</ele>
        <time>2022-05-24T13:18:52Z</time>
      </trkpt>
      <trkpt lat="46.19735" lon="5.44315">
        <ele>337.4</ele>
        <time>2022-05-24T13:18:55Z</time>
      </trkpt>
      <trkpt lat="46.19779" lon="5.44372">
        <ele>337.2</ele>
        <time>2022-05-24T13:19:01Z</time>
      </trkpt>
      <trkpt lat="46.19796" lon="5.44392">
        <ele>337</ele>
        <time>2022-05-24T13:19:03Z</time>
      </trkpt>
      <trkpt lat="46.19844" lon="5.44443">
        <ele>337</ele>
        <time>2022-05-24T13:19:09Z</time>
      </trkpt>
      <trkpt lat="46.19852" lon="5.4445">
        <ele>337</ele>
        <time>2022-05-24T13:19:10Z</time>
      </trkpt>
      <trkpt lat="46.19908" lon="5.44495">
        <ele>336</ele>
        <time>2022-05-24T13:19:16Z</time>
      </trkpt>
      <trkpt lat="46.19915" lon="5.44501">
        <ele>335.6</ele>
        <time>2022-05-24T13:19:17Z</time>
      </trkpt>
      <trkpt lat="46.19935" lon="5.44516">
        <ele>334.6</ele>
        <time>2022-05-24T13:19:19Z</time>
      </trkpt>
      <trkpt lat="46.19962" lon="5.44536">
        <ele>333.4</ele>
        <time>2022-05-24T13:19:22Z</time>
      </trkpt>
      <trkpt lat="46.19979" lon="5.44547">
        <ele>333.2</ele>
        <time>2022-05-24T13:19:24Z</time>
      </trkpt>
      <trkpt lat="46.2003" lon="5.44578">
        <ele>333.2</ele>
        <time>2022-05-24T13:19:30Z</time>
      </trkpt>
      <trkpt lat="46.20038" lon="5.44584">
        <ele>333.2</ele>
        <time>2022-05-24T13:19:31Z</time>
      </trkpt>
      <trkpt lat="46.20083" lon="5.4461">
        <ele>334.4</ele>
        <time>2022-05-24T13:19:36Z</time>
      </trkpt>
      <trkpt lat="46.20108" lon="5.44624">
        <ele>334.6</ele>
        <time>2022-05-24T13:19:39Z</time>
      </trkpt>
      <trkpt lat="46.20163" lon="5.44652">
        <ele>333.6</ele>
        <time>2022-05-24T13:19:45Z</time>
      </trkpt>
      <trkpt lat="46.20172" lon="5.44656">
        <ele>333.4</ele>
        <time>2022-05-24T13:19:46Z</time>
      </trkpt>
      <trkpt lat="46.2019" lon="5.44665">
        <ele>333.4</ele>
        <time>2022-05-24T13:19:48Z</time>
      </trkpt>
      <trkpt lat="46.20243" lon="5.44692">
        <ele>333.2</ele>
        <time>2022-05-24T13:19:54Z</time>
      </trkpt>
      <trkpt lat="46.20265" lon="5.44705">
        <ele>333.6</ele>
        <time>2022-05-24T13:19:57Z</time>
      </trkpt>
      <trkpt lat="46.20283" lon="5.44708">
        <ele>334</ele>
        <time>2022-05-24T13:19:59Z</time>
      </trkpt>
      <trkpt lat="46.20289" lon="5.44707">
        <ele>334.2</ele>
        <time>2022-05-24T13:20:00Z</time>
      </trkpt>
      <trkpt lat="46.20311" lon="5.44704">
        <ele>334.4</ele>
        <time>2022-05-24T13:20:03Z</time>
      </trkpt>
      <trkpt lat="46.20323" lon="5.44703">
        <ele>334.8</ele>
        <time>2022-05-24T13:20:05Z</time>
      </trkpt>
      <trkpt lat="46.20334" lon="5.44703">
        <ele>335.8</ele>
        <time>2022-05-24T13:20:07Z</time>
      </trkpt>
      <trkpt lat="46.20346" lon="5.44703">
        <ele>337.2</ele>
        <time>2022-05-24T13:20:09Z</time>
      </trkpt>
      <trkpt lat="46.2036" lon="5.44704">
        <ele>338.4</ele>
        <time>2022-05-24T13:20:11Z</time>
      </trkpt>
      <trkpt lat="46.20376" lon="5.44706">
        <ele>339.6</ele>
        <time>2022-05-24T13:20:13Z</time>
      </trkpt>
      <trkpt lat="46.20392" lon="5.4471">
        <ele>340.6</ele>
        <time>2022-05-24T13:20:16Z</time>
      </trkpt>
      <trkpt lat="46.20411" lon="5.44717">
        <ele>341.6</ele>
        <time>2022-05-24T13:20:19Z</time>
      </trkpt>
      <trkpt lat="46.20418" lon="5.4472">
        <ele>342</ele>
        <time>2022-05-24T13:20:20Z</time>
      </trkpt>
      <trkpt lat="46.20465" lon="5.44735">
        <ele>342.8</ele>
        <time>2022-05-24T13:20:27Z</time>
      </trkpt>
      <trkpt lat="46.20485" lon="5.4474">
        <ele>342.8</ele>
        <time>2022-05-24T13:20:30Z</time>
      </trkpt>
      <trkpt lat="46.20512" lon="5.44744">
        <ele>343.2</ele>
        <time>2022-05-24T13:20:35Z</time>
      </trkpt>
      <trkpt lat="46.20525" lon="5.44747">
        <ele>343.4</ele>
        <time>2022-05-24T13:20:38Z</time>
      </trkpt>
      <trkpt lat="46.20533" lon="5.44754">
        <ele>343.4</ele>
        <time>2022-05-24T13:20:40Z</time>
      </trkpt>
      <trkpt lat="46.20535" lon="5.44768">
        <ele>343.2</ele>
        <time>2022-05-24T13:20:42Z</time>
      </trkpt>
      <trkpt lat="46.20533" lon="5.44776">
        <ele>343.4</ele>
        <time>2022-05-24T13:20:43Z</time>
      </trkpt>
      <trkpt lat="46.20523" lon="5.4483">
        <ele>343.6</ele>
        <time>2022-05-24T13:20:48Z</time>
      </trkpt>
      <trkpt lat="46.20514" lon="5.44897">
        <ele>343.8</ele>
        <time>2022-05-24T13:20:54Z</time>
      </trkpt>
      <trkpt lat="46.20512" lon="5.4491">
        <ele>343.8</ele>
        <time>2022-05-24T13:20:55Z</time>
      </trkpt>
      <trkpt lat="46.20504" lon="5.44998">
        <ele>343.6</ele>
        <time>2022-05-24T13:21:03Z</time>
      </trkpt>
      <trkpt lat="46.20503" lon="5.45012">
        <ele>343.4</ele>
        <time>2022-05-24T13:21:04Z</time>
      </trkpt>
      <trkpt lat="46.20495" lon="5.45097">
        <ele>342.6</ele>
        <time>2022-05-24T13:21:11Z</time>
      </trkpt>
      <trkpt lat="46.20494" lon="5.45131">
        <ele>341.8</ele>
        <time>2022-05-24T13:21:13Z</time>
      </trkpt>
      <trkpt lat="46.20495" lon="5.45152">
        <ele>341.4</ele>
        <time>2022-05-24T13:21:15Z</time>
      </trkpt>
      <trkpt lat="46.20496" lon="5.45163">
        <ele>341.2</ele>
        <time>2022-05-24T13:21:16Z</time>
      </trkpt>
      <trkpt lat="46.205" lon="5.45192">
        <ele>340.8</ele>
        <time>2022-05-24T13:21:18Z</time>
      </trkpt>
      <trkpt lat="46.20507" lon="5.4523">
        <ele>339.4</ele>
        <time>2022-05-24T13:21:21Z</time>
      </trkpt>
      <trkpt lat="46.20509" lon="5.45239">
        <ele>339.4</ele>
        <time>2022-05-24T13:21:22Z</time>
      </trkpt>
      <trkpt lat="46.20517" lon="5.45262">
        <ele>338.8</ele>
        <time>2022-05-24T13:21:24Z</time>
      </trkpt>
      <trkpt lat="46.20528" lon="5.45285">
        <ele>338.6</ele>
        <time>2022-05-24T13:21:26Z</time>
      </trkpt>
      <trkpt lat="46.20538" lon="5.45303">
        <ele>338.4</ele>
        <time>2022-05-24T13:21:28Z</time>
      </trkpt>
      <trkpt lat="46.20544" lon="5.45312">
        <ele>338.2</ele>
        <time>2022-05-24T13:21:29Z</time>
      </trkpt>
      <trkpt lat="46.20552" lon="5.45319">
        <ele>337.8</ele>
        <time>2022-05-24T13:21:30Z</time>
      </trkpt>
      <trkpt lat="46.20571" lon="5.45324">
        <ele>337.4</ele>
        <time>2022-05-24T13:21:32Z</time>
      </trkpt>
      <trkpt lat="46.20578" lon="5.45319">
        <ele>337.2</ele>
        <time>2022-05-24T13:21:33Z</time>
      </trkpt>
      <trkpt lat="46.20586" lon="5.45312">
        <ele>336.8</ele>
        <time>2022-05-24T13:21:34Z</time>
      </trkpt>
      <trkpt lat="46.20602" lon="5.45291">
        <ele>336.6</ele>
        <time>2022-05-24T13:21:36Z</time>
      </trkpt>
      <trkpt lat="46.20609" lon="5.45277">
        <ele>335.6</ele>
        <time>2022-05-24T13:21:37Z</time>
      </trkpt>
      <trkpt lat="46.20621" lon="5.45248">
        <ele>333.4</ele>
        <time>2022-05-24T13:21:39Z</time>
      </trkpt>
      <trkpt lat="46.20632" lon="5.45217">
        <ele>332.2</ele>
        <time>2022-05-24T13:21:41Z</time>
      </trkpt>
      <trkpt lat="46.20647" lon="5.45166">
        <ele>330.6</ele>
        <time>2022-05-24T13:21:44Z</time>
      </trkpt>
      <trkpt lat="46.20652" lon="5.45149">
        <ele>330.2</ele>
        <time>2022-05-24T13:21:45Z</time>
      </trkpt>
      <trkpt lat="46.20657" lon="5.45132">
        <ele>329.2</ele>
        <time>2022-05-24T13:21:46Z</time>
      </trkpt>
      <trkpt lat="46.20669" lon="5.451">
        <ele>328</ele>
        <time>2022-05-24T13:21:48Z</time>
      </trkpt>
      <trkpt lat="46.20684" lon="5.45068">
        <ele>326.6</ele>
        <time>2022-05-24T13:21:50Z</time>
      </trkpt>
      <trkpt lat="46.20712" lon="5.45031">
        <ele>324.8</ele>
        <time>2022-05-24T13:21:53Z</time>
      </trkpt>
      <trkpt lat="46.20722" lon="5.45021">
        <ele>324.6</ele>
        <time>2022-05-24T13:21:54Z</time>
      </trkpt>
      <trkpt lat="46.20742" lon="5.45004">
        <ele>323</ele>
        <time>2022-05-24T13:21:56Z</time>
      </trkpt>
      <trkpt lat="46.20765" lon="5.44984">
        <ele>321</ele>
        <time>2022-05-24T13:21:58Z</time>
      </trkpt>
      <trkpt lat="46.20788" lon="5.44964">
        <ele>319.2</ele>
        <time>2022-05-24T13:22:00Z</time>
      </trkpt>
      <trkpt lat="46.20801" lon="5.44952">
        <ele>318.6</ele>
        <time>2022-05-24T13:22:01Z</time>
      </trkpt>
      <trkpt lat="46.20811" lon="5.44941">
        <ele>317.8</ele>
        <time>2022-05-24T13:22:02Z</time>
      </trkpt>
      <trkpt lat="46.20822" lon="5.44929">
        <ele>316.4</ele>
        <time>2022-05-24T13:22:03Z</time>
      </trkpt>
      <trkpt lat="46.20831" lon="5.44919">
        <ele>315.4</ele>
        <time>2022-05-24T13:22:04Z</time>
      </trkpt>
      <trkpt lat="46.20844" lon="5.44907">
        <ele>313.4</ele>
        <time>2022-05-24T13:22:05Z</time>
      </trkpt>
      <trkpt lat="46.20856" lon="5.44897">
        <ele>312.8</ele>
        <time>2022-05-24T13:22:06Z</time>
      </trkpt>
      <trkpt lat="46.20868" lon="5.44889">
        <ele>311.8</ele>
        <time>2022-05-24T13:22:07Z</time>
      </trkpt>
      <trkpt lat="46.20889" lon="5.44876">
        <ele>310.2</ele>
        <time>2022-05-24T13:22:09Z</time>
      </trkpt>
      <trkpt lat="46.20904" lon="5.44869">
        <ele>309.8</ele>
        <time>2022-05-24T13:22:10Z</time>
      </trkpt>
      <trkpt lat="46.20916" lon="5.44863">
        <ele>308.8</ele>
        <time>2022-05-24T13:22:11Z</time>
      </trkpt>
      <trkpt lat="46.20929" lon="5.44857">
        <ele>307.6</ele>
        <time>2022-05-24T13:22:12Z</time>
      </trkpt>
      <trkpt lat="46.20955" lon="5.44846">
        <ele>306.2</ele>
        <time>2022-05-24T13:22:14Z</time>
      </trkpt>
      <trkpt lat="46.2098" lon="5.44835">
        <ele>304.2</ele>
        <time>2022-05-24T13:22:16Z</time>
      </trkpt>
      <trkpt lat="46.21004" lon="5.44827">
        <ele>302.8</ele>
        <time>2022-05-24T13:22:18Z</time>
      </trkpt>
      <trkpt lat="46.21019" lon="5.44822">
        <ele>301.2</ele>
        <time>2022-05-24T13:22:19Z</time>
      </trkpt>
      <trkpt lat="46.21032" lon="5.44818">
        <ele>300</ele>
        <time>2022-05-24T13:22:20Z</time>
      </trkpt>
      <trkpt lat="46.21045" lon="5.44815">
        <ele>298.8</ele>
        <time>2022-05-24T13:22:21Z</time>
      </trkpt>
      <trkpt lat="46.2107" lon="5.44811">
        <ele>297.4</ele>
        <time>2022-05-24T13:22:23Z</time>
      </trkpt>
      <trkpt lat="46.21094" lon="5.4481">
        <ele>296</ele>
        <time>2022-05-24T13:22:25Z</time>
      </trkpt>
      <trkpt lat="46.21129" lon="5.44808">
        <ele>294.8</ele>
        <time>2022-05-24T13:22:28Z</time>
      </trkpt>
      <trkpt lat="46.2114" lon="5.44809">
        <ele>294.6</ele>
        <time>2022-05-24T13:22:29Z</time>
      </trkpt>
      <trkpt lat="46.21194" lon="5.44815">
        <ele>294.2</ele>
        <time>2022-05-24T13:22:34Z</time>
      </trkpt>
      <trkpt lat="46.21214" lon="5.44817">
        <ele>294.2</ele>
        <time>2022-05-24T13:22:36Z</time>
      </trkpt>
      <trkpt lat="46.21271" lon="5.44825">
        <ele>294.2</ele>
        <time>2022-05-24T13:22:42Z</time>
      </trkpt>
      <trkpt lat="46.21308" lon="5.44833">
        <ele>294.4</ele>
        <time>2022-05-24T13:22:46Z</time>
      </trkpt>
      <trkpt lat="46.21325" lon="5.4484">
        <ele>294.6</ele>
        <time>2022-05-24T13:22:48Z</time>
      </trkpt>
      <trkpt lat="46.21368" lon="5.44857">
        <ele>294.6</ele>
        <time>2022-05-24T13:22:53Z</time>
      </trkpt>
      <trkpt lat="46.21427" lon="5.4488">
        <ele>295</ele>
        <time>2022-05-24T13:23:00Z</time>
      </trkpt>
      <trkpt lat="46.21468" lon="5.449">
        <ele>295</ele>
        <time>2022-05-24T13:23:05Z</time>
      </trkpt>
      <trkpt lat="46.21483" lon="5.4491">
        <ele>295</ele>
        <time>2022-05-24T13:23:07Z</time>
      </trkpt>
      <trkpt lat="46.21516" lon="5.44942">
        <ele>295.2</ele>
        <time>2022-05-24T13:23:12Z</time>
      </trkpt>
      <trkpt lat="46.21558" lon="5.44989">
        <ele>295.4</ele>
        <time>2022-05-24T13:23:18Z</time>
      </trkpt>
      <trkpt lat="46.2157" lon="5.44999">
        <ele>295.8</ele>
        <time>2022-05-24T13:23:20Z</time>
      </trkpt>
      <trkpt lat="46.21587" lon="5.45009">
        <ele>296.6</ele>
        <time>2022-05-24T13:23:23Z</time>
      </trkpt>
      <trkpt lat="46.21592" lon="5.45014">
        <ele>296.8</ele>
        <time>2022-05-24T13:23:24Z</time>
      </trkpt>
      <trkpt lat="46.21599" lon="5.45025">
        <ele>297.4</ele>
        <time>2022-05-24T13:23:26Z</time>
      </trkpt>
      <trkpt lat="46.21602" lon="5.45032">
        <ele>298</ele>
        <time>2022-05-24T13:23:27Z</time>
      </trkpt>
      <trkpt lat="46.21604" lon="5.45044">
        <ele>299</ele>
        <time>2022-05-24T13:23:29Z</time>
      </trkpt>
      <trkpt lat="46.21605" lon="5.45047">
        <ele>299.4</ele>
        <time>2022-05-24T13:23:30Z</time>
      </trkpt>
      <trkpt lat="46.21603" lon="5.45061">
        <ele>299.8</ele>
        <time>2022-05-24T13:23:32Z</time>
      </trkpt>
      <trkpt lat="46.21599" lon="5.45069">
        <ele>300.2</ele>
        <time>2022-05-24T13:23:33Z</time>
      </trkpt>
      <trkpt lat="46.21574" lon="5.4511">
        <ele>301</ele>
        <time>2022-05-24T13:23:39Z</time>
      </trkpt>
      <trkpt lat="46.2157" lon="5.45117">
        <ele>301.2</ele>
        <time>2022-05-24T13:23:40Z</time>
      </trkpt>
      <trkpt lat="46.21541" lon="5.4516">
        <ele>301.2</ele>
        <time>2022-05-24T13:23:46Z</time>
      </trkpt>
      <trkpt lat="46.21529" lon="5.45177">
        <ele>301.2</ele>
        <time>2022-05-24T13:23:49Z</time>
      </trkpt>
      <trkpt lat="46.21515" lon="5.45185">
        <ele>301.2</ele>
        <time>2022-05-24T13:23:51Z</time>
      </trkpt>
      <trkpt lat="46.21504" lon="5.45181">
        <ele>301</ele>
        <time>2022-05-24T13:23:53Z</time>
      </trkpt>
      <trkpt lat="46.21474" lon="5.45159">
        <ele>301.4</ele>
        <time>2022-05-24T13:23:59Z</time>
      </trkpt>
      <trkpt lat="46.21463" lon="5.45152">
        <ele>302.4</ele>
        <time>2022-05-24T13:24:02Z</time>
      </trkpt>
      <trkpt lat="46.21451" lon="5.45145">
        <ele>303.4</ele>
        <time>2022-05-24T13:24:05Z</time>
      </trkpt>
      <trkpt lat="46.21435" lon="5.45138">
        <ele>304.4</ele>
        <time>2022-05-24T13:24:09Z</time>
      </trkpt>
      <trkpt lat="46.21421" lon="5.45134">
        <ele>305.6</ele>
        <time>2022-05-24T13:24:12Z</time>
      </trkpt>
      <trkpt lat="46.21417" lon="5.45134">
        <ele>305.8</ele>
        <time>2022-05-24T13:24:13Z</time>
      </trkpt>
      <trkpt lat="46.21403" lon="5.4513">
        <ele>306.8</ele>
        <time>2022-05-24T13:24:17Z</time>
      </trkpt>
      <trkpt lat="46.21387" lon="5.45126">
        <ele>308</ele>
        <time>2022-05-24T13:24:21Z</time>
      </trkpt>
      <trkpt lat="46.21363" lon="5.45122">
        <ele>309</ele>
        <time>2022-05-24T13:24:27Z</time>
      </trkpt>
      <trkpt lat="46.21347" lon="5.45119">
        <ele>310.4</ele>
        <time>2022-05-24T13:24:31Z</time>
      </trkpt>
      <trkpt lat="46.21325" lon="5.45126">
        <ele>311.6</ele>
        <time>2022-05-24T13:24:37Z</time>
      </trkpt>
      <trkpt lat="46.21324" lon="5.4513">
        <ele>311.8</ele>
        <time>2022-05-24T13:24:38Z</time>
      </trkpt>
      <trkpt lat="46.21325" lon="5.45138">
        <ele>312.4</ele>
        <time>2022-05-24T13:24:40Z</time>
      </trkpt>
      <trkpt lat="46.21328" lon="5.45142">
        <ele>312.6</ele>
        <time>2022-05-24T13:24:41Z</time>
      </trkpt>
      <trkpt lat="46.21335" lon="5.45144">
        <ele>313.4</ele>
        <time>2022-05-24T13:24:43Z</time>
      </trkpt>
      <trkpt lat="46.21338" lon="5.45145">
        <ele>313.8</ele>
        <time>2022-05-24T13:24:44Z</time>
      </trkpt>
      <trkpt lat="46.21348" lon="5.45147">
        <ele>315.4</ele>
        <time>2022-05-24T13:24:47Z</time>
      </trkpt>
      <trkpt lat="46.21355" lon="5.45148">
        <ele>316</ele>
        <time>2022-05-24T13:24:49Z</time>
      </trkpt>
      <trkpt lat="46.21363" lon="5.4515">
        <ele>316.4</ele>
        <time>2022-05-24T13:24:51Z</time>
      </trkpt>
      <trkpt lat="46.21382" lon="5.45155">
        <ele>317</ele>
        <time>2022-05-24T13:24:56Z</time>
      </trkpt>
      <trkpt lat="46.21387" lon="5.45156">
        <ele>317.2</ele>
        <time>2022-05-24T13:24:57Z</time>
      </trkpt>
      <trkpt lat="46.21402" lon="5.45163">
        <ele>318</ele>
        <time>2022-05-24T13:25:01Z</time>
      </trkpt>
      <trkpt lat="46.21413" lon="5.4517">
        <ele>318.8</ele>
        <time>2022-05-24T13:25:04Z</time>
      </trkpt>
      <trkpt lat="46.21416" lon="5.45172">
        <ele>319.2</ele>
        <time>2022-05-24T13:25:05Z</time>
      </trkpt>
      <trkpt lat="46.21435" lon="5.45184">
        <ele>320.2</ele>
        <time>2022-05-24T13:25:10Z</time>
      </trkpt>
      <trkpt lat="46.21443" lon="5.45189">
        <ele>320.6</ele>
        <time>2022-05-24T13:25:12Z</time>
      </trkpt>
      <trkpt lat="46.21454" lon="5.45196">
        <ele>321.4</ele>
        <time>2022-05-24T13:25:15Z</time>
      </trkpt>
      <trkpt lat="46.21475" lon="5.45208">
        <ele>322.4</ele>
        <time>2022-05-24T13:25:21Z</time>
      </trkpt>
      <trkpt lat="46.21478" lon="5.45211">
        <ele>322.4</ele>
        <time>2022-05-24T13:25:22Z</time>
      </trkpt>
      <trkpt lat="46.21495" lon="5.45232">
        <ele>323</ele>
        <time>2022-05-24T13:25:27Z</time>
      </trkpt>
      <trkpt lat="46.21499" lon="5.45244">
        <ele>323.2</ele>
        <time>2022-05-24T13:25:29Z</time>
      </trkpt>
      <trkpt lat="46.21501" lon="5.45261">
        <ele>323.2</ele>
        <time>2022-05-24T13:25:31Z</time>
      </trkpt>
      <trkpt lat="46.2151" lon="5.4532">
        <ele>323</ele>
        <time>2022-05-24T13:25:38Z</time>
      </trkpt>
      <trkpt lat="46.21513" lon="5.45379">
        <ele>322.8</ele>
        <time>2022-05-24T13:25:44Z</time>
      </trkpt>
      <trkpt lat="46.21513" lon="5.45408">
        <ele>322</ele>
        <time>2022-05-24T13:25:47Z</time>
      </trkpt>
      <trkpt lat="46.21512" lon="5.4543">
        <ele>321.6</ele>
        <time>2022-05-24T13:25:49Z</time>
      </trkpt>
      <trkpt lat="46.21511" lon="5.45448">
        <ele>321.4</ele>
        <time>2022-05-24T13:25:50Z</time>
      </trkpt>
      <trkpt lat="46.21507" lon="5.45503">
        <ele>320.4</ele>
        <time>2022-05-24T13:25:55Z</time>
      </trkpt>
      <trkpt lat="46.21507" lon="5.45513">
        <ele>320.2</ele>
        <time>2022-05-24T13:25:56Z</time>
      </trkpt>
      <trkpt lat="46.21503" lon="5.45553">
        <ele>319.4</ele>
        <time>2022-05-24T13:25:59Z</time>
      </trkpt>
      <trkpt lat="46.21496" lon="5.45589">
        <ele>318.8</ele>
        <time>2022-05-24T13:26:02Z</time>
      </trkpt>
      <trkpt lat="46.21493" lon="5.45602">
        <ele>318.2</ele>
        <time>2022-05-24T13:26:03Z</time>
      </trkpt>
      <trkpt lat="46.21486" lon="5.45646">
        <ele>316.6</ele>
        <time>2022-05-24T13:26:06Z</time>
      </trkpt>
      <trkpt lat="46.21484" lon="5.4566">
        <ele>316.4</ele>
        <time>2022-05-24T13:26:07Z</time>
      </trkpt>
      <trkpt lat="46.21478" lon="5.45701">
        <ele>315</ele>
        <time>2022-05-24T13:26:10Z</time>
      </trkpt>
      <trkpt lat="46.21472" lon="5.45744">
        <ele>313.6</ele>
        <time>2022-05-24T13:26:13Z</time>
      </trkpt>
      <trkpt lat="46.2147" lon="5.45759">
        <ele>313.2</ele>
        <time>2022-05-24T13:26:14Z</time>
      </trkpt>
      <trkpt lat="46.21466" lon="5.45775">
        <ele>312.4</ele>
        <time>2022-05-24T13:26:15Z</time>
      </trkpt>
      <trkpt lat="46.21457" lon="5.45802">
        <ele>311.8</ele>
        <time>2022-05-24T13:26:17Z</time>
      </trkpt>
      <trkpt lat="46.21447" lon="5.45827">
        <ele>311.2</ele>
        <time>2022-05-24T13:26:19Z</time>
      </trkpt>
      <trkpt lat="46.2143" lon="5.45865">
        <ele>310</ele>
        <time>2022-05-24T13:26:22Z</time>
      </trkpt>
      <trkpt lat="46.21418" lon="5.45889">
        <ele>309.2</ele>
        <time>2022-05-24T13:26:24Z</time>
      </trkpt>
      <trkpt lat="46.2141" lon="5.45901">
        <ele>308.8</ele>
        <time>2022-05-24T13:26:25Z</time>
      </trkpt>
      <trkpt lat="46.21402" lon="5.45911">
        <ele>308</ele>
        <time>2022-05-24T13:26:26Z</time>
      </trkpt>
      <trkpt lat="46.21394" lon="5.4592">
        <ele>307.2</ele>
        <time>2022-05-24T13:26:27Z</time>
      </trkpt>
      <trkpt lat="46.21385" lon="5.45929">
        <ele>307</ele>
        <time>2022-05-24T13:26:28Z</time>
      </trkpt>
      <trkpt lat="46.21357" lon="5.45955">
        <ele>305.2</ele>
        <time>2022-05-24T13:26:31Z</time>
      </trkpt>
      <trkpt lat="46.21337" lon="5.45972">
        <ele>304</ele>
        <time>2022-05-24T13:26:33Z</time>
      </trkpt>
      <trkpt lat="46.21307" lon="5.45997">
        <ele>302.8</ele>
        <time>2022-05-24T13:26:36Z</time>
      </trkpt>
      <trkpt lat="46.21286" lon="5.46012">
        <ele>301</ele>
        <time>2022-05-24T13:26:38Z</time>
      </trkpt>
      <trkpt lat="46.21275" lon="5.46017">
        <ele>300.6</ele>
        <time>2022-05-24T13:26:39Z</time>
      </trkpt>
      <trkpt lat="46.21265" lon="5.46022">
        <ele>299.8</ele>
        <time>2022-05-24T13:26:40Z</time>
      </trkpt>
      <trkpt lat="46.21253" lon="5.46024">
        <ele>299.4</ele>
        <time>2022-05-24T13:26:41Z</time>
      </trkpt>
      <trkpt lat="46.21232" lon="5.4603">
        <ele>298.8</ele>
        <time>2022-05-24T13:26:43Z</time>
      </trkpt>
      <trkpt lat="46.21203" lon="5.46042">
        <ele>298.6</ele>
        <time>2022-05-24T13:26:46Z</time>
      </trkpt>
      <trkpt lat="46.21172" lon="5.46065">
        <ele>299</ele>
        <time>2022-05-24T13:26:50Z</time>
      </trkpt>
      <trkpt lat="46.21153" lon="5.46087">
        <ele>299.8</ele>
        <time>2022-05-24T13:26:53Z</time>
      </trkpt>
      <trkpt lat="46.21141" lon="5.46101">
        <ele>300.2</ele>
        <time>2022-05-24T13:26:55Z</time>
      </trkpt>
      <trkpt lat="46.21135" lon="5.46107">
        <ele>300.4</ele>
        <time>2022-05-24T13:26:56Z</time>
      </trkpt>
      <trkpt lat="46.21124" lon="5.46122">
        <ele>301</ele>
        <time>2022-05-24T13:26:58Z</time>
      </trkpt>
      <trkpt lat="46.21119" lon="5.46128">
        <ele>301</ele>
        <time>2022-05-24T13:26:59Z</time>
      </trkpt>
      <trkpt lat="46.21109" lon="5.46141">
        <ele>301.4</ele>
        <time>2022-05-24T13:27:01Z</time>
      </trkpt>
      <trkpt lat="46.21097" lon="5.46163">
        <ele>302</ele>
        <time>2022-05-24T13:27:04Z</time>
      </trkpt>
      <trkpt lat="46.21071" lon="5.46213">
        <ele>302.8</ele>
        <time>2022-05-24T13:27:11Z</time>
      </trkpt>
      <trkpt lat="46.21067" lon="5.46221">
        <ele>303</ele>
        <time>2022-05-24T13:27:12Z</time>
      </trkpt>
      <trkpt lat="46.21051" lon="5.46253">
        <ele>304</ele>
        <time>2022-05-24T13:27:17Z</time>
      </trkpt>
      <trkpt lat="46.21042" lon="5.46273">
        <ele>304.6</ele>
        <time>2022-05-24T13:27:20Z</time>
      </trkpt>
      <trkpt lat="46.21026" lon="5.46308">
        <ele>305.2</ele>
        <time>2022-05-24T13:27:25Z</time>
      </trkpt>
      <trkpt lat="46.21018" lon="5.46329">
        <ele>305.6</ele>
        <time>2022-05-24T13:27:28Z</time>
      </trkpt>
      <trkpt lat="46.21012" lon="5.46351">
        <ele>305.8</ele>
        <time>2022-05-24T13:27:31Z</time>
      </trkpt>
      <trkpt lat="46.21008" lon="5.46366">
        <ele>306.2</ele>
        <time>2022-05-24T13:27:33Z</time>
      </trkpt>
      <trkpt lat="46.21002" lon="5.46397">
        <ele>307</ele>
        <time>2022-05-24T13:27:37Z</time>
      </trkpt>
      <trkpt lat="46.21" lon="5.46412">
        <ele>307.4</ele>
        <time>2022-05-24T13:27:39Z</time>
      </trkpt>
      <trkpt lat="46.20998" lon="5.46441">
        <ele>308</ele>
        <time>2022-05-24T13:27:43Z</time>
      </trkpt>
      <trkpt lat="46.20998" lon="5.46448">
        <ele>308.2</ele>
        <time>2022-05-24T13:27:44Z</time>
      </trkpt>
      <trkpt lat="46.20997" lon="5.46455">
        <ele>308.4</ele>
        <time>2022-05-24T13:27:45Z</time>
      </trkpt>
      <trkpt lat="46.20995" lon="5.4647">
        <ele>308.8</ele>
        <time>2022-05-24T13:27:47Z</time>
      </trkpt>
      <trkpt lat="46.20994" lon="5.46478">
        <ele>309</ele>
        <time>2022-05-24T13:27:48Z</time>
      </trkpt>
      <trkpt lat="46.20986" lon="5.46536">
        <ele>309.4</ele>
        <time>2022-05-24T13:27:55Z</time>
      </trkpt>
      <trkpt lat="46.20985" lon="5.46553">
        <ele>309.6</ele>
        <time>2022-05-24T13:27:57Z</time>
      </trkpt>
      <trkpt lat="46.20985" lon="5.46569">
        <ele>309.8</ele>
        <time>2022-05-24T13:27:59Z</time>
      </trkpt>
      <trkpt lat="46.20986" lon="5.46604">
        <ele>310.2</ele>
        <time>2022-05-24T13:28:03Z</time>
      </trkpt>
      <trkpt lat="46.20987" lon="5.46629">
        <ele>310.4</ele>
        <time>2022-05-24T13:28:06Z</time>
      </trkpt>
      <trkpt lat="46.20989" lon="5.46656">
        <ele>310.6</ele>
        <time>2022-05-24T13:28:09Z</time>
      </trkpt>
      <trkpt lat="46.20989" lon="5.46664">
        <ele>310.6</ele>
        <time>2022-05-24T13:28:10Z</time>
      </trkpt>
      <trkpt lat="46.2099" lon="5.46673">
        <ele>310.6</ele>
        <time>2022-05-24T13:28:11Z</time>
      </trkpt>
      <trkpt lat="46.20994" lon="5.46689">
        <ele>311.2</ele>
        <time>2022-05-24T13:28:13Z</time>
      </trkpt>
      <trkpt lat="46.20997" lon="5.46709">
        <ele>311.4</ele>
        <time>2022-05-24T13:28:15Z</time>
      </trkpt>
      <trkpt lat="46.20998" lon="5.46726">
        <ele>311.6</ele>
        <time>2022-05-24T13:28:17Z</time>
      </trkpt>
      <trkpt lat="46.20998" lon="5.46733">
        <ele>311.8</ele>
        <time>2022-05-24T13:28:18Z</time>
      </trkpt>
      <trkpt lat="46.20999" lon="5.46775">
        <ele>312</ele>
        <time>2022-05-24T13:28:23Z</time>
      </trkpt>
      <trkpt lat="46.21002" lon="5.46792">
        <ele>312.2</ele>
        <time>2022-05-24T13:28:25Z</time>
      </trkpt>
      <trkpt lat="46.21005" lon="5.4681">
        <ele>312.6</ele>
        <time>2022-05-24T13:28:27Z</time>
      </trkpt>
      <trkpt lat="46.21006" lon="5.46829">
        <ele>313</ele>
        <time>2022-05-24T13:28:29Z</time>
      </trkpt>
      <trkpt lat="46.21008" lon="5.46838">
        <ele>313</ele>
        <time>2022-05-24T13:28:30Z</time>
      </trkpt>
      <trkpt lat="46.21021" lon="5.46909">
        <ele>312.8</ele>
        <time>2022-05-24T13:28:38Z</time>
      </trkpt>
      <trkpt lat="46.21034" lon="5.4696">
        <ele>313.4</ele>
        <time>2022-05-24T13:28:44Z</time>
      </trkpt>
      <trkpt lat="46.21044" lon="5.46993">
        <ele>313.8</ele>
        <time>2022-05-24T13:28:48Z</time>
      </trkpt>
      <trkpt lat="46.2105" lon="5.4701">
        <ele>314</ele>
        <time>2022-05-24T13:28:50Z</time>
      </trkpt>
      <trkpt lat="46.21059" lon="5.47044">
        <ele>313.8</ele>
        <time>2022-05-24T13:28:54Z</time>
      </trkpt>
      <trkpt lat="46.21064" lon="5.4706">
        <ele>313.8</ele>
        <time>2022-05-24T13:28:56Z</time>
      </trkpt>
      <trkpt lat="46.21067" lon="5.47069">
        <ele>313.8</ele>
        <time>2022-05-24T13:28:57Z</time>
      </trkpt>
      <trkpt lat="46.21079" lon="5.47106">
        <ele>314.6</ele>
        <time>2022-05-24T13:29:02Z</time>
      </trkpt>
      <trkpt lat="46.21087" lon="5.47122">
        <ele>315</ele>
        <time>2022-05-24T13:29:04Z</time>
      </trkpt>
      <trkpt lat="46.21096" lon="5.47144">
        <ele>315.2</ele>
        <time>2022-05-24T13:29:07Z</time>
      </trkpt>
      <trkpt lat="46.21105" lon="5.4716">
        <ele>315.2</ele>
        <time>2022-05-24T13:29:09Z</time>
      </trkpt>
      <trkpt lat="46.21112" lon="5.47174">
        <ele>315.4</ele>
        <time>2022-05-24T13:29:11Z</time>
      </trkpt>
      <trkpt lat="46.21134" lon="5.47218">
        <ele>316</ele>
        <time>2022-05-24T13:29:18Z</time>
      </trkpt>
      <trkpt lat="46.21147" lon="5.47237">
        <ele>316.2</ele>
        <time>2022-05-24T13:29:21Z</time>
      </trkpt>
      <trkpt lat="46.21162" lon="5.47258">
        <ele>316.4</ele>
        <time>2022-05-24T13:29:24Z</time>
      </trkpt>
      <trkpt lat="46.21176" lon="5.47278">
        <ele>316.6</ele>
        <time>2022-05-24T13:29:27Z</time>
      </trkpt>
      <trkpt lat="46.21186" lon="5.47292">
        <ele>317</ele>
        <time>2022-05-24T13:29:29Z</time>
      </trkpt>
      <trkpt lat="46.21213" lon="5.47323">
        <ele>317.4</ele>
        <time>2022-05-24T13:29:34Z</time>
      </trkpt>
      <trkpt lat="46.21252" lon="5.47357">
        <ele>317.2</ele>
        <time>2022-05-24T13:29:41Z</time>
      </trkpt>
      <trkpt lat="46.21273" lon="5.4738">
        <ele>317.2</ele>
        <time>2022-05-24T13:29:45Z</time>
      </trkpt>
      <trkpt lat="46.21282" lon="5.47392">
        <ele>317.4</ele>
        <time>2022-05-24T13:29:47Z</time>
      </trkpt>
      <trkpt lat="46.21295" lon="5.47413">
        <ele>317.8</ele>
        <time>2022-05-24T13:29:50Z</time>
      </trkpt>
      <trkpt lat="46.21303" lon="5.47428">
        <ele>318</ele>
        <time>2022-05-24T13:29:52Z</time>
      </trkpt>
      <trkpt lat="46.21308" lon="5.47436">
        <ele>318</ele>
        <time>2022-05-24T13:29:53Z</time>
      </trkpt>
      <trkpt lat="46.21317" lon="5.47451">
        <ele>318.2</ele>
        <time>2022-05-24T13:29:55Z</time>
      </trkpt>
      <trkpt lat="46.21327" lon="5.47461">
        <ele>318.2</ele>
        <time>2022-05-24T13:29:57Z</time>
      </trkpt>
      <trkpt lat="46.21356" lon="5.47477">
        <ele>318.6</ele>
        <time>2022-05-24T13:30:02Z</time>
      </trkpt>
      <trkpt lat="46.21384" lon="5.47492">
        <ele>318.8</ele>
        <time>2022-05-24T13:30:07Z</time>
      </trkpt>
      <trkpt lat="46.21422" lon="5.47517">
        <ele>319</ele>
        <time>2022-05-24T13:30:13Z</time>
      </trkpt>
      <trkpt lat="46.21428" lon="5.4752">
        <ele>319</ele>
        <time>2022-05-24T13:30:15Z</time>
      </trkpt>
      <trkpt lat="46.21473" lon="5.47534">
        <ele>319.8</ele>
        <time>2022-05-24T13:30:22Z</time>
      </trkpt>
      <trkpt lat="46.21522" lon="5.47544">
        <ele>319.8</ele>
        <time>2022-05-24T13:30:30Z</time>
      </trkpt>
      <trkpt lat="46.21557" lon="5.47564">
        <ele>320</ele>
        <time>2022-05-24T13:30:36Z</time>
      </trkpt>
      <trkpt lat="46.21563" lon="5.47568">
        <ele>320.2</ele>
        <time>2022-05-24T13:30:37Z</time>
      </trkpt>
      <trkpt lat="46.21585" lon="5.47582">
        <ele>321.2</ele>
        <time>2022-05-24T13:30:41Z</time>
      </trkpt>
      <trkpt lat="46.21618" lon="5.47608">
        <ele>321.8</ele>
        <time>2022-05-24T13:30:47Z</time>
      </trkpt>
      <trkpt lat="46.21634" lon="5.47622">
        <ele>322.2</ele>
        <time>2022-05-24T13:30:50Z</time>
      </trkpt>
      <trkpt lat="46.21666" lon="5.47651">
        <ele>322.2</ele>
        <time>2022-05-24T13:30:56Z</time>
      </trkpt>
      <trkpt lat="46.21714" lon="5.47695">
        <ele>322.8</ele>
        <time>2022-05-24T13:31:05Z</time>
      </trkpt>
      <trkpt lat="46.21731" lon="5.47709">
        <ele>322.8</ele>
        <time>2022-05-24T13:31:08Z</time>
      </trkpt>
      <trkpt lat="46.21736" lon="5.47714">
        <ele>322.8</ele>
        <time>2022-05-24T13:31:09Z</time>
      </trkpt>
      <trkpt lat="46.21747" lon="5.47725">
        <ele>322.8</ele>
        <time>2022-05-24T13:31:11Z</time>
      </trkpt>
      <trkpt lat="46.21796" lon="5.47769">
        <ele>322.2</ele>
        <time>2022-05-24T13:31:20Z</time>
      </trkpt>
      <trkpt lat="46.21813" lon="5.47785">
        <ele>322.2</ele>
        <time>2022-05-24T13:31:23Z</time>
      </trkpt>
      <trkpt lat="46.21864" lon="5.47831">
        <ele>323</ele>
        <time>2022-05-24T13:31:32Z</time>
      </trkpt>
      <trkpt lat="46.21869" lon="5.47836">
        <ele>323</ele>
        <time>2022-05-24T13:31:33Z</time>
      </trkpt>
      <trkpt lat="46.2188" lon="5.47846">
        <ele>323.2</ele>
        <time>2022-05-24T13:31:35Z</time>
      </trkpt>
      <trkpt lat="46.21886" lon="5.47851">
        <ele>323.2</ele>
        <time>2022-05-24T13:31:36Z</time>
      </trkpt>
      <trkpt lat="46.21891" lon="5.47857">
        <ele>323.4</ele>
        <time>2022-05-24T13:31:37Z</time>
      </trkpt>
      <trkpt lat="46.21896" lon="5.47861">
        <ele>323.4</ele>
        <time>2022-05-24T13:31:38Z</time>
      </trkpt>
      <trkpt lat="46.21935" lon="5.47902">
        <ele>323.8</ele>
        <time>2022-05-24T13:31:45Z</time>
      </trkpt>
      <trkpt lat="46.21978" lon="5.47951">
        <ele>324.2</ele>
        <time>2022-05-24T13:31:53Z</time>
      </trkpt>
      <trkpt lat="46.21989" lon="5.47963">
        <ele>324.4</ele>
        <time>2022-05-24T13:31:55Z</time>
      </trkpt>
      <trkpt lat="46.22032" lon="5.48014">
        <ele>324.4</ele>
        <time>2022-05-24T13:32:03Z</time>
      </trkpt>
      <trkpt lat="46.22073" lon="5.48077">
        <ele>324</ele>
        <time>2022-05-24T13:32:11Z</time>
      </trkpt>
      <trkpt lat="46.22113" lon="5.48141">
        <ele>324.6</ele>
        <time>2022-05-24T13:32:20Z</time>
      </trkpt>
      <trkpt lat="46.22135" lon="5.48176">
        <ele>325</ele>
        <time>2022-05-24T13:32:25Z</time>
      </trkpt>
      <trkpt lat="46.22139" lon="5.48183">
        <ele>325</ele>
        <time>2022-05-24T13:32:26Z</time>
      </trkpt>
      <trkpt lat="46.22156" lon="5.48211">
        <ele>325.2</ele>
        <time>2022-05-24T13:32:30Z</time>
      </trkpt>
      <trkpt lat="46.22182" lon="5.48246">
        <ele>325</ele>
        <time>2022-05-24T13:32:36Z</time>
      </trkpt>
      <trkpt lat="46.22217" lon="5.48286">
        <ele>324.4</ele>
        <time>2022-05-24T13:32:43Z</time>
      </trkpt>
      <trkpt lat="46.2225" lon="5.48323">
        <ele>325.6</ele>
        <time>2022-05-24T13:32:50Z</time>
      </trkpt>
      <trkpt lat="46.22277" lon="5.48345">
        <ele>325.6</ele>
        <time>2022-05-24T13:32:55Z</time>
      </trkpt>
      <trkpt lat="46.22315" lon="5.48375">
        <ele>326</ele>
        <time>2022-05-24T13:33:02Z</time>
      </trkpt>
      <trkpt lat="46.22351" lon="5.48398">
        <ele>326.2</ele>
        <time>2022-05-24T13:33:08Z</time>
      </trkpt>
      <trkpt lat="46.22384" lon="5.48421">
        <ele>327</ele>
        <time>2022-05-24T13:33:14Z</time>
      </trkpt>
      <trkpt lat="46.22397" lon="5.48432">
        <ele>327.4</ele>
        <time>2022-05-24T13:33:16Z</time>
      </trkpt>
      <trkpt lat="46.22414" lon="5.48444">
        <ele>327.6</ele>
        <time>2022-05-24T13:33:19Z</time>
      </trkpt>
      <trkpt lat="46.22454" lon="5.48473">
        <ele>327.6</ele>
        <time>2022-05-24T13:33:26Z</time>
      </trkpt>
      <trkpt lat="46.22475" lon="5.48487">
        <ele>328</ele>
        <time>2022-05-24T13:33:30Z</time>
      </trkpt>
      <trkpt lat="46.22492" lon="5.48496">
        <ele>328.6</ele>
        <time>2022-05-24T13:33:33Z</time>
      </trkpt>
      <trkpt lat="46.22514" lon="5.48507">
        <ele>329</ele>
        <time>2022-05-24T13:33:37Z</time>
      </trkpt>
      <trkpt lat="46.2253" lon="5.48514">
        <ele>329.8</ele>
        <time>2022-05-24T13:33:40Z</time>
      </trkpt>
      <trkpt lat="46.22547" lon="5.48522">
        <ele>330.2</ele>
        <time>2022-05-24T13:33:43Z</time>
      </trkpt>
      <trkpt lat="46.22585" lon="5.48539">
        <ele>330.8</ele>
        <time>2022-05-24T13:33:50Z</time>
      </trkpt>
      <trkpt lat="46.22601" lon="5.48546">
        <ele>331.2</ele>
        <time>2022-05-24T13:33:53Z</time>
      </trkpt>
      <trkpt lat="46.22629" lon="5.48556">
        <ele>331.8</ele>
        <time>2022-05-24T13:33:58Z</time>
      </trkpt>
      <trkpt lat="46.22663" lon="5.48565">
        <ele>332.4</ele>
        <time>2022-05-24T13:34:04Z</time>
      </trkpt>
      <trkpt lat="46.22669" lon="5.48567">
        <ele>332.6</ele>
        <time>2022-05-24T13:34:05Z</time>
      </trkpt>
      <trkpt lat="46.22717" lon="5.48581">
        <ele>333</ele>
        <time>2022-05-24T13:34:13Z</time>
      </trkpt>
      <trkpt lat="46.22722" lon="5.48582">
        <ele>333.4</ele>
        <time>2022-05-24T13:34:15Z</time>
      </trkpt>
      <trkpt lat="46.22758" lon="5.48598">
        <ele>334.2</ele>
        <time>2022-05-24T13:34:21Z</time>
      </trkpt>
      <trkpt lat="46.22769" lon="5.48604">
        <ele>334.6</ele>
        <time>2022-05-24T13:34:23Z</time>
      </trkpt>
      <trkpt lat="46.22797" lon="5.48618">
        <ele>334.4</ele>
        <time>2022-05-24T13:34:28Z</time>
      </trkpt>
      <trkpt lat="46.22845" lon="5.48645">
        <ele>335.4</ele>
        <time>2022-05-24T13:34:37Z</time>
      </trkpt>
      <trkpt lat="46.22871" lon="5.48659">
        <ele>335.6</ele>
        <time>2022-05-24T13:34:42Z</time>
      </trkpt>
      <trkpt lat="46.22895" lon="5.48675">
        <ele>336.4</ele>
        <time>2022-05-24T13:34:47Z</time>
      </trkpt>
      <trkpt lat="46.22907" lon="5.48684">
        <ele>336.6</ele>
        <time>2022-05-24T13:34:49Z</time>
      </trkpt>
      <trkpt lat="46.2294" lon="5.48715">
        <ele>337</ele>
        <time>2022-05-24T13:34:56Z</time>
      </trkpt>
      <trkpt lat="46.22964" lon="5.48739">
        <ele>337.6</ele>
        <time>2022-05-24T13:35:01Z</time>
      </trkpt>
      <trkpt lat="46.22988" lon="5.48762">
        <ele>338</ele>
        <time>2022-05-24T13:35:06Z</time>
      </trkpt>
      <trkpt lat="46.23016" lon="5.48788">
        <ele>338.6</ele>
        <time>2022-05-24T13:35:12Z</time>
      </trkpt>
      <trkpt lat="46.23026" lon="5.48798">
        <ele>338.6</ele>
        <time>2022-05-24T13:35:14Z</time>
      </trkpt>
      <trkpt lat="46.23035" lon="5.48807">
        <ele>338.8</ele>
        <time>2022-05-24T13:35:16Z</time>
      </trkpt>
      <trkpt lat="46.23079" lon="5.48843">
        <ele>339.4</ele>
        <time>2022-05-24T13:35:25Z</time>
      </trkpt>
      <trkpt lat="46.23092" lon="5.48856">
        <ele>339.8</ele>
        <time>2022-05-24T13:35:28Z</time>
      </trkpt>
      <trkpt lat="46.23116" lon="5.48879">
        <ele>340.4</ele>
        <time>2022-05-24T13:35:33Z</time>
      </trkpt>
      <trkpt lat="46.23135" lon="5.48897">
        <ele>340.8</ele>
        <time>2022-05-24T13:35:37Z</time>
      </trkpt>
      <trkpt lat="46.23154" lon="5.48917">
        <ele>341</ele>
        <time>2022-05-24T13:35:41Z</time>
      </trkpt>
      <trkpt lat="46.23176" lon="5.48946">
        <ele>341.2</ele>
        <time>2022-05-24T13:35:46Z</time>
      </trkpt>
      <trkpt lat="46.23186" lon="5.48958">
        <ele>341.4</ele>
        <time>2022-05-24T13:35:48Z</time>
      </trkpt>
      <trkpt lat="46.23192" lon="5.48965">
        <ele>341.6</ele>
        <time>2022-05-24T13:35:49Z</time>
      </trkpt>
      <trkpt lat="46.23202" lon="5.48977">
        <ele>341.6</ele>
        <time>2022-05-24T13:35:51Z</time>
      </trkpt>
      <trkpt lat="46.23217" lon="5.48996">
        <ele>341.8</ele>
        <time>2022-05-24T13:35:54Z</time>
      </trkpt>
      <trkpt lat="46.23242" lon="5.49023">
        <ele>343</ele>
        <time>2022-05-24T13:35:59Z</time>
      </trkpt>
      <trkpt lat="46.23247" lon="5.49028">
        <ele>343.2</ele>
        <time>2022-05-24T13:36:00Z</time>
      </trkpt>
      <trkpt lat="46.23284" lon="5.4905">
        <ele>344</ele>
        <time>2022-05-24T13:36:07Z</time>
      </trkpt>
      <trkpt lat="46.23289" lon="5.49053">
        <ele>344</ele>
        <time>2022-05-24T13:36:08Z</time>
      </trkpt>
      <trkpt lat="46.23318" lon="5.49075">
        <ele>344.4</ele>
        <time>2022-05-24T13:36:14Z</time>
      </trkpt>
      <trkpt lat="46.23328" lon="5.49084">
        <ele>344.6</ele>
        <time>2022-05-24T13:36:16Z</time>
      </trkpt>
      <trkpt lat="46.23364" lon="5.4912">
        <ele>345.2</ele>
        <time>2022-05-24T13:36:24Z</time>
      </trkpt>
      <trkpt lat="46.23396" lon="5.4915">
        <ele>345.4</ele>
        <time>2022-05-24T13:36:31Z</time>
      </trkpt>
      <trkpt lat="46.23434" lon="5.49184">
        <ele>345.8</ele>
        <time>2022-05-24T13:36:39Z</time>
      </trkpt>
      <trkpt lat="46.23454" lon="5.49198">
        <ele>346.4</ele>
        <time>2022-05-24T13:36:43Z</time>
      </trkpt>
      <trkpt lat="46.23469" lon="5.49208">
        <ele>346.6</ele>
        <time>2022-05-24T13:36:46Z</time>
      </trkpt>
      <trkpt lat="46.23474" lon="5.49212">
        <ele>346.8</ele>
        <time>2022-05-24T13:36:47Z</time>
      </trkpt>
      <trkpt lat="46.23507" lon="5.49241">
        <ele>347.6</ele>
        <time>2022-05-24T13:36:54Z</time>
      </trkpt>
      <trkpt lat="46.23513" lon="5.49247">
        <ele>347.6</ele>
        <time>2022-05-24T13:36:55Z</time>
      </trkpt>
      <trkpt lat="46.23518" lon="5.49251">
        <ele>347.8</ele>
        <time>2022-05-24T13:36:56Z</time>
      </trkpt>
      <trkpt lat="46.23543" lon="5.49272">
        <ele>348</ele>
        <time>2022-05-24T13:37:01Z</time>
      </trkpt>
      <trkpt lat="46.23548" lon="5.49276">
        <ele>348.2</ele>
        <time>2022-05-24T13:37:02Z</time>
      </trkpt>
      <trkpt lat="46.23558" lon="5.49283">
        <ele>348.4</ele>
        <time>2022-05-24T13:37:04Z</time>
      </trkpt>
      <trkpt lat="46.23562" lon="5.49286">
        <ele>348.6</ele>
        <time>2022-05-24T13:37:05Z</time>
      </trkpt>
      <trkpt lat="46.23567" lon="5.49291">
        <ele>348.8</ele>
        <time>2022-05-24T13:37:06Z</time>
      </trkpt>
      <trkpt lat="46.23578" lon="5.49301">
        <ele>348.8</ele>
        <time>2022-05-24T13:37:08Z</time>
      </trkpt>
      <trkpt lat="46.23593" lon="5.49323">
        <ele>349.4</ele>
        <time>2022-05-24T13:37:11Z</time>
      </trkpt>
      <trkpt lat="46.23599" lon="5.49333">
        <ele>349.8</ele>
        <time>2022-05-24T13:37:13Z</time>
      </trkpt>
      <trkpt lat="46.23614" lon="5.49362">
        <ele>350.4</ele>
        <time>2022-05-24T13:37:18Z</time>
      </trkpt>
      <trkpt lat="46.23622" lon="5.49374">
        <ele>350.8</ele>
        <time>2022-05-24T13:37:20Z</time>
      </trkpt>
      <trkpt lat="46.23645" lon="5.49407">
        <ele>351.8</ele>
        <time>2022-05-24T13:37:26Z</time>
      </trkpt>
      <trkpt lat="46.23671" lon="5.49452">
        <ele>352</ele>
        <time>2022-05-24T13:37:33Z</time>
      </trkpt>
      <trkpt lat="46.23676" lon="5.49458">
        <ele>352</ele>
        <time>2022-05-24T13:37:34Z</time>
      </trkpt>
      <trkpt lat="46.23715" lon="5.49515">
        <ele>352.6</ele>
        <time>2022-05-24T13:37:44Z</time>
      </trkpt>
      <trkpt lat="46.23733" lon="5.49546">
        <ele>353</ele>
        <time>2022-05-24T13:37:49Z</time>
      </trkpt>
      <trkpt lat="46.23747" lon="5.4957">
        <ele>353.4</ele>
        <time>2022-05-24T13:37:53Z</time>
      </trkpt>
      <trkpt lat="46.23772" lon="5.49618">
        <ele>354</ele>
        <time>2022-05-24T13:38:00Z</time>
      </trkpt>
      <trkpt lat="46.23775" lon="5.49625">
        <ele>354</ele>
        <time>2022-05-24T13:38:01Z</time>
      </trkpt>
      <trkpt lat="46.23783" lon="5.4964">
        <ele>354.2</ele>
        <time>2022-05-24T13:38:03Z</time>
      </trkpt>
      <trkpt lat="46.2379" lon="5.49655">
        <ele>354.4</ele>
        <time>2022-05-24T13:38:05Z</time>
      </trkpt>
      <trkpt lat="46.23808" lon="5.49691">
        <ele>354.8</ele>
        <time>2022-05-24T13:38:10Z</time>
      </trkpt>
      <trkpt lat="46.23812" lon="5.49699">
        <ele>354.8</ele>
        <time>2022-05-24T13:38:11Z</time>
      </trkpt>
      <trkpt lat="46.23839" lon="5.4975">
        <ele>354.6</ele>
        <time>2022-05-24T13:38:17Z</time>
      </trkpt>
      <trkpt lat="46.23875" lon="5.49817">
        <ele>353.8</ele>
        <time>2022-05-24T13:38:25Z</time>
      </trkpt>
      <trkpt lat="46.2388" lon="5.49825">
        <ele>353.8</ele>
        <time>2022-05-24T13:38:26Z</time>
      </trkpt>
      <trkpt lat="46.23894" lon="5.49856">
        <ele>353.8</ele>
        <time>2022-05-24T13:38:30Z</time>
      </trkpt>
      <trkpt lat="46.23896" lon="5.49862">
        <ele>354.2</ele>
        <time>2022-05-24T13:38:31Z</time>
      </trkpt>
      <trkpt lat="46.23912" lon="5.49895">
        <ele>354.6</ele>
        <time>2022-05-24T13:38:35Z</time>
      </trkpt>
      <trkpt lat="46.23923" lon="5.49912">
        <ele>354.6</ele>
        <time>2022-05-24T13:38:37Z</time>
      </trkpt>
      <trkpt lat="46.23953" lon="5.49965">
        <ele>353.8</ele>
        <time>2022-05-24T13:38:42Z</time>
      </trkpt>
      <trkpt lat="46.23958" lon="5.49976">
        <ele>353</ele>
        <time>2022-05-24T13:38:44Z</time>
      </trkpt>
      <trkpt lat="46.23963" lon="5.49987">
        <ele>351.4</ele>
        <time>2022-05-24T13:38:45Z</time>
      </trkpt>
      <trkpt lat="46.23968" lon="5.50002">
        <ele>351</ele>
        <time>2022-05-24T13:38:46Z</time>
      </trkpt>
      <trkpt lat="46.23971" lon="5.50013">
        <ele>350.4</ele>
        <time>2022-05-24T13:38:47Z</time>
      </trkpt>
      <trkpt lat="46.23974" lon="5.50032">
        <ele>349.8</ele>
        <time>2022-05-24T13:38:49Z</time>
      </trkpt>
      <trkpt lat="46.23978" lon="5.50068">
        <ele>349.4</ele>
        <time>2022-05-24T13:38:52Z</time>
      </trkpt>
      <trkpt lat="46.23985" lon="5.50146">
        <ele>349.8</ele>
        <time>2022-05-24T13:38:59Z</time>
      </trkpt>
      <trkpt lat="46.2399" lon="5.50191">
        <ele>350.2</ele>
        <time>2022-05-24T13:39:03Z</time>
      </trkpt>
      <trkpt lat="46.23997" lon="5.50278">
        <ele>350.4</ele>
        <time>2022-05-24T13:39:11Z</time>
      </trkpt>
      <trkpt lat="46.23999" lon="5.50299">
        <ele>350.8</ele>
        <time>2022-05-24T13:39:13Z</time>
      </trkpt>
      <trkpt lat="46.24005" lon="5.50381">
        <ele>350.8</ele>
        <time>2022-05-24T13:39:21Z</time>
      </trkpt>
      <trkpt lat="46.24006" lon="5.50391">
        <ele>350.8</ele>
        <time>2022-05-24T13:39:22Z</time>
      </trkpt>
      <trkpt lat="46.24013" lon="5.50469">
        <ele>351</ele>
        <time>2022-05-24T13:39:30Z</time>
      </trkpt>
      <trkpt lat="46.24014" lon="5.50479">
        <ele>351.2</ele>
        <time>2022-05-24T13:39:31Z</time>
      </trkpt>
      <trkpt lat="46.24018" lon="5.50546">
        <ele>351.4</ele>
        <time>2022-05-24T13:39:38Z</time>
      </trkpt>
      <trkpt lat="46.24019" lon="5.50565">
        <ele>351.6</ele>
        <time>2022-05-24T13:39:40Z</time>
      </trkpt>
      <trkpt lat="46.2402" lon="5.50574">
        <ele>351.6</ele>
        <time>2022-05-24T13:39:41Z</time>
      </trkpt>
      <trkpt lat="46.24021" lon="5.50584">
        <ele>351.8</ele>
        <time>2022-05-24T13:39:42Z</time>
      </trkpt>
      <trkpt lat="46.24025" lon="5.50621">
        <ele>352.2</ele>
        <time>2022-05-24T13:39:46Z</time>
      </trkpt>
      <trkpt lat="46.24028" lon="5.50629">
        <ele>352.2</ele>
        <time>2022-05-24T13:39:47Z</time>
      </trkpt>
      <trkpt lat="46.24034" lon="5.50635">
        <ele>352.2</ele>
        <time>2022-05-24T13:39:48Z</time>
      </trkpt>
      <trkpt lat="46.2404" lon="5.50639">
        <ele>352.2</ele>
        <time>2022-05-24T13:39:49Z</time>
      </trkpt>
      <trkpt lat="46.24046" lon="5.5064">
        <ele>352.4</ele>
        <time>2022-05-24T13:39:50Z</time>
      </trkpt>
      <trkpt lat="46.24052" lon="5.50636">
        <ele>352.4</ele>
        <time>2022-05-24T13:39:51Z</time>
      </trkpt>
      <trkpt lat="46.24057" lon="5.50631">
        <ele>352.4</ele>
        <time>2022-05-24T13:39:52Z</time>
      </trkpt>
      <trkpt lat="46.24066" lon="5.50616">
        <ele>352</ele>
        <time>2022-05-24T13:39:54Z</time>
      </trkpt>
      <trkpt lat="46.24091" lon="5.5057">
        <ele>351.8</ele>
        <time>2022-05-24T13:40:00Z</time>
      </trkpt>
      <trkpt lat="46.24102" lon="5.50558">
        <ele>351.8</ele>
        <time>2022-05-24T13:40:02Z</time>
      </trkpt>
      <trkpt lat="46.24115" lon="5.50551">
        <ele>351.8</ele>
        <time>2022-05-24T13:40:04Z</time>
      </trkpt>
      <trkpt lat="46.24122" lon="5.50551">
        <ele>351.8</ele>
        <time>2022-05-24T13:40:05Z</time>
      </trkpt>
      <trkpt lat="46.24157" lon="5.50555">
        <ele>351.4</ele>
        <time>2022-05-24T13:40:10Z</time>
      </trkpt>
      <trkpt lat="46.2417" lon="5.50551">
        <ele>351.6</ele>
        <time>2022-05-24T13:40:11Z</time>
      </trkpt>
      <trkpt lat="46.24173" lon="5.50547">
        <ele>351.6</ele>
        <time>2022-05-24T13:40:12Z</time>
      </trkpt>
      <trkpt lat="46.24179" lon="5.5054">
        <ele>351.6</ele>
        <time>2022-05-24T13:40:13Z</time>
      </trkpt>
      <trkpt lat="46.24183" lon="5.50533">
        <ele>351.6</ele>
        <time>2022-05-24T13:40:16Z</time>
      </trkpt>
      <trkpt lat="46.24188" lon="5.50522">
        <ele>351.6</ele>
        <time>2022-05-24T13:40:17Z</time>
      </trkpt>
      <trkpt lat="46.24208" lon="5.50481">
        <ele>352.2</ele>
        <time>2022-05-24T13:40:22Z</time>
      </trkpt>
      <trkpt lat="46.24213" lon="5.50474">
        <ele>352</ele>
        <time>2022-05-24T13:40:23Z</time>
      </trkpt>
      <trkpt lat="46.24246" lon="5.50439">
        <ele>351.8</ele>
        <time>2022-05-24T13:40:29Z</time>
      </trkpt>
      <trkpt lat="46.24282" lon="5.50418">
        <ele>351.8</ele>
        <time>2022-05-24T13:40:35Z</time>
      </trkpt>
      <trkpt lat="46.24288" lon="5.50417">
        <ele>351.8</ele>
        <time>2022-05-24T13:40:36Z</time>
      </trkpt>
      <trkpt lat="46.243" lon="5.50415">
        <ele>351.8</ele>
        <time>2022-05-24T13:40:38Z</time>
      </trkpt>
      <trkpt lat="46.2432" lon="5.50417">
        <ele>352</ele>
        <time>2022-05-24T13:40:41Z</time>
      </trkpt>
      <trkpt lat="46.24357" lon="5.50432">
        <ele>352</ele>
        <time>2022-05-24T13:40:47Z</time>
      </trkpt>
      <trkpt lat="46.24364" lon="5.50435">
        <ele>352</ele>
        <time>2022-05-24T13:40:48Z</time>
      </trkpt>
      <trkpt lat="46.2439" lon="5.50447">
        <ele>351.8</ele>
        <time>2022-05-24T13:40:52Z</time>
      </trkpt>
      <trkpt lat="46.24415" lon="5.50459">
        <ele>351.4</ele>
        <time>2022-05-24T13:40:56Z</time>
      </trkpt>
      <trkpt lat="46.24421" lon="5.50462">
        <ele>351.4</ele>
        <time>2022-05-24T13:40:57Z</time>
      </trkpt>
      <trkpt lat="46.24433" lon="5.50471">
        <ele>351.4</ele>
        <time>2022-05-24T13:40:59Z</time>
      </trkpt>
      <trkpt lat="46.24443" lon="5.50482">
        <ele>351.2</ele>
        <time>2022-05-24T13:41:01Z</time>
      </trkpt>
      <trkpt lat="46.24453" lon="5.50494">
        <ele>351.4</ele>
        <time>2022-05-24T13:41:03Z</time>
      </trkpt>
      <trkpt lat="46.2448" lon="5.50521">
        <ele>352</ele>
        <time>2022-05-24T13:41:08Z</time>
      </trkpt>
      <trkpt lat="46.24485" lon="5.50525">
        <ele>352.2</ele>
        <time>2022-05-24T13:41:09Z</time>
      </trkpt>
      <trkpt lat="46.2451" lon="5.50537">
        <ele>352.4</ele>
        <time>2022-05-24T13:41:13Z</time>
      </trkpt>
      <trkpt lat="46.24541" lon="5.50552">
        <ele>352.6</ele>
        <time>2022-05-24T13:41:18Z</time>
      </trkpt>
      <trkpt lat="46.24577" lon="5.50577">
        <ele>352.8</ele>
        <time>2022-05-24T13:41:24Z</time>
      </trkpt>
      <trkpt lat="46.24595" lon="5.5059">
        <ele>352.8</ele>
        <time>2022-05-24T13:41:27Z</time>
      </trkpt>
      <trkpt lat="46.24625" lon="5.50614">
        <ele>353</ele>
        <time>2022-05-24T13:41:32Z</time>
      </trkpt>
      <trkpt lat="46.24678" lon="5.50654">
        <ele>353.2</ele>
        <time>2022-05-24T13:41:41Z</time>
      </trkpt>
      <trkpt lat="46.24684" lon="5.50658">
        <ele>353.2</ele>
        <time>2022-05-24T13:41:42Z</time>
      </trkpt>
      <trkpt lat="46.24731" lon="5.50691">
        <ele>353</ele>
        <time>2022-05-24T13:41:50Z</time>
      </trkpt>
      <trkpt lat="46.24769" lon="5.5072">
        <ele>353.4</ele>
        <time>2022-05-24T13:41:57Z</time>
      </trkpt>
      <trkpt lat="46.24775" lon="5.50724">
        <ele>353.6</ele>
        <time>2022-05-24T13:41:58Z</time>
      </trkpt>
      <trkpt lat="46.24785" lon="5.50734">
        <ele>353.6</ele>
        <time>2022-05-24T13:42:00Z</time>
      </trkpt>
      <trkpt lat="46.24804" lon="5.50747">
        <ele>353.6</ele>
        <time>2022-05-24T13:42:03Z</time>
      </trkpt>
      <trkpt lat="46.24845" lon="5.50771">
        <ele>353</ele>
        <time>2022-05-24T13:42:09Z</time>
      </trkpt>
      <trkpt lat="46.2488" lon="5.50792">
        <ele>352.2</ele>
        <time>2022-05-24T13:42:14Z</time>
      </trkpt>
      <trkpt lat="46.24887" lon="5.50797">
        <ele>352.2</ele>
        <time>2022-05-24T13:42:15Z</time>
      </trkpt>
      <trkpt lat="46.24907" lon="5.50816">
        <ele>351.8</ele>
        <time>2022-05-24T13:42:18Z</time>
      </trkpt>
      <trkpt lat="46.24938" lon="5.50847">
        <ele>351</ele>
        <time>2022-05-24T13:42:23Z</time>
      </trkpt>
      <trkpt lat="46.24949" lon="5.50862">
        <ele>350.4</ele>
        <time>2022-05-24T13:42:25Z</time>
      </trkpt>
      <trkpt lat="46.24985" lon="5.50905">
        <ele>350.2</ele>
        <time>2022-05-24T13:42:31Z</time>
      </trkpt>
      <trkpt lat="46.25005" lon="5.5092">
        <ele>350.2</ele>
        <time>2022-05-24T13:42:34Z</time>
      </trkpt>
      <trkpt lat="46.25024" lon="5.50933">
        <ele>350.2</ele>
        <time>2022-05-24T13:42:37Z</time>
      </trkpt>
      <trkpt lat="46.25044" lon="5.50949">
        <ele>349.6</ele>
        <time>2022-05-24T13:42:40Z</time>
      </trkpt>
      <trkpt lat="46.25075" lon="5.50974">
        <ele>349</ele>
        <time>2022-05-24T13:42:44Z</time>
      </trkpt>
      <trkpt lat="46.25116" lon="5.51014">
        <ele>349</ele>
        <time>2022-05-24T13:42:51Z</time>
      </trkpt>
      <trkpt lat="46.25149" lon="5.51062">
        <ele>348.8</ele>
        <time>2022-05-24T13:42:57Z</time>
      </trkpt>
      <trkpt lat="46.25155" lon="5.51069">
        <ele>348.8</ele>
        <time>2022-05-24T13:42:58Z</time>
      </trkpt>
      <trkpt lat="46.25169" lon="5.51082">
        <ele>348.4</ele>
        <time>2022-05-24T13:43:00Z</time>
      </trkpt>
      <trkpt lat="46.25182" lon="5.51095">
        <ele>348.2</ele>
        <time>2022-05-24T13:43:02Z</time>
      </trkpt>
      <trkpt lat="46.25223" lon="5.51133">
        <ele>347.4</ele>
        <time>2022-05-24T13:43:08Z</time>
      </trkpt>
      <trkpt lat="46.25238" lon="5.51146">
        <ele>347.2</ele>
        <time>2022-05-24T13:43:10Z</time>
      </trkpt>
      <trkpt lat="46.25284" lon="5.51177">
        <ele>346.8</ele>
        <time>2022-05-24T13:43:16Z</time>
      </trkpt>
      <trkpt lat="46.25335" lon="5.51217">
        <ele>346.8</ele>
        <time>2022-05-24T13:43:23Z</time>
      </trkpt>
      <trkpt lat="46.2535" lon="5.5123">
        <ele>346.2</ele>
        <time>2022-05-24T13:43:25Z</time>
      </trkpt>
      <trkpt lat="46.2539" lon="5.51271">
        <ele>345.8</ele>
        <time>2022-05-24T13:43:31Z</time>
      </trkpt>
      <trkpt lat="46.25423" lon="5.51309">
        <ele>345</ele>
        <time>2022-05-24T13:43:36Z</time>
      </trkpt>
      <trkpt lat="46.25438" lon="5.51321">
        <ele>344.6</ele>
        <time>2022-05-24T13:43:38Z</time>
      </trkpt>
      <trkpt lat="46.25446" lon="5.51326">
        <ele>344.6</ele>
        <time>2022-05-24T13:43:39Z</time>
      </trkpt>
      <trkpt lat="46.25463" lon="5.51332">
        <ele>344.4</ele>
        <time>2022-05-24T13:43:41Z</time>
      </trkpt>
      <trkpt lat="46.25504" lon="5.51338">
        <ele>344</ele>
        <time>2022-05-24T13:43:46Z</time>
      </trkpt>
      <trkpt lat="46.25512" lon="5.51341">
        <ele>343.8</ele>
        <time>2022-05-24T13:43:47Z</time>
      </trkpt>
      <trkpt lat="46.25566" lon="5.51375">
        <ele>343.2</ele>
        <time>2022-05-24T13:43:54Z</time>
      </trkpt>
      <trkpt lat="46.25574" lon="5.51381">
        <ele>343</ele>
        <time>2022-05-24T13:43:55Z</time>
      </trkpt>
      <trkpt lat="46.25581" lon="5.51387">
        <ele>343</ele>
        <time>2022-05-24T13:43:56Z</time>
      </trkpt>
      <trkpt lat="46.25605" lon="5.51401">
        <ele>342.4</ele>
        <time>2022-05-24T13:43:59Z</time>
      </trkpt>
      <trkpt lat="46.25629" lon="5.51411">
        <ele>342</ele>
        <time>2022-05-24T13:44:02Z</time>
      </trkpt>
      <trkpt lat="46.25637" lon="5.51413">
        <ele>341.8</ele>
        <time>2022-05-24T13:44:03Z</time>
      </trkpt>
      <trkpt lat="46.25646" lon="5.51415">
        <ele>341.6</ele>
        <time>2022-05-24T13:44:04Z</time>
      </trkpt>
      <trkpt lat="46.25692" lon="5.51431">
        <ele>341</ele>
        <time>2022-05-24T13:44:10Z</time>
      </trkpt>
      <trkpt lat="46.25699" lon="5.51434">
        <ele>341</ele>
        <time>2022-05-24T13:44:11Z</time>
      </trkpt>
      <trkpt lat="46.25723" lon="5.51444">
        <ele>341.6</ele>
        <time>2022-05-24T13:44:14Z</time>
      </trkpt>
      <trkpt lat="46.25741" lon="5.51448">
        <ele>341.8</ele>
        <time>2022-05-24T13:44:16Z</time>
      </trkpt>
      <trkpt lat="46.25757" lon="5.51447">
        <ele>341.6</ele>
        <time>2022-05-24T13:44:18Z</time>
      </trkpt>
      <trkpt lat="46.25782" lon="5.51447">
        <ele>341</ele>
        <time>2022-05-24T13:44:21Z</time>
      </trkpt>
      <trkpt lat="46.2579" lon="5.51447">
        <ele>340.8</ele>
        <time>2022-05-24T13:44:22Z</time>
      </trkpt>
      <trkpt lat="46.25798" lon="5.51447">
        <ele>340.8</ele>
        <time>2022-05-24T13:44:23Z</time>
      </trkpt>
      <trkpt lat="46.25845" lon="5.51446">
        <ele>339.8</ele>
        <time>2022-05-24T13:44:29Z</time>
      </trkpt>
      <trkpt lat="46.25852" lon="5.51446">
        <ele>339.6</ele>
        <time>2022-05-24T13:44:30Z</time>
      </trkpt>
      <trkpt lat="46.2589" lon="5.51446">
        <ele>339</ele>
        <time>2022-05-24T13:44:35Z</time>
      </trkpt>
      <trkpt lat="46.2594" lon="5.51451">
        <ele>338.8</ele>
        <time>2022-05-24T13:44:41Z</time>
      </trkpt>
      <trkpt lat="46.25976" lon="5.51461">
        <ele>338.6</ele>
        <time>2022-05-24T13:44:46Z</time>
      </trkpt>
      <trkpt lat="46.25992" lon="5.51465">
        <ele>338.4</ele>
        <time>2022-05-24T13:44:48Z</time>
      </trkpt>
      <trkpt lat="46.26037" lon="5.51479">
        <ele>337.6</ele>
        <time>2022-05-24T13:44:53Z</time>
      </trkpt>
      <trkpt lat="46.26064" lon="5.51487">
        <ele>337.2</ele>
        <time>2022-05-24T13:44:56Z</time>
      </trkpt>
      <trkpt lat="46.26101" lon="5.51498">
        <ele>335.8</ele>
        <time>2022-05-24T13:45:00Z</time>
      </trkpt>
      <trkpt lat="46.26128" lon="5.51506">
        <ele>334.8</ele>
        <time>2022-05-24T13:45:03Z</time>
      </trkpt>
      <trkpt lat="46.26155" lon="5.51515">
        <ele>333.8</ele>
        <time>2022-05-24T13:45:06Z</time>
      </trkpt>
      <trkpt lat="46.26201" lon="5.51533">
        <ele>332.6</ele>
        <time>2022-05-24T13:45:11Z</time>
      </trkpt>
      <trkpt lat="46.26219" lon="5.51545">
        <ele>331.6</ele>
        <time>2022-05-24T13:45:13Z</time>
      </trkpt>
      <trkpt lat="46.26227" lon="5.51551">
        <ele>331.4</ele>
        <time>2022-05-24T13:45:14Z</time>
      </trkpt>
      <trkpt lat="46.2625" lon="5.51575">
        <ele>330.2</ele>
        <time>2022-05-24T13:45:17Z</time>
      </trkpt>
      <trkpt lat="46.26258" lon="5.51583">
        <ele>329.8</ele>
        <time>2022-05-24T13:45:18Z</time>
      </trkpt>
      <trkpt lat="46.26275" lon="5.51598">
        <ele>328.8</ele>
        <time>2022-05-24T13:45:20Z</time>
      </trkpt>
      <trkpt lat="46.26306" lon="5.5163">
        <ele>327.8</ele>
        <time>2022-05-24T13:45:24Z</time>
      </trkpt>
      <trkpt lat="46.26313" lon="5.5164">
        <ele>327.6</ele>
        <time>2022-05-24T13:45:25Z</time>
      </trkpt>
      <trkpt lat="46.26319" lon="5.51651">
        <ele>327.6</ele>
        <time>2022-05-24T13:45:26Z</time>
      </trkpt>
      <trkpt lat="46.26335" lon="5.51688">
        <ele>326.6</ele>
        <time>2022-05-24T13:45:29Z</time>
      </trkpt>
      <trkpt lat="46.2635" lon="5.51741">
        <ele>326</ele>
        <time>2022-05-24T13:45:33Z</time>
      </trkpt>
      <trkpt lat="46.26353" lon="5.51756">
        <ele>325.8</ele>
        <time>2022-05-24T13:45:34Z</time>
      </trkpt>
      <trkpt lat="46.26356" lon="5.51785">
        <ele>325.2</ele>
        <time>2022-05-24T13:45:36Z</time>
      </trkpt>
      <trkpt lat="46.26362" lon="5.51845">
        <ele>324.2</ele>
        <time>2022-05-24T13:45:40Z</time>
      </trkpt>
      <trkpt lat="46.26362" lon="5.51874">
        <ele>323.8</ele>
        <time>2022-05-24T13:45:41Z</time>
      </trkpt>
      <trkpt lat="46.26358" lon="5.51917">
        <ele>323.4</ele>
        <time>2022-05-24T13:45:44Z</time>
      </trkpt>
      <trkpt lat="46.26358" lon="5.51917">
        <ele>323</ele>
        <time>2022-05-24T13:45:45Z</time>
      </trkpt>
      <trkpt lat="46.26358" lon="5.51932">
        <ele>322.2</ele>
        <time>2022-05-24T13:45:46Z</time>
      </trkpt>
      <trkpt lat="46.26359" lon="5.51962">
        <ele>321.8</ele>
        <time>2022-05-24T13:45:47Z</time>
      </trkpt>
      <trkpt lat="46.26358" lon="5.52005">
        <ele>320.8</ele>
        <time>2022-05-24T13:45:50Z</time>
      </trkpt>
      <trkpt lat="46.26359" lon="5.52033">
        <ele>320.4</ele>
        <time>2022-05-24T13:45:52Z</time>
      </trkpt>
      <trkpt lat="46.26363" lon="5.52088">
        <ele>320.2</ele>
        <time>2022-05-24T13:45:57Z</time>
      </trkpt>
      <trkpt lat="46.26364" lon="5.52114">
        <ele>320.2</ele>
        <time>2022-05-24T13:45:58Z</time>
      </trkpt>
      <trkpt lat="46.26373" lon="5.52192">
        <ele>320.4</ele>
        <time>2022-05-24T13:46:04Z</time>
      </trkpt>
      <trkpt lat="46.26375" lon="5.52205">
        <ele>320.4</ele>
        <time>2022-05-24T13:46:05Z</time>
      </trkpt>
      <trkpt lat="46.26384" lon="5.52253">
        <ele>319.8</ele>
        <time>2022-05-24T13:46:09Z</time>
      </trkpt>
      <trkpt lat="46.26388" lon="5.52265">
        <ele>319.8</ele>
        <time>2022-05-24T13:46:11Z</time>
      </trkpt>
      <trkpt lat="46.26398" lon="5.5229">
        <ele>319.6</ele>
        <time>2022-05-24T13:46:13Z</time>
      </trkpt>
      <trkpt lat="46.26412" lon="5.52313">
        <ele>319.2</ele>
        <time>2022-05-24T13:46:15Z</time>
      </trkpt>
      <trkpt lat="46.2643" lon="5.52343">
        <ele>318.8</ele>
        <time>2022-05-24T13:46:18Z</time>
      </trkpt>
      <trkpt lat="46.26435" lon="5.52351">
        <ele>318.6</ele>
        <time>2022-05-24T13:46:20Z</time>
      </trkpt>
      <trkpt lat="46.26455" lon="5.52383">
        <ele>318.6</ele>
        <time>2022-05-24T13:46:23Z</time>
      </trkpt>
      <trkpt lat="46.2646" lon="5.5239">
        <ele>318.6</ele>
        <time>2022-05-24T13:46:24Z</time>
      </trkpt>
      <trkpt lat="46.26465" lon="5.52398">
        <ele>318.6</ele>
        <time>2022-05-24T13:46:25Z</time>
      </trkpt>
      <trkpt lat="46.26472" lon="5.52413">
        <ele>318.8</ele>
        <time>2022-05-24T13:46:27Z</time>
      </trkpt>
      <trkpt lat="46.26476" lon="5.52428">
        <ele>319</ele>
        <time>2022-05-24T13:46:29Z</time>
      </trkpt>
      <trkpt lat="46.26482" lon="5.52454">
        <ele>319.8</ele>
        <time>2022-05-24T13:46:32Z</time>
      </trkpt>
      <trkpt lat="46.26482" lon="5.52462">
        <ele>319.8</ele>
        <time>2022-05-24T13:46:33Z</time>
      </trkpt>
      <trkpt lat="46.26482" lon="5.52471">
        <ele>320</ele>
        <time>2022-05-24T13:46:34Z</time>
      </trkpt>
      <trkpt lat="46.26479" lon="5.52488">
        <ele>320.6</ele>
        <time>2022-05-24T13:46:36Z</time>
      </trkpt>
      <trkpt lat="46.26479" lon="5.52488">
        <ele>321</ele>
        <time>2022-05-24T13:46:37Z</time>
      </trkpt>
      <trkpt lat="46.26458" lon="5.52557">
        <ele>322</ele>
        <time>2022-05-24T13:46:45Z</time>
      </trkpt>
      <trkpt lat="46.26456" lon="5.52565">
        <ele>322</ele>
        <time>2022-05-24T13:46:46Z</time>
      </trkpt>
      <trkpt lat="46.26449" lon="5.52597">
        <ele>322.8</ele>
        <time>2022-05-24T13:46:50Z</time>
      </trkpt>
      <trkpt lat="46.26448" lon="5.52605">
        <ele>323.2</ele>
        <time>2022-05-24T13:46:52Z</time>
      </trkpt>
      <trkpt lat="46.26446" lon="5.52621">
        <ele>323.2</ele>
        <time>2022-05-24T13:46:53Z</time>
      </trkpt>
      <trkpt lat="46.26447" lon="5.52629">
        <ele>323.2</ele>
        <time>2022-05-24T13:46:54Z</time>
      </trkpt>
      <trkpt lat="46.26457" lon="5.52693">
        <ele>323.6</ele>
        <time>2022-05-24T13:47:02Z</time>
      </trkpt>
      <trkpt lat="46.26464" lon="5.52726">
        <ele>324.4</ele>
        <time>2022-05-24T13:47:07Z</time>
      </trkpt>
      <trkpt lat="46.2647" lon="5.52759">
        <ele>325</ele>
        <time>2022-05-24T13:47:11Z</time>
      </trkpt>
      <trkpt lat="46.26484" lon="5.52832">
        <ele>325.4</ele>
        <time>2022-05-24T13:47:19Z</time>
      </trkpt>
      <trkpt lat="46.26499" lon="5.52881">
        <ele>325.8</ele>
        <time>2022-05-24T13:47:25Z</time>
      </trkpt>
      <trkpt lat="46.26523" lon="5.52943">
        <ele>326</ele>
        <time>2022-05-24T13:47:32Z</time>
      </trkpt>
      <trkpt lat="46.26554" lon="5.53017">
        <ele>325</ele>
        <time>2022-05-24T13:47:40Z</time>
      </trkpt>
      <trkpt lat="46.26554" lon="5.53017">
        <ele>325</ele>
        <time>2022-05-24T13:47:41Z</time>
      </trkpt>
      <trkpt lat="46.26571" lon="5.53057">
        <ele>324.4</ele>
        <time>2022-05-24T13:47:45Z</time>
      </trkpt>
      <trkpt lat="46.26585" lon="5.53089">
        <ele>324.2</ele>
        <time>2022-05-24T13:47:47Z</time>
      </trkpt>
      <trkpt lat="46.266" lon="5.53122">
        <ele>322.8</ele>
        <time>2022-05-24T13:47:51Z</time>
      </trkpt>
      <trkpt lat="46.26614" lon="5.53154">
        <ele>321.4</ele>
        <time>2022-05-24T13:47:54Z</time>
      </trkpt>
      <trkpt lat="46.26625" lon="5.53177">
        <ele>320.8</ele>
        <time>2022-05-24T13:47:55Z</time>
      </trkpt>
      <trkpt lat="46.26636" lon="5.53203">
        <ele>320.4</ele>
        <time>2022-05-24T13:47:57Z</time>
      </trkpt>
      <trkpt lat="46.26646" lon="5.53227">
        <ele>319.2</ele>
        <time>2022-05-24T13:48:00Z</time>
      </trkpt>
      <trkpt lat="46.26658" lon="5.53266">
        <ele>319</ele>
        <time>2022-05-24T13:48:02Z</time>
      </trkpt>
      <trkpt lat="46.26661" lon="5.53295">
        <ele>318.6</ele>
        <time>2022-05-24T13:48:04Z</time>
      </trkpt>
      <trkpt lat="46.26666" lon="5.53335">
        <ele>318</ele>
        <time>2022-05-24T13:48:07Z</time>
      </trkpt>
      <trkpt lat="46.26675" lon="5.53381">
        <ele>316.8</ele>
        <time>2022-05-24T13:48:10Z</time>
      </trkpt>
      <trkpt lat="46.26678" lon="5.53395">
        <ele>316</ele>
        <time>2022-05-24T13:48:12Z</time>
      </trkpt>
      <trkpt lat="46.26684" lon="5.53423">
        <ele>315.6</ele>
        <time>2022-05-24T13:48:13Z</time>
      </trkpt>
      <trkpt lat="46.2669" lon="5.53451">
        <ele>314.6</ele>
        <time>2022-05-24T13:48:16Z</time>
      </trkpt>
      <trkpt lat="46.26697" lon="5.53477">
        <ele>314.6</ele>
        <time>2022-05-24T13:48:17Z</time>
      </trkpt>
      <trkpt lat="46.26701" lon="5.5349">
        <ele>313.4</ele>
        <time>2022-05-24T13:48:18Z</time>
      </trkpt>
      <trkpt lat="46.26706" lon="5.53503">
        <ele>313</ele>
        <time>2022-05-24T13:48:19Z</time>
      </trkpt>
      <trkpt lat="46.2673" lon="5.53549">
        <ele>311.6</ele>
        <time>2022-05-24T13:48:23Z</time>
      </trkpt>
      <trkpt lat="46.26745" lon="5.53569">
        <ele>310.4</ele>
        <time>2022-05-24T13:48:25Z</time>
      </trkpt>
      <trkpt lat="46.26765" lon="5.53597">
        <ele>309.2</ele>
        <time>2022-05-24T13:48:28Z</time>
      </trkpt>
      <trkpt lat="46.2677" lon="5.53605">
        <ele>309</ele>
        <time>2022-05-24T13:48:29Z</time>
      </trkpt>
      <trkpt lat="46.26774" lon="5.53612">
        <ele>308.2</ele>
        <time>2022-05-24T13:48:31Z</time>
      </trkpt>
      <trkpt lat="46.26782" lon="5.53621">
        <ele>308</ele>
        <time>2022-05-24T13:48:32Z</time>
      </trkpt>
      <trkpt lat="46.26786" lon="5.53623">
        <ele>308.2</ele>
        <time>2022-05-24T13:48:33Z</time>
      </trkpt>
      <trkpt lat="46.26797" lon="5.53621">
        <ele>308</ele>
        <time>2022-05-24T13:48:35Z</time>
      </trkpt>
      <trkpt lat="46.26802" lon="5.53618">
        <ele>308.2</ele>
        <time>2022-05-24T13:48:37Z</time>
      </trkpt>
      <trkpt lat="46.26813" lon="5.53614">
        <ele>308.2</ele>
        <time>2022-05-24T13:48:38Z</time>
      </trkpt>
      <trkpt lat="46.26839" lon="5.53608">
        <ele>308.6</ele>
        <time>2022-05-24T13:48:43Z</time>
      </trkpt>
      <trkpt lat="46.26856" lon="5.53604">
        <ele>309.2</ele>
        <time>2022-05-24T13:48:46Z</time>
      </trkpt>
      <trkpt lat="46.26874" lon="5.53602">
        <ele>309.2</ele>
        <time>2022-05-24T13:48:49Z</time>
      </trkpt>
      <trkpt lat="46.26886" lon="5.53605">
        <ele>309.2</ele>
        <time>2022-05-24T13:48:51Z</time>
      </trkpt>
      <trkpt lat="46.26892" lon="5.53604">
        <ele>309</ele>
        <time>2022-05-24T13:48:52Z</time>
      </trkpt>
      <trkpt lat="46.26897" lon="5.53599">
        <ele>309</ele>
        <time>2022-05-24T13:48:53Z</time>
      </trkpt>
      <trkpt lat="46.26901" lon="5.53591">
        <ele>308.8</ele>
        <time>2022-05-24T13:48:54Z</time>
      </trkpt>
      <trkpt lat="46.2691" lon="5.53547">
        <ele>308</ele>
        <time>2022-05-24T13:48:59Z</time>
      </trkpt>
      <trkpt lat="46.26921" lon="5.53483">
        <ele>307.6</ele>
        <time>2022-05-24T13:49:06Z</time>
      </trkpt>
      <trkpt lat="46.26923" lon="5.53475">
        <ele>307.6</ele>
        <time>2022-05-24T13:49:07Z</time>
      </trkpt>
      <trkpt lat="46.26928" lon="5.5344">
        <ele>307.8</ele>
        <time>2022-05-24T13:49:11Z</time>
      </trkpt>
      <trkpt lat="46.26938" lon="5.53373">
        <ele>308.2</ele>
        <time>2022-05-24T13:49:18Z</time>
      </trkpt>
      <trkpt lat="46.26955" lon="5.53291">
        <ele>307.4</ele>
        <time>2022-05-24T13:49:26Z</time>
      </trkpt>
      <trkpt lat="46.26967" lon="5.53217">
        <ele>307</ele>
        <time>2022-05-24T13:49:33Z</time>
      </trkpt>
      <trkpt lat="46.2697" lon="5.53196">
        <ele>307</ele>
        <time>2022-05-24T13:49:35Z</time>
      </trkpt>
      <trkpt lat="46.26976" lon="5.53142">
        <ele>306.8</ele>
        <time>2022-05-24T13:49:41Z</time>
      </trkpt>
      <trkpt lat="46.26977" lon="5.5307">
        <ele>307.2</ele>
        <time>2022-05-24T13:49:47Z</time>
      </trkpt>
      <trkpt lat="46.26978" lon="5.52997">
        <ele>307.6</ele>
        <time>2022-05-24T13:49:54Z</time>
      </trkpt>
      <trkpt lat="46.26978" lon="5.52936">
        <ele>307.4</ele>
        <time>2022-05-24T13:50:00Z</time>
      </trkpt>
      <trkpt lat="46.26982" lon="5.52863">
        <ele>306.8</ele>
        <time>2022-05-24T13:50:07Z</time>
      </trkpt>
      <trkpt lat="46.26981" lon="5.52795">
        <ele>306.8</ele>
        <time>2022-05-24T13:50:13Z</time>
      </trkpt>
      <trkpt lat="46.26979" lon="5.52741">
        <ele>307</ele>
        <time>2022-05-24T13:50:18Z</time>
      </trkpt>
      <trkpt lat="46.26978" lon="5.5272">
        <ele>307.2</ele>
        <time>2022-05-24T13:50:20Z</time>
      </trkpt>
      <trkpt lat="46.26974" lon="5.527">
        <ele>307.2</ele>
        <time>2022-05-24T13:50:22Z</time>
      </trkpt>
      <trkpt lat="46.2697" lon="5.52691">
        <ele>307.2</ele>
        <time>2022-05-24T13:50:23Z</time>
      </trkpt>
      <trkpt lat="46.26964" lon="5.52684">
        <ele>307.2</ele>
        <time>2022-05-24T13:50:24Z</time>
      </trkpt>
      <trkpt lat="46.26946" lon="5.52665">
        <ele>307.4</ele>
        <time>2022-05-24T13:50:27Z</time>
      </trkpt>
      <trkpt lat="46.26935" lon="5.52649">
        <ele>307.4</ele>
        <time>2022-05-24T13:50:29Z</time>
      </trkpt>
      <trkpt lat="46.26923" lon="5.52637">
        <ele>307.2</ele>
        <time>2022-05-24T13:50:31Z</time>
      </trkpt>
      <trkpt lat="46.26876" lon="5.52586">
        <ele>306.8</ele>
        <time>2022-05-24T13:50:39Z</time>
      </trkpt>
      <trkpt lat="46.26871" lon="5.5258">
        <ele>306.4</ele>
        <time>2022-05-24T13:50:40Z</time>
      </trkpt>
      <trkpt lat="46.26824" lon="5.52532">
        <ele>306.4</ele>
        <time>2022-05-24T13:50:48Z</time>
      </trkpt>
      <trkpt lat="46.26808" lon="5.52515">
        <ele>306.6</ele>
        <time>2022-05-24T13:50:51Z</time>
      </trkpt>
      <trkpt lat="46.26777" lon="5.52482">
        <ele>306.8</ele>
        <time>2022-05-24T13:50:57Z</time>
      </trkpt>
      <trkpt lat="46.26746" lon="5.52448">
        <ele>307.8</ele>
        <time>2022-05-24T13:51:04Z</time>
      </trkpt>
      <trkpt lat="46.26729" lon="5.52432">
        <ele>308.2</ele>
        <time>2022-05-24T13:51:08Z</time>
      </trkpt>
      <trkpt lat="46.26725" lon="5.52427">
        <ele>308.4</ele>
        <time>2022-05-24T13:51:09Z</time>
      </trkpt>
      <trkpt lat="46.26693" lon="5.52395">
        <ele>309.4</ele>
        <time>2022-05-24T13:51:17Z</time>
      </trkpt>
      <trkpt lat="46.2668" lon="5.5238">
        <ele>309.4</ele>
        <time>2022-05-24T13:51:20Z</time>
      </trkpt>
      <trkpt lat="46.26664" lon="5.52358">
        <ele>310.4</ele>
        <time>2022-05-24T13:51:24Z</time>
      </trkpt>
      <trkpt lat="46.26632" lon="5.5232">
        <ele>311.2</ele>
        <time>2022-05-24T13:51:32Z</time>
      </trkpt>
      <trkpt lat="46.26615" lon="5.52304">
        <ele>311.8</ele>
        <time>2022-05-24T13:51:36Z</time>
      </trkpt>
      <trkpt lat="46.26607" lon="5.52294">
        <ele>311.6</ele>
        <time>2022-05-24T13:51:38Z</time>
      </trkpt>
      <trkpt lat="46.26603" lon="5.52289">
        <ele>311.6</ele>
        <time>2022-05-24T13:51:39Z</time>
      </trkpt>
      <trkpt lat="46.26596" lon="5.52277">
        <ele>311.8</ele>
        <time>2022-05-24T13:51:41Z</time>
      </trkpt>
      <trkpt lat="46.26591" lon="5.52263">
        <ele>312.6</ele>
        <time>2022-05-24T13:51:43Z</time>
      </trkpt>
      <trkpt lat="46.26588" lon="5.52253">
        <ele>312.8</ele>
        <time>2022-05-24T13:51:44Z</time>
      </trkpt>
      <trkpt lat="46.26587" lon="5.52244">
        <ele>313</ele>
        <time>2022-05-24T13:51:45Z</time>
      </trkpt>
      <trkpt lat="46.26582" lon="5.52218">
        <ele>313.4</ele>
        <time>2022-05-24T13:51:48Z</time>
      </trkpt>
      <trkpt lat="46.26577" lon="5.52183">
        <ele>313.8</ele>
        <time>2022-05-24T13:51:52Z</time>
      </trkpt>
      <trkpt lat="46.26571" lon="5.52157">
        <ele>314</ele>
        <time>2022-05-24T13:51:55Z</time>
      </trkpt>
      <trkpt lat="46.26551" lon="5.52099">
        <ele>314.6</ele>
        <time>2022-05-24T13:52:02Z</time>
      </trkpt>
      <trkpt lat="46.2653" lon="5.52038">
        <ele>314</ele>
        <time>2022-05-24T13:52:09Z</time>
      </trkpt>
      <trkpt lat="46.26524" lon="5.5198">
        <ele>313.2</ele>
        <time>2022-05-24T13:52:15Z</time>
      </trkpt>
      <trkpt lat="46.26526" lon="5.51941">
        <ele>312.8</ele>
        <time>2022-05-24T13:52:19Z</time>
      </trkpt>
      <trkpt lat="46.26529" lon="5.51911">
        <ele>312.8</ele>
        <time>2022-05-24T13:52:22Z</time>
      </trkpt>
      <trkpt lat="46.26534" lon="5.51824">
        <ele>312</ele>
        <time>2022-05-24T13:52:30Z</time>
      </trkpt>
      <trkpt lat="46.26535" lon="5.51812">
        <ele>311.6</ele>
        <time>2022-05-24T13:52:31Z</time>
      </trkpt>
      <trkpt lat="46.26541" lon="5.51777">
        <ele>311.4</ele>
        <time>2022-05-24T13:52:34Z</time>
      </trkpt>
      <trkpt lat="46.26547" lon="5.51756">
        <ele>311.2</ele>
        <time>2022-05-24T13:52:36Z</time>
      </trkpt>
      <trkpt lat="46.2656" lon="5.51724">
        <ele>310.8</ele>
        <time>2022-05-24T13:52:39Z</time>
      </trkpt>
      <trkpt lat="46.26574" lon="5.51691">
        <ele>310</ele>
        <time>2022-05-24T13:52:42Z</time>
      </trkpt>
      <trkpt lat="46.26576" lon="5.51684">
        <ele>309.6</ele>
        <time>2022-05-24T13:52:43Z</time>
      </trkpt>
      <trkpt lat="46.26581" lon="5.51663">
        <ele>309</ele>
        <time>2022-05-24T13:52:45Z</time>
      </trkpt>
      <trkpt lat="46.26583" lon="5.51644">
        <ele>308.8</ele>
        <time>2022-05-24T13:52:46Z</time>
      </trkpt>
      <trkpt lat="46.26582" lon="5.51631">
        <ele>308.4</ele>
        <time>2022-05-24T13:52:47Z</time>
      </trkpt>
      <trkpt lat="46.26576" lon="5.5158">
        <ele>307.6</ele>
        <time>2022-05-24T13:52:51Z</time>
      </trkpt>
      <trkpt lat="46.26573" lon="5.51567">
        <ele>307.2</ele>
        <time>2022-05-24T13:52:52Z</time>
      </trkpt>
      <trkpt lat="46.26566" lon="5.51543">
        <ele>307</ele>
        <time>2022-05-24T13:52:54Z</time>
      </trkpt>
      <trkpt lat="46.26561" lon="5.51532">
        <ele>306.4</ele>
        <time>2022-05-24T13:52:55Z</time>
      </trkpt>
      <trkpt lat="46.26551" lon="5.51511">
        <ele>306.2</ele>
        <time>2022-05-24T13:52:57Z</time>
      </trkpt>
      <trkpt lat="46.2653" lon="5.51467">
        <ele>305.6</ele>
        <time>2022-05-24T13:53:01Z</time>
      </trkpt>
      <trkpt lat="46.26524" lon="5.5143">
        <ele>305.2</ele>
        <time>2022-05-24T13:53:04Z</time>
      </trkpt>
      <trkpt lat="46.26525" lon="5.51406">
        <ele>305</ele>
        <time>2022-05-24T13:53:06Z</time>
      </trkpt>
      <trkpt lat="46.26529" lon="5.51367">
        <ele>304.4</ele>
        <time>2022-05-24T13:53:09Z</time>
      </trkpt>
      <trkpt lat="46.26531" lon="5.51342">
        <ele>304</ele>
        <time>2022-05-24T13:53:11Z</time>
      </trkpt>
      <trkpt lat="46.2653" lon="5.51292">
        <ele>303.6</ele>
        <time>2022-05-24T13:53:15Z</time>
      </trkpt>
      <trkpt lat="46.26531" lon="5.51202">
        <ele>303.4</ele>
        <time>2022-05-24T13:53:22Z</time>
      </trkpt>
      <trkpt lat="46.2653" lon="5.5119">
        <ele>303.4</ele>
        <time>2022-05-24T13:53:23Z</time>
      </trkpt>
      <trkpt lat="46.26526" lon="5.51164">
        <ele>303.4</ele>
        <time>2022-05-24T13:53:25Z</time>
      </trkpt>
      <trkpt lat="46.26522" lon="5.51151">
        <ele>303.2</ele>
        <time>2022-05-24T13:53:26Z</time>
      </trkpt>
      <trkpt lat="46.26494" lon="5.51077">
        <ele>302.4</ele>
        <time>2022-05-24T13:53:32Z</time>
      </trkpt>
      <trkpt lat="46.26489" lon="5.51065">
        <ele>301.8</ele>
        <time>2022-05-24T13:53:33Z</time>
      </trkpt>
      <trkpt lat="46.26481" lon="5.5104">
        <ele>301.2</ele>
        <time>2022-05-24T13:53:35Z</time>
      </trkpt>
      <trkpt lat="46.26469" lon="5.51007">
        <ele>301</ele>
        <time>2022-05-24T13:53:38Z</time>
      </trkpt>
      <trkpt lat="46.26464" lon="5.50996">
        <ele>300.8</ele>
        <time>2022-05-24T13:53:39Z</time>
      </trkpt>
      <trkpt lat="46.26458" lon="5.50987">
        <ele>300.8</ele>
        <time>2022-05-24T13:53:40Z</time>
      </trkpt>
      <trkpt lat="46.26446" lon="5.50971">
        <ele>300.8</ele>
        <time>2022-05-24T13:53:42Z</time>
      </trkpt>
      <trkpt lat="46.26439" lon="5.50965">
        <ele>300.8</ele>
        <time>2022-05-24T13:53:43Z</time>
      </trkpt>
      <trkpt lat="46.26432" lon="5.5096">
        <ele>300.8</ele>
        <time>2022-05-24T13:53:44Z</time>
      </trkpt>
      <trkpt lat="46.26409" lon="5.50948">
        <ele>301</ele>
        <time>2022-05-24T13:53:47Z</time>
      </trkpt>
      <trkpt lat="46.26357" lon="5.5092">
        <ele>301.4</ele>
        <time>2022-05-24T13:53:54Z</time>
      </trkpt>
      <trkpt lat="46.26304" lon="5.50892">
        <ele>301.4</ele>
        <time>2022-05-24T13:54:01Z</time>
      </trkpt>
      <trkpt lat="46.26274" lon="5.50876">
        <ele>301.6</ele>
        <time>2022-05-24T13:54:05Z</time>
      </trkpt>
      <trkpt lat="46.26221" lon="5.50853">
        <ele>302</ele>
        <time>2022-05-24T13:54:12Z</time>
      </trkpt>
      <trkpt lat="46.26214" lon="5.50852">
        <ele>302</ele>
        <time>2022-05-24T13:54:13Z</time>
      </trkpt>
      <trkpt lat="46.2619" lon="5.50855">
        <ele>302.4</ele>
        <time>2022-05-24T13:54:16Z</time>
      </trkpt>
      <trkpt lat="46.26152" lon="5.50874">
        <ele>302.6</ele>
        <time>2022-05-24T13:54:21Z</time>
      </trkpt>
      <trkpt lat="46.26129" lon="5.50882">
        <ele>302.6</ele>
        <time>2022-05-24T13:54:24Z</time>
      </trkpt>
      <trkpt lat="46.26122" lon="5.50882">
        <ele>302.8</ele>
        <time>2022-05-24T13:54:25Z</time>
      </trkpt>
      <trkpt lat="46.26114" lon="5.5088">
        <ele>302.8</ele>
        <time>2022-05-24T13:54:26Z</time>
      </trkpt>
      <trkpt lat="46.26093" lon="5.5087">
        <ele>302.8</ele>
        <time>2022-05-24T13:54:29Z</time>
      </trkpt>
      <trkpt lat="46.26068" lon="5.50854">
        <ele>303.6</ele>
        <time>2022-05-24T13:54:33Z</time>
      </trkpt>
      <trkpt lat="46.26044" lon="5.50837">
        <ele>304.4</ele>
        <time>2022-05-24T13:54:37Z</time>
      </trkpt>
      <trkpt lat="46.2602" lon="5.5082">
        <ele>304.8</ele>
        <time>2022-05-24T13:54:41Z</time>
      </trkpt>
      <trkpt lat="46.25996" lon="5.50804">
        <ele>305.2</ele>
        <time>2022-05-24T13:54:45Z</time>
      </trkpt>
      <trkpt lat="46.25966" lon="5.50783">
        <ele>305.8</ele>
        <time>2022-05-24T13:54:50Z</time>
      </trkpt>
      <trkpt lat="46.2594" lon="5.50765">
        <ele>307</ele>
        <time>2022-05-24T13:54:55Z</time>
      </trkpt>
      <trkpt lat="46.25912" lon="5.50746">
        <ele>308.2</ele>
        <time>2022-05-24T13:55:01Z</time>
      </trkpt>
      <trkpt lat="46.25903" lon="5.50739">
        <ele>308.6</ele>
        <time>2022-05-24T13:55:03Z</time>
      </trkpt>
      <trkpt lat="46.25889" lon="5.5073">
        <ele>309.2</ele>
        <time>2022-05-24T13:55:06Z</time>
      </trkpt>
      <trkpt lat="46.2588" lon="5.50724">
        <ele>310.6</ele>
        <time>2022-05-24T13:55:09Z</time>
      </trkpt>
      <trkpt lat="46.25876" lon="5.50721">
        <ele>310.8</ele>
        <time>2022-05-24T13:55:10Z</time>
      </trkpt>
      <trkpt lat="46.25846" lon="5.507">
        <ele>311.8</ele>
        <time>2022-05-24T13:55:16Z</time>
      </trkpt>
      <trkpt lat="46.25829" lon="5.50689">
        <ele>312.6</ele>
        <time>2022-05-24T13:55:20Z</time>
      </trkpt>
      <trkpt lat="46.25825" lon="5.50686">
        <ele>312.8</ele>
        <time>2022-05-24T13:55:21Z</time>
      </trkpt>
      <trkpt lat="46.25794" lon="5.50665">
        <ele>313.8</ele>
        <time>2022-05-24T13:55:28Z</time>
      </trkpt>
      <trkpt lat="46.2579" lon="5.50663">
        <ele>314</ele>
        <time>2022-05-24T13:55:29Z</time>
      </trkpt>
      <trkpt lat="46.25786" lon="5.5066">
        <ele>314.2</ele>
        <time>2022-05-24T13:55:30Z</time>
      </trkpt>
      <trkpt lat="46.25769" lon="5.50648">
        <ele>314.8</ele>
        <time>2022-05-24T13:55:34Z</time>
      </trkpt>
      <trkpt lat="46.25748" lon="5.50635">
        <ele>315.8</ele>
        <time>2022-05-24T13:55:39Z</time>
      </trkpt>
      <trkpt lat="46.2574" lon="5.50629">
        <ele>316</ele>
        <time>2022-05-24T13:55:41Z</time>
      </trkpt>
      <trkpt lat="46.25736" lon="5.50626">
        <ele>316.2</ele>
        <time>2022-05-24T13:55:42Z</time>
      </trkpt>
      <trkpt lat="46.25732" lon="5.50623">
        <ele>316.2</ele>
        <time>2022-05-24T13:55:43Z</time>
      </trkpt>
      <trkpt lat="46.25728" lon="5.5062">
        <ele>316.6</ele>
        <time>2022-05-24T13:55:44Z</time>
      </trkpt>
      <trkpt lat="46.25717" lon="5.50612">
        <ele>317.4</ele>
        <time>2022-05-24T13:55:47Z</time>
      </trkpt>
      <trkpt lat="46.25693" lon="5.50596">
        <ele>318.4</ele>
        <time>2022-05-24T13:55:53Z</time>
      </trkpt>
      <trkpt lat="46.25685" lon="5.50591">
        <ele>318.6</ele>
        <time>2022-05-24T13:55:55Z</time>
      </trkpt>
      <trkpt lat="46.25664" lon="5.50579">
        <ele>319.6</ele>
        <time>2022-05-24T13:56:00Z</time>
      </trkpt>
      <trkpt lat="46.25651" lon="5.50573">
        <ele>320.2</ele>
        <time>2022-05-24T13:56:03Z</time>
      </trkpt>
      <trkpt lat="46.25642" lon="5.5057">
        <ele>320.6</ele>
        <time>2022-05-24T13:56:05Z</time>
      </trkpt>
      <trkpt lat="46.25621" lon="5.50564">
        <ele>321.8</ele>
        <time>2022-05-24T13:56:10Z</time>
      </trkpt>
      <trkpt lat="46.25595" lon="5.50558">
        <ele>323</ele>
        <time>2022-05-24T13:56:16Z</time>
      </trkpt>
      <trkpt lat="46.25568" lon="5.50555">
        <ele>323.6</ele>
        <time>2022-05-24T13:56:22Z</time>
      </trkpt>
      <trkpt lat="46.25564" lon="5.50554">
        <ele>324</ele>
        <time>2022-05-24T13:56:23Z</time>
      </trkpt>
      <trkpt lat="46.25538" lon="5.50553">
        <ele>325.2</ele>
        <time>2022-05-24T13:56:29Z</time>
      </trkpt>
      <trkpt lat="46.25529" lon="5.50553">
        <ele>325.8</ele>
        <time>2022-05-24T13:56:31Z</time>
      </trkpt>
      <trkpt lat="46.25515" lon="5.50554">
        <ele>326.2</ele>
        <time>2022-05-24T13:56:34Z</time>
      </trkpt>
      <trkpt lat="46.25487" lon="5.5056">
        <ele>327.4</ele>
        <time>2022-05-24T13:56:40Z</time>
      </trkpt>
      <trkpt lat="46.25475" lon="5.50563">
        <ele>328</ele>
        <time>2022-05-24T13:56:43Z</time>
      </trkpt>
      <trkpt lat="46.25467" lon="5.50565">
        <ele>328.4</ele>
        <time>2022-05-24T13:56:45Z</time>
      </trkpt>
      <trkpt lat="46.25441" lon="5.5057">
        <ele>329.4</ele>
        <time>2022-05-24T13:56:51Z</time>
      </trkpt>
      <trkpt lat="46.25436" lon="5.50569">
        <ele>329.8</ele>
        <time>2022-05-24T13:56:52Z</time>
      </trkpt>
      <trkpt lat="46.25423" lon="5.50568">
        <ele>330.4</ele>
        <time>2022-05-24T13:56:55Z</time>
      </trkpt>
      <trkpt lat="46.25409" lon="5.50564">
        <ele>331</ele>
        <time>2022-05-24T13:56:58Z</time>
      </trkpt>
      <trkpt lat="46.25405" lon="5.50563">
        <ele>331</ele>
        <time>2022-05-24T13:56:59Z</time>
      </trkpt>
      <trkpt lat="46.25389" lon="5.50556">
        <ele>331.8</ele>
        <time>2022-05-24T13:57:03Z</time>
      </trkpt>
      <trkpt lat="46.25385" lon="5.50554">
        <ele>332</ele>
        <time>2022-05-24T13:57:04Z</time>
      </trkpt>
      <trkpt lat="46.25376" lon="5.5055">
        <ele>332.2</ele>
        <time>2022-05-24T13:57:06Z</time>
      </trkpt>
      <trkpt lat="46.25355" lon="5.5054">
        <ele>333</ele>
        <time>2022-05-24T13:57:11Z</time>
      </trkpt>
      <trkpt lat="46.25346" lon="5.50536">
        <ele>333.6</ele>
        <time>2022-05-24T13:57:13Z</time>
      </trkpt>
      <trkpt lat="46.25333" lon="5.5053">
        <ele>334.2</ele>
        <time>2022-05-24T13:57:16Z</time>
      </trkpt>
      <trkpt lat="46.25315" lon="5.50522">
        <ele>334.8</ele>
        <time>2022-05-24T13:57:20Z</time>
      </trkpt>
      <trkpt lat="46.25306" lon="5.50519">
        <ele>335.2</ele>
        <time>2022-05-24T13:57:22Z</time>
      </trkpt>
      <trkpt lat="46.25287" lon="5.5051">
        <ele>336.2</ele>
        <time>2022-05-24T13:57:26Z</time>
      </trkpt>
      <trkpt lat="46.25283" lon="5.50507">
        <ele>336.4</ele>
        <time>2022-05-24T13:57:27Z</time>
      </trkpt>
      <trkpt lat="46.25275" lon="5.50502">
        <ele>336.8</ele>
        <time>2022-05-24T13:57:29Z</time>
      </trkpt>
      <trkpt lat="46.25261" lon="5.50493">
        <ele>337.4</ele>
        <time>2022-05-24T13:57:32Z</time>
      </trkpt>
      <trkpt lat="46.25238" lon="5.50467">
        <ele>338.4</ele>
        <time>2022-05-24T13:57:38Z</time>
      </trkpt>
      <trkpt lat="46.25225" lon="5.50451">
        <ele>339.8</ele>
        <time>2022-05-24T13:57:42Z</time>
      </trkpt>
      <trkpt lat="46.25208" lon="5.50432">
        <ele>340.4</ele>
        <time>2022-05-24T13:57:46Z</time>
      </trkpt>
      <trkpt lat="46.25197" lon="5.50418">
        <ele>340.8</ele>
        <time>2022-05-24T13:57:49Z</time>
      </trkpt>
      <trkpt lat="46.25174" lon="5.50391">
        <ele>341.2</ele>
        <time>2022-05-24T13:57:55Z</time>
      </trkpt>
      <trkpt lat="46.25158" lon="5.50373">
        <ele>342</ele>
        <time>2022-05-24T13:57:59Z</time>
      </trkpt>
      <trkpt lat="46.25132" lon="5.50341">
        <ele>343.2</ele>
        <time>2022-05-24T13:58:06Z</time>
      </trkpt>
      <trkpt lat="46.25128" lon="5.50336">
        <ele>343.4</ele>
        <time>2022-05-24T13:58:07Z</time>
      </trkpt>
      <trkpt lat="46.25095" lon="5.50299">
        <ele>344.2</ele>
        <time>2022-05-24T13:58:15Z</time>
      </trkpt>
      <trkpt lat="46.25067" lon="5.50265">
        <ele>345</ele>
        <time>2022-05-24T13:58:22Z</time>
      </trkpt>
      <trkpt lat="46.25058" lon="5.50255">
        <ele>345.2</ele>
        <time>2022-05-24T13:58:24Z</time>
      </trkpt>
      <trkpt lat="46.2505" lon="5.50245">
        <ele>345.4</ele>
        <time>2022-05-24T13:58:26Z</time>
      </trkpt>
      <trkpt lat="46.25017" lon="5.50206">
        <ele>345.6</ele>
        <time>2022-05-24T13:58:33Z</time>
      </trkpt>
      <trkpt lat="46.24977" lon="5.50159">
        <ele>345.6</ele>
        <time>2022-05-24T13:58:42Z</time>
      </trkpt>
      <trkpt lat="46.2493" lon="5.50105">
        <ele>345.6</ele>
        <time>2022-05-24T13:58:50Z</time>
      </trkpt>
      <trkpt lat="46.24887" lon="5.50055">
        <ele>345.2</ele>
        <time>2022-05-24T13:58:58Z</time>
      </trkpt>
      <trkpt lat="46.24882" lon="5.50049">
        <ele>345.2</ele>
        <time>2022-05-24T13:58:59Z</time>
      </trkpt>
      <trkpt lat="46.24845" lon="5.50005">
        <ele>344.6</ele>
        <time>2022-05-24T13:59:06Z</time>
      </trkpt>
      <trkpt lat="46.2481" lon="5.49969">
        <ele>344.8</ele>
        <time>2022-05-24T13:59:12Z</time>
      </trkpt>
      <trkpt lat="46.24775" lon="5.49934">
        <ele>345.6</ele>
        <time>2022-05-24T13:59:19Z</time>
      </trkpt>
      <trkpt lat="46.24749" lon="5.49913">
        <ele>346.2</ele>
        <time>2022-05-24T13:59:24Z</time>
      </trkpt>
      <trkpt lat="46.24738" lon="5.49904">
        <ele>346.4</ele>
        <time>2022-05-24T13:59:26Z</time>
      </trkpt>
      <trkpt lat="46.24709" lon="5.4988">
        <ele>347.2</ele>
        <time>2022-05-24T13:59:32Z</time>
      </trkpt>
      <trkpt lat="46.24681" lon="5.49857">
        <ele>348.4</ele>
        <time>2022-05-24T13:59:38Z</time>
      </trkpt>
      <trkpt lat="46.24666" lon="5.49838">
        <ele>349.2</ele>
        <time>2022-05-24T13:59:42Z</time>
      </trkpt>
      <trkpt lat="46.24665" lon="5.49835">
        <ele>349.6</ele>
        <time>2022-05-24T13:59:43Z</time>
      </trkpt>
      <trkpt lat="46.24652" lon="5.49816">
        <ele>350.2</ele>
        <time>2022-05-24T13:59:46Z</time>
      </trkpt>
      <trkpt lat="46.24645" lon="5.49806">
        <ele>350.6</ele>
        <time>2022-05-24T13:59:48Z</time>
      </trkpt>
      <trkpt lat="46.24631" lon="5.49787">
        <ele>351</ele>
        <time>2022-05-24T13:59:52Z</time>
      </trkpt>
      <trkpt lat="46.24627" lon="5.49783">
        <ele>351.4</ele>
        <time>2022-05-24T13:59:53Z</time>
      </trkpt>
      <trkpt lat="46.24619" lon="5.49774">
        <ele>351.6</ele>
        <time>2022-05-24T13:59:55Z</time>
      </trkpt>
      <trkpt lat="46.24612" lon="5.49767">
        <ele>352</ele>
        <time>2022-05-24T13:59:57Z</time>
      </trkpt>
      <trkpt lat="46.24605" lon="5.49756">
        <ele>352.4</ele>
        <time>2022-05-24T13:59:59Z</time>
      </trkpt>
      <trkpt lat="46.24599" lon="5.49744">
        <ele>353</ele>
        <time>2022-05-24T14:00:01Z</time>
      </trkpt>
      <trkpt lat="46.2459" lon="5.4973">
        <ele>353.8</ele>
        <time>2022-05-24T14:00:04Z</time>
      </trkpt>
      <trkpt lat="46.24581" lon="5.49716">
        <ele>354.6</ele>
        <time>2022-05-24T14:00:07Z</time>
      </trkpt>
      <trkpt lat="46.24575" lon="5.49706">
        <ele>355</ele>
        <time>2022-05-24T14:00:09Z</time>
      </trkpt>
      <trkpt lat="46.2457" lon="5.49697">
        <ele>355.6</ele>
        <time>2022-05-24T14:00:11Z</time>
      </trkpt>
      <trkpt lat="46.24565" lon="5.49688">
        <ele>356</ele>
        <time>2022-05-24T14:00:13Z</time>
      </trkpt>
      <trkpt lat="46.24562" lon="5.49683">
        <ele>356.2</ele>
        <time>2022-05-24T14:00:14Z</time>
      </trkpt>
      <trkpt lat="46.24553" lon="5.49659">
        <ele>357</ele>
        <time>2022-05-24T14:00:19Z</time>
      </trkpt>
      <trkpt lat="46.24543" lon="5.49628">
        <ele>358</ele>
        <time>2022-05-24T14:00:25Z</time>
      </trkpt>
      <trkpt lat="46.2454" lon="5.4962">
        <ele>358.4</ele>
        <time>2022-05-24T14:00:27Z</time>
      </trkpt>
      <trkpt lat="46.24531" lon="5.49594">
        <ele>359.2</ele>
        <time>2022-05-24T14:00:32Z</time>
      </trkpt>
      <trkpt lat="46.24517" lon="5.49573">
        <ele>359.6</ele>
        <time>2022-05-24T14:00:37Z</time>
      </trkpt>
      <trkpt lat="46.24514" lon="5.49569">
        <ele>360.2</ele>
        <time>2022-05-24T14:00:38Z</time>
      </trkpt>
      <trkpt lat="46.245" lon="5.49549">
        <ele>361.2</ele>
        <time>2022-05-24T14:00:43Z</time>
      </trkpt>
      <trkpt lat="46.24492" lon="5.49534">
        <ele>361.8</ele>
        <time>2022-05-24T14:00:46Z</time>
      </trkpt>
      <trkpt lat="46.24487" lon="5.49526">
        <ele>362.2</ele>
        <time>2022-05-24T14:00:48Z</time>
      </trkpt>
      <trkpt lat="46.24485" lon="5.49522">
        <ele>362.4</ele>
        <time>2022-05-24T14:00:49Z</time>
      </trkpt>
      <trkpt lat="46.24483" lon="5.49518">
        <ele>362.6</ele>
        <time>2022-05-24T14:00:50Z</time>
      </trkpt>
      <trkpt lat="46.24474" lon="5.49502">
        <ele>363.4</ele>
        <time>2022-05-24T14:00:54Z</time>
      </trkpt>
      <trkpt lat="46.24472" lon="5.49497">
        <ele>363.8</ele>
        <time>2022-05-24T14:00:55Z</time>
      </trkpt>
      <trkpt lat="46.24465" lon="5.49479">
        <ele>364.6</ele>
        <time>2022-05-24T14:00:59Z</time>
      </trkpt>
      <trkpt lat="46.24463" lon="5.49474">
        <ele>364.8</ele>
        <time>2022-05-24T14:01:00Z</time>
      </trkpt>
      <trkpt lat="46.24456" lon="5.49453">
        <ele>365.8</ele>
        <time>2022-05-24T14:01:04Z</time>
      </trkpt>
      <trkpt lat="46.24451" lon="5.49438">
        <ele>366</ele>
        <time>2022-05-24T14:01:07Z</time>
      </trkpt>
      <trkpt lat="46.24448" lon="5.49428">
        <ele>366.6</ele>
        <time>2022-05-24T14:01:09Z</time>
      </trkpt>
      <trkpt lat="46.24445" lon="5.49414">
        <ele>367.8</ele>
        <time>2022-05-24T14:01:13Z</time>
      </trkpt>
      <trkpt lat="46.24441" lon="5.49386">
        <ele>368.4</ele>
        <time>2022-05-24T14:01:17Z</time>
      </trkpt>
      <trkpt lat="46.2444" lon="5.49376">
        <ele>368.8</ele>
        <time>2022-05-24T14:01:19Z</time>
      </trkpt>
      <trkpt lat="46.2444" lon="5.4937">
        <ele>369</ele>
        <time>2022-05-24T14:01:20Z</time>
      </trkpt>
      <trkpt lat="46.24441" lon="5.49356">
        <ele>370.2</ele>
        <time>2022-05-24T14:01:23Z</time>
      </trkpt>
      <trkpt lat="46.24442" lon="5.49348">
        <ele>370.8</ele>
        <time>2022-05-24T14:01:25Z</time>
      </trkpt>
      <trkpt lat="46.24443" lon="5.49337">
        <ele>371.6</ele>
        <time>2022-05-24T14:01:27Z</time>
      </trkpt>
      <trkpt lat="46.24443" lon="5.49322">
        <ele>372</ele>
        <time>2022-05-24T14:01:30Z</time>
      </trkpt>
      <trkpt lat="46.24441" lon="5.49292">
        <ele>372.6</ele>
        <time>2022-05-24T14:01:35Z</time>
      </trkpt>
      <trkpt lat="46.24442" lon="5.49271">
        <ele>373.4</ele>
        <time>2022-05-24T14:01:39Z</time>
      </trkpt>
      <trkpt lat="46.24442" lon="5.49266">
        <ele>373.6</ele>
        <time>2022-05-24T14:01:40Z</time>
      </trkpt>
      <trkpt lat="46.24442" lon="5.49257">
        <ele>374.4</ele>
        <time>2022-05-24T14:01:42Z</time>
      </trkpt>
      <trkpt lat="46.24442" lon="5.49247">
        <ele>374.8</ele>
        <time>2022-05-24T14:01:44Z</time>
      </trkpt>
      <trkpt lat="46.24438" lon="5.49219">
        <ele>375.8</ele>
        <time>2022-05-24T14:01:50Z</time>
      </trkpt>
      <trkpt lat="46.24438" lon="5.49214">
        <ele>376</ele>
        <time>2022-05-24T14:01:51Z</time>
      </trkpt>
      <trkpt lat="46.2443" lon="5.4919">
        <ele>377</ele>
        <time>2022-05-24T14:01:56Z</time>
      </trkpt>
      <trkpt lat="46.24428" lon="5.49185">
        <ele>377.2</ele>
        <time>2022-05-24T14:01:57Z</time>
      </trkpt>
      <trkpt lat="46.24423" lon="5.4917">
        <ele>378</ele>
        <time>2022-05-24T14:02:00Z</time>
      </trkpt>
      <trkpt lat="46.24415" lon="5.49154">
        <ele>379</ele>
        <time>2022-05-24T14:02:04Z</time>
      </trkpt>
      <trkpt lat="46.24412" lon="5.4915">
        <ele>379.2</ele>
        <time>2022-05-24T14:02:05Z</time>
      </trkpt>
      <trkpt lat="46.2441" lon="5.49146">
        <ele>379.4</ele>
        <time>2022-05-24T14:02:06Z</time>
      </trkpt>
      <trkpt lat="46.24398" lon="5.4913">
        <ele>380.4</ele>
        <time>2022-05-24T14:02:11Z</time>
      </trkpt>
      <trkpt lat="46.24387" lon="5.49118">
        <ele>381.2</ele>
        <time>2022-05-24T14:02:15Z</time>
      </trkpt>
      <trkpt lat="46.24384" lon="5.49115">
        <ele>381.4</ele>
        <time>2022-05-24T14:02:16Z</time>
      </trkpt>
      <trkpt lat="46.24372" lon="5.49104">
        <ele>382.6</ele>
        <time>2022-05-24T14:02:20Z</time>
      </trkpt>
      <trkpt lat="46.24361" lon="5.49095">
        <ele>383.8</ele>
        <time>2022-05-24T14:02:23Z</time>
      </trkpt>
      <trkpt lat="46.24348" lon="5.49086">
        <ele>384.4</ele>
        <time>2022-05-24T14:02:27Z</time>
      </trkpt>
      <trkpt lat="46.24341" lon="5.49079">
        <ele>384.8</ele>
        <time>2022-05-24T14:02:29Z</time>
      </trkpt>
      <trkpt lat="46.24337" lon="5.49076">
        <ele>385</ele>
        <time>2022-05-24T14:02:30Z</time>
      </trkpt>
      <trkpt lat="46.24323" lon="5.49063">
        <ele>386.2</ele>
        <time>2022-05-24T14:02:34Z</time>
      </trkpt>
      <trkpt lat="46.24316" lon="5.49056">
        <ele>386.8</ele>
        <time>2022-05-24T14:02:36Z</time>
      </trkpt>
      <trkpt lat="46.24313" lon="5.49053">
        <ele>387.2</ele>
        <time>2022-05-24T14:02:37Z</time>
      </trkpt>
      <trkpt lat="46.24298" lon="5.49039">
        <ele>387.8</ele>
        <time>2022-05-24T14:02:41Z</time>
      </trkpt>
      <trkpt lat="46.24295" lon="5.49036">
        <ele>388</ele>
        <time>2022-05-24T14:02:42Z</time>
      </trkpt>
      <trkpt lat="46.24291" lon="5.49032">
        <ele>388.4</ele>
        <time>2022-05-24T14:02:43Z</time>
      </trkpt>
      <trkpt lat="46.24285" lon="5.49025">
        <ele>389</ele>
        <time>2022-05-24T14:02:45Z</time>
      </trkpt>
      <trkpt lat="46.24279" lon="5.49018">
        <ele>389.2</ele>
        <time>2022-05-24T14:02:47Z</time>
      </trkpt>
      <trkpt lat="46.24276" lon="5.49014">
        <ele>389.4</ele>
        <time>2022-05-24T14:02:48Z</time>
      </trkpt>
      <trkpt lat="46.24273" lon="5.4901">
        <ele>389.6</ele>
        <time>2022-05-24T14:02:49Z</time>
      </trkpt>
      <trkpt lat="46.24269" lon="5.49006">
        <ele>389.8</ele>
        <time>2022-05-24T14:02:50Z</time>
      </trkpt>
      <trkpt lat="46.24265" lon="5.49003">
        <ele>390.2</ele>
        <time>2022-05-24T14:02:51Z</time>
      </trkpt>
      <trkpt lat="46.24258" lon="5.48996">
        <ele>390.8</ele>
        <time>2022-05-24T14:02:53Z</time>
      </trkpt>
      <trkpt lat="46.24254" lon="5.48993">
        <ele>391</ele>
        <time>2022-05-24T14:02:54Z</time>
      </trkpt>
      <trkpt lat="46.24242" lon="5.48985">
        <ele>392</ele>
        <time>2022-05-24T14:02:57Z</time>
      </trkpt>
      <trkpt lat="46.24223" lon="5.4897">
        <ele>393.2</ele>
        <time>2022-05-24T14:03:02Z</time>
      </trkpt>
      <trkpt lat="46.24216" lon="5.48965">
        <ele>393.6</ele>
        <time>2022-05-24T14:03:04Z</time>
      </trkpt>
      <trkpt lat="46.24205" lon="5.48957">
        <ele>394.6</ele>
        <time>2022-05-24T14:03:07Z</time>
      </trkpt>
      <trkpt lat="46.24195" lon="5.48949">
        <ele>395.2</ele>
        <time>2022-05-24T14:03:10Z</time>
      </trkpt>
      <trkpt lat="46.24191" lon="5.48946">
        <ele>395.6</ele>
        <time>2022-05-24T14:03:11Z</time>
      </trkpt>
      <trkpt lat="46.24188" lon="5.48944">
        <ele>395.8</ele>
        <time>2022-05-24T14:03:12Z</time>
      </trkpt>
      <trkpt lat="46.24181" lon="5.48938">
        <ele>396.6</ele>
        <time>2022-05-24T14:03:14Z</time>
      </trkpt>
      <trkpt lat="46.24174" lon="5.48933">
        <ele>397</ele>
        <time>2022-05-24T14:03:16Z</time>
      </trkpt>
      <trkpt lat="46.24157" lon="5.48918">
        <ele>398</ele>
        <time>2022-05-24T14:03:21Z</time>
      </trkpt>
      <trkpt lat="46.24143" lon="5.48907">
        <ele>398.4</ele>
        <time>2022-05-24T14:03:25Z</time>
      </trkpt>
      <trkpt lat="46.24135" lon="5.48904">
        <ele>399</ele>
        <time>2022-05-24T14:03:27Z</time>
      </trkpt>
      <trkpt lat="46.24132" lon="5.489">
        <ele>399.2</ele>
        <time>2022-05-24T14:03:28Z</time>
      </trkpt>
      <trkpt lat="46.24128" lon="5.48897">
        <ele>399.4</ele>
        <time>2022-05-24T14:03:29Z</time>
      </trkpt>
      <trkpt lat="46.24117" lon="5.48889">
        <ele>400</ele>
        <time>2022-05-24T14:03:32Z</time>
      </trkpt>
      <trkpt lat="46.24108" lon="5.4888">
        <ele>400.8</ele>
        <time>2022-05-24T14:03:35Z</time>
      </trkpt>
      <trkpt lat="46.241" lon="5.48876">
        <ele>401.2</ele>
        <time>2022-05-24T14:03:37Z</time>
      </trkpt>
      <trkpt lat="46.24088" lon="5.4887">
        <ele>401.6</ele>
        <time>2022-05-24T14:03:40Z</time>
      </trkpt>
      <trkpt lat="46.24079" lon="5.48867">
        <ele>402.4</ele>
        <time>2022-05-24T14:03:43Z</time>
      </trkpt>
      <trkpt lat="46.24065" lon="5.48859">
        <ele>403</ele>
        <time>2022-05-24T14:03:46Z</time>
      </trkpt>
      <trkpt lat="46.24057" lon="5.48857">
        <ele>403.6</ele>
        <time>2022-05-24T14:03:48Z</time>
      </trkpt>
      <trkpt lat="46.2404" lon="5.48855">
        <ele>404</ele>
        <time>2022-05-24T14:03:52Z</time>
      </trkpt>
      <trkpt lat="46.24036" lon="5.48854">
        <ele>404.4</ele>
        <time>2022-05-24T14:03:53Z</time>
      </trkpt>
      <trkpt lat="46.24032" lon="5.48855">
        <ele>404.6</ele>
        <time>2022-05-24T14:03:54Z</time>
      </trkpt>
      <trkpt lat="46.24024" lon="5.48852">
        <ele>405.4</ele>
        <time>2022-05-24T14:03:56Z</time>
      </trkpt>
      <trkpt lat="46.2402" lon="5.4885">
        <ele>405.4</ele>
        <time>2022-05-24T14:03:57Z</time>
      </trkpt>
      <trkpt lat="46.24012" lon="5.48849">
        <ele>406</ele>
        <time>2022-05-24T14:03:59Z</time>
      </trkpt>
      <trkpt lat="46.24008" lon="5.48849">
        <ele>406.4</ele>
        <time>2022-05-24T14:04:00Z</time>
      </trkpt>
      <trkpt lat="46.24004" lon="5.48848">
        <ele>406.6</ele>
        <time>2022-05-24T14:04:01Z</time>
      </trkpt>
      <trkpt lat="46.23988" lon="5.48848">
        <ele>407.2</ele>
        <time>2022-05-24T14:04:05Z</time>
      </trkpt>
      <trkpt lat="46.23979" lon="5.48848">
        <ele>407.6</ele>
        <time>2022-05-24T14:04:07Z</time>
      </trkpt>
      <trkpt lat="46.23975" lon="5.48847">
        <ele>407.8</ele>
        <time>2022-05-24T14:04:08Z</time>
      </trkpt>
      <trkpt lat="46.23968" lon="5.48843">
        <ele>408</ele>
        <time>2022-05-24T14:04:10Z</time>
      </trkpt>
      <trkpt lat="46.23959" lon="5.48842">
        <ele>408.4</ele>
        <time>2022-05-24T14:04:12Z</time>
      </trkpt>
      <trkpt lat="46.23951" lon="5.48839">
        <ele>409</ele>
        <time>2022-05-24T14:04:14Z</time>
      </trkpt>
      <trkpt lat="46.23943" lon="5.48836">
        <ele>409.2</ele>
        <time>2022-05-24T14:04:16Z</time>
      </trkpt>
      <trkpt lat="46.23935" lon="5.48834">
        <ele>409.6</ele>
        <time>2022-05-24T14:04:18Z</time>
      </trkpt>
      <trkpt lat="46.23928" lon="5.48829">
        <ele>410</ele>
        <time>2022-05-24T14:04:20Z</time>
      </trkpt>
      <trkpt lat="46.23924" lon="5.48828">
        <ele>410.2</ele>
        <time>2022-05-24T14:04:21Z</time>
      </trkpt>
      <trkpt lat="46.23914" lon="5.48822">
        <ele>410.4</ele>
        <time>2022-05-24T14:04:24Z</time>
      </trkpt>
      <trkpt lat="46.23911" lon="5.48818">
        <ele>410.6</ele>
        <time>2022-05-24T14:04:25Z</time>
      </trkpt>
      <trkpt lat="46.23908" lon="5.48814">
        <ele>411.2</ele>
        <time>2022-05-24T14:04:26Z</time>
      </trkpt>
      <trkpt lat="46.23902" lon="5.48809">
        <ele>411.8</ele>
        <time>2022-05-24T14:04:28Z</time>
      </trkpt>
      <trkpt lat="46.23891" lon="5.48801">
        <ele>412.2</ele>
        <time>2022-05-24T14:04:31Z</time>
      </trkpt>
      <trkpt lat="46.23889" lon="5.48796">
        <ele>412.4</ele>
        <time>2022-05-24T14:04:32Z</time>
      </trkpt>
      <trkpt lat="46.23874" lon="5.48787">
        <ele>413.6</ele>
        <time>2022-05-24T14:04:36Z</time>
      </trkpt>
      <trkpt lat="46.23866" lon="5.48781">
        <ele>413.8</ele>
        <time>2022-05-24T14:04:38Z</time>
      </trkpt>
      <trkpt lat="46.2386" lon="5.48774">
        <ele>414.4</ele>
        <time>2022-05-24T14:04:40Z</time>
      </trkpt>
      <trkpt lat="46.23853" lon="5.48767">
        <ele>414.6</ele>
        <time>2022-05-24T14:04:42Z</time>
      </trkpt>
      <trkpt lat="46.23831" lon="5.48745">
        <ele>415.6</ele>
        <time>2022-05-24T14:04:49Z</time>
      </trkpt>
      <trkpt lat="46.23827" lon="5.48714">
        <ele>416.6</ele>
        <time>2022-05-24T14:04:55Z</time>
      </trkpt>
      <trkpt lat="46.23827" lon="5.48708">
        <ele>416.8</ele>
        <time>2022-05-24T14:04:56Z</time>
      </trkpt>
      <trkpt lat="46.23831" lon="5.48688">
        <ele>417.8</ele>
        <time>2022-05-24T14:05:00Z</time>
      </trkpt>
      <trkpt lat="46.23833" lon="5.48684">
        <ele>418.2</ele>
        <time>2022-05-24T14:05:01Z</time>
      </trkpt>
      <trkpt lat="46.23842" lon="5.48672">
        <ele>419</ele>
        <time>2022-05-24T14:05:05Z</time>
      </trkpt>
      <trkpt lat="46.23852" lon="5.48668">
        <ele>420</ele>
        <time>2022-05-24T14:05:08Z</time>
      </trkpt>
      <trkpt lat="46.23856" lon="5.48668">
        <ele>420.2</ele>
        <time>2022-05-24T14:05:09Z</time>
      </trkpt>
      <trkpt lat="46.23866" lon="5.48666">
        <ele>421.2</ele>
        <time>2022-05-24T14:05:12Z</time>
      </trkpt>
      <trkpt lat="46.23881" lon="5.48665">
        <ele>421.8</ele>
        <time>2022-05-24T14:05:16Z</time>
      </trkpt>
      <trkpt lat="46.23885" lon="5.48664">
        <ele>422.2</ele>
        <time>2022-05-24T14:05:17Z</time>
      </trkpt>
      <trkpt lat="46.23901" lon="5.48656">
        <ele>423.2</ele>
        <time>2022-05-24T14:05:21Z</time>
      </trkpt>
      <trkpt lat="46.23905" lon="5.48653">
        <ele>423.4</ele>
        <time>2022-05-24T14:05:22Z</time>
      </trkpt>
      <trkpt lat="46.23922" lon="5.48641">
        <ele>424.4</ele>
        <time>2022-05-24T14:05:26Z</time>
      </trkpt>
      <trkpt lat="46.2393" lon="5.48636">
        <ele>424.8</ele>
        <time>2022-05-24T14:05:28Z</time>
      </trkpt>
      <trkpt lat="46.23948" lon="5.48626">
        <ele>425.8</ele>
        <time>2022-05-24T14:05:33Z</time>
      </trkpt>
      <trkpt lat="46.23951" lon="5.48624">
        <ele>425.8</ele>
        <time>2022-05-24T14:05:34Z</time>
      </trkpt>
      <trkpt lat="46.2396" lon="5.48617">
        <ele>426.8</ele>
        <time>2022-05-24T14:05:37Z</time>
      </trkpt>
      <trkpt lat="46.23963" lon="5.48614">
        <ele>427.2</ele>
        <time>2022-05-24T14:05:38Z</time>
      </trkpt>
      <trkpt lat="46.23977" lon="5.48601">
        <ele>428.2</ele>
        <time>2022-05-24T14:05:42Z</time>
      </trkpt>
      <trkpt lat="46.23984" lon="5.48594">
        <ele>428.6</ele>
        <time>2022-05-24T14:05:44Z</time>
      </trkpt>
      <trkpt lat="46.23995" lon="5.48586">
        <ele>429.4</ele>
        <time>2022-05-24T14:05:47Z</time>
      </trkpt>
      <trkpt lat="46.2401" lon="5.4858">
        <ele>429.8</ele>
        <time>2022-05-24T14:05:51Z</time>
      </trkpt>
      <trkpt lat="46.24023" lon="5.48581">
        <ele>430.8</ele>
        <time>2022-05-24T14:05:54Z</time>
      </trkpt>
      <trkpt lat="46.24038" lon="5.4858">
        <ele>431.8</ele>
        <time>2022-05-24T14:05:58Z</time>
      </trkpt>
      <trkpt lat="46.24042" lon="5.48579">
        <ele>432.2</ele>
        <time>2022-05-24T14:05:59Z</time>
      </trkpt>
      <trkpt lat="46.24063" lon="5.48572">
        <ele>433.4</ele>
        <time>2022-05-24T14:06:04Z</time>
      </trkpt>
      <trkpt lat="46.24075" lon="5.48564">
        <ele>434.4</ele>
        <time>2022-05-24T14:06:07Z</time>
      </trkpt>
      <trkpt lat="46.24085" lon="5.48557">
        <ele>435</ele>
        <time>2022-05-24T14:06:10Z</time>
      </trkpt>
      <trkpt lat="46.24094" lon="5.48552">
        <ele>435.4</ele>
        <time>2022-05-24T14:06:12Z</time>
      </trkpt>
      <trkpt lat="46.24098" lon="5.48549">
        <ele>435.8</ele>
        <time>2022-05-24T14:06:13Z</time>
      </trkpt>
      <trkpt lat="46.2411" lon="5.48541">
        <ele>436.2</ele>
        <time>2022-05-24T14:06:16Z</time>
      </trkpt>
      <trkpt lat="46.24114" lon="5.48539">
        <ele>436.4</ele>
        <time>2022-05-24T14:06:17Z</time>
      </trkpt>
      <trkpt lat="46.24132" lon="5.48527">
        <ele>437.6</ele>
        <time>2022-05-24T14:06:22Z</time>
      </trkpt>
      <trkpt lat="46.24136" lon="5.48526">
        <ele>437.8</ele>
        <time>2022-05-24T14:06:23Z</time>
      </trkpt>
      <trkpt lat="46.24152" lon="5.48522">
        <ele>438.6</ele>
        <time>2022-05-24T14:06:27Z</time>
      </trkpt>
      <trkpt lat="46.24156" lon="5.48521">
        <ele>439</ele>
        <time>2022-05-24T14:06:28Z</time>
      </trkpt>
      <trkpt lat="46.24167" lon="5.48518">
        <ele>439.6</ele>
        <time>2022-05-24T14:06:31Z</time>
      </trkpt>
      <trkpt lat="46.24171" lon="5.48517">
        <ele>439.8</ele>
        <time>2022-05-24T14:06:32Z</time>
      </trkpt>
      <trkpt lat="46.24179" lon="5.48516">
        <ele>440.2</ele>
        <time>2022-05-24T14:06:34Z</time>
      </trkpt>
      <trkpt lat="46.24187" lon="5.48511">
        <ele>441.2</ele>
        <time>2022-05-24T14:06:36Z</time>
      </trkpt>
      <trkpt lat="46.24199" lon="5.48502">
        <ele>442</ele>
        <time>2022-05-24T14:06:40Z</time>
      </trkpt>
      <trkpt lat="46.24206" lon="5.48496">
        <ele>442.4</ele>
        <time>2022-05-24T14:06:42Z</time>
      </trkpt>
      <trkpt lat="46.2422" lon="5.48483">
        <ele>443.4</ele>
        <time>2022-05-24T14:06:46Z</time>
      </trkpt>
      <trkpt lat="46.24223" lon="5.48479">
        <ele>443.6</ele>
        <time>2022-05-24T14:06:47Z</time>
      </trkpt>
      <trkpt lat="46.24233" lon="5.4846">
        <ele>444.6</ele>
        <time>2022-05-24T14:06:51Z</time>
      </trkpt>
      <trkpt lat="46.24235" lon="5.48455">
        <ele>444.8</ele>
        <time>2022-05-24T14:06:52Z</time>
      </trkpt>
      <trkpt lat="46.24252" lon="5.48435">
        <ele>445.8</ele>
        <time>2022-05-24T14:06:57Z</time>
      </trkpt>
      <trkpt lat="46.24255" lon="5.48432">
        <ele>446</ele>
        <time>2022-05-24T14:06:58Z</time>
      </trkpt>
      <trkpt lat="46.24264" lon="5.48421">
        <ele>446.8</ele>
        <time>2022-05-24T14:07:01Z</time>
      </trkpt>
      <trkpt lat="46.24268" lon="5.48419">
        <ele>447</ele>
        <time>2022-05-24T14:07:02Z</time>
      </trkpt>
      <trkpt lat="46.24279" lon="5.48411">
        <ele>447.6</ele>
        <time>2022-05-24T14:07:05Z</time>
      </trkpt>
      <trkpt lat="46.24284" lon="5.48405">
        <ele>448.2</ele>
        <time>2022-05-24T14:07:07Z</time>
      </trkpt>
      <trkpt lat="46.24293" lon="5.48393">
        <ele>448.8</ele>
        <time>2022-05-24T14:07:10Z</time>
      </trkpt>
      <trkpt lat="46.243" lon="5.48378">
        <ele>449.4</ele>
        <time>2022-05-24T14:07:13Z</time>
      </trkpt>
      <trkpt lat="46.24305" lon="5.48364">
        <ele>449.8</ele>
        <time>2022-05-24T14:07:16Z</time>
      </trkpt>
      <trkpt lat="46.24308" lon="5.48346">
        <ele>450.4</ele>
        <time>2022-05-24T14:07:19Z</time>
      </trkpt>
      <trkpt lat="46.24309" lon="5.48335">
        <ele>450.8</ele>
        <time>2022-05-24T14:07:21Z</time>
      </trkpt>
      <trkpt lat="46.24308" lon="5.48312">
        <ele>451.6</ele>
        <time>2022-05-24T14:07:25Z</time>
      </trkpt>
      <trkpt lat="46.24305" lon="5.48295">
        <ele>452</ele>
        <time>2022-05-24T14:07:28Z</time>
      </trkpt>
      <trkpt lat="46.24297" lon="5.48273">
        <ele>452.8</ele>
        <time>2022-05-24T14:07:32Z</time>
      </trkpt>
      <trkpt lat="46.24295" lon="5.48269">
        <ele>452.8</ele>
        <time>2022-05-24T14:07:33Z</time>
      </trkpt>
      <trkpt lat="46.24281" lon="5.48248">
        <ele>453.8</ele>
        <time>2022-05-24T14:07:38Z</time>
      </trkpt>
      <trkpt lat="46.24275" lon="5.48242">
        <ele>454.2</ele>
        <time>2022-05-24T14:07:40Z</time>
      </trkpt>
      <trkpt lat="46.24262" lon="5.48229">
        <ele>455</ele>
        <time>2022-05-24T14:07:44Z</time>
      </trkpt>
      <trkpt lat="46.24249" lon="5.48213">
        <ele>456</ele>
        <time>2022-05-24T14:07:48Z</time>
      </trkpt>
      <trkpt lat="46.24247" lon="5.48209">
        <ele>456.2</ele>
        <time>2022-05-24T14:07:49Z</time>
      </trkpt>
      <trkpt lat="46.24238" lon="5.48185">
        <ele>457</ele>
        <time>2022-05-24T14:07:54Z</time>
      </trkpt>
      <trkpt lat="46.24238" lon="5.4818">
        <ele>457.2</ele>
        <time>2022-05-24T14:07:55Z</time>
      </trkpt>
      <trkpt lat="46.24242" lon="5.48174">
        <ele>457.8</ele>
        <time>2022-05-24T14:07:57Z</time>
      </trkpt>
      <trkpt lat="46.24248" lon="5.48174">
        <ele>458.2</ele>
        <time>2022-05-24T14:07:59Z</time>
      </trkpt>
      <trkpt lat="46.24251" lon="5.48177">
        <ele>458.2</ele>
        <time>2022-05-24T14:08:00Z</time>
      </trkpt>
      <trkpt lat="46.24254" lon="5.48181">
        <ele>458.6</ele>
        <time>2022-05-24T14:08:01Z</time>
      </trkpt>
      <trkpt lat="46.24278" lon="5.48196">
        <ele>459.6</ele>
        <time>2022-05-24T14:08:07Z</time>
      </trkpt>
      <trkpt lat="46.24282" lon="5.48198">
        <ele>459.8</ele>
        <time>2022-05-24T14:08:08Z</time>
      </trkpt>
      <trkpt lat="46.24299" lon="5.48205">
        <ele>460.8</ele>
        <time>2022-05-24T14:08:13Z</time>
      </trkpt>
      <trkpt lat="46.24302" lon="5.48205">
        <ele>461</ele>
        <time>2022-05-24T14:08:14Z</time>
      </trkpt>
      <trkpt lat="46.24313" lon="5.48208">
        <ele>462</ele>
        <time>2022-05-24T14:08:17Z</time>
      </trkpt>
      <trkpt lat="46.24328" lon="5.48213">
        <ele>463</ele>
        <time>2022-05-24T14:08:20Z</time>
      </trkpt>
      <trkpt lat="46.24346" lon="5.48222">
        <ele>463.2</ele>
        <time>2022-05-24T14:08:24Z</time>
      </trkpt>
      <trkpt lat="46.2435" lon="5.48226">
        <ele>463.4</ele>
        <time>2022-05-24T14:08:25Z</time>
      </trkpt>
      <trkpt lat="46.24354" lon="5.4823">
        <ele>463.6</ele>
        <time>2022-05-24T14:08:26Z</time>
      </trkpt>
      <trkpt lat="46.24361" lon="5.48239">
        <ele>463.8</ele>
        <time>2022-05-24T14:08:28Z</time>
      </trkpt>
      <trkpt lat="46.24375" lon="5.48248">
        <ele>464.4</ele>
        <time>2022-05-24T14:08:31Z</time>
      </trkpt>
      <trkpt lat="46.24385" lon="5.48252">
        <ele>464.6</ele>
        <time>2022-05-24T14:08:33Z</time>
      </trkpt>
      <trkpt lat="46.244" lon="5.48255">
        <ele>465</ele>
        <time>2022-05-24T14:08:36Z</time>
      </trkpt>
      <trkpt lat="46.24404" lon="5.48255">
        <ele>465</ele>
        <time>2022-05-24T14:08:37Z</time>
      </trkpt>
      <trkpt lat="46.24443" lon="5.48254">
        <ele>465.2</ele>
        <time>2022-05-24T14:08:44Z</time>
      </trkpt>
      <trkpt lat="46.24448" lon="5.48254">
        <ele>465.2</ele>
        <time>2022-05-24T14:08:45Z</time>
      </trkpt>
      <trkpt lat="46.24494" lon="5.48248">
        <ele>465.4</ele>
        <time>2022-05-24T14:08:53Z</time>
      </trkpt>
      <trkpt lat="46.24503" lon="5.48247">
        <ele>465.4</ele>
        <time>2022-05-24T14:08:55Z</time>
      </trkpt>
      <trkpt lat="46.24515" lon="5.48249">
        <ele>465.4</ele>
        <time>2022-05-24T14:08:58Z</time>
      </trkpt>
      <trkpt lat="46.24538" lon="5.48256">
        <ele>465.6</ele>
        <time>2022-05-24T14:09:02Z</time>
      </trkpt>
      <trkpt lat="46.2455" lon="5.4826">
        <ele>465.6</ele>
        <time>2022-05-24T14:09:04Z</time>
      </trkpt>
      <trkpt lat="46.24562" lon="5.48263">
        <ele>465.8</ele>
        <time>2022-05-24T14:09:06Z</time>
      </trkpt>
      <trkpt lat="46.24576" lon="5.48262">
        <ele>465.6</ele>
        <time>2022-05-24T14:09:08Z</time>
      </trkpt>
      <trkpt lat="46.24609" lon="5.4825">
        <ele>465.2</ele>
        <time>2022-05-24T14:09:13Z</time>
      </trkpt>
      <trkpt lat="46.24644" lon="5.48252">
        <ele>464.6</ele>
        <time>2022-05-24T14:09:18Z</time>
      </trkpt>
      <trkpt lat="46.24691" lon="5.48266">
        <ele>464</ele>
        <time>2022-05-24T14:09:25Z</time>
      </trkpt>
      <trkpt lat="46.24705" lon="5.4827">
        <ele>464.2</ele>
        <time>2022-05-24T14:09:27Z</time>
      </trkpt>
      <trkpt lat="46.24761" lon="5.48283">
        <ele>463.8</ele>
        <time>2022-05-24T14:09:35Z</time>
      </trkpt>
      <trkpt lat="46.24789" lon="5.48289">
        <ele>463.6</ele>
        <time>2022-05-24T14:09:39Z</time>
      </trkpt>
      <trkpt lat="46.2481" lon="5.48293">
        <ele>463.6</ele>
        <time>2022-05-24T14:09:43Z</time>
      </trkpt>
      <trkpt lat="46.24865" lon="5.48307">
        <ele>464.4</ele>
        <time>2022-05-24T14:09:50Z</time>
      </trkpt>
      <trkpt lat="46.24885" lon="5.48314">
        <ele>464.8</ele>
        <time>2022-05-24T14:09:53Z</time>
      </trkpt>
      <trkpt lat="46.24944" lon="5.48332">
        <ele>464.8</ele>
        <time>2022-05-24T14:10:02Z</time>
      </trkpt>
      <trkpt lat="46.24975" lon="5.48342">
        <ele>465</ele>
        <time>2022-05-24T14:10:07Z</time>
      </trkpt>
      <trkpt lat="46.25" lon="5.4835">
        <ele>465.2</ele>
        <time>2022-05-24T14:10:11Z</time>
      </trkpt>
      <trkpt lat="46.25056" lon="5.48366">
        <ele>465.4</ele>
        <time>2022-05-24T14:10:20Z</time>
      </trkpt>
      <trkpt lat="46.25109" lon="5.48381">
        <ele>465.4</ele>
        <time>2022-05-24T14:10:29Z</time>
      </trkpt>
      <trkpt lat="46.25127" lon="5.48386">
        <ele>465.8</ele>
        <time>2022-05-24T14:10:32Z</time>
      </trkpt>
      <trkpt lat="46.25135" lon="5.48388">
        <ele>466</ele>
        <time>2022-05-24T14:10:33Z</time>
      </trkpt>
      <trkpt lat="46.25171" lon="5.48398">
        <ele>466.2</ele>
        <time>2022-05-24T14:10:39Z</time>
      </trkpt>
      <trkpt lat="46.25183" lon="5.48402">
        <ele>466.2</ele>
        <time>2022-05-24T14:10:41Z</time>
      </trkpt>
      <trkpt lat="46.25203" lon="5.48414">
        <ele>466</ele>
        <time>2022-05-24T14:10:45Z</time>
      </trkpt>
      <trkpt lat="46.25249" lon="5.48444">
        <ele>467</ele>
        <time>2022-05-24T14:10:54Z</time>
      </trkpt>
      <trkpt lat="46.25254" lon="5.48448">
        <ele>467.2</ele>
        <time>2022-05-24T14:10:55Z</time>
      </trkpt>
      <trkpt lat="46.25288" lon="5.48476">
        <ele>468.2</ele>
        <time>2022-05-24T14:11:02Z</time>
      </trkpt>
      <trkpt lat="46.25297" lon="5.48485">
        <ele>468.2</ele>
        <time>2022-05-24T14:11:04Z</time>
      </trkpt>
      <trkpt lat="46.25333" lon="5.48526">
        <ele>469.2</ele>
        <time>2022-05-24T14:11:12Z</time>
      </trkpt>
      <trkpt lat="46.25372" lon="5.48564">
        <ele>469.6</ele>
        <time>2022-05-24T14:11:21Z</time>
      </trkpt>
      <trkpt lat="46.25395" lon="5.48582">
        <ele>470.4</ele>
        <time>2022-05-24T14:11:26Z</time>
      </trkpt>
      <trkpt lat="46.2542" lon="5.48599">
        <ele>471</ele>
        <time>2022-05-24T14:11:31Z</time>
      </trkpt>
      <trkpt lat="46.25435" lon="5.48609">
        <ele>471.4</ele>
        <time>2022-05-24T14:11:34Z</time>
      </trkpt>
      <trkpt lat="46.25469" lon="5.48632">
        <ele>472.4</ele>
        <time>2022-05-24T14:11:41Z</time>
      </trkpt>
      <trkpt lat="46.25474" lon="5.48635">
        <ele>472.6</ele>
        <time>2022-05-24T14:11:42Z</time>
      </trkpt>
      <trkpt lat="46.25502" lon="5.48652">
        <ele>473.4</ele>
        <time>2022-05-24T14:11:48Z</time>
      </trkpt>
      <trkpt lat="46.25515" lon="5.4866">
        <ele>473.8</ele>
        <time>2022-05-24T14:11:51Z</time>
      </trkpt>
      <trkpt lat="46.25532" lon="5.48669">
        <ele>474.2</ele>
        <time>2022-05-24T14:11:55Z</time>
      </trkpt>
      <trkpt lat="46.25546" lon="5.48676">
        <ele>474.8</ele>
        <time>2022-05-24T14:11:58Z</time>
      </trkpt>
      <trkpt lat="46.25566" lon="5.48687">
        <ele>476</ele>
        <time>2022-05-24T14:12:02Z</time>
      </trkpt>
      <trkpt lat="46.25576" lon="5.48694">
        <ele>476.4</ele>
        <time>2022-05-24T14:12:04Z</time>
      </trkpt>
      <trkpt lat="46.25604" lon="5.48716">
        <ele>477.2</ele>
        <time>2022-05-24T14:12:10Z</time>
      </trkpt>
      <trkpt lat="46.25614" lon="5.48725">
        <ele>477.4</ele>
        <time>2022-05-24T14:12:12Z</time>
      </trkpt>
      <trkpt lat="46.25651" lon="5.48759">
        <ele>478.2</ele>
        <time>2022-05-24T14:12:20Z</time>
      </trkpt>
      <trkpt lat="46.25688" lon="5.4879">
        <ele>477.6</ele>
        <time>2022-05-24T14:12:27Z</time>
      </trkpt>
      <trkpt lat="46.25728" lon="5.48813">
        <ele>476.8</ele>
        <time>2022-05-24T14:12:33Z</time>
      </trkpt>
      <trkpt lat="46.25745" lon="5.48814">
        <ele>476.2</ele>
        <time>2022-05-24T14:12:35Z</time>
      </trkpt>
      <trkpt lat="46.25753" lon="5.48812">
        <ele>476</ele>
        <time>2022-05-24T14:12:36Z</time>
      </trkpt>
      <trkpt lat="46.25762" lon="5.48808">
        <ele>475.8</ele>
        <time>2022-05-24T14:12:37Z</time>
      </trkpt>
      <trkpt lat="46.25786" lon="5.48794">
        <ele>474.6</ele>
        <time>2022-05-24T14:12:40Z</time>
      </trkpt>
      <trkpt lat="46.2582" lon="5.48784">
        <ele>473</ele>
        <time>2022-05-24T14:12:44Z</time>
      </trkpt>
      <trkpt lat="46.25836" lon="5.48785">
        <ele>472.2</ele>
        <time>2022-05-24T14:12:46Z</time>
      </trkpt>
      <trkpt lat="46.25852" lon="5.48791">
        <ele>472</ele>
        <time>2022-05-24T14:12:48Z</time>
      </trkpt>
      <trkpt lat="46.25883" lon="5.48815">
        <ele>471.2</ele>
        <time>2022-05-24T14:12:53Z</time>
      </trkpt>
      <trkpt lat="46.25933" lon="5.48866">
        <ele>471.6</ele>
        <time>2022-05-24T14:13:01Z</time>
      </trkpt>
      <trkpt lat="46.25977" lon="5.48911">
        <ele>472</ele>
        <time>2022-05-24T14:13:09Z</time>
      </trkpt>
      <trkpt lat="46.25987" lon="5.48922">
        <ele>472</ele>
        <time>2022-05-24T14:13:11Z</time>
      </trkpt>
      <trkpt lat="46.26018" lon="5.48956">
        <ele>473</ele>
        <time>2022-05-24T14:13:17Z</time>
      </trkpt>
      <trkpt lat="46.26028" lon="5.48967">
        <ele>473.2</ele>
        <time>2022-05-24T14:13:19Z</time>
      </trkpt>
      <trkpt lat="46.26059" lon="5.48998">
        <ele>474</ele>
        <time>2022-05-24T14:13:25Z</time>
      </trkpt>
      <trkpt lat="46.26065" lon="5.49001">
        <ele>474.2</ele>
        <time>2022-05-24T14:13:26Z</time>
      </trkpt>
      <trkpt lat="46.2607" lon="5.49003">
        <ele>474.2</ele>
        <time>2022-05-24T14:13:27Z</time>
      </trkpt>
      <trkpt lat="46.26087" lon="5.49004">
        <ele>474.8</ele>
        <time>2022-05-24T14:13:30Z</time>
      </trkpt>
      <trkpt lat="46.26093" lon="5.49003">
        <ele>475.2</ele>
        <time>2022-05-24T14:13:31Z</time>
      </trkpt>
      <trkpt lat="46.26113" lon="5.49">
        <ele>476.6</ele>
        <time>2022-05-24T14:13:35Z</time>
      </trkpt>
      <trkpt lat="46.26118" lon="5.48999">
        <ele>476.8</ele>
        <time>2022-05-24T14:13:36Z</time>
      </trkpt>
      <trkpt lat="46.26146" lon="5.48995">
        <ele>477.6</ele>
        <time>2022-05-24T14:13:41Z</time>
      </trkpt>
      <trkpt lat="46.26168" lon="5.48994">
        <ele>478.2</ele>
        <time>2022-05-24T14:13:45Z</time>
      </trkpt>
      <trkpt lat="46.2619" lon="5.49">
        <ele>478.6</ele>
        <time>2022-05-24T14:13:49Z</time>
      </trkpt>
      <trkpt lat="46.262" lon="5.49004">
        <ele>478.8</ele>
        <time>2022-05-24T14:13:51Z</time>
      </trkpt>
      <trkpt lat="46.26248" lon="5.49026">
        <ele>479</ele>
        <time>2022-05-24T14:14:00Z</time>
      </trkpt>
      <trkpt lat="46.26303" lon="5.49046">
        <ele>479.4</ele>
        <time>2022-05-24T14:14:10Z</time>
      </trkpt>
      <trkpt lat="46.26352" lon="5.49062">
        <ele>479.6</ele>
        <time>2022-05-24T14:14:18Z</time>
      </trkpt>
      <trkpt lat="46.26358" lon="5.49064">
        <ele>479.6</ele>
        <time>2022-05-24T14:14:19Z</time>
      </trkpt>
      <trkpt lat="46.26398" lon="5.49063">
        <ele>479.2</ele>
        <time>2022-05-24T14:14:25Z</time>
      </trkpt>
      <trkpt lat="46.26412" lon="5.49062">
        <ele>479</ele>
        <time>2022-05-24T14:14:27Z</time>
      </trkpt>
      <trkpt lat="46.26462" lon="5.4905">
        <ele>479</ele>
        <time>2022-05-24T14:14:34Z</time>
      </trkpt>
      <trkpt lat="46.26516" lon="5.4903">
        <ele>479</ele>
        <time>2022-05-24T14:14:42Z</time>
      </trkpt>
      <trkpt lat="46.26529" lon="5.49026">
        <ele>479</ele>
        <time>2022-05-24T14:14:44Z</time>
      </trkpt>
      <trkpt lat="46.26569" lon="5.49026">
        <ele>479</ele>
        <time>2022-05-24T14:14:50Z</time>
      </trkpt>
      <trkpt lat="46.26608" lon="5.49033">
        <ele>478.6</ele>
        <time>2022-05-24T14:14:56Z</time>
      </trkpt>
      <trkpt lat="46.26633" lon="5.49039">
        <ele>478.8</ele>
        <time>2022-05-24T14:15:00Z</time>
      </trkpt>
      <trkpt lat="46.26678" lon="5.4905">
        <ele>479.2</ele>
        <time>2022-05-24T14:15:07Z</time>
      </trkpt>
      <trkpt lat="46.2669" lon="5.49053">
        <ele>479.4</ele>
        <time>2022-05-24T14:15:09Z</time>
      </trkpt>
      <trkpt lat="46.26719" lon="5.49058">
        <ele>479.6</ele>
        <time>2022-05-24T14:15:14Z</time>
      </trkpt>
      <trkpt lat="46.26741" lon="5.49063">
        <ele>480</ele>
        <time>2022-05-24T14:15:17Z</time>
      </trkpt>
      <trkpt lat="46.26783" lon="5.49081">
        <ele>480.6</ele>
        <time>2022-05-24T14:15:24Z</time>
      </trkpt>
      <trkpt lat="46.26804" lon="5.49096">
        <ele>481</ele>
        <time>2022-05-24T14:15:28Z</time>
      </trkpt>
      <trkpt lat="46.26821" lon="5.49108">
        <ele>481</ele>
        <time>2022-05-24T14:15:31Z</time>
      </trkpt>
      <trkpt lat="46.26858" lon="5.49117">
        <ele>481.4</ele>
        <time>2022-05-24T14:15:37Z</time>
      </trkpt>
      <trkpt lat="46.26906" lon="5.49115">
        <ele>481.8</ele>
        <time>2022-05-24T14:15:45Z</time>
      </trkpt>
      <trkpt lat="46.26919" lon="5.49114">
        <ele>482</ele>
        <time>2022-05-24T14:15:47Z</time>
      </trkpt>
      <trkpt lat="46.26958" lon="5.49109">
        <ele>482</ele>
        <time>2022-05-24T14:15:53Z</time>
      </trkpt>
      <trkpt lat="46.27011" lon="5.49098">
        <ele>481.4</ele>
        <time>2022-05-24T14:16:01Z</time>
      </trkpt>
      <trkpt lat="46.27017" lon="5.49096">
        <ele>481.6</ele>
        <time>2022-05-24T14:16:02Z</time>
      </trkpt>
      <trkpt lat="46.27074" lon="5.49072">
        <ele>481.8</ele>
        <time>2022-05-24T14:16:11Z</time>
      </trkpt>
      <trkpt lat="46.27081" lon="5.49069">
        <ele>481.8</ele>
        <time>2022-05-24T14:16:12Z</time>
      </trkpt>
      <trkpt lat="46.2713" lon="5.49053">
        <ele>482</ele>
        <time>2022-05-24T14:16:20Z</time>
      </trkpt>
      <trkpt lat="46.27161" lon="5.49046">
        <ele>482</ele>
        <time>2022-05-24T14:16:25Z</time>
      </trkpt>
      <trkpt lat="46.27216" lon="5.49042">
        <ele>482.6</ele>
        <time>2022-05-24T14:16:33Z</time>
      </trkpt>
      <trkpt lat="46.27275" lon="5.4904">
        <ele>481.6</ele>
        <time>2022-05-24T14:16:41Z</time>
      </trkpt>
      <trkpt lat="46.27332" lon="5.49035">
        <ele>481.8</ele>
        <time>2022-05-24T14:16:49Z</time>
      </trkpt>
      <trkpt lat="46.27339" lon="5.49034">
        <ele>481.8</ele>
        <time>2022-05-24T14:16:50Z</time>
      </trkpt>
      <trkpt lat="46.27391" lon="5.49023">
        <ele>481.6</ele>
        <time>2022-05-24T14:16:57Z</time>
      </trkpt>
      <trkpt lat="46.2742" lon="5.48997">
        <ele>481.4</ele>
        <time>2022-05-24T14:17:01Z</time>
      </trkpt>
      <trkpt lat="46.27435" lon="5.48984">
        <ele>481.2</ele>
        <time>2022-05-24T14:17:03Z</time>
      </trkpt>
      <trkpt lat="46.27442" lon="5.48979">
        <ele>480.4</ele>
        <time>2022-05-24T14:17:04Z</time>
      </trkpt>
      <trkpt lat="46.27451" lon="5.48975">
        <ele>480</ele>
        <time>2022-05-24T14:17:05Z</time>
      </trkpt>
      <trkpt lat="46.27459" lon="5.48971">
        <ele>479.2</ele>
        <time>2022-05-24T14:17:06Z</time>
      </trkpt>
      <trkpt lat="46.27491" lon="5.48959">
        <ele>478.2</ele>
        <time>2022-05-24T14:17:10Z</time>
      </trkpt>
      <trkpt lat="46.27512" lon="5.48954">
        <ele>477.8</ele>
        <time>2022-05-24T14:17:13Z</time>
      </trkpt>
      <trkpt lat="46.27566" lon="5.48948">
        <ele>477.4</ele>
        <time>2022-05-24T14:17:20Z</time>
      </trkpt>
      <trkpt lat="46.27602" lon="5.4894">
        <ele>478</ele>
        <time>2022-05-24T14:17:26Z</time>
      </trkpt>
      <trkpt lat="46.27611" lon="5.48937">
        <ele>478.4</ele>
        <time>2022-05-24T14:17:28Z</time>
      </trkpt>
      <trkpt lat="46.27615" lon="5.48935">
        <ele>478.4</ele>
        <time>2022-05-24T14:17:29Z</time>
      </trkpt>
      <trkpt lat="46.2762" lon="5.48933">
        <ele>478.6</ele>
        <time>2022-05-24T14:17:30Z</time>
      </trkpt>
      <trkpt lat="46.27633" lon="5.48925">
        <ele>478.8</ele>
        <time>2022-05-24T14:17:33Z</time>
      </trkpt>
      <trkpt lat="46.27647" lon="5.48914">
        <ele>478.8</ele>
        <time>2022-05-24T14:17:36Z</time>
      </trkpt>
      <trkpt lat="46.27657" lon="5.48902">
        <ele>479</ele>
        <time>2022-05-24T14:17:38Z</time>
      </trkpt>
      <trkpt lat="46.27665" lon="5.48886">
        <ele>479</ele>
        <time>2022-05-24T14:17:40Z</time>
      </trkpt>
      <trkpt lat="46.2769" lon="5.48842">
        <ele>479.2</ele>
        <time>2022-05-24T14:17:46Z</time>
      </trkpt>
      <trkpt lat="46.27711" lon="5.48808">
        <ele>479.4</ele>
        <time>2022-05-24T14:17:51Z</time>
      </trkpt>
      <trkpt lat="46.27717" lon="5.48791">
        <ele>479.6</ele>
        <time>2022-05-24T14:17:53Z</time>
      </trkpt>
      <trkpt lat="46.27721" lon="5.48761">
        <ele>479.6</ele>
        <time>2022-05-24T14:17:56Z</time>
      </trkpt>
      <trkpt lat="46.27723" lon="5.48694">
        <ele>479.2</ele>
        <time>2022-05-24T14:18:02Z</time>
      </trkpt>
      <trkpt lat="46.27727" lon="5.48618">
        <ele>478.4</ele>
        <time>2022-05-24T14:18:09Z</time>
      </trkpt>
      <trkpt lat="46.27733" lon="5.48551">
        <ele>478.4</ele>
        <time>2022-05-24T14:18:16Z</time>
      </trkpt>
      <trkpt lat="46.27734" lon="5.48541">
        <ele>478.4</ele>
        <time>2022-05-24T14:18:17Z</time>
      </trkpt>
      <trkpt lat="46.27732" lon="5.48524">
        <ele>478.8</ele>
        <time>2022-05-24T14:18:19Z</time>
      </trkpt>
      <trkpt lat="46.27731" lon="5.48515">
        <ele>478.8</ele>
        <time>2022-05-24T14:18:20Z</time>
      </trkpt>
      <trkpt lat="46.27729" lon="5.48507">
        <ele>479.2</ele>
        <time>2022-05-24T14:18:21Z</time>
      </trkpt>
      <trkpt lat="46.27721" lon="5.48484">
        <ele>479.8</ele>
        <time>2022-05-24T14:18:24Z</time>
      </trkpt>
      <trkpt lat="46.27716" lon="5.48468">
        <ele>480.4</ele>
        <time>2022-05-24T14:18:26Z</time>
      </trkpt>
      <trkpt lat="46.27714" lon="5.4846">
        <ele>480.6</ele>
        <time>2022-05-24T14:18:27Z</time>
      </trkpt>
      <trkpt lat="46.27712" lon="5.48444">
        <ele>480.8</ele>
        <time>2022-05-24T14:18:29Z</time>
      </trkpt>
      <trkpt lat="46.27711" lon="5.48426">
        <ele>481</ele>
        <time>2022-05-24T14:18:31Z</time>
      </trkpt>
      <trkpt lat="46.27714" lon="5.48409">
        <ele>481</ele>
        <time>2022-05-24T14:18:33Z</time>
      </trkpt>
      <trkpt lat="46.27716" lon="5.48401">
        <ele>481.2</ele>
        <time>2022-05-24T14:18:34Z</time>
      </trkpt>
      <trkpt lat="46.27722" lon="5.48358">
        <ele>481.4</ele>
        <time>2022-05-24T14:18:39Z</time>
      </trkpt>
      <trkpt lat="46.27726" lon="5.48333">
        <ele>482</ele>
        <time>2022-05-24T14:18:43Z</time>
      </trkpt>
      <trkpt lat="46.27734" lon="5.48317">
        <ele>482.6</ele>
        <time>2022-05-24T14:18:45Z</time>
      </trkpt>
      <trkpt lat="46.27741" lon="5.48311">
        <ele>482.8</ele>
        <time>2022-05-24T14:18:46Z</time>
      </trkpt>
      <trkpt lat="46.27747" lon="5.48309">
        <ele>483</ele>
        <time>2022-05-24T14:18:47Z</time>
      </trkpt>
      <trkpt lat="46.27759" lon="5.48308">
        <ele>483.2</ele>
        <time>2022-05-24T14:18:49Z</time>
      </trkpt>
      <trkpt lat="46.27765" lon="5.48309">
        <ele>483.2</ele>
        <time>2022-05-24T14:18:50Z</time>
      </trkpt>
      <trkpt lat="46.27801" lon="5.4832">
        <ele>483</ele>
        <time>2022-05-24T14:18:55Z</time>
      </trkpt>
      <trkpt lat="46.27854" lon="5.48336">
        <ele>481.4</ele>
        <time>2022-05-24T14:19:02Z</time>
      </trkpt>
      <trkpt lat="46.27861" lon="5.48338">
        <ele>481.2</ele>
        <time>2022-05-24T14:19:03Z</time>
      </trkpt>
      <trkpt lat="46.27896" lon="5.48348">
        <ele>480.8</ele>
        <time>2022-05-24T14:19:08Z</time>
      </trkpt>
      <trkpt lat="46.27939" lon="5.4835">
        <ele>481.8</ele>
        <time>2022-05-24T14:19:15Z</time>
      </trkpt>
      <trkpt lat="46.27967" lon="5.48355">
        <ele>482.6</ele>
        <time>2022-05-24T14:19:19Z</time>
      </trkpt>
      <trkpt lat="46.27981" lon="5.4836">
        <ele>482.8</ele>
        <time>2022-05-24T14:19:21Z</time>
      </trkpt>
      <trkpt lat="46.28009" lon="5.4838">
        <ele>482.8</ele>
        <time>2022-05-24T14:19:26Z</time>
      </trkpt>
      <trkpt lat="46.28027" lon="5.48393">
        <ele>483.4</ele>
        <time>2022-05-24T14:19:30Z</time>
      </trkpt>
      <trkpt lat="46.28031" lon="5.48394">
        <ele>483.6</ele>
        <time>2022-05-24T14:19:31Z</time>
      </trkpt>
      <trkpt lat="46.28034" lon="5.48394">
        <ele>483.6</ele>
        <time>2022-05-24T14:19:32Z</time>
      </trkpt>
      <trkpt lat="46.28039" lon="5.48393">
        <ele>483.8</ele>
        <time>2022-05-24T14:19:35Z</time>
      </trkpt>
      <trkpt lat="46.28039" lon="5.48393">
        <ele>483.8</ele>
        <time>2022-05-24T14:19:37Z</time>
      </trkpt>
      <trkpt lat="46.28041" lon="5.48399">
        <ele>483</ele>
        <time>2022-05-24T14:21:28Z</time>
      </trkpt>
      <trkpt lat="46.28046" lon="5.48401">
        <ele>483</ele>
        <time>2022-05-24T14:21:30Z</time>
      </trkpt>
      <trkpt lat="46.28061" lon="5.48407">
        <ele>483.2</ele>
        <time>2022-05-24T14:21:34Z</time>
      </trkpt>
      <trkpt lat="46.28092" lon="5.48415">
        <ele>483.4</ele>
        <time>2022-05-24T14:21:40Z</time>
      </trkpt>
      <trkpt lat="46.28138" lon="5.48422">
        <ele>484</ele>
        <time>2022-05-24T14:21:48Z</time>
      </trkpt>
      <trkpt lat="46.28151" lon="5.48422">
        <ele>484.2</ele>
        <time>2022-05-24T14:21:50Z</time>
      </trkpt>
      <trkpt lat="46.2819" lon="5.48419">
        <ele>484.4</ele>
        <time>2022-05-24T14:21:56Z</time>
      </trkpt>
      <trkpt lat="46.28244" lon="5.48415">
        <ele>483.8</ele>
        <time>2022-05-24T14:22:04Z</time>
      </trkpt>
      <trkpt lat="46.2827" lon="5.48413">
        <ele>483</ele>
        <time>2022-05-24T14:22:08Z</time>
      </trkpt>
      <trkpt lat="46.28304" lon="5.48412">
        <ele>482.6</ele>
        <time>2022-05-24T14:22:13Z</time>
      </trkpt>
      <trkpt lat="46.28359" lon="5.48417">
        <ele>482.2</ele>
        <time>2022-05-24T14:22:21Z</time>
      </trkpt>
      <trkpt lat="46.28366" lon="5.48419">
        <ele>482</ele>
        <time>2022-05-24T14:22:22Z</time>
      </trkpt>
      <trkpt lat="46.28406" lon="5.48426">
        <ele>481.4</ele>
        <time>2022-05-24T14:22:27Z</time>
      </trkpt>
      <trkpt lat="46.28454" lon="5.48427">
        <ele>481</ele>
        <time>2022-05-24T14:22:33Z</time>
      </trkpt>
      <trkpt lat="46.28516" lon="5.48421">
        <ele>480.6</ele>
        <time>2022-05-24T14:22:41Z</time>
      </trkpt>
      <trkpt lat="46.28522" lon="5.48419">
        <ele>480.6</ele>
        <time>2022-05-24T14:22:42Z</time>
      </trkpt>
      <trkpt lat="46.28578" lon="5.48407">
        <ele>480.4</ele>
        <time>2022-05-24T14:22:49Z</time>
      </trkpt>
      <trkpt lat="46.28607" lon="5.484">
        <ele>480.4</ele>
        <time>2022-05-24T14:22:53Z</time>
      </trkpt>
      <trkpt lat="46.28667" lon="5.48384">
        <ele>480.6</ele>
        <time>2022-05-24T14:23:01Z</time>
      </trkpt>
      <trkpt lat="46.28725" lon="5.48371">
        <ele>481</ele>
        <time>2022-05-24T14:23:09Z</time>
      </trkpt>
      <trkpt lat="46.28742" lon="5.48368">
        <ele>481</ele>
        <time>2022-05-24T14:23:11Z</time>
      </trkpt>
      <trkpt lat="46.28799" lon="5.48364">
        <ele>480.2</ele>
        <time>2022-05-24T14:23:19Z</time>
      </trkpt>
      <trkpt lat="46.28858" lon="5.48365">
        <ele>480.4</ele>
        <time>2022-05-24T14:23:27Z</time>
      </trkpt>
      <trkpt lat="46.28918" lon="5.48368">
        <ele>480.2</ele>
        <time>2022-05-24T14:23:35Z</time>
      </trkpt>
      <trkpt lat="46.28938" lon="5.48372">
        <ele>480.2</ele>
        <time>2022-05-24T14:23:38Z</time>
      </trkpt>
      <trkpt lat="46.28979" lon="5.48389">
        <ele>480.2</ele>
        <time>2022-05-24T14:23:44Z</time>
      </trkpt>
      <trkpt lat="46.29036" lon="5.48415">
        <ele>480.2</ele>
        <time>2022-05-24T14:23:52Z</time>
      </trkpt>
      <trkpt lat="46.29043" lon="5.48418">
        <ele>480.4</ele>
        <time>2022-05-24T14:23:53Z</time>
      </trkpt>
      <trkpt lat="46.29049" lon="5.48417">
        <ele>480.2</ele>
        <time>2022-05-24T14:23:54Z</time>
      </trkpt>
      <trkpt lat="46.29055" lon="5.48414">
        <ele>480.4</ele>
        <time>2022-05-24T14:23:55Z</time>
      </trkpt>
      <trkpt lat="46.29065" lon="5.48401">
        <ele>480.4</ele>
        <time>2022-05-24T14:23:57Z</time>
      </trkpt>
      <trkpt lat="46.2907" lon="5.48386">
        <ele>480.6</ele>
        <time>2022-05-24T14:23:59Z</time>
      </trkpt>
      <trkpt lat="46.29074" lon="5.48366">
        <ele>480.6</ele>
        <time>2022-05-24T14:24:01Z</time>
      </trkpt>
      <trkpt lat="46.29085" lon="5.48292">
        <ele>481.6</ele>
        <time>2022-05-24T14:24:09Z</time>
      </trkpt>
      <trkpt lat="46.29102" lon="5.48221">
        <ele>482</ele>
        <time>2022-05-24T14:24:17Z</time>
      </trkpt>
      <trkpt lat="46.2911" lon="5.48208">
        <ele>482</ele>
        <time>2022-05-24T14:24:19Z</time>
      </trkpt>
      <trkpt lat="46.29115" lon="5.48203">
        <ele>482.2</ele>
        <time>2022-05-24T14:24:20Z</time>
      </trkpt>
      <trkpt lat="46.29126" lon="5.48196">
        <ele>482.2</ele>
        <time>2022-05-24T14:24:22Z</time>
      </trkpt>
      <trkpt lat="46.29141" lon="5.48188">
        <ele>482.6</ele>
        <time>2022-05-24T14:24:25Z</time>
      </trkpt>
      <trkpt lat="46.29162" lon="5.48177">
        <ele>483.4</ele>
        <time>2022-05-24T14:24:29Z</time>
      </trkpt>
      <trkpt lat="46.29183" lon="5.48166">
        <ele>483.8</ele>
        <time>2022-05-24T14:24:33Z</time>
      </trkpt>
      <trkpt lat="46.29197" lon="5.48157">
        <ele>484.6</ele>
        <time>2022-05-24T14:24:36Z</time>
      </trkpt>
      <trkpt lat="46.29213" lon="5.48142">
        <ele>485.8</ele>
        <time>2022-05-24T14:24:40Z</time>
      </trkpt>
      <trkpt lat="46.29215" lon="5.48138">
        <ele>485.8</ele>
        <time>2022-05-24T14:24:41Z</time>
      </trkpt>
      <trkpt lat="46.29222" lon="5.48127">
        <ele>486.8</ele>
        <time>2022-05-24T14:24:44Z</time>
      </trkpt>
      <trkpt lat="46.2923" lon="5.48114">
        <ele>487.8</ele>
        <time>2022-05-24T14:24:47Z</time>
      </trkpt>
      <trkpt lat="46.29237" lon="5.48107">
        <ele>488.8</ele>
        <time>2022-05-24T14:24:49Z</time>
      </trkpt>
      <trkpt lat="46.29241" lon="5.48105">
        <ele>489.2</ele>
        <time>2022-05-24T14:24:50Z</time>
      </trkpt>
      <trkpt lat="46.29245" lon="5.48103">
        <ele>489.4</ele>
        <time>2022-05-24T14:24:51Z</time>
      </trkpt>
      <trkpt lat="46.29261" lon="5.48098">
        <ele>489.6</ele>
        <time>2022-05-24T14:24:54Z</time>
      </trkpt>
      <trkpt lat="46.29281" lon="5.48089">
        <ele>489.6</ele>
        <time>2022-05-24T14:24:57Z</time>
      </trkpt>
      <trkpt lat="46.29296" lon="5.48089">
        <ele>489.2</ele>
        <time>2022-05-24T14:24:59Z</time>
      </trkpt>
      <trkpt lat="46.29303" lon="5.48093">
        <ele>489</ele>
        <time>2022-05-24T14:25:00Z</time>
      </trkpt>
      <trkpt lat="46.29309" lon="5.48099">
        <ele>488.2</ele>
        <time>2022-05-24T14:25:01Z</time>
      </trkpt>
      <trkpt lat="46.29326" lon="5.48121">
        <ele>487.6</ele>
        <time>2022-05-24T14:25:04Z</time>
      </trkpt>
      <trkpt lat="46.29359" lon="5.48171">
        <ele>487.2</ele>
        <time>2022-05-24T14:25:10Z</time>
      </trkpt>
      <trkpt lat="46.29387" lon="5.48211">
        <ele>486.8</ele>
        <time>2022-05-24T14:25:15Z</time>
      </trkpt>
      <trkpt lat="46.29393" lon="5.48218">
        <ele>486.8</ele>
        <time>2022-05-24T14:25:16Z</time>
      </trkpt>
      <trkpt lat="46.2943" lon="5.48256">
        <ele>486</ele>
        <time>2022-05-24T14:25:22Z</time>
      </trkpt>
      <trkpt lat="46.29436" lon="5.4826">
        <ele>485.8</ele>
        <time>2022-05-24T14:25:23Z</time>
      </trkpt>
      <trkpt lat="46.29465" lon="5.48283">
        <ele>485</ele>
        <time>2022-05-24T14:25:27Z</time>
      </trkpt>
      <trkpt lat="46.29479" lon="5.48292">
        <ele>485</ele>
        <time>2022-05-24T14:25:29Z</time>
      </trkpt>
      <trkpt lat="46.29528" lon="5.48315">
        <ele>484.6</ele>
        <time>2022-05-24T14:25:36Z</time>
      </trkpt>
      <trkpt lat="46.29579" lon="5.48342">
        <ele>484.8</ele>
        <time>2022-05-24T14:25:43Z</time>
      </trkpt>
      <trkpt lat="46.29585" lon="5.48345">
        <ele>485</ele>
        <time>2022-05-24T14:25:44Z</time>
      </trkpt>
      <trkpt lat="46.29619" lon="5.48364">
        <ele>485.2</ele>
        <time>2022-05-24T14:25:49Z</time>
      </trkpt>
      <trkpt lat="46.29631" lon="5.48371">
        <ele>485.2</ele>
        <time>2022-05-24T14:25:51Z</time>
      </trkpt>
      <trkpt lat="46.29657" lon="5.48384">
        <ele>486.2</ele>
        <time>2022-05-24T14:25:55Z</time>
      </trkpt>
      <trkpt lat="46.29671" lon="5.48391">
        <ele>486.6</ele>
        <time>2022-05-24T14:25:57Z</time>
      </trkpt>
      <trkpt lat="46.29725" lon="5.48423">
        <ele>487</ele>
        <time>2022-05-24T14:26:05Z</time>
      </trkpt>
      <trkpt lat="46.29731" lon="5.48428">
        <ele>487</ele>
        <time>2022-05-24T14:26:06Z</time>
      </trkpt>
      <trkpt lat="46.29737" lon="5.48434">
        <ele>487</ele>
        <time>2022-05-24T14:26:07Z</time>
      </trkpt>
      <trkpt lat="46.29747" lon="5.48449">
        <ele>487.2</ele>
        <time>2022-05-24T14:26:09Z</time>
      </trkpt>
      <trkpt lat="46.29751" lon="5.48457">
        <ele>487.2</ele>
        <time>2022-05-24T14:26:10Z</time>
      </trkpt>
      <trkpt lat="46.29769" lon="5.48482">
        <ele>487.2</ele>
        <time>2022-05-24T14:26:14Z</time>
      </trkpt>
      <trkpt lat="46.29775" lon="5.48487">
        <ele>487.4</ele>
        <time>2022-05-24T14:26:15Z</time>
      </trkpt>
      <trkpt lat="46.29821" lon="5.48519">
        <ele>487.8</ele>
        <time>2022-05-24T14:26:22Z</time>
      </trkpt>
      <trkpt lat="46.29856" lon="5.48528">
        <ele>487.8</ele>
        <time>2022-05-24T14:26:27Z</time>
      </trkpt>
      <trkpt lat="46.29891" lon="5.4852">
        <ele>487.8</ele>
        <time>2022-05-24T14:26:32Z</time>
      </trkpt>
      <trkpt lat="46.29942" lon="5.48496">
        <ele>488</ele>
        <time>2022-05-24T14:26:40Z</time>
      </trkpt>
      <trkpt lat="46.29948" lon="5.48493">
        <ele>488.2</ele>
        <time>2022-05-24T14:26:41Z</time>
      </trkpt>
      <trkpt lat="46.29967" lon="5.48477">
        <ele>488.2</ele>
        <time>2022-05-24T14:26:44Z</time>
      </trkpt>
      <trkpt lat="46.29978" lon="5.48466">
        <ele>488.4</ele>
        <time>2022-05-24T14:26:46Z</time>
      </trkpt>
      <trkpt lat="46.30005" lon="5.48439">
        <ele>489</ele>
        <time>2022-05-24T14:26:51Z</time>
      </trkpt>
      <trkpt lat="46.3004" lon="5.48414">
        <ele>489.4</ele>
        <time>2022-05-24T14:26:57Z</time>
      </trkpt>
      <trkpt lat="46.30069" lon="5.48407">
        <ele>489.8</ele>
        <time>2022-05-24T14:27:02Z</time>
      </trkpt>
      <trkpt lat="46.30093" lon="5.48406">
        <ele>490.4</ele>
        <time>2022-05-24T14:27:06Z</time>
      </trkpt>
      <trkpt lat="46.3012" lon="5.48408">
        <ele>491</ele>
        <time>2022-05-24T14:27:10Z</time>
      </trkpt>
      <trkpt lat="46.3018" lon="5.48405">
        <ele>491.2</ele>
        <time>2022-05-24T14:27:19Z</time>
      </trkpt>
      <trkpt lat="46.30206" lon="5.48403">
        <ele>491.4</ele>
        <time>2022-05-24T14:27:23Z</time>
      </trkpt>
      <trkpt lat="46.30219" lon="5.48404">
        <ele>491.6</ele>
        <time>2022-05-24T14:27:25Z</time>
      </trkpt>
      <trkpt lat="46.30231" lon="5.48407">
        <ele>491.6</ele>
        <time>2022-05-24T14:27:27Z</time>
      </trkpt>
      <trkpt lat="46.30242" lon="5.48413">
        <ele>491.8</ele>
        <time>2022-05-24T14:27:29Z</time>
      </trkpt>
      <trkpt lat="46.30258" lon="5.48424">
        <ele>492.2</ele>
        <time>2022-05-24T14:27:32Z</time>
      </trkpt>
      <trkpt lat="46.30268" lon="5.48431">
        <ele>492.4</ele>
        <time>2022-05-24T14:27:34Z</time>
      </trkpt>
      <trkpt lat="46.30283" lon="5.48438">
        <ele>493.6</ele>
        <time>2022-05-24T14:27:37Z</time>
      </trkpt>
      <trkpt lat="46.30288" lon="5.48439">
        <ele>494</ele>
        <time>2022-05-24T14:27:38Z</time>
      </trkpt>
      <trkpt lat="46.30313" lon="5.48447">
        <ele>494.8</ele>
        <time>2022-05-24T14:27:42Z</time>
      </trkpt>
      <trkpt lat="46.30329" lon="5.48454">
        <ele>494.8</ele>
        <time>2022-05-24T14:27:45Z</time>
      </trkpt>
      <trkpt lat="46.30345" lon="5.48465">
        <ele>494.8</ele>
        <time>2022-05-24T14:27:47Z</time>
      </trkpt>
      <trkpt lat="46.30355" lon="5.48475">
        <ele>494.8</ele>
        <time>2022-05-24T14:27:49Z</time>
      </trkpt>
      <trkpt lat="46.30362" lon="5.48483">
        <ele>494.8</ele>
        <time>2022-05-24T14:27:50Z</time>
      </trkpt>
      <trkpt lat="46.30374" lon="5.485">
        <ele>494.8</ele>
        <time>2022-05-24T14:27:53Z</time>
      </trkpt>
      <trkpt lat="46.30405" lon="5.48524">
        <ele>494.6</ele>
        <time>2022-05-24T14:27:58Z</time>
      </trkpt>
      <trkpt lat="46.30449" lon="5.48545">
        <ele>494.8</ele>
        <time>2022-05-24T14:28:05Z</time>
      </trkpt>
      <trkpt lat="46.30496" lon="5.48555">
        <ele>494.8</ele>
        <time>2022-05-24T14:28:12Z</time>
      </trkpt>
      <trkpt lat="46.30503" lon="5.48556">
        <ele>494.6</ele>
        <time>2022-05-24T14:28:13Z</time>
      </trkpt>
      <trkpt lat="46.30546" lon="5.48558">
        <ele>493.8</ele>
        <time>2022-05-24T14:28:19Z</time>
      </trkpt>
      <trkpt lat="46.3056" lon="5.48556">
        <ele>493.6</ele>
        <time>2022-05-24T14:28:21Z</time>
      </trkpt>
      <trkpt lat="46.30605" lon="5.48548">
        <ele>493.4</ele>
        <time>2022-05-24T14:28:28Z</time>
      </trkpt>
      <trkpt lat="46.30649" lon="5.48534">
        <ele>494</ele>
        <time>2022-05-24T14:28:35Z</time>
      </trkpt>
      <trkpt lat="46.30687" lon="5.48525">
        <ele>494.8</ele>
        <time>2022-05-24T14:28:41Z</time>
      </trkpt>
      <trkpt lat="46.30693" lon="5.48525">
        <ele>495</ele>
        <time>2022-05-24T14:28:42Z</time>
      </trkpt>
      <trkpt lat="46.30721" lon="5.48531">
        <ele>495</ele>
        <time>2022-05-24T14:28:46Z</time>
      </trkpt>
      <trkpt lat="46.30728" lon="5.48533">
        <ele>495</ele>
        <time>2022-05-24T14:28:47Z</time>
      </trkpt>
      <trkpt lat="46.30762" lon="5.48547">
        <ele>494</ele>
        <time>2022-05-24T14:28:52Z</time>
      </trkpt>
      <trkpt lat="46.30776" lon="5.4855">
        <ele>493.8</ele>
        <time>2022-05-24T14:28:54Z</time>
      </trkpt>
      <trkpt lat="46.30813" lon="5.48558">
        <ele>493.8</ele>
        <time>2022-05-24T14:29:00Z</time>
      </trkpt>
      <trkpt lat="46.30853" lon="5.4856">
        <ele>494.4</ele>
        <time>2022-05-24T14:29:06Z</time>
      </trkpt>
      <trkpt lat="46.30859" lon="5.48558">
        <ele>494.6</ele>
        <time>2022-05-24T14:29:07Z</time>
      </trkpt>
      <trkpt lat="46.30866" lon="5.48554">
        <ele>494.6</ele>
        <time>2022-05-24T14:29:08Z</time>
      </trkpt>
      <trkpt lat="46.30878" lon="5.48541">
        <ele>494.6</ele>
        <time>2022-05-24T14:29:10Z</time>
      </trkpt>
      <trkpt lat="46.30886" lon="5.48524">
        <ele>494.4</ele>
        <time>2022-05-24T14:29:12Z</time>
      </trkpt>
      <trkpt lat="46.30889" lon="5.48515">
        <ele>494.4</ele>
        <time>2022-05-24T14:29:13Z</time>
      </trkpt>
      <trkpt lat="46.30913" lon="5.4844">
        <ele>494</ele>
        <time>2022-05-24T14:29:21Z</time>
      </trkpt>
      <trkpt lat="46.30936" lon="5.4839">
        <ele>494</ele>
        <time>2022-05-24T14:29:27Z</time>
      </trkpt>
      <trkpt lat="46.30953" lon="5.48352">
        <ele>494</ele>
        <time>2022-05-24T14:29:32Z</time>
      </trkpt>
      <trkpt lat="46.30973" lon="5.48299">
        <ele>494.6</ele>
        <time>2022-05-24T14:29:39Z</time>
      </trkpt>
      <trkpt lat="46.3098" lon="5.48287">
        <ele>495</ele>
        <time>2022-05-24T14:29:41Z</time>
      </trkpt>
      <trkpt lat="46.30985" lon="5.48282">
        <ele>495.2</ele>
        <time>2022-05-24T14:29:42Z</time>
      </trkpt>
      <trkpt lat="46.30994" lon="5.48274">
        <ele>495.4</ele>
        <time>2022-05-24T14:29:44Z</time>
      </trkpt>
      <trkpt lat="46.31004" lon="5.48271">
        <ele>495.6</ele>
        <time>2022-05-24T14:29:46Z</time>
      </trkpt>
      <trkpt lat="46.31016" lon="5.4827">
        <ele>495.8</ele>
        <time>2022-05-24T14:29:48Z</time>
      </trkpt>
      <trkpt lat="46.31027" lon="5.48271">
        <ele>496</ele>
        <time>2022-05-24T14:29:50Z</time>
      </trkpt>
      <trkpt lat="46.31042" lon="5.48276">
        <ele>496</ele>
        <time>2022-05-24T14:29:53Z</time>
      </trkpt>
      <trkpt lat="46.31047" lon="5.48278">
        <ele>496.2</ele>
        <time>2022-05-24T14:29:54Z</time>
      </trkpt>
      <trkpt lat="46.31077" lon="5.48285">
        <ele>496.8</ele>
        <time>2022-05-24T14:30:00Z</time>
      </trkpt>
      <trkpt lat="46.31094" lon="5.48281">
        <ele>497</ele>
        <time>2022-05-24T14:30:03Z</time>
      </trkpt>
      <trkpt lat="46.31099" lon="5.48279">
        <ele>497.2</ele>
        <time>2022-05-24T14:30:04Z</time>
      </trkpt>
      <trkpt lat="46.31105" lon="5.48276">
        <ele>497.2</ele>
        <time>2022-05-24T14:30:05Z</time>
      </trkpt>
      <trkpt lat="46.31136" lon="5.48254">
        <ele>497.4</ele>
        <time>2022-05-24T14:30:11Z</time>
      </trkpt>
      <trkpt lat="46.31167" lon="5.4823">
        <ele>497.6</ele>
        <time>2022-05-24T14:30:17Z</time>
      </trkpt>
      <trkpt lat="46.31173" lon="5.48227">
        <ele>497.6</ele>
        <time>2022-05-24T14:30:18Z</time>
      </trkpt>
      <trkpt lat="46.3118" lon="5.48224">
        <ele>497.6</ele>
        <time>2022-05-24T14:30:19Z</time>
      </trkpt>
      <trkpt lat="46.31187" lon="5.48222">
        <ele>497.6</ele>
        <time>2022-05-24T14:30:20Z</time>
      </trkpt>
      <trkpt lat="46.31208" lon="5.48222">
        <ele>497.4</ele>
        <time>2022-05-24T14:30:23Z</time>
      </trkpt>
      <trkpt lat="46.31244" lon="5.48234">
        <ele>496.8</ele>
        <time>2022-05-24T14:30:29Z</time>
      </trkpt>
      <trkpt lat="46.31293" lon="5.48254">
        <ele>497.2</ele>
        <time>2022-05-24T14:30:37Z</time>
      </trkpt>
      <trkpt lat="46.31304" lon="5.48261">
        <ele>497.6</ele>
        <time>2022-05-24T14:30:39Z</time>
      </trkpt>
      <trkpt lat="46.31321" lon="5.48275">
        <ele>497.8</ele>
        <time>2022-05-24T14:30:42Z</time>
      </trkpt>
      <trkpt lat="46.3134" lon="5.48302">
        <ele>498</ele>
        <time>2022-05-24T14:30:46Z</time>
      </trkpt>
      <trkpt lat="46.31353" lon="5.48325">
        <ele>497.8</ele>
        <time>2022-05-24T14:30:49Z</time>
      </trkpt>
      <trkpt lat="46.31374" lon="5.48363">
        <ele>498</ele>
        <time>2022-05-24T14:30:54Z</time>
      </trkpt>
      <trkpt lat="46.31407" lon="5.48422">
        <ele>498.2</ele>
        <time>2022-05-24T14:31:02Z</time>
      </trkpt>
      <trkpt lat="46.31419" lon="5.48445">
        <ele>498.4</ele>
        <time>2022-05-24T14:31:05Z</time>
      </trkpt>
      <trkpt lat="46.31434" lon="5.48475">
        <ele>499.2</ele>
        <time>2022-05-24T14:31:09Z</time>
      </trkpt>
      <trkpt lat="46.31442" lon="5.4849">
        <ele>499.4</ele>
        <time>2022-05-24T14:31:12Z</time>
      </trkpt>
      <trkpt lat="46.31452" lon="5.48507">
        <ele>499.6</ele>
        <time>2022-05-24T14:31:14Z</time>
      </trkpt>
      <trkpt lat="46.31474" lon="5.48533">
        <ele>500</ele>
        <time>2022-05-24T14:31:18Z</time>
      </trkpt>
      <trkpt lat="46.31479" lon="5.48538">
        <ele>500.2</ele>
        <time>2022-05-24T14:31:19Z</time>
      </trkpt>
      <trkpt lat="46.31497" lon="5.48551">
        <ele>500.6</ele>
        <time>2022-05-24T14:31:22Z</time>
      </trkpt>
      <trkpt lat="46.31504" lon="5.48554">
        <ele>500.8</ele>
        <time>2022-05-24T14:31:23Z</time>
      </trkpt>
      <trkpt lat="46.31516" lon="5.48559">
        <ele>500.8</ele>
        <time>2022-05-24T14:31:25Z</time>
      </trkpt>
      <trkpt lat="46.31536" lon="5.48566">
        <ele>500.8</ele>
        <time>2022-05-24T14:31:28Z</time>
      </trkpt>
      <trkpt lat="46.31582" lon="5.48582">
        <ele>500.8</ele>
        <time>2022-05-24T14:31:35Z</time>
      </trkpt>
      <trkpt lat="46.3162" lon="5.48597">
        <ele>500.4</ele>
        <time>2022-05-24T14:31:41Z</time>
      </trkpt>
      <trkpt lat="46.3164" lon="5.48603">
        <ele>500.2</ele>
        <time>2022-05-24T14:31:44Z</time>
      </trkpt>
      <trkpt lat="46.31658" lon="5.48604">
        <ele>500.2</ele>
        <time>2022-05-24T14:31:47Z</time>
      </trkpt>
      <trkpt lat="46.31669" lon="5.48603">
        <ele>500.6</ele>
        <time>2022-05-24T14:31:49Z</time>
      </trkpt>
      <trkpt lat="46.31674" lon="5.48604">
        <ele>500.8</ele>
        <time>2022-05-24T14:31:50Z</time>
      </trkpt>
      <trkpt lat="46.31691" lon="5.48605">
        <ele>501.2</ele>
        <time>2022-05-24T14:31:53Z</time>
      </trkpt>
      <trkpt lat="46.31697" lon="5.48605">
        <ele>501.4</ele>
        <time>2022-05-24T14:31:54Z</time>
      </trkpt>
      <trkpt lat="46.3172" lon="5.48606">
        <ele>502.2</ele>
        <time>2022-05-24T14:31:58Z</time>
      </trkpt>
      <trkpt lat="46.31738" lon="5.48608">
        <ele>502.6</ele>
        <time>2022-05-24T14:32:01Z</time>
      </trkpt>
      <trkpt lat="46.31782" lon="5.48623">
        <ele>502.8</ele>
        <time>2022-05-24T14:32:09Z</time>
      </trkpt>
      <trkpt lat="46.31802" lon="5.48634">
        <ele>503.4</ele>
        <time>2022-05-24T14:32:13Z</time>
      </trkpt>
      <trkpt lat="46.31829" lon="5.48651">
        <ele>504</ele>
        <time>2022-05-24T14:32:17Z</time>
      </trkpt>
      <trkpt lat="46.31865" lon="5.48663">
        <ele>504</ele>
        <time>2022-05-24T14:32:22Z</time>
      </trkpt>
      <trkpt lat="46.31919" lon="5.48674">
        <ele>502.6</ele>
        <time>2022-05-24T14:32:30Z</time>
      </trkpt>
      <trkpt lat="46.31932" lon="5.48676">
        <ele>502.6</ele>
        <time>2022-05-24T14:32:32Z</time>
      </trkpt>
      <trkpt lat="46.31963" lon="5.48679">
        <ele>503</ele>
        <time>2022-05-24T14:32:37Z</time>
      </trkpt>
      <trkpt lat="46.31975" lon="5.48677">
        <ele>502.8</ele>
        <time>2022-05-24T14:32:39Z</time>
      </trkpt>
      <trkpt lat="46.32019" lon="5.48675">
        <ele>502.6</ele>
        <time>2022-05-24T14:32:46Z</time>
      </trkpt>
      <trkpt lat="46.32073" lon="5.48672">
        <ele>503</ele>
        <time>2022-05-24T14:32:55Z</time>
      </trkpt>
      <trkpt lat="46.32113" lon="5.48672">
        <ele>503.6</ele>
        <time>2022-05-24T14:33:02Z</time>
      </trkpt>
      <trkpt lat="46.32172" lon="5.48672">
        <ele>504.4</ele>
        <time>2022-05-24T14:33:12Z</time>
      </trkpt>
      <trkpt lat="46.32191" lon="5.48672">
        <ele>504.6</ele>
        <time>2022-05-24T14:33:15Z</time>
      </trkpt>
      <trkpt lat="46.32222" lon="5.48672">
        <ele>504.8</ele>
        <time>2022-05-24T14:33:20Z</time>
      </trkpt>
      <trkpt lat="46.32273" lon="5.48682">
        <ele>505.4</ele>
        <time>2022-05-24T14:33:28Z</time>
      </trkpt>
      <trkpt lat="46.32316" lon="5.48691">
        <ele>505.6</ele>
        <time>2022-05-24T14:33:35Z</time>
      </trkpt>
      <trkpt lat="46.32356" lon="5.48694">
        <ele>505.6</ele>
        <time>2022-05-24T14:33:41Z</time>
      </trkpt>
      <trkpt lat="46.32383" lon="5.48696">
        <ele>506</ele>
        <time>2022-05-24T14:33:45Z</time>
      </trkpt>
      <trkpt lat="46.32402" lon="5.48697">
        <ele>506</ele>
        <time>2022-05-24T14:33:48Z</time>
      </trkpt>
      <trkpt lat="46.32421" lon="5.48701">
        <ele>506</ele>
        <time>2022-05-24T14:33:51Z</time>
      </trkpt>
      <trkpt lat="46.32465" lon="5.48708">
        <ele>506.2</ele>
        <time>2022-05-24T14:33:58Z</time>
      </trkpt>
      <trkpt lat="46.32505" lon="5.48714">
        <ele>506.8</ele>
        <time>2022-05-24T14:34:04Z</time>
      </trkpt>
      <trkpt lat="46.32517" lon="5.48715">
        <ele>507</ele>
        <time>2022-05-24T14:34:06Z</time>
      </trkpt>
      <trkpt lat="46.32572" lon="5.4873">
        <ele>507.8</ele>
        <time>2022-05-24T14:34:15Z</time>
      </trkpt>
      <trkpt lat="46.32578" lon="5.48732">
        <ele>507.8</ele>
        <time>2022-05-24T14:34:16Z</time>
      </trkpt>
      <trkpt lat="46.32596" lon="5.48737">
        <ele>508.4</ele>
        <time>2022-05-24T14:34:19Z</time>
      </trkpt>
      <trkpt lat="46.32631" lon="5.48748">
        <ele>508.8</ele>
        <time>2022-05-24T14:34:25Z</time>
      </trkpt>
      <trkpt lat="46.32673" lon="5.48761">
        <ele>509.6</ele>
        <time>2022-05-24T14:34:32Z</time>
      </trkpt>
      <trkpt lat="46.32689" lon="5.48766">
        <ele>509.8</ele>
        <time>2022-05-24T14:34:35Z</time>
      </trkpt>
      <trkpt lat="46.32725" lon="5.48776">
        <ele>510.2</ele>
        <time>2022-05-24T14:34:41Z</time>
      </trkpt>
      <trkpt lat="46.32778" lon="5.48793">
        <ele>510.8</ele>
        <time>2022-05-24T14:34:50Z</time>
      </trkpt>
      <trkpt lat="46.32784" lon="5.48795">
        <ele>511</ele>
        <time>2022-05-24T14:34:51Z</time>
      </trkpt>
      <trkpt lat="46.32837" lon="5.48813">
        <ele>511.6</ele>
        <time>2022-05-24T14:35:00Z</time>
      </trkpt>
      <trkpt lat="46.32844" lon="5.48816">
        <ele>511.6</ele>
        <time>2022-05-24T14:35:01Z</time>
      </trkpt>
      <trkpt lat="46.32868" lon="5.48825">
        <ele>512</ele>
        <time>2022-05-24T14:35:05Z</time>
      </trkpt>
      <trkpt lat="46.32908" lon="5.4884">
        <ele>512.4</ele>
        <time>2022-05-24T14:35:12Z</time>
      </trkpt>
      <trkpt lat="46.32938" lon="5.48852">
        <ele>513</ele>
        <time>2022-05-24T14:35:17Z</time>
      </trkpt>
      <trkpt lat="46.32962" lon="5.48861">
        <ele>513.4</ele>
        <time>2022-05-24T14:35:21Z</time>
      </trkpt>
      <trkpt lat="46.33015" lon="5.48883">
        <ele>514.2</ele>
        <time>2022-05-24T14:35:30Z</time>
      </trkpt>
      <trkpt lat="46.33032" lon="5.48894">
        <ele>514.4</ele>
        <time>2022-05-24T14:35:33Z</time>
      </trkpt>
      <trkpt lat="46.3307" lon="5.48923">
        <ele>515</ele>
        <time>2022-05-24T14:35:40Z</time>
      </trkpt>
      <trkpt lat="46.33082" lon="5.4893">
        <ele>515.4</ele>
        <time>2022-05-24T14:35:42Z</time>
      </trkpt>
      <trkpt lat="46.3311" lon="5.48942">
        <ele>515.6</ele>
        <time>2022-05-24T14:35:47Z</time>
      </trkpt>
      <trkpt lat="46.33158" lon="5.48961">
        <ele>516</ele>
        <time>2022-05-24T14:35:55Z</time>
      </trkpt>
      <trkpt lat="46.33164" lon="5.48963">
        <ele>516.6</ele>
        <time>2022-05-24T14:35:56Z</time>
      </trkpt>
      <trkpt lat="46.33169" lon="5.48966">
        <ele>516.6</ele>
        <time>2022-05-24T14:35:57Z</time>
      </trkpt>
      <trkpt lat="46.33191" lon="5.48978">
        <ele>517.2</ele>
        <time>2022-05-24T14:36:01Z</time>
      </trkpt>
      <trkpt lat="46.332" lon="5.48983">
        <ele>517.8</ele>
        <time>2022-05-24T14:36:03Z</time>
      </trkpt>
      <trkpt lat="46.33216" lon="5.48987">
        <ele>518</ele>
        <time>2022-05-24T14:36:06Z</time>
      </trkpt>
      <trkpt lat="46.33223" lon="5.48987">
        <ele>518.2</ele>
        <time>2022-05-24T14:36:07Z</time>
      </trkpt>
      <trkpt lat="46.33233" lon="5.48987">
        <ele>518.4</ele>
        <time>2022-05-24T14:36:09Z</time>
      </trkpt>
      <trkpt lat="46.33245" lon="5.48986">
        <ele>518.6</ele>
        <time>2022-05-24T14:36:11Z</time>
      </trkpt>
      <trkpt lat="46.3325" lon="5.48982">
        <ele>518.8</ele>
        <time>2022-05-24T14:36:12Z</time>
      </trkpt>
      <trkpt lat="46.33252" lon="5.48979">
        <ele>519</ele>
        <time>2022-05-24T14:36:13Z</time>
      </trkpt>
      <trkpt lat="46.33254" lon="5.48972">
        <ele>519.2</ele>
        <time>2022-05-24T14:36:14Z</time>
      </trkpt>
      <trkpt lat="46.33256" lon="5.48959">
        <ele>519.4</ele>
        <time>2022-05-24T14:36:15Z</time>
      </trkpt>
      <trkpt lat="46.3326" lon="5.48924">
        <ele>519.6</ele>
        <time>2022-05-24T14:36:19Z</time>
      </trkpt>
      <trkpt lat="46.33262" lon="5.48857">
        <ele>518.6</ele>
        <time>2022-05-24T14:36:26Z</time>
      </trkpt>
      <trkpt lat="46.33267" lon="5.4879">
        <ele>517.8</ele>
        <time>2022-05-24T14:36:33Z</time>
      </trkpt>
      <trkpt lat="46.33268" lon="5.4878">
        <ele>517.8</ele>
        <time>2022-05-24T14:36:34Z</time>
      </trkpt>
      <trkpt lat="46.33272" lon="5.4875">
        <ele>517.6</ele>
        <time>2022-05-24T14:36:37Z</time>
      </trkpt>
      <trkpt lat="46.33278" lon="5.48707">
        <ele>517.2</ele>
        <time>2022-05-24T14:36:41Z</time>
      </trkpt>
      <trkpt lat="46.33282" lon="5.48686">
        <ele>516.8</ele>
        <time>2022-05-24T14:36:43Z</time>
      </trkpt>
      <trkpt lat="46.33291" lon="5.48626">
        <ele>515.8</ele>
        <time>2022-05-24T14:36:49Z</time>
      </trkpt>
      <trkpt lat="46.33293" lon="5.48616">
        <ele>515.6</ele>
        <time>2022-05-24T14:36:50Z</time>
      </trkpt>
      <trkpt lat="46.33297" lon="5.48597">
        <ele>515.4</ele>
        <time>2022-05-24T14:36:52Z</time>
      </trkpt>
      <trkpt lat="46.33304" lon="5.48579">
        <ele>515.2</ele>
        <time>2022-05-24T14:36:54Z</time>
      </trkpt>
      <trkpt lat="46.33315" lon="5.48564">
        <ele>515.2</ele>
        <time>2022-05-24T14:36:56Z</time>
      </trkpt>
      <trkpt lat="46.33322" lon="5.48559">
        <ele>515.2</ele>
        <time>2022-05-24T14:36:57Z</time>
      </trkpt>
      <trkpt lat="46.33343" lon="5.48543">
        <ele>515.2</ele>
        <time>2022-05-24T14:37:00Z</time>
      </trkpt>
      <trkpt lat="46.33354" lon="5.48528">
        <ele>515</ele>
        <time>2022-05-24T14:37:02Z</time>
      </trkpt>
      <trkpt lat="46.33359" lon="5.48519">
        <ele>514.6</ele>
        <time>2022-05-24T14:37:03Z</time>
      </trkpt>
      <trkpt lat="46.33365" lon="5.48498">
        <ele>514</ele>
        <time>2022-05-24T14:37:05Z</time>
      </trkpt>
      <trkpt lat="46.33372" lon="5.48466">
        <ele>513.4</ele>
        <time>2022-05-24T14:37:08Z</time>
      </trkpt>
      <trkpt lat="46.33377" lon="5.48434">
        <ele>513.2</ele>
        <time>2022-05-24T14:37:11Z</time>
      </trkpt>
      <trkpt lat="46.33388" lon="5.48356">
        <ele>514</ele>
        <time>2022-05-24T14:37:19Z</time>
      </trkpt>
      <trkpt lat="46.33391" lon="5.48337">
        <ele>514.6</ele>
        <time>2022-05-24T14:37:21Z</time>
      </trkpt>
      <trkpt lat="46.33402" lon="5.48266">
        <ele>515</ele>
        <time>2022-05-24T14:37:28Z</time>
      </trkpt>
      <trkpt lat="46.33406" lon="5.48247">
        <ele>515</ele>
        <time>2022-05-24T14:37:30Z</time>
      </trkpt>
      <trkpt lat="46.33413" lon="5.4823">
        <ele>514.8</ele>
        <time>2022-05-24T14:37:32Z</time>
      </trkpt>
      <trkpt lat="46.33437" lon="5.48196">
        <ele>514.8</ele>
        <time>2022-05-24T14:37:37Z</time>
      </trkpt>
      <trkpt lat="46.33475" lon="5.48146">
        <ele>515.4</ele>
        <time>2022-05-24T14:37:45Z</time>
      </trkpt>
      <trkpt lat="46.33502" lon="5.48112">
        <ele>515.6</ele>
        <time>2022-05-24T14:37:51Z</time>
      </trkpt>
      <trkpt lat="46.33507" lon="5.48107">
        <ele>516</ele>
        <time>2022-05-24T14:37:52Z</time>
      </trkpt>
      <trkpt lat="46.33534" lon="5.48085">
        <ele>516.8</ele>
        <time>2022-05-24T14:37:58Z</time>
      </trkpt>
      <trkpt lat="46.3354" lon="5.48081">
        <ele>517.2</ele>
        <time>2022-05-24T14:37:59Z</time>
      </trkpt>
      <trkpt lat="46.33564" lon="5.48066">
        <ele>518.2</ele>
        <time>2022-05-24T14:38:04Z</time>
      </trkpt>
      <trkpt lat="46.33581" lon="5.48054">
        <ele>519</ele>
        <time>2022-05-24T14:38:08Z</time>
      </trkpt>
      <trkpt lat="46.33593" lon="5.48044">
        <ele>519.6</ele>
        <time>2022-05-24T14:38:11Z</time>
      </trkpt>
      <trkpt lat="46.3361" lon="5.48027">
        <ele>520.6</ele>
        <time>2022-05-24T14:38:15Z</time>
      </trkpt>
      <trkpt lat="46.33613" lon="5.48024">
        <ele>520.8</ele>
        <time>2022-05-24T14:38:16Z</time>
      </trkpt>
      <trkpt lat="46.33638" lon="5.48001">
        <ele>521.8</ele>
        <time>2022-05-24T14:38:22Z</time>
      </trkpt>
      <trkpt lat="46.33642" lon="5.47997">
        <ele>522</ele>
        <time>2022-05-24T14:38:23Z</time>
      </trkpt>
      <trkpt lat="46.33658" lon="5.47981">
        <ele>523</ele>
        <time>2022-05-24T14:38:27Z</time>
      </trkpt>
      <trkpt lat="46.33671" lon="5.47967">
        <ele>524</ele>
        <time>2022-05-24T14:38:31Z</time>
      </trkpt>
      <trkpt lat="46.33673" lon="5.47963">
        <ele>524.2</ele>
        <time>2022-05-24T14:38:32Z</time>
      </trkpt>
      <trkpt lat="46.33676" lon="5.47957">
        <ele>524.2</ele>
        <time>2022-05-24T14:38:33Z</time>
      </trkpt>
      <trkpt lat="46.33677" lon="5.47946">
        <ele>524.8</ele>
        <time>2022-05-24T14:38:35Z</time>
      </trkpt>
      <trkpt lat="46.33678" lon="5.47939">
        <ele>525</ele>
        <time>2022-05-24T14:38:36Z</time>
      </trkpt>
      <trkpt lat="46.3368" lon="5.47927">
        <ele>525.4</ele>
        <time>2022-05-24T14:38:38Z</time>
      </trkpt>
      <trkpt lat="46.33684" lon="5.47892">
        <ele>526</ele>
        <time>2022-05-24T14:38:43Z</time>
      </trkpt>
      <trkpt lat="46.33689" lon="5.47881">
        <ele>526.6</ele>
        <time>2022-05-24T14:38:45Z</time>
      </trkpt>
      <trkpt lat="46.33694" lon="5.47878">
        <ele>526.6</ele>
        <time>2022-05-24T14:38:46Z</time>
      </trkpt>
      <trkpt lat="46.33698" lon="5.47876">
        <ele>526.8</ele>
        <time>2022-05-24T14:38:47Z</time>
      </trkpt>
      <trkpt lat="46.33709" lon="5.47877">
        <ele>527</ele>
        <time>2022-05-24T14:38:49Z</time>
      </trkpt>
      <trkpt lat="46.33714" lon="5.47878">
        <ele>527.2</ele>
        <time>2022-05-24T14:38:50Z</time>
      </trkpt>
      <trkpt lat="46.33744" lon="5.47888">
        <ele>527.6</ele>
        <time>2022-05-24T14:38:55Z</time>
      </trkpt>
      <trkpt lat="46.33777" lon="5.47897">
        <ele>527.4</ele>
        <time>2022-05-24T14:39:00Z</time>
      </trkpt>
      <trkpt lat="46.33828" lon="5.47913">
        <ele>527.2</ele>
        <time>2022-05-24T14:39:08Z</time>
      </trkpt>
      <trkpt lat="46.33855" lon="5.47916">
        <ele>527.4</ele>
        <time>2022-05-24T14:39:12Z</time>
      </trkpt>
      <trkpt lat="46.33867" lon="5.47916">
        <ele>527.6</ele>
        <time>2022-05-24T14:39:14Z</time>
      </trkpt>
      <trkpt lat="46.33894" lon="5.47915">
        <ele>528.2</ele>
        <time>2022-05-24T14:39:18Z</time>
      </trkpt>
      <trkpt lat="46.33915" lon="5.47912">
        <ele>528.6</ele>
        <time>2022-05-24T14:39:22Z</time>
      </trkpt>
      <trkpt lat="46.33926" lon="5.47911">
        <ele>529.2</ele>
        <time>2022-05-24T14:39:24Z</time>
      </trkpt>
      <trkpt lat="46.33948" lon="5.47904">
        <ele>530</ele>
        <time>2022-05-24T14:39:28Z</time>
      </trkpt>
      <trkpt lat="46.33959" lon="5.47898">
        <ele>530.2</ele>
        <time>2022-05-24T14:39:30Z</time>
      </trkpt>
      <trkpt lat="46.33987" lon="5.47879">
        <ele>530.4</ele>
        <time>2022-05-24T14:39:35Z</time>
      </trkpt>
      <trkpt lat="46.34013" lon="5.47858">
        <ele>530</ele>
        <time>2022-05-24T14:39:39Z</time>
      </trkpt>
      <trkpt lat="46.34025" lon="5.47844">
        <ele>529.8</ele>
        <time>2022-05-24T14:39:41Z</time>
      </trkpt>
      <trkpt lat="46.34047" lon="5.47813">
        <ele>529</ele>
        <time>2022-05-24T14:39:45Z</time>
      </trkpt>
      <trkpt lat="46.34058" lon="5.47798">
        <ele>528.6</ele>
        <time>2022-05-24T14:39:47Z</time>
      </trkpt>
      <trkpt lat="46.34082" lon="5.47771">
        <ele>528.6</ele>
        <time>2022-05-24T14:39:51Z</time>
      </trkpt>
      <trkpt lat="46.34094" lon="5.47762">
        <ele>528.6</ele>
        <time>2022-05-24T14:39:53Z</time>
      </trkpt>
      <trkpt lat="46.34101" lon="5.47758">
        <ele>528.6</ele>
        <time>2022-05-24T14:39:54Z</time>
      </trkpt>
      <trkpt lat="46.34121" lon="5.47754">
        <ele>528.8</ele>
        <time>2022-05-24T14:39:57Z</time>
      </trkpt>
      <trkpt lat="46.34166" lon="5.4776">
        <ele>529.4</ele>
        <time>2022-05-24T14:40:03Z</time>
      </trkpt>
      <trkpt lat="46.34221" lon="5.47774">
        <ele>528</ele>
        <time>2022-05-24T14:40:09Z</time>
      </trkpt>
      <trkpt lat="46.3423" lon="5.47776">
        <ele>527.8</ele>
        <time>2022-05-24T14:40:10Z</time>
      </trkpt>
      <trkpt lat="46.34256" lon="5.47783">
        <ele>525.8</ele>
        <time>2022-05-24T14:40:13Z</time>
      </trkpt>
      <trkpt lat="46.34279" lon="5.47791">
        <ele>524.6</ele>
        <time>2022-05-24T14:40:15Z</time>
      </trkpt>
      <trkpt lat="46.34308" lon="5.47796">
        <ele>522.6</ele>
        <time>2022-05-24T14:40:17Z</time>
      </trkpt>
      <trkpt lat="46.34321" lon="5.47798">
        <ele>521</ele>
        <time>2022-05-24T14:40:18Z</time>
      </trkpt>
      <trkpt lat="46.34333" lon="5.47799">
        <ele>520.4</ele>
        <time>2022-05-24T14:40:19Z</time>
      </trkpt>
      <trkpt lat="46.34346" lon="5.47799">
        <ele>519.6</ele>
        <time>2022-05-24T14:40:20Z</time>
      </trkpt>
      <trkpt lat="46.34373" lon="5.47795">
        <ele>517.4</ele>
        <time>2022-05-24T14:40:22Z</time>
      </trkpt>
      <trkpt lat="46.34389" lon="5.47791">
        <ele>516.2</ele>
        <time>2022-05-24T14:40:23Z</time>
      </trkpt>
      <trkpt lat="46.34415" lon="5.47778">
        <ele>514.4</ele>
        <time>2022-05-24T14:40:25Z</time>
      </trkpt>
      <trkpt lat="46.3443" lon="5.47765">
        <ele>513.6</ele>
        <time>2022-05-24T14:40:26Z</time>
      </trkpt>
      <trkpt lat="46.34441" lon="5.47754">
        <ele>512.8</ele>
        <time>2022-05-24T14:40:27Z</time>
      </trkpt>
      <trkpt lat="46.34448" lon="5.47743">
        <ele>512</ele>
        <time>2022-05-24T14:40:28Z</time>
      </trkpt>
      <trkpt lat="46.34454" lon="5.47726">
        <ele>510.8</ele>
        <time>2022-05-24T14:40:29Z</time>
      </trkpt>
      <trkpt lat="46.34461" lon="5.47707">
        <ele>509</ele>
        <time>2022-05-24T14:40:30Z</time>
      </trkpt>
      <trkpt lat="46.34476" lon="5.47676">
        <ele>507.6</ele>
        <time>2022-05-24T14:40:32Z</time>
      </trkpt>
      <trkpt lat="46.34491" lon="5.4765">
        <ele>506.2</ele>
        <time>2022-05-24T14:40:34Z</time>
      </trkpt>
      <trkpt lat="46.345" lon="5.47632">
        <ele>505.6</ele>
        <time>2022-05-24T14:40:35Z</time>
      </trkpt>
      <trkpt lat="46.34508" lon="5.47619">
        <ele>504.8</ele>
        <time>2022-05-24T14:40:36Z</time>
      </trkpt>
      <trkpt lat="46.34536" lon="5.47567">
        <ele>503.6</ele>
        <time>2022-05-24T14:40:40Z</time>
      </trkpt>
      <trkpt lat="46.34548" lon="5.47551">
        <ele>503.2</ele>
        <time>2022-05-24T14:40:41Z</time>
      </trkpt>
      <trkpt lat="46.34567" lon="5.47528">
        <ele>502.2</ele>
        <time>2022-05-24T14:40:43Z</time>
      </trkpt>
      <trkpt lat="46.34578" lon="5.47514">
        <ele>501.8</ele>
        <time>2022-05-24T14:40:44Z</time>
      </trkpt>
      <trkpt lat="46.34586" lon="5.47505">
        <ele>500.8</ele>
        <time>2022-05-24T14:40:45Z</time>
      </trkpt>
      <trkpt lat="46.34597" lon="5.47494">
        <ele>499.4</ele>
        <time>2022-05-24T14:40:46Z</time>
      </trkpt>
      <trkpt lat="46.34616" lon="5.47469">
        <ele>497.8</ele>
        <time>2022-05-24T14:40:48Z</time>
      </trkpt>
      <trkpt lat="46.3463" lon="5.47439">
        <ele>496</ele>
        <time>2022-05-24T14:40:50Z</time>
      </trkpt>
      <trkpt lat="46.34642" lon="5.47401">
        <ele>493.8</ele>
        <time>2022-05-24T14:40:52Z</time>
      </trkpt>
      <trkpt lat="46.34645" lon="5.47388">
        <ele>492</ele>
        <time>2022-05-24T14:40:53Z</time>
      </trkpt>
      <trkpt lat="46.34649" lon="5.47371">
        <ele>491.6</ele>
        <time>2022-05-24T14:40:54Z</time>
      </trkpt>
      <trkpt lat="46.34652" lon="5.47354">
        <ele>491</ele>
        <time>2022-05-24T14:40:55Z</time>
      </trkpt>
      <trkpt lat="46.34657" lon="5.47323">
        <ele>490.4</ele>
        <time>2022-05-24T14:40:57Z</time>
      </trkpt>
      <trkpt lat="46.3466" lon="5.47304">
        <ele>490.2</ele>
        <time>2022-05-24T14:40:58Z</time>
      </trkpt>
      <trkpt lat="46.3466" lon="5.47289">
        <ele>489.8</ele>
        <time>2022-05-24T14:40:59Z</time>
      </trkpt>
      <trkpt lat="46.34655" lon="5.47259">
        <ele>489.2</ele>
        <time>2022-05-24T14:41:01Z</time>
      </trkpt>
      <trkpt lat="46.34639" lon="5.4722">
        <ele>488.8</ele>
        <time>2022-05-24T14:41:04Z</time>
      </trkpt>
      <trkpt lat="46.34626" lon="5.47195">
        <ele>488.4</ele>
        <time>2022-05-24T14:41:06Z</time>
      </trkpt>
      <trkpt lat="46.34603" lon="5.47172">
        <ele>486.6</ele>
        <time>2022-05-24T14:41:08Z</time>
      </trkpt>
      <trkpt lat="46.34594" lon="5.47166">
        <ele>485.2</ele>
        <time>2022-05-24T14:41:09Z</time>
      </trkpt>
      <trkpt lat="46.34574" lon="5.47151">
        <ele>483.2</ele>
        <time>2022-05-24T14:41:11Z</time>
      </trkpt>
      <trkpt lat="46.34556" lon="5.47139">
        <ele>481.6</ele>
        <time>2022-05-24T14:41:13Z</time>
      </trkpt>
      <trkpt lat="46.34519" lon="5.47114">
        <ele>480.4</ele>
        <time>2022-05-24T14:41:17Z</time>
      </trkpt>
      <trkpt lat="46.34512" lon="5.47107">
        <ele>479.8</ele>
        <time>2022-05-24T14:41:18Z</time>
      </trkpt>
      <trkpt lat="46.34487" lon="5.47079">
        <ele>479.4</ele>
        <time>2022-05-24T14:41:21Z</time>
      </trkpt>
      <trkpt lat="46.3448" lon="5.47068">
        <ele>479</ele>
        <time>2022-05-24T14:41:22Z</time>
      </trkpt>
      <trkpt lat="46.34473" lon="5.47053">
        <ele>478.6</ele>
        <time>2022-05-24T14:41:23Z</time>
      </trkpt>
      <trkpt lat="46.34464" lon="5.47023">
        <ele>477.8</ele>
        <time>2022-05-24T14:41:25Z</time>
      </trkpt>
      <trkpt lat="46.34461" lon="5.47006">
        <ele>477.6</ele>
        <time>2022-05-24T14:41:26Z</time>
      </trkpt>
      <trkpt lat="46.34453" lon="5.46974">
        <ele>477.2</ele>
        <time>2022-05-24T14:41:28Z</time>
      </trkpt>
      <trkpt lat="46.34447" lon="5.4696">
        <ele>476.4</ele>
        <time>2022-05-24T14:41:29Z</time>
      </trkpt>
      <trkpt lat="46.34439" lon="5.46948">
        <ele>475.2</ele>
        <time>2022-05-24T14:41:30Z</time>
      </trkpt>
      <trkpt lat="46.34419" lon="5.46932">
        <ele>473.6</ele>
        <time>2022-05-24T14:41:32Z</time>
      </trkpt>
      <trkpt lat="46.34398" lon="5.46919">
        <ele>471.4</ele>
        <time>2022-05-24T14:41:34Z</time>
      </trkpt>
      <trkpt lat="46.34374" lon="5.46909">
        <ele>469.8</ele>
        <time>2022-05-24T14:41:36Z</time>
      </trkpt>
      <trkpt lat="46.34364" lon="5.46905">
        <ele>468.6</ele>
        <time>2022-05-24T14:41:37Z</time>
      </trkpt>
      <trkpt lat="46.34353" lon="5.46901">
        <ele>468.2</ele>
        <time>2022-05-24T14:41:38Z</time>
      </trkpt>
      <trkpt lat="46.34342" lon="5.46894">
        <ele>467</ele>
        <time>2022-05-24T14:41:39Z</time>
      </trkpt>
      <trkpt lat="46.34332" lon="5.46881">
        <ele>466.8</ele>
        <time>2022-05-24T14:41:40Z</time>
      </trkpt>
      <trkpt lat="46.34325" lon="5.46866">
        <ele>466.2</ele>
        <time>2022-05-24T14:41:41Z</time>
      </trkpt>
      <trkpt lat="46.34324" lon="5.46851">
        <ele>465.6</ele>
        <time>2022-05-24T14:41:42Z</time>
      </trkpt>
      <trkpt lat="46.34329" lon="5.46817">
        <ele>465</ele>
        <time>2022-05-24T14:41:44Z</time>
      </trkpt>
      <trkpt lat="46.34327" lon="5.46801">
        <ele>464.4</ele>
        <time>2022-05-24T14:41:45Z</time>
      </trkpt>
      <trkpt lat="46.34323" lon="5.46786">
        <ele>463.6</ele>
        <time>2022-05-24T14:41:46Z</time>
      </trkpt>
      <trkpt lat="46.34315" lon="5.46773">
        <ele>463</ele>
        <time>2022-05-24T14:41:47Z</time>
      </trkpt>
      <trkpt lat="46.34307" lon="5.46763">
        <ele>462.6</ele>
        <time>2022-05-24T14:41:48Z</time>
      </trkpt>
      <trkpt lat="46.34298" lon="5.46754">
        <ele>462.2</ele>
        <time>2022-05-24T14:41:49Z</time>
      </trkpt>
      <trkpt lat="46.34278" lon="5.46736">
        <ele>461.4</ele>
        <time>2022-05-24T14:41:51Z</time>
      </trkpt>
      <trkpt lat="46.34268" lon="5.46727">
        <ele>461</ele>
        <time>2022-05-24T14:41:52Z</time>
      </trkpt>
      <trkpt lat="46.34235" lon="5.46701">
        <ele>459.8</ele>
        <time>2022-05-24T14:41:55Z</time>
      </trkpt>
      <trkpt lat="46.34226" lon="5.46693">
        <ele>459.6</ele>
        <time>2022-05-24T14:41:56Z</time>
      </trkpt>
      <trkpt lat="46.34197" lon="5.46649">
        <ele>458.8</ele>
        <time>2022-05-24T14:42:00Z</time>
      </trkpt>
      <trkpt lat="46.34197" lon="5.46619">
        <ele>458.6</ele>
        <time>2022-05-24T14:42:02Z</time>
      </trkpt>
      <trkpt lat="46.34204" lon="5.46585">
        <ele>458.4</ele>
        <time>2022-05-24T14:42:04Z</time>
      </trkpt>
      <trkpt lat="46.34214" lon="5.46567">
        <ele>458</ele>
        <time>2022-05-24T14:42:06Z</time>
      </trkpt>
      <trkpt lat="46.34226" lon="5.4656">
        <ele>457.6</ele>
        <time>2022-05-24T14:42:07Z</time>
      </trkpt>
      <trkpt lat="46.34276" lon="5.46537">
        <ele>457</ele>
        <time>2022-05-24T14:42:11Z</time>
      </trkpt>
      <trkpt lat="46.34294" lon="5.46518">
        <ele>457</ele>
        <time>2022-05-24T14:42:13Z</time>
      </trkpt>
      <trkpt lat="46.343" lon="5.46507">
        <ele>457</ele>
        <time>2022-05-24T14:42:14Z</time>
      </trkpt>
      <trkpt lat="46.34303" lon="5.46496">
        <ele>457</ele>
        <time>2022-05-24T14:42:15Z</time>
      </trkpt>
      <trkpt lat="46.34309" lon="5.46472">
        <ele>457.2</ele>
        <time>2022-05-24T14:42:17Z</time>
      </trkpt>
      <trkpt lat="46.34305" lon="5.46449">
        <ele>457.2</ele>
        <time>2022-05-24T14:42:19Z</time>
      </trkpt>
      <trkpt lat="46.34293" lon="5.46407">
        <ele>457.2</ele>
        <time>2022-05-24T14:42:22Z</time>
      </trkpt>
      <trkpt lat="46.34294" lon="5.46378">
        <ele>457.2</ele>
        <time>2022-05-24T14:42:24Z</time>
      </trkpt>
      <trkpt lat="46.34297" lon="5.46367">
        <ele>457.4</ele>
        <time>2022-05-24T14:42:25Z</time>
      </trkpt>
      <trkpt lat="46.34303" lon="5.46318">
        <ele>457.2</ele>
        <time>2022-05-24T14:42:29Z</time>
      </trkpt>
      <trkpt lat="46.34301" lon="5.46291">
        <ele>457</ele>
        <time>2022-05-24T14:42:31Z</time>
      </trkpt>
      <trkpt lat="46.34302" lon="5.46256">
        <ele>457.4</ele>
        <time>2022-05-24T14:42:34Z</time>
      </trkpt>
      <trkpt lat="46.34305" lon="5.46245">
        <ele>457.4</ele>
        <time>2022-05-24T14:42:35Z</time>
      </trkpt>
      <trkpt lat="46.34308" lon="5.46234">
        <ele>457.6</ele>
        <time>2022-05-24T14:42:36Z</time>
      </trkpt>
      <trkpt lat="46.34325" lon="5.4622">
        <ele>457.6</ele>
        <time>2022-05-24T14:42:38Z</time>
      </trkpt>
      <trkpt lat="46.3436" lon="5.46186">
        <ele>457.8</ele>
        <time>2022-05-24T14:42:43Z</time>
      </trkpt>
      <trkpt lat="46.34386" lon="5.46158">
        <ele>457.8</ele>
        <time>2022-05-24T14:42:47Z</time>
      </trkpt>
      <trkpt lat="46.344" lon="5.46147">
        <ele>457.8</ele>
        <time>2022-05-24T14:42:49Z</time>
      </trkpt>
      <trkpt lat="46.34407" lon="5.46143">
        <ele>457.8</ele>
        <time>2022-05-24T14:42:50Z</time>
      </trkpt>
      <trkpt lat="46.34425" lon="5.46139">
        <ele>457.6</ele>
        <time>2022-05-24T14:42:53Z</time>
      </trkpt>
      <trkpt lat="46.34437" lon="5.46143">
        <ele>457.4</ele>
        <time>2022-05-24T14:42:55Z</time>
      </trkpt>
      <trkpt lat="46.34443" lon="5.46148">
        <ele>457.4</ele>
        <time>2022-05-24T14:42:56Z</time>
      </trkpt>
      <trkpt lat="46.34466" lon="5.46163">
        <ele>457.2</ele>
        <time>2022-05-24T14:42:59Z</time>
      </trkpt>
      <trkpt lat="46.34484" lon="5.46163">
        <ele>456.8</ele>
        <time>2022-05-24T14:43:01Z</time>
      </trkpt>
      <trkpt lat="46.3449" lon="5.46159">
        <ele>456.6</ele>
        <time>2022-05-24T14:43:02Z</time>
      </trkpt>
      <trkpt lat="46.34492" lon="5.4615">
        <ele>456.4</ele>
        <time>2022-05-24T14:43:03Z</time>
      </trkpt>
      <trkpt lat="46.34495" lon="5.4614">
        <ele>456.2</ele>
        <time>2022-05-24T14:43:04Z</time>
      </trkpt>
      <trkpt lat="46.345" lon="5.46117">
        <ele>455.4</ele>
        <time>2022-05-24T14:43:06Z</time>
      </trkpt>
      <trkpt lat="46.34504" lon="5.4609">
        <ele>454.4</ele>
        <time>2022-05-24T14:43:08Z</time>
      </trkpt>
      <trkpt lat="46.3451" lon="5.46076">
        <ele>453.8</ele>
        <time>2022-05-24T14:43:09Z</time>
      </trkpt>
      <trkpt lat="46.34518" lon="5.46055">
        <ele>452.4</ele>
        <time>2022-05-24T14:43:11Z</time>
      </trkpt>
      <trkpt lat="46.3452" lon="5.46046">
        <ele>452</ele>
        <time>2022-05-24T14:43:12Z</time>
      </trkpt>
      <trkpt lat="46.34518" lon="5.46037">
        <ele>451</ele>
        <time>2022-05-24T14:43:13Z</time>
      </trkpt>
      <trkpt lat="46.34505" lon="5.46026">
        <ele>450.4</ele>
        <time>2022-05-24T14:43:15Z</time>
      </trkpt>
      <trkpt lat="46.34496" lon="5.46023">
        <ele>450</ele>
        <time>2022-05-24T14:43:16Z</time>
      </trkpt>
      <trkpt lat="46.34475" lon="5.46019">
        <ele>449.4</ele>
        <time>2022-05-24T14:43:18Z</time>
      </trkpt>
      <trkpt lat="46.34453" lon="5.46016">
        <ele>448</ele>
        <time>2022-05-24T14:43:20Z</time>
      </trkpt>
      <trkpt lat="46.34442" lon="5.46014">
        <ele>446.6</ele>
        <time>2022-05-24T14:43:21Z</time>
      </trkpt>
      <trkpt lat="46.34418" lon="5.46011">
        <ele>445.4</ele>
        <time>2022-05-24T14:43:23Z</time>
      </trkpt>
      <trkpt lat="46.34406" lon="5.4601">
        <ele>444.8</ele>
        <time>2022-05-24T14:43:24Z</time>
      </trkpt>
      <trkpt lat="46.34395" lon="5.4601">
        <ele>444.2</ele>
        <time>2022-05-24T14:43:25Z</time>
      </trkpt>
      <trkpt lat="46.34359" lon="5.46008">
        <ele>442.4</ele>
        <time>2022-05-24T14:43:28Z</time>
      </trkpt>
      <trkpt lat="46.34335" lon="5.46007">
        <ele>441.4</ele>
        <time>2022-05-24T14:43:30Z</time>
      </trkpt>
      <trkpt lat="46.34286" lon="5.46007">
        <ele>439</ele>
        <time>2022-05-24T14:43:34Z</time>
      </trkpt>
      <trkpt lat="46.34261" lon="5.46007">
        <ele>437.2</ele>
        <time>2022-05-24T14:43:36Z</time>
      </trkpt>
      <trkpt lat="46.34237" lon="5.46008">
        <ele>435.8</ele>
        <time>2022-05-24T14:43:38Z</time>
      </trkpt>
      <trkpt lat="46.34212" lon="5.46007">
        <ele>434.8</ele>
        <time>2022-05-24T14:43:40Z</time>
      </trkpt>
      <trkpt lat="46.34192" lon="5.46008">
        <ele>433.2</ele>
        <time>2022-05-24T14:43:42Z</time>
      </trkpt>
      <trkpt lat="46.34162" lon="5.46009">
        <ele>430.6</ele>
        <time>2022-05-24T14:43:44Z</time>
      </trkpt>
      <trkpt lat="46.3415" lon="5.46011">
        <ele>429.6</ele>
        <time>2022-05-24T14:43:45Z</time>
      </trkpt>
      <trkpt lat="46.34138" lon="5.46012">
        <ele>428.4</ele>
        <time>2022-05-24T14:43:46Z</time>
      </trkpt>
      <trkpt lat="46.34114" lon="5.46019">
        <ele>427</ele>
        <time>2022-05-24T14:43:48Z</time>
      </trkpt>
      <trkpt lat="46.34102" lon="5.46024">
        <ele>426.4</ele>
        <time>2022-05-24T14:43:49Z</time>
      </trkpt>
      <trkpt lat="46.34079" lon="5.46037">
        <ele>425.4</ele>
        <time>2022-05-24T14:43:51Z</time>
      </trkpt>
      <trkpt lat="46.34055" lon="5.46051">
        <ele>424</ele>
        <time>2022-05-24T14:43:53Z</time>
      </trkpt>
      <trkpt lat="46.34036" lon="5.46064">
        <ele>423.4</ele>
        <time>2022-05-24T14:43:55Z</time>
      </trkpt>
      <trkpt lat="46.3403" lon="5.46068">
        <ele>423.4</ele>
        <time>2022-05-24T14:43:56Z</time>
      </trkpt>
      <trkpt lat="46.34022" lon="5.46071">
        <ele>422.6</ele>
        <time>2022-05-24T14:43:57Z</time>
      </trkpt>
      <trkpt lat="46.34016" lon="5.4607">
        <ele>421.4</ele>
        <time>2022-05-24T14:43:58Z</time>
      </trkpt>
      <trkpt lat="46.3401" lon="5.46067">
        <ele>420.6</ele>
        <time>2022-05-24T14:43:59Z</time>
      </trkpt>
      <trkpt lat="46.34005" lon="5.46061">
        <ele>419.6</ele>
        <time>2022-05-24T14:44:00Z</time>
      </trkpt>
      <trkpt lat="46.33992" lon="5.46057">
        <ele>418</ele>
        <time>2022-05-24T14:44:02Z</time>
      </trkpt>
      <trkpt lat="46.33979" lon="5.4605">
        <ele>417.8</ele>
        <time>2022-05-24T14:44:03Z</time>
      </trkpt>
      <trkpt lat="46.33957" lon="5.46043">
        <ele>416.2</ele>
        <time>2022-05-24T14:44:05Z</time>
      </trkpt>
      <trkpt lat="46.33942" lon="5.46042">
        <ele>415.6</ele>
        <time>2022-05-24T14:44:06Z</time>
      </trkpt>
      <trkpt lat="46.3393" lon="5.46041">
        <ele>414.8</ele>
        <time>2022-05-24T14:44:07Z</time>
      </trkpt>
      <trkpt lat="46.33917" lon="5.46041">
        <ele>414.6</ele>
        <time>2022-05-24T14:44:08Z</time>
      </trkpt>
      <trkpt lat="46.33882" lon="5.4604">
        <ele>413.8</ele>
        <time>2022-05-24T14:44:11Z</time>
      </trkpt>
      <trkpt lat="46.33834" lon="5.46044">
        <ele>412.4</ele>
        <time>2022-05-24T14:44:15Z</time>
      </trkpt>
      <trkpt lat="46.33822" lon="5.46045">
        <ele>412</ele>
        <time>2022-05-24T14:44:16Z</time>
      </trkpt>
      <trkpt lat="46.338" lon="5.4605">
        <ele>411</ele>
        <time>2022-05-24T14:44:18Z</time>
      </trkpt>
      <trkpt lat="46.33766" lon="5.46059">
        <ele>409.4</ele>
        <time>2022-05-24T14:44:21Z</time>
      </trkpt>
      <trkpt lat="46.33745" lon="5.46059">
        <ele>408.2</ele>
        <time>2022-05-24T14:44:23Z</time>
      </trkpt>
      <trkpt lat="46.33723" lon="5.46051">
        <ele>406.6</ele>
        <time>2022-05-24T14:44:25Z</time>
      </trkpt>
      <trkpt lat="46.3371" lon="5.46043">
        <ele>406.4</ele>
        <time>2022-05-24T14:44:26Z</time>
      </trkpt>
      <trkpt lat="46.33699" lon="5.46034">
        <ele>405.8</ele>
        <time>2022-05-24T14:44:27Z</time>
      </trkpt>
      <trkpt lat="46.33688" lon="5.46025">
        <ele>405.4</ele>
        <time>2022-05-24T14:44:28Z</time>
      </trkpt>
      <trkpt lat="46.33678" lon="5.46015">
        <ele>404.8</ele>
        <time>2022-05-24T14:44:29Z</time>
      </trkpt>
      <trkpt lat="46.33665" lon="5.46006">
        <ele>403</ele>
        <time>2022-05-24T14:44:30Z</time>
      </trkpt>
      <trkpt lat="46.33642" lon="5.45993">
        <ele>401.8</ele>
        <time>2022-05-24T14:44:32Z</time>
      </trkpt>
      <trkpt lat="46.33619" lon="5.45981">
        <ele>400.4</ele>
        <time>2022-05-24T14:44:34Z</time>
      </trkpt>
      <trkpt lat="46.33595" lon="5.45969">
        <ele>399</ele>
        <time>2022-05-24T14:44:36Z</time>
      </trkpt>
      <trkpt lat="46.33572" lon="5.45959">
        <ele>397.8</ele>
        <time>2022-05-24T14:44:38Z</time>
      </trkpt>
      <trkpt lat="46.3356" lon="5.45955">
        <ele>396.4</ele>
        <time>2022-05-24T14:44:39Z</time>
      </trkpt>
      <trkpt lat="46.33548" lon="5.4595">
        <ele>395.8</ele>
        <time>2022-05-24T14:44:40Z</time>
      </trkpt>
      <trkpt lat="46.33536" lon="5.45944">
        <ele>395</ele>
        <time>2022-05-24T14:44:41Z</time>
      </trkpt>
      <trkpt lat="46.33524" lon="5.45937">
        <ele>394.6</ele>
        <time>2022-05-24T14:44:42Z</time>
      </trkpt>
      <trkpt lat="46.33512" lon="5.45927">
        <ele>394</ele>
        <time>2022-05-24T14:44:43Z</time>
      </trkpt>
      <trkpt lat="46.33493" lon="5.45902">
        <ele>393</ele>
        <time>2022-05-24T14:44:45Z</time>
      </trkpt>
      <trkpt lat="46.33485" lon="5.45889">
        <ele>392.4</ele>
        <time>2022-05-24T14:44:46Z</time>
      </trkpt>
      <trkpt lat="46.33472" lon="5.45863">
        <ele>391.6</ele>
        <time>2022-05-24T14:44:48Z</time>
      </trkpt>
      <trkpt lat="46.33465" lon="5.45849">
        <ele>391.4</ele>
        <time>2022-05-24T14:44:49Z</time>
      </trkpt>
      <trkpt lat="46.33459" lon="5.45835">
        <ele>390.2</ele>
        <time>2022-05-24T14:44:50Z</time>
      </trkpt>
      <trkpt lat="46.33454" lon="5.45806">
        <ele>389.6</ele>
        <time>2022-05-24T14:44:52Z</time>
      </trkpt>
      <trkpt lat="46.3346" lon="5.45775">
        <ele>389.2</ele>
        <time>2022-05-24T14:44:54Z</time>
      </trkpt>
      <trkpt lat="46.33467" lon="5.45762">
        <ele>388.6</ele>
        <time>2022-05-24T14:44:55Z</time>
      </trkpt>
      <trkpt lat="46.33475" lon="5.4575">
        <ele>388.4</ele>
        <time>2022-05-24T14:44:56Z</time>
      </trkpt>
      <trkpt lat="46.33484" lon="5.45739">
        <ele>387.8</ele>
        <time>2022-05-24T14:44:57Z</time>
      </trkpt>
      <trkpt lat="46.33496" lon="5.45729">
        <ele>387.4</ele>
        <time>2022-05-24T14:44:58Z</time>
      </trkpt>
      <trkpt lat="46.33507" lon="5.45722">
        <ele>387</ele>
        <time>2022-05-24T14:44:59Z</time>
      </trkpt>
      <trkpt lat="46.33528" lon="5.4571">
        <ele>386.4</ele>
        <time>2022-05-24T14:45:01Z</time>
      </trkpt>
      <trkpt lat="46.33564" lon="5.45691">
        <ele>385</ele>
        <time>2022-05-24T14:45:04Z</time>
      </trkpt>
      <trkpt lat="46.33573" lon="5.45685">
        <ele>384.2</ele>
        <time>2022-05-24T14:45:05Z</time>
      </trkpt>
      <trkpt lat="46.33587" lon="5.45674">
        <ele>383.6</ele>
        <time>2022-05-24T14:45:06Z</time>
      </trkpt>
      <trkpt lat="46.33597" lon="5.45662">
        <ele>382.2</ele>
        <time>2022-05-24T14:45:07Z</time>
      </trkpt>
      <trkpt lat="46.33607" lon="5.45648">
        <ele>381.4</ele>
        <time>2022-05-24T14:45:08Z</time>
      </trkpt>
      <trkpt lat="46.33612" lon="5.45638">
        <ele>380.4</ele>
        <time>2022-05-24T14:45:09Z</time>
      </trkpt>
      <trkpt lat="46.33617" lon="5.45621">
        <ele>379.8</ele>
        <time>2022-05-24T14:45:10Z</time>
      </trkpt>
      <trkpt lat="46.33619" lon="5.45602">
        <ele>378.8</ele>
        <time>2022-05-24T14:45:11Z</time>
      </trkpt>
      <trkpt lat="46.33619" lon="5.45579">
        <ele>377.4</ele>
        <time>2022-05-24T14:45:12Z</time>
      </trkpt>
      <trkpt lat="46.33614" lon="5.45557">
        <ele>376.6</ele>
        <time>2022-05-24T14:45:13Z</time>
      </trkpt>
      <trkpt lat="46.33608" lon="5.4554">
        <ele>375.8</ele>
        <time>2022-05-24T14:45:14Z</time>
      </trkpt>
      <trkpt lat="46.33593" lon="5.45507">
        <ele>374</ele>
        <time>2022-05-24T14:45:16Z</time>
      </trkpt>
      <trkpt lat="46.3358" lon="5.45473">
        <ele>372.2</ele>
        <time>2022-05-24T14:45:18Z</time>
      </trkpt>
      <trkpt lat="46.33576" lon="5.4546">
        <ele>371.4</ele>
        <time>2022-05-24T14:45:19Z</time>
      </trkpt>
      <trkpt lat="46.3357" lon="5.45443">
        <ele>370</ele>
        <time>2022-05-24T14:45:20Z</time>
      </trkpt>
      <trkpt lat="46.33557" lon="5.45406">
        <ele>368.6</ele>
        <time>2022-05-24T14:45:22Z</time>
      </trkpt>
      <trkpt lat="46.33541" lon="5.4536">
        <ele>367.8</ele>
        <time>2022-05-24T14:45:25Z</time>
      </trkpt>
      <trkpt lat="46.33531" lon="5.45331">
        <ele>367.6</ele>
        <time>2022-05-24T14:45:27Z</time>
      </trkpt>
      <trkpt lat="46.33524" lon="5.45301">
        <ele>367.2</ele>
        <time>2022-05-24T14:45:29Z</time>
      </trkpt>
      <trkpt lat="46.33523" lon="5.45272">
        <ele>367.4</ele>
        <time>2022-05-24T14:45:31Z</time>
      </trkpt>
      <trkpt lat="46.33524" lon="5.45258">
        <ele>367.4</ele>
        <time>2022-05-24T14:45:32Z</time>
      </trkpt>
      <trkpt lat="46.33532" lon="5.45174">
        <ele>367.6</ele>
        <time>2022-05-24T14:45:38Z</time>
      </trkpt>
      <trkpt lat="46.33533" lon="5.4516">
        <ele>367.6</ele>
        <time>2022-05-24T14:45:39Z</time>
      </trkpt>
      <trkpt lat="46.33532" lon="5.45076">
        <ele>367.8</ele>
        <time>2022-05-24T14:45:45Z</time>
      </trkpt>
      <trkpt lat="46.33525" lon="5.45034">
        <ele>367.8</ele>
        <time>2022-05-24T14:45:48Z</time>
      </trkpt>
      <trkpt lat="46.33521" lon="5.45022">
        <ele>368</ele>
        <time>2022-05-24T14:45:49Z</time>
      </trkpt>
      <trkpt lat="46.33515" lon="5.45011">
        <ele>368.2</ele>
        <time>2022-05-24T14:45:50Z</time>
      </trkpt>
      <trkpt lat="46.33503" lon="5.44992">
        <ele>368.4</ele>
        <time>2022-05-24T14:45:52Z</time>
      </trkpt>
      <trkpt lat="46.33496" lon="5.44983">
        <ele>368.6</ele>
        <time>2022-05-24T14:45:53Z</time>
      </trkpt>
      <trkpt lat="46.33455" lon="5.44934">
        <ele>368.4</ele>
        <time>2022-05-24T14:45:59Z</time>
      </trkpt>
      <trkpt lat="46.33411" lon="5.44879">
        <ele>367.8</ele>
        <time>2022-05-24T14:46:06Z</time>
      </trkpt>
      <trkpt lat="46.33379" lon="5.44832">
        <ele>367.6</ele>
        <time>2022-05-24T14:46:11Z</time>
      </trkpt>
      <trkpt lat="46.33373" lon="5.4482">
        <ele>367.4</ele>
        <time>2022-05-24T14:46:12Z</time>
      </trkpt>
      <trkpt lat="46.3335" lon="5.44778">
        <ele>366.4</ele>
        <time>2022-05-24T14:46:16Z</time>
      </trkpt>
      <trkpt lat="46.33341" lon="5.44766">
        <ele>366.2</ele>
        <time>2022-05-24T14:46:17Z</time>
      </trkpt>
      <trkpt lat="46.33327" lon="5.44747">
        <ele>364.8</ele>
        <time>2022-05-24T14:46:19Z</time>
      </trkpt>
      <trkpt lat="46.33304" lon="5.44719">
        <ele>364.2</ele>
        <time>2022-05-24T14:46:22Z</time>
      </trkpt>
      <trkpt lat="46.33297" lon="5.4471">
        <ele>363.8</ele>
        <time>2022-05-24T14:46:23Z</time>
      </trkpt>
      <trkpt lat="46.33273" lon="5.44682">
        <ele>362.4</ele>
        <time>2022-05-24T14:46:26Z</time>
      </trkpt>
      <trkpt lat="46.33247" lon="5.44655">
        <ele>361.4</ele>
        <time>2022-05-24T14:46:29Z</time>
      </trkpt>
      <trkpt lat="46.33229" lon="5.44636">
        <ele>360.2</ele>
        <time>2022-05-24T14:46:31Z</time>
      </trkpt>
      <trkpt lat="46.33211" lon="5.44614">
        <ele>359</ele>
        <time>2022-05-24T14:46:33Z</time>
      </trkpt>
      <trkpt lat="46.33203" lon="5.44601">
        <ele>358.4</ele>
        <time>2022-05-24T14:46:34Z</time>
      </trkpt>
      <trkpt lat="46.33196" lon="5.44587">
        <ele>357.6</ele>
        <time>2022-05-24T14:46:35Z</time>
      </trkpt>
      <trkpt lat="46.3319" lon="5.44576">
        <ele>357.2</ele>
        <time>2022-05-24T14:46:36Z</time>
      </trkpt>
      <trkpt lat="46.33181" lon="5.44559">
        <ele>356</ele>
        <time>2022-05-24T14:46:37Z</time>
      </trkpt>
      <trkpt lat="46.33167" lon="5.4453">
        <ele>354</ele>
        <time>2022-05-24T14:46:39Z</time>
      </trkpt>
      <trkpt lat="46.33154" lon="5.44498">
        <ele>352.4</ele>
        <time>2022-05-24T14:46:41Z</time>
      </trkpt>
      <trkpt lat="46.33151" lon="5.44481">
        <ele>351.4</ele>
        <time>2022-05-24T14:46:42Z</time>
      </trkpt>
      <trkpt lat="46.33147" lon="5.44448">
        <ele>350.2</ele>
        <time>2022-05-24T14:46:44Z</time>
      </trkpt>
      <trkpt lat="46.33141" lon="5.44418">
        <ele>349.4</ele>
        <time>2022-05-24T14:46:46Z</time>
      </trkpt>
      <trkpt lat="46.33136" lon="5.44406">
        <ele>349</ele>
        <time>2022-05-24T14:46:47Z</time>
      </trkpt>
      <trkpt lat="46.3313" lon="5.44395">
        <ele>348.6</ele>
        <time>2022-05-24T14:46:48Z</time>
      </trkpt>
      <trkpt lat="46.33115" lon="5.44379">
        <ele>348.2</ele>
        <time>2022-05-24T14:46:50Z</time>
      </trkpt>
      <trkpt lat="46.33098" lon="5.44373">
        <ele>348.2</ele>
        <time>2022-05-24T14:46:52Z</time>
      </trkpt>
      <trkpt lat="46.33089" lon="5.44373">
        <ele>348.2</ele>
        <time>2022-05-24T14:46:53Z</time>
      </trkpt>
      <trkpt lat="46.3304" lon="5.44371">
        <ele>348.4</ele>
        <time>2022-05-24T14:46:59Z</time>
      </trkpt>
      <trkpt lat="46.33031" lon="5.44368">
        <ele>348.4</ele>
        <time>2022-05-24T14:47:00Z</time>
      </trkpt>
      <trkpt lat="46.33025" lon="5.44363">
        <ele>348.4</ele>
        <time>2022-05-24T14:47:01Z</time>
      </trkpt>
      <trkpt lat="46.33015" lon="5.4435">
        <ele>349</ele>
        <time>2022-05-24T14:47:03Z</time>
      </trkpt>
      <trkpt lat="46.33008" lon="5.44341">
        <ele>349.2</ele>
        <time>2022-05-24T14:47:04Z</time>
      </trkpt>
      <trkpt lat="46.32992" lon="5.44323">
        <ele>349.6</ele>
        <time>2022-05-24T14:47:07Z</time>
      </trkpt>
      <trkpt lat="46.32983" lon="5.44308">
        <ele>350</ele>
        <time>2022-05-24T14:47:09Z</time>
      </trkpt>
      <trkpt lat="46.32979" lon="5.44301">
        <ele>350.6</ele>
        <time>2022-05-24T14:47:10Z</time>
      </trkpt>
      <trkpt lat="46.32972" lon="5.44287">
        <ele>351.2</ele>
        <time>2022-05-24T14:47:12Z</time>
      </trkpt>
      <trkpt lat="46.32967" lon="5.44278">
        <ele>351.4</ele>
        <time>2022-05-24T14:47:13Z</time>
      </trkpt>
      <trkpt lat="46.32938" lon="5.44205">
        <ele>352</ele>
        <time>2022-05-24T14:47:21Z</time>
      </trkpt>
      <trkpt lat="46.32921" lon="5.44143">
        <ele>351.4</ele>
        <time>2022-05-24T14:47:27Z</time>
      </trkpt>
      <trkpt lat="46.32918" lon="5.44132">
        <ele>351.4</ele>
        <time>2022-05-24T14:47:28Z</time>
      </trkpt>
      <trkpt lat="46.32913" lon="5.4409">
        <ele>351.2</ele>
        <time>2022-05-24T14:47:32Z</time>
      </trkpt>
      <trkpt lat="46.32915" lon="5.44042">
        <ele>351.4</ele>
        <time>2022-05-24T14:47:37Z</time>
      </trkpt>
      <trkpt lat="46.3292" lon="5.44017">
        <ele>352.4</ele>
        <time>2022-05-24T14:47:40Z</time>
      </trkpt>
      <trkpt lat="46.32924" lon="5.44001">
        <ele>353</ele>
        <time>2022-05-24T14:47:42Z</time>
      </trkpt>
      <trkpt lat="46.32928" lon="5.43983">
        <ele>353.4</ele>
        <time>2022-05-24T14:47:45Z</time>
      </trkpt>
      <trkpt lat="46.32932" lon="5.43975">
        <ele>353.8</ele>
        <time>2022-05-24T14:47:46Z</time>
      </trkpt>
      <trkpt lat="46.32934" lon="5.43971">
        <ele>354.2</ele>
        <time>2022-05-24T14:47:47Z</time>
      </trkpt>
      <trkpt lat="46.32942" lon="5.43961">
        <ele>354.8</ele>
        <time>2022-05-24T14:47:49Z</time>
      </trkpt>
      <trkpt lat="46.32953" lon="5.43949">
        <ele>355.2</ele>
        <time>2022-05-24T14:47:52Z</time>
      </trkpt>
      <trkpt lat="46.32968" lon="5.43933">
        <ele>355.8</ele>
        <time>2022-05-24T14:47:56Z</time>
      </trkpt>
      <trkpt lat="46.32982" lon="5.4392">
        <ele>356.6</ele>
        <time>2022-05-24T14:48:00Z</time>
      </trkpt>
      <trkpt lat="46.32985" lon="5.43917">
        <ele>357</ele>
        <time>2022-05-24T14:48:01Z</time>
      </trkpt>
      <trkpt lat="46.32988" lon="5.43912">
        <ele>357.2</ele>
        <time>2022-05-24T14:48:02Z</time>
      </trkpt>
      <trkpt lat="46.33" lon="5.43894">
        <ele>358.2</ele>
        <time>2022-05-24T14:48:06Z</time>
      </trkpt>
      <trkpt lat="46.33006" lon="5.43884">
        <ele>358.8</ele>
        <time>2022-05-24T14:48:08Z</time>
      </trkpt>
      <trkpt lat="46.33011" lon="5.43875">
        <ele>359.2</ele>
        <time>2022-05-24T14:48:10Z</time>
      </trkpt>
      <trkpt lat="46.3302" lon="5.43856">
        <ele>360.6</ele>
        <time>2022-05-24T14:48:14Z</time>
      </trkpt>
      <trkpt lat="46.33024" lon="5.43848">
        <ele>361.2</ele>
        <time>2022-05-24T14:48:16Z</time>
      </trkpt>
      <trkpt lat="46.33027" lon="5.43843">
        <ele>361.6</ele>
        <time>2022-05-24T14:48:17Z</time>
      </trkpt>
      <trkpt lat="46.33029" lon="5.43839">
        <ele>361.6</ele>
        <time>2022-05-24T14:48:18Z</time>
      </trkpt>
      <trkpt lat="46.33039" lon="5.43817">
        <ele>362.6</ele>
        <time>2022-05-24T14:48:23Z</time>
      </trkpt>
      <trkpt lat="46.33041" lon="5.43812">
        <ele>362.8</ele>
        <time>2022-05-24T14:48:24Z</time>
      </trkpt>
      <trkpt lat="46.33052" lon="5.43789">
        <ele>363.8</ele>
        <time>2022-05-24T14:48:29Z</time>
      </trkpt>
      <trkpt lat="46.33055" lon="5.43778">
        <ele>364.6</ele>
        <time>2022-05-24T14:48:31Z</time>
      </trkpt>
      <trkpt lat="46.33055" lon="5.43768">
        <ele>365</ele>
        <time>2022-05-24T14:48:33Z</time>
      </trkpt>
      <trkpt lat="46.33052" lon="5.43759">
        <ele>365.6</ele>
        <time>2022-05-24T14:48:35Z</time>
      </trkpt>
      <trkpt lat="46.33042" lon="5.43752">
        <ele>366.2</ele>
        <time>2022-05-24T14:48:38Z</time>
      </trkpt>
      <trkpt lat="46.33038" lon="5.43752">
        <ele>366.2</ele>
        <time>2022-05-24T14:48:39Z</time>
      </trkpt>
      <trkpt lat="46.33019" lon="5.43758">
        <ele>367.4</ele>
        <time>2022-05-24T14:48:44Z</time>
      </trkpt>
      <trkpt lat="46.33015" lon="5.43759">
        <ele>367.8</ele>
        <time>2022-05-24T14:48:45Z</time>
      </trkpt>
      <trkpt lat="46.33007" lon="5.43761">
        <ele>368.4</ele>
        <time>2022-05-24T14:48:47Z</time>
      </trkpt>
      <trkpt lat="46.33003" lon="5.43761">
        <ele>368.6</ele>
        <time>2022-05-24T14:48:48Z</time>
      </trkpt>
      <trkpt lat="46.32995" lon="5.43762">
        <ele>369.2</ele>
        <time>2022-05-24T14:48:50Z</time>
      </trkpt>
      <trkpt lat="46.32986" lon="5.43764">
        <ele>369.8</ele>
        <time>2022-05-24T14:48:52Z</time>
      </trkpt>
      <trkpt lat="46.32971" lon="5.43765">
        <ele>370.4</ele>
        <time>2022-05-24T14:48:56Z</time>
      </trkpt>
      <trkpt lat="46.32963" lon="5.43765">
        <ele>371</ele>
        <time>2022-05-24T14:48:58Z</time>
      </trkpt>
      <trkpt lat="46.32952" lon="5.43765">
        <ele>372</ele>
        <time>2022-05-24T14:49:01Z</time>
      </trkpt>
      <trkpt lat="46.32944" lon="5.4376">
        <ele>372.6</ele>
        <time>2022-05-24T14:49:04Z</time>
      </trkpt>
      <trkpt lat="46.32943" lon="5.43757">
        <ele>372.8</ele>
        <time>2022-05-24T14:49:05Z</time>
      </trkpt>
      <trkpt lat="46.32943" lon="5.43754">
        <ele>373.2</ele>
        <time>2022-05-24T14:49:08Z</time>
      </trkpt>
      <trkpt lat="46.32944" lon="5.43753">
        <ele>373.2</ele>
        <time>2022-05-24T14:49:09Z</time>
      </trkpt>
      <trkpt lat="46.32943" lon="5.43751">
        <ele>373.4</ele>
        <time>2022-05-24T14:49:10Z</time>
      </trkpt>
      <trkpt lat="46.32939" lon="5.43747">
        <ele>373.8</ele>
        <time>2022-05-24T14:49:13Z</time>
      </trkpt>
      <trkpt lat="46.32931" lon="5.4374">
        <ele>374.2</ele>
        <time>2022-05-24T14:49:16Z</time>
      </trkpt>
      <trkpt lat="46.32929" lon="5.43736">
        <ele>374.2</ele>
        <time>2022-05-24T14:49:17Z</time>
      </trkpt>
      <trkpt lat="46.32926" lon="5.4372">
        <ele>375</ele>
        <time>2022-05-24T14:49:21Z</time>
      </trkpt>
      <trkpt lat="46.32924" lon="5.43711">
        <ele>375.2</ele>
        <time>2022-05-24T14:49:23Z</time>
      </trkpt>
      <trkpt lat="46.3292" lon="5.43693">
        <ele>376.2</ele>
        <time>2022-05-24T14:49:27Z</time>
      </trkpt>
      <trkpt lat="46.32919" lon="5.43688">
        <ele>376.6</ele>
        <time>2022-05-24T14:49:28Z</time>
      </trkpt>
      <trkpt lat="46.32916" lon="5.43675">
        <ele>377.6</ele>
        <time>2022-05-24T14:49:31Z</time>
      </trkpt>
      <trkpt lat="46.32915" lon="5.43668">
        <ele>378</ele>
        <time>2022-05-24T14:49:33Z</time>
      </trkpt>
      <trkpt lat="46.32915" lon="5.43665">
        <ele>378</ele>
        <time>2022-05-24T14:49:34Z</time>
      </trkpt>
      <trkpt lat="46.32914" lon="5.43656">
        <ele>378.8</ele>
        <time>2022-05-24T14:49:36Z</time>
      </trkpt>
      <trkpt lat="46.32914" lon="5.4365">
        <ele>379.4</ele>
        <time>2022-05-24T14:49:38Z</time>
      </trkpt>
      <trkpt lat="46.32916" lon="5.43644">
        <ele>380</ele>
        <time>2022-05-24T14:49:40Z</time>
      </trkpt>
      <trkpt lat="46.32915" lon="5.43639">
        <ele>380.4</ele>
        <time>2022-05-24T14:49:41Z</time>
      </trkpt>
      <trkpt lat="46.32913" lon="5.43632">
        <ele>380.8</ele>
        <time>2022-05-24T14:49:42Z</time>
      </trkpt>
      <trkpt lat="46.32911" lon="5.43626">
        <ele>381</ele>
        <time>2022-05-24T14:49:43Z</time>
      </trkpt>
      <trkpt lat="46.32909" lon="5.43618">
        <ele>381.2</ele>
        <time>2022-05-24T14:49:44Z</time>
      </trkpt>
      <trkpt lat="46.32906" lon="5.4361">
        <ele>381.4</ele>
        <time>2022-05-24T14:49:45Z</time>
      </trkpt>
      <trkpt lat="46.32904" lon="5.43596">
        <ele>381.6</ele>
        <time>2022-05-24T14:49:47Z</time>
      </trkpt>
      <trkpt lat="46.32904" lon="5.43582">
        <ele>381.6</ele>
        <time>2022-05-24T14:49:49Z</time>
      </trkpt>
      <trkpt lat="46.32906" lon="5.43576">
        <ele>381.6</ele>
        <time>2022-05-24T14:49:50Z</time>
      </trkpt>
      <trkpt lat="46.32911" lon="5.43564">
        <ele>381.6</ele>
        <time>2022-05-24T14:49:52Z</time>
      </trkpt>
      <trkpt lat="46.32922" lon="5.43551">
        <ele>381.6</ele>
        <time>2022-05-24T14:49:55Z</time>
      </trkpt>
      <trkpt lat="46.32933" lon="5.4354">
        <ele>381.8</ele>
        <time>2022-05-24T14:49:58Z</time>
      </trkpt>
      <trkpt lat="46.3294" lon="5.43533">
        <ele>381.8</ele>
        <time>2022-05-24T14:50:00Z</time>
      </trkpt>
      <trkpt lat="46.32944" lon="5.4353">
        <ele>382.2</ele>
        <time>2022-05-24T14:50:01Z</time>
      </trkpt>
      <trkpt lat="46.32947" lon="5.43528">
        <ele>382.4</ele>
        <time>2022-05-24T14:50:02Z</time>
      </trkpt>
      <trkpt lat="46.32951" lon="5.43526">
        <ele>382.8</ele>
        <time>2022-05-24T14:50:03Z</time>
      </trkpt>
      <trkpt lat="46.32954" lon="5.43523">
        <ele>383</ele>
        <time>2022-05-24T14:50:04Z</time>
      </trkpt>
      <trkpt lat="46.3296" lon="5.43517">
        <ele>383.6</ele>
        <time>2022-05-24T14:50:06Z</time>
      </trkpt>
      <trkpt lat="46.32978" lon="5.43497">
        <ele>384</ele>
        <time>2022-05-24T14:50:11Z</time>
      </trkpt>
      <trkpt lat="46.33004" lon="5.43464">
        <ele>383.6</ele>
        <time>2022-05-24T14:50:16Z</time>
      </trkpt>
      <trkpt lat="46.33032" lon="5.43432">
        <ele>382</ele>
        <time>2022-05-24T14:50:20Z</time>
      </trkpt>
      <trkpt lat="46.33039" lon="5.43424">
        <ele>381.4</ele>
        <time>2022-05-24T14:50:21Z</time>
      </trkpt>
      <trkpt lat="46.33046" lon="5.43416">
        <ele>380</ele>
        <time>2022-05-24T14:50:22Z</time>
      </trkpt>
      <trkpt lat="46.33079" lon="5.43385">
        <ele>378.2</ele>
        <time>2022-05-24T14:50:26Z</time>
      </trkpt>
      <trkpt lat="46.33088" lon="5.43378">
        <ele>376.2</ele>
        <time>2022-05-24T14:50:27Z</time>
      </trkpt>
      <trkpt lat="46.33106" lon="5.43364">
        <ele>374.2</ele>
        <time>2022-05-24T14:50:29Z</time>
      </trkpt>
      <trkpt lat="46.33133" lon="5.43345">
        <ele>373.2</ele>
        <time>2022-05-24T14:50:32Z</time>
      </trkpt>
      <trkpt lat="46.33142" lon="5.43339">
        <ele>371</ele>
        <time>2022-05-24T14:50:33Z</time>
      </trkpt>
      <trkpt lat="46.33152" lon="5.43334">
        <ele>369.4</ele>
        <time>2022-05-24T14:50:34Z</time>
      </trkpt>
      <trkpt lat="46.33172" lon="5.43322">
        <ele>368.4</ele>
        <time>2022-05-24T14:50:36Z</time>
      </trkpt>
      <trkpt lat="46.33203" lon="5.43305">
        <ele>367.2</ele>
        <time>2022-05-24T14:50:39Z</time>
      </trkpt>
      <trkpt lat="46.33214" lon="5.43301">
        <ele>366.4</ele>
        <time>2022-05-24T14:50:40Z</time>
      </trkpt>
      <trkpt lat="46.33224" lon="5.43297">
        <ele>365.2</ele>
        <time>2022-05-24T14:50:41Z</time>
      </trkpt>
      <trkpt lat="46.33246" lon="5.43293">
        <ele>364</ele>
        <time>2022-05-24T14:50:43Z</time>
      </trkpt>
      <trkpt lat="46.33256" lon="5.43292">
        <ele>363.8</ele>
        <time>2022-05-24T14:50:44Z</time>
      </trkpt>
      <trkpt lat="46.33286" lon="5.43286">
        <ele>363</ele>
        <time>2022-05-24T14:50:47Z</time>
      </trkpt>
      <trkpt lat="46.33306" lon="5.43282">
        <ele>361.8</ele>
        <time>2022-05-24T14:50:49Z</time>
      </trkpt>
      <trkpt lat="46.33315" lon="5.43279">
        <ele>360.8</ele>
        <time>2022-05-24T14:50:50Z</time>
      </trkpt>
      <trkpt lat="46.33334" lon="5.43273">
        <ele>359.8</ele>
        <time>2022-05-24T14:50:52Z</time>
      </trkpt>
      <trkpt lat="46.33352" lon="5.43268">
        <ele>359.4</ele>
        <time>2022-05-24T14:50:54Z</time>
      </trkpt>
      <trkpt lat="46.3337" lon="5.43264">
        <ele>359</ele>
        <time>2022-05-24T14:50:56Z</time>
      </trkpt>
      <trkpt lat="46.33396" lon="5.43259">
        <ele>358.6</ele>
        <time>2022-05-24T14:50:59Z</time>
      </trkpt>
      <trkpt lat="46.33405" lon="5.43254">
        <ele>358.6</ele>
        <time>2022-05-24T14:51:00Z</time>
      </trkpt>
      <trkpt lat="46.33412" lon="5.43246">
        <ele>358.4</ele>
        <time>2022-05-24T14:51:01Z</time>
      </trkpt>
      <trkpt lat="46.33423" lon="5.43227">
        <ele>357.8</ele>
        <time>2022-05-24T14:51:03Z</time>
      </trkpt>
      <trkpt lat="46.33438" lon="5.43176">
        <ele>357.4</ele>
        <time>2022-05-24T14:51:07Z</time>
      </trkpt>
      <trkpt lat="46.3344" lon="5.43164">
        <ele>357</ele>
        <time>2022-05-24T14:51:08Z</time>
      </trkpt>
      <trkpt lat="46.33451" lon="5.43102">
        <ele>356.8</ele>
        <time>2022-05-24T14:51:13Z</time>
      </trkpt>
      <trkpt lat="46.33454" lon="5.43089">
        <ele>356.6</ele>
        <time>2022-05-24T14:51:14Z</time>
      </trkpt>
      <trkpt lat="46.33457" lon="5.43077">
        <ele>356.4</ele>
        <time>2022-05-24T14:51:15Z</time>
      </trkpt>
      <trkpt lat="46.33466" lon="5.43056">
        <ele>356</ele>
        <time>2022-05-24T14:51:17Z</time>
      </trkpt>
      <trkpt lat="46.33484" lon="5.43005">
        <ele>355.8</ele>
        <time>2022-05-24T14:51:22Z</time>
      </trkpt>
      <trkpt lat="46.33491" lon="5.42965">
        <ele>356.2</ele>
        <time>2022-05-24T14:51:26Z</time>
      </trkpt>
      <trkpt lat="46.33493" lon="5.42956">
        <ele>356.8</ele>
        <time>2022-05-24T14:51:27Z</time>
      </trkpt>
      <trkpt lat="46.335" lon="5.42937">
        <ele>356.8</ele>
        <time>2022-05-24T14:51:29Z</time>
      </trkpt>
      <trkpt lat="46.33509" lon="5.42921">
        <ele>357.2</ele>
        <time>2022-05-24T14:51:31Z</time>
      </trkpt>
      <trkpt lat="46.33539" lon="5.42877">
        <ele>357</ele>
        <time>2022-05-24T14:51:37Z</time>
      </trkpt>
      <trkpt lat="46.33551" lon="5.42851">
        <ele>357</ele>
        <time>2022-05-24T14:51:40Z</time>
      </trkpt>
      <trkpt lat="46.33563" lon="5.42835">
        <ele>356.8</ele>
        <time>2022-05-24T14:51:42Z</time>
      </trkpt>
      <trkpt lat="46.33597" lon="5.42807">
        <ele>356.8</ele>
        <time>2022-05-24T14:51:47Z</time>
      </trkpt>
      <trkpt lat="46.33641" lon="5.42786">
        <ele>356</ele>
        <time>2022-05-24T14:51:53Z</time>
      </trkpt>
      <trkpt lat="46.33695" lon="5.42757">
        <ele>356.4</ele>
        <time>2022-05-24T14:52:01Z</time>
      </trkpt>
      <trkpt lat="46.33706" lon="5.42747">
        <ele>356.8</ele>
        <time>2022-05-24T14:52:03Z</time>
      </trkpt>
      <trkpt lat="46.33714" lon="5.42736">
        <ele>357.2</ele>
        <time>2022-05-24T14:52:05Z</time>
      </trkpt>
      <trkpt lat="46.33722" lon="5.42721">
        <ele>357.2</ele>
        <time>2022-05-24T14:52:07Z</time>
      </trkpt>
      <trkpt lat="46.3373" lon="5.427">
        <ele>357.6</ele>
        <time>2022-05-24T14:52:10Z</time>
      </trkpt>
      <trkpt lat="46.33745" lon="5.42648">
        <ele>358.4</ele>
        <time>2022-05-24T14:52:17Z</time>
      </trkpt>
      <trkpt lat="46.33762" lon="5.42605">
        <ele>358.6</ele>
        <time>2022-05-24T14:52:23Z</time>
      </trkpt>
      <trkpt lat="46.33766" lon="5.42599">
        <ele>358.6</ele>
        <time>2022-05-24T14:52:24Z</time>
      </trkpt>
      <trkpt lat="46.33802" lon="5.42551">
        <ele>359.6</ele>
        <time>2022-05-24T14:52:33Z</time>
      </trkpt>
      <trkpt lat="46.33813" lon="5.42537">
        <ele>359.8</ele>
        <time>2022-05-24T14:52:36Z</time>
      </trkpt>
      <trkpt lat="46.33837" lon="5.4251">
        <ele>360.6</ele>
        <time>2022-05-24T14:52:42Z</time>
      </trkpt>
      <trkpt lat="46.3385" lon="5.42496">
        <ele>361</ele>
        <time>2022-05-24T14:52:45Z</time>
      </trkpt>
      <trkpt lat="46.33873" lon="5.4247">
        <ele>362</ele>
        <time>2022-05-24T14:52:51Z</time>
      </trkpt>
      <trkpt lat="46.33878" lon="5.42464">
        <ele>362</ele>
        <time>2022-05-24T14:52:52Z</time>
      </trkpt>
      <trkpt lat="46.3391" lon="5.42435">
        <ele>363</ele>
        <time>2022-05-24T14:52:59Z</time>
      </trkpt>
      <trkpt lat="46.33928" lon="5.4242">
        <ele>363.4</ele>
        <time>2022-05-24T14:53:03Z</time>
      </trkpt>
      <trkpt lat="46.3397" lon="5.42384">
        <ele>364.2</ele>
        <time>2022-05-24T14:53:12Z</time>
      </trkpt>
      <trkpt lat="46.33988" lon="5.42369">
        <ele>365.4</ele>
        <time>2022-05-24T14:53:16Z</time>
      </trkpt>
      <trkpt lat="46.34012" lon="5.42352">
        <ele>366</ele>
        <time>2022-05-24T14:53:21Z</time>
      </trkpt>
      <trkpt lat="46.34042" lon="5.42335">
        <ele>366.4</ele>
        <time>2022-05-24T14:53:27Z</time>
      </trkpt>
      <trkpt lat="46.34071" lon="5.42318">
        <ele>367.4</ele>
        <time>2022-05-24T14:53:33Z</time>
      </trkpt>
      <trkpt lat="46.34074" lon="5.42315">
        <ele>367.6</ele>
        <time>2022-05-24T14:53:34Z</time>
      </trkpt>
      <trkpt lat="46.34085" lon="5.42306">
        <ele>367.8</ele>
        <time>2022-05-24T14:53:36Z</time>
      </trkpt>
      <trkpt lat="46.34089" lon="5.42301">
        <ele>367.8</ele>
        <time>2022-05-24T14:53:37Z</time>
      </trkpt>
      <trkpt lat="46.34095" lon="5.42295">
        <ele>367.8</ele>
        <time>2022-05-24T14:53:38Z</time>
      </trkpt>
      <trkpt lat="46.34132" lon="5.42253">
        <ele>367</ele>
        <time>2022-05-24T14:53:44Z</time>
      </trkpt>
      <trkpt lat="46.34144" lon="5.42241">
        <ele>366.4</ele>
        <time>2022-05-24T14:53:46Z</time>
      </trkpt>
      <trkpt lat="46.34163" lon="5.42219">
        <ele>365.4</ele>
        <time>2022-05-24T14:53:49Z</time>
      </trkpt>
      <trkpt lat="46.34176" lon="5.42203">
        <ele>365</ele>
        <time>2022-05-24T14:53:51Z</time>
      </trkpt>
      <trkpt lat="46.34207" lon="5.42167">
        <ele>364.2</ele>
        <time>2022-05-24T14:53:56Z</time>
      </trkpt>
      <trkpt lat="46.34243" lon="5.42126">
        <ele>364.2</ele>
        <time>2022-05-24T14:54:02Z</time>
      </trkpt>
      <trkpt lat="46.34279" lon="5.4208">
        <ele>364.4</ele>
        <time>2022-05-24T14:54:09Z</time>
      </trkpt>
      <trkpt lat="46.34301" lon="5.42048">
        <ele>364.6</ele>
        <time>2022-05-24T14:54:14Z</time>
      </trkpt>
      <trkpt lat="46.34318" lon="5.42026">
        <ele>364.6</ele>
        <time>2022-05-24T14:54:17Z</time>
      </trkpt>
      <trkpt lat="46.34342" lon="5.41986">
        <ele>364.8</ele>
        <time>2022-05-24T14:54:23Z</time>
      </trkpt>
      <trkpt lat="46.34345" lon="5.41977">
        <ele>364.8</ele>
        <time>2022-05-24T14:54:24Z</time>
      </trkpt>
      <trkpt lat="46.34348" lon="5.41969">
        <ele>364.8</ele>
        <time>2022-05-24T14:54:25Z</time>
      </trkpt>
      <trkpt lat="46.34349" lon="5.41962">
        <ele>365.4</ele>
        <time>2022-05-24T14:54:26Z</time>
      </trkpt>
      <trkpt lat="46.34353" lon="5.41934">
        <ele>365.8</ele>
        <time>2022-05-24T14:54:29Z</time>
      </trkpt>
      <trkpt lat="46.34359" lon="5.41905">
        <ele>365.8</ele>
        <time>2022-05-24T14:54:32Z</time>
      </trkpt>
      <trkpt lat="46.34366" lon="5.41888">
        <ele>365.8</ele>
        <time>2022-05-24T14:54:34Z</time>
      </trkpt>
      <trkpt lat="46.3437" lon="5.41881">
        <ele>365.8</ele>
        <time>2022-05-24T14:54:35Z</time>
      </trkpt>
      <trkpt lat="46.3438" lon="5.41869">
        <ele>365.8</ele>
        <time>2022-05-24T14:54:37Z</time>
      </trkpt>
      <trkpt lat="46.34386" lon="5.41864">
        <ele>365.8</ele>
        <time>2022-05-24T14:54:38Z</time>
      </trkpt>
      <trkpt lat="46.34425" lon="5.41834">
        <ele>365.8</ele>
        <time>2022-05-24T14:54:45Z</time>
      </trkpt>
      <trkpt lat="46.34452" lon="5.4181">
        <ele>366.4</ele>
        <time>2022-05-24T14:54:50Z</time>
      </trkpt>
      <trkpt lat="46.34463" lon="5.41799">
        <ele>366.6</ele>
        <time>2022-05-24T14:54:52Z</time>
      </trkpt>
      <trkpt lat="46.3451" lon="5.41753">
        <ele>366.6</ele>
        <time>2022-05-24T14:55:00Z</time>
      </trkpt>
      <trkpt lat="46.34558" lon="5.4171">
        <ele>366</ele>
        <time>2022-05-24T14:55:08Z</time>
      </trkpt>
      <trkpt lat="46.34569" lon="5.41702">
        <ele>366.2</ele>
        <time>2022-05-24T14:55:10Z</time>
      </trkpt>
      <trkpt lat="46.34609" lon="5.41675">
        <ele>366.8</ele>
        <time>2022-05-24T14:55:17Z</time>
      </trkpt>
      <trkpt lat="46.34618" lon="5.41667">
        <ele>367.6</ele>
        <time>2022-05-24T14:55:19Z</time>
      </trkpt>
      <trkpt lat="46.34638" lon="5.41639">
        <ele>368</ele>
        <time>2022-05-24T14:55:23Z</time>
      </trkpt>
      <trkpt lat="46.34669" lon="5.41585">
        <ele>368</ele>
        <time>2022-05-24T14:55:30Z</time>
      </trkpt>
      <trkpt lat="46.34706" lon="5.41527">
        <ele>368.4</ele>
        <time>2022-05-24T14:55:38Z</time>
      </trkpt>
      <trkpt lat="46.34724" lon="5.41498">
        <ele>368.6</ele>
        <time>2022-05-24T14:55:42Z</time>
      </trkpt>
      <trkpt lat="46.34734" lon="5.41485">
        <ele>368.6</ele>
        <time>2022-05-24T14:55:44Z</time>
      </trkpt>
      <trkpt lat="46.34774" lon="5.41428">
        <ele>368.6</ele>
        <time>2022-05-24T14:55:52Z</time>
      </trkpt>
      <trkpt lat="46.34779" lon="5.41423">
        <ele>368.6</ele>
        <time>2022-05-24T14:55:53Z</time>
      </trkpt>
      <trkpt lat="46.34824" lon="5.41371">
        <ele>368.4</ele>
        <time>2022-05-24T14:56:01Z</time>
      </trkpt>
      <trkpt lat="46.34835" lon="5.41358">
        <ele>368.2</ele>
        <time>2022-05-24T14:56:03Z</time>
      </trkpt>
      <trkpt lat="46.34876" lon="5.41309">
        <ele>368.4</ele>
        <time>2022-05-24T14:56:11Z</time>
      </trkpt>
      <trkpt lat="46.34913" lon="5.41246">
        <ele>368.6</ele>
        <time>2022-05-24T14:56:19Z</time>
      </trkpt>
      <trkpt lat="46.3495" lon="5.41189">
        <ele>368.8</ele>
        <time>2022-05-24T14:56:27Z</time>
      </trkpt>
      <trkpt lat="46.3496" lon="5.41176">
        <ele>368.8</ele>
        <time>2022-05-24T14:56:29Z</time>
      </trkpt>
      <trkpt lat="46.34987" lon="5.4114">
        <ele>369.6</ele>
        <time>2022-05-24T14:56:35Z</time>
      </trkpt>
      <trkpt lat="46.34994" lon="5.41126">
        <ele>370</ele>
        <time>2022-05-24T14:56:37Z</time>
      </trkpt>
      <trkpt lat="46.35005" lon="5.41101">
        <ele>370.6</ele>
        <time>2022-05-24T14:56:40Z</time>
      </trkpt>
      <trkpt lat="46.35017" lon="5.41071">
        <ele>370.8</ele>
        <time>2022-05-24T14:56:44Z</time>
      </trkpt>
      <trkpt lat="46.35041" lon="5.41018">
        <ele>371.6</ele>
        <time>2022-05-24T14:56:52Z</time>
      </trkpt>
      <trkpt lat="46.35049" lon="5.41005">
        <ele>372</ele>
        <time>2022-05-24T14:56:54Z</time>
      </trkpt>
      <trkpt lat="46.35062" lon="5.40985">
        <ele>372.8</ele>
        <time>2022-05-24T14:56:58Z</time>
      </trkpt>
      <trkpt lat="46.35072" lon="5.40971">
        <ele>374</ele>
        <time>2022-05-24T14:57:01Z</time>
      </trkpt>
      <trkpt lat="46.35079" lon="5.40962">
        <ele>374.2</ele>
        <time>2022-05-24T14:57:03Z</time>
      </trkpt>
      <trkpt lat="46.35098" lon="5.40945">
        <ele>375</ele>
        <time>2022-05-24T14:57:08Z</time>
      </trkpt>
      <trkpt lat="46.35113" lon="5.40933">
        <ele>376.2</ele>
        <time>2022-05-24T14:57:12Z</time>
      </trkpt>
      <trkpt lat="46.35127" lon="5.40924">
        <ele>377.2</ele>
        <time>2022-05-24T14:57:16Z</time>
      </trkpt>
      <trkpt lat="46.35142" lon="5.40917">
        <ele>378</ele>
        <time>2022-05-24T14:57:20Z</time>
      </trkpt>
      <trkpt lat="46.3515" lon="5.40914">
        <ele>378.4</ele>
        <time>2022-05-24T14:57:22Z</time>
      </trkpt>
      <trkpt lat="46.35161" lon="5.40912">
        <ele>379</ele>
        <time>2022-05-24T14:57:25Z</time>
      </trkpt>
      <trkpt lat="46.3517" lon="5.4091">
        <ele>379.6</ele>
        <time>2022-05-24T14:57:27Z</time>
      </trkpt>
      <trkpt lat="46.35181" lon="5.40907">
        <ele>380.6</ele>
        <time>2022-05-24T14:57:30Z</time>
      </trkpt>
      <trkpt lat="46.35185" lon="5.40906">
        <ele>381.2</ele>
        <time>2022-05-24T14:57:31Z</time>
      </trkpt>
      <trkpt lat="46.352" lon="5.40905">
        <ele>381.8</ele>
        <time>2022-05-24T14:57:35Z</time>
      </trkpt>
      <trkpt lat="46.35215" lon="5.40904">
        <ele>383</ele>
        <time>2022-05-24T14:57:39Z</time>
      </trkpt>
      <trkpt lat="46.35218" lon="5.40904">
        <ele>383.4</ele>
        <time>2022-05-24T14:57:40Z</time>
      </trkpt>
      <trkpt lat="46.35222" lon="5.40903">
        <ele>383.6</ele>
        <time>2022-05-24T14:57:41Z</time>
      </trkpt>
      <trkpt lat="46.35225" lon="5.40902">
        <ele>384</ele>
        <time>2022-05-24T14:57:42Z</time>
      </trkpt>
      <trkpt lat="46.35243" lon="5.40891">
        <ele>384.8</ele>
        <time>2022-05-24T14:57:47Z</time>
      </trkpt>
      <trkpt lat="46.35249" lon="5.40883">
        <ele>385.4</ele>
        <time>2022-05-24T14:57:49Z</time>
      </trkpt>
      <trkpt lat="46.3526" lon="5.40862">
        <ele>385.8</ele>
        <time>2022-05-24T14:57:53Z</time>
      </trkpt>
      <trkpt lat="46.35282" lon="5.40813">
        <ele>386.4</ele>
        <time>2022-05-24T14:58:01Z</time>
      </trkpt>
      <trkpt lat="46.35292" lon="5.40794">
        <ele>386.4</ele>
        <time>2022-05-24T14:58:04Z</time>
      </trkpt>
      <trkpt lat="46.35304" lon="5.40768">
        <ele>386.6</ele>
        <time>2022-05-24T14:58:08Z</time>
      </trkpt>
      <trkpt lat="46.35326" lon="5.40722">
        <ele>386.2</ele>
        <time>2022-05-24T14:58:14Z</time>
      </trkpt>
      <trkpt lat="46.35338" lon="5.40709">
        <ele>386</ele>
        <time>2022-05-24T14:58:16Z</time>
      </trkpt>
      <trkpt lat="46.35346" lon="5.40704">
        <ele>385.8</ele>
        <time>2022-05-24T14:58:17Z</time>
      </trkpt>
      <trkpt lat="46.35362" lon="5.40694">
        <ele>384.8</ele>
        <time>2022-05-24T14:58:19Z</time>
      </trkpt>
      <trkpt lat="46.35379" lon="5.4068">
        <ele>383.4</ele>
        <time>2022-05-24T14:58:21Z</time>
      </trkpt>
      <trkpt lat="46.35386" lon="5.40671">
        <ele>382.8</ele>
        <time>2022-05-24T14:58:22Z</time>
      </trkpt>
      <trkpt lat="46.35391" lon="5.40659">
        <ele>382.6</ele>
        <time>2022-05-24T14:58:23Z</time>
      </trkpt>
      <trkpt lat="46.35396" lon="5.40647">
        <ele>381.4</ele>
        <time>2022-05-24T14:58:24Z</time>
      </trkpt>
      <trkpt lat="46.35399" lon="5.40632">
        <ele>380.8</ele>
        <time>2022-05-24T14:58:25Z</time>
      </trkpt>
      <trkpt lat="46.35401" lon="5.40616">
        <ele>379.8</ele>
        <time>2022-05-24T14:58:26Z</time>
      </trkpt>
      <trkpt lat="46.35405" lon="5.40584">
        <ele>378.4</ele>
        <time>2022-05-24T14:58:28Z</time>
      </trkpt>
      <trkpt lat="46.35409" lon="5.40553">
        <ele>377.2</ele>
        <time>2022-05-24T14:58:30Z</time>
      </trkpt>
      <trkpt lat="46.35409" lon="5.40537">
        <ele>376.6</ele>
        <time>2022-05-24T14:58:31Z</time>
      </trkpt>
      <trkpt lat="46.35406" lon="5.40506">
        <ele>376.2</ele>
        <time>2022-05-24T14:58:33Z</time>
      </trkpt>
      <trkpt lat="46.354" lon="5.40462">
        <ele>375</ele>
        <time>2022-05-24T14:58:36Z</time>
      </trkpt>
      <trkpt lat="46.35394" lon="5.40436">
        <ele>374.8</ele>
        <time>2022-05-24T14:58:38Z</time>
      </trkpt>
      <trkpt lat="46.35383" lon="5.40415">
        <ele>374.6</ele>
        <time>2022-05-24T14:58:40Z</time>
      </trkpt>
      <trkpt lat="46.35375" lon="5.40408">
        <ele>374.6</ele>
        <time>2022-05-24T14:58:41Z</time>
      </trkpt>
      <trkpt lat="46.35364" lon="5.40401">
        <ele>374.6</ele>
        <time>2022-05-24T14:58:42Z</time>
      </trkpt>
      <trkpt lat="46.3535" lon="5.40397">
        <ele>374.4</ele>
        <time>2022-05-24T14:58:44Z</time>
      </trkpt>
      <trkpt lat="46.35324" lon="5.40388">
        <ele>374</ele>
        <time>2022-05-24T14:58:46Z</time>
      </trkpt>
      <trkpt lat="46.35314" lon="5.40383">
        <ele>373.6</ele>
        <time>2022-05-24T14:58:47Z</time>
      </trkpt>
      <trkpt lat="46.35307" lon="5.40377">
        <ele>373.4</ele>
        <time>2022-05-24T14:58:48Z</time>
      </trkpt>
      <trkpt lat="46.35299" lon="5.40368">
        <ele>373</ele>
        <time>2022-05-24T14:58:49Z</time>
      </trkpt>
      <trkpt lat="46.35288" lon="5.40344">
        <ele>372.4</ele>
        <time>2022-05-24T14:58:51Z</time>
      </trkpt>
      <trkpt lat="46.35282" lon="5.40305">
        <ele>372</ele>
        <time>2022-05-24T14:58:54Z</time>
      </trkpt>
      <trkpt lat="46.35277" lon="5.4023">
        <ele>371.8</ele>
        <time>2022-05-24T14:59:00Z</time>
      </trkpt>
      <trkpt lat="46.35276" lon="5.40179">
        <ele>373</ele>
        <time>2022-05-24T14:59:05Z</time>
      </trkpt>
      <trkpt lat="46.35276" lon="5.40171">
        <ele>373.2</ele>
        <time>2022-05-24T14:59:06Z</time>
      </trkpt>
      <trkpt lat="46.35276" lon="5.4016">
        <ele>373.4</ele>
        <time>2022-05-24T14:59:07Z</time>
      </trkpt>
      <trkpt lat="46.35272" lon="5.40135">
        <ele>373.6</ele>
        <time>2022-05-24T14:59:10Z</time>
      </trkpt>
      <trkpt lat="46.35268" lon="5.4012">
        <ele>374</ele>
        <time>2022-05-24T14:59:12Z</time>
      </trkpt>
      <trkpt lat="46.35262" lon="5.40106">
        <ele>374.4</ele>
        <time>2022-05-24T14:59:14Z</time>
      </trkpt>
      <trkpt lat="46.35259" lon="5.40099">
        <ele>374.6</ele>
        <time>2022-05-24T14:59:15Z</time>
      </trkpt>
      <trkpt lat="46.35246" lon="5.40079">
        <ele>375</ele>
        <time>2022-05-24T14:59:18Z</time>
      </trkpt>
      <trkpt lat="46.35237" lon="5.40068">
        <ele>375.2</ele>
        <time>2022-05-24T14:59:20Z</time>
      </trkpt>
      <trkpt lat="46.35218" lon="5.40036">
        <ele>375.2</ele>
        <time>2022-05-24T14:59:24Z</time>
      </trkpt>
      <trkpt lat="46.35182" lon="5.39966">
        <ele>374.8</ele>
        <time>2022-05-24T14:59:33Z</time>
      </trkpt>
      <trkpt lat="46.35171" lon="5.39951">
        <ele>374.8</ele>
        <time>2022-05-24T14:59:35Z</time>
      </trkpt>
      <trkpt lat="46.35154" lon="5.3992">
        <ele>374.8</ele>
        <time>2022-05-24T14:59:39Z</time>
      </trkpt>
      <trkpt lat="46.35125" lon="5.39857">
        <ele>376.2</ele>
        <time>2022-05-24T14:59:47Z</time>
      </trkpt>
      <trkpt lat="46.35111" lon="5.39821">
        <ele>376.2</ele>
        <time>2022-05-24T14:59:51Z</time>
      </trkpt>
      <trkpt lat="46.35099" lon="5.39785">
        <ele>376.8</ele>
        <time>2022-05-24T14:59:55Z</time>
      </trkpt>
      <trkpt lat="46.35082" lon="5.39719">
        <ele>377</ele>
        <time>2022-05-24T15:00:02Z</time>
      </trkpt>
      <trkpt lat="46.35081" lon="5.39708">
        <ele>377</ele>
        <time>2022-05-24T15:00:03Z</time>
      </trkpt>
      <trkpt lat="46.35081" lon="5.39697">
        <ele>377</ele>
        <time>2022-05-24T15:00:04Z</time>
      </trkpt>
      <trkpt lat="46.35083" lon="5.39656">
        <ele>377</ele>
        <time>2022-05-24T15:00:08Z</time>
      </trkpt>
      <trkpt lat="46.35085" lon="5.39586">
        <ele>377</ele>
        <time>2022-05-24T15:00:15Z</time>
      </trkpt>
      <trkpt lat="46.35081" lon="5.39514">
        <ele>377.4</ele>
        <time>2022-05-24T15:00:22Z</time>
      </trkpt>
      <trkpt lat="46.3508" lon="5.39504">
        <ele>377.4</ele>
        <time>2022-05-24T15:00:23Z</time>
      </trkpt>
      <trkpt lat="46.35081" lon="5.39438">
        <ele>378.2</ele>
        <time>2022-05-24T15:00:30Z</time>
      </trkpt>
      <trkpt lat="46.35083" lon="5.39376">
        <ele>378.4</ele>
        <time>2022-05-24T15:00:36Z</time>
      </trkpt>
      <trkpt lat="46.35086" lon="5.39346">
        <ele>378.4</ele>
        <time>2022-05-24T15:00:39Z</time>
      </trkpt>
      <trkpt lat="46.35083" lon="5.39294">
        <ele>378.2</ele>
        <time>2022-05-24T15:00:45Z</time>
      </trkpt>
      <trkpt lat="46.35076" lon="5.39225">
        <ele>379.4</ele>
        <time>2022-05-24T15:00:53Z</time>
      </trkpt>
      <trkpt lat="46.35074" lon="5.39196">
        <ele>380.6</ele>
        <time>2022-05-24T15:00:57Z</time>
      </trkpt>
      <trkpt lat="46.35074" lon="5.39175">
        <ele>381</ele>
        <time>2022-05-24T15:01:00Z</time>
      </trkpt>
      <trkpt lat="46.35074" lon="5.39146">
        <ele>382</ele>
        <time>2022-05-24T15:01:04Z</time>
      </trkpt>
      <trkpt lat="46.35075" lon="5.39128">
        <ele>382.4</ele>
        <time>2022-05-24T15:01:07Z</time>
      </trkpt>
      <trkpt lat="46.35076" lon="5.39101">
        <ele>383.2</ele>
        <time>2022-05-24T15:01:11Z</time>
      </trkpt>
      <trkpt lat="46.35079" lon="5.39057">
        <ele>384.2</ele>
        <time>2022-05-24T15:01:18Z</time>
      </trkpt>
      <trkpt lat="46.35078" lon="5.39051">
        <ele>384.2</ele>
        <time>2022-05-24T15:01:19Z</time>
      </trkpt>
      <trkpt lat="46.35077" lon="5.39022">
        <ele>385.2</ele>
        <time>2022-05-24T15:01:24Z</time>
      </trkpt>
      <trkpt lat="46.35077" lon="5.39016">
        <ele>385.4</ele>
        <time>2022-05-24T15:01:25Z</time>
      </trkpt>
      <trkpt lat="46.35078" lon="5.39006">
        <ele>386.2</ele>
        <time>2022-05-24T15:01:27Z</time>
      </trkpt>
      <trkpt lat="46.3508" lon="5.38997">
        <ele>386.8</ele>
        <time>2022-05-24T15:01:29Z</time>
      </trkpt>
      <trkpt lat="46.35082" lon="5.38993">
        <ele>387</ele>
        <time>2022-05-24T15:01:30Z</time>
      </trkpt>
      <trkpt lat="46.35085" lon="5.3899">
        <ele>387.4</ele>
        <time>2022-05-24T15:01:31Z</time>
      </trkpt>
      <trkpt lat="46.35097" lon="5.38982">
        <ele>388.4</ele>
        <time>2022-05-24T15:01:34Z</time>
      </trkpt>
      <trkpt lat="46.35124" lon="5.38957">
        <ele>388.8</ele>
        <time>2022-05-24T15:01:40Z</time>
      </trkpt>
      <trkpt lat="46.35161" lon="5.38915">
        <ele>389</ele>
        <time>2022-05-24T15:01:49Z</time>
      </trkpt>
      <trkpt lat="46.35187" lon="5.38884">
        <ele>389.8</ele>
        <time>2022-05-24T15:01:56Z</time>
      </trkpt>
      <trkpt lat="46.35198" lon="5.38871">
        <ele>390.4</ele>
        <time>2022-05-24T15:01:59Z</time>
      </trkpt>
      <trkpt lat="46.35209" lon="5.38861">
        <ele>390.8</ele>
        <time>2022-05-24T15:02:02Z</time>
      </trkpt>
      <trkpt lat="46.35216" lon="5.38854">
        <ele>391.4</ele>
        <time>2022-05-24T15:02:04Z</time>
      </trkpt>
      <trkpt lat="46.35226" lon="5.38843">
        <ele>391.8</ele>
        <time>2022-05-24T15:02:07Z</time>
      </trkpt>
      <trkpt lat="46.35248" lon="5.38825">
        <ele>393</ele>
        <time>2022-05-24T15:02:13Z</time>
      </trkpt>
      <trkpt lat="46.3526" lon="5.38816">
        <ele>393.4</ele>
        <time>2022-05-24T15:02:16Z</time>
      </trkpt>
      <trkpt lat="46.35267" lon="5.38811">
        <ele>393.8</ele>
        <time>2022-05-24T15:02:18Z</time>
      </trkpt>
      <trkpt lat="46.35273" lon="5.38806">
        <ele>394</ele>
        <time>2022-05-24T15:02:20Z</time>
      </trkpt>
      <trkpt lat="46.35286" lon="5.38795">
        <ele>394.6</ele>
        <time>2022-05-24T15:02:24Z</time>
      </trkpt>
      <trkpt lat="46.35294" lon="5.3879">
        <ele>395</ele>
        <time>2022-05-24T15:02:26Z</time>
      </trkpt>
      <trkpt lat="46.35311" lon="5.38778">
        <ele>396.2</ele>
        <time>2022-05-24T15:02:31Z</time>
      </trkpt>
      <trkpt lat="46.35316" lon="5.38775">
        <ele>396.6</ele>
        <time>2022-05-24T15:02:33Z</time>
      </trkpt>
      <trkpt lat="46.35322" lon="5.3877">
        <ele>397.2</ele>
        <time>2022-05-24T15:02:35Z</time>
      </trkpt>
      <trkpt lat="46.35336" lon="5.38762">
        <ele>398.8</ele>
        <time>2022-05-24T15:02:39Z</time>
      </trkpt>
      <trkpt lat="46.3534" lon="5.38761">
        <ele>399</ele>
        <time>2022-05-24T15:02:40Z</time>
      </trkpt>
      <trkpt lat="46.35356" lon="5.38754">
        <ele>399.8</ele>
        <time>2022-05-24T15:02:45Z</time>
      </trkpt>
      <trkpt lat="46.35371" lon="5.38748">
        <ele>400.6</ele>
        <time>2022-05-24T15:02:49Z</time>
      </trkpt>
      <trkpt lat="46.35374" lon="5.38747">
        <ele>401</ele>
        <time>2022-05-24T15:02:50Z</time>
      </trkpt>
      <trkpt lat="46.35392" lon="5.38742">
        <ele>402.2</ele>
        <time>2022-05-24T15:02:55Z</time>
      </trkpt>
      <trkpt lat="46.354" lon="5.3874">
        <ele>402.4</ele>
        <time>2022-05-24T15:02:57Z</time>
      </trkpt>
      <trkpt lat="46.35417" lon="5.38736">
        <ele>403.4</ele>
        <time>2022-05-24T15:03:01Z</time>
      </trkpt>
      <trkpt lat="46.35426" lon="5.38735">
        <ele>403.8</ele>
        <time>2022-05-24T15:03:03Z</time>
      </trkpt>
      <trkpt lat="46.35434" lon="5.38733">
        <ele>404</ele>
        <time>2022-05-24T15:03:05Z</time>
      </trkpt>
      <trkpt lat="46.35443" lon="5.38733">
        <ele>404.4</ele>
        <time>2022-05-24T15:03:07Z</time>
      </trkpt>
      <trkpt lat="46.35464" lon="5.38733">
        <ele>405</ele>
        <time>2022-05-24T15:03:12Z</time>
      </trkpt>
      <trkpt lat="46.35472" lon="5.38733">
        <ele>405.4</ele>
        <time>2022-05-24T15:03:14Z</time>
      </trkpt>
      <trkpt lat="46.35497" lon="5.38733">
        <ele>406.6</ele>
        <time>2022-05-24T15:03:20Z</time>
      </trkpt>
      <trkpt lat="46.35509" lon="5.38733">
        <ele>407.2</ele>
        <time>2022-05-24T15:03:23Z</time>
      </trkpt>
      <trkpt lat="46.35516" lon="5.38734">
        <ele>407.8</ele>
        <time>2022-05-24T15:03:25Z</time>
      </trkpt>
      <trkpt lat="46.35531" lon="5.38734">
        <ele>408.6</ele>
        <time>2022-05-24T15:03:29Z</time>
      </trkpt>
      <trkpt lat="46.35538" lon="5.38734">
        <ele>409.2</ele>
        <time>2022-05-24T15:03:31Z</time>
      </trkpt>
      <trkpt lat="46.35549" lon="5.38732">
        <ele>410.2</ele>
        <time>2022-05-24T15:03:34Z</time>
      </trkpt>
      <trkpt lat="46.35557" lon="5.38731">
        <ele>410.6</ele>
        <time>2022-05-24T15:03:36Z</time>
      </trkpt>
      <trkpt lat="46.35577" lon="5.38729">
        <ele>411.4</ele>
        <time>2022-05-24T15:03:41Z</time>
      </trkpt>
      <trkpt lat="46.35585" lon="5.38729">
        <ele>412</ele>
        <time>2022-05-24T15:03:43Z</time>
      </trkpt>
      <trkpt lat="46.356" lon="5.38726">
        <ele>412.8</ele>
        <time>2022-05-24T15:03:47Z</time>
      </trkpt>
      <trkpt lat="46.3562" lon="5.38723">
        <ele>414</ele>
        <time>2022-05-24T15:03:52Z</time>
      </trkpt>
      <trkpt lat="46.35625" lon="5.38722">
        <ele>414.2</ele>
        <time>2022-05-24T15:03:53Z</time>
      </trkpt>
      <trkpt lat="46.35641" lon="5.38718">
        <ele>415</ele>
        <time>2022-05-24T15:03:57Z</time>
      </trkpt>
      <trkpt lat="46.35657" lon="5.38715">
        <ele>415.8</ele>
        <time>2022-05-24T15:04:01Z</time>
      </trkpt>
      <trkpt lat="46.35665" lon="5.38714">
        <ele>416</ele>
        <time>2022-05-24T15:04:03Z</time>
      </trkpt>
      <trkpt lat="46.35689" lon="5.38713">
        <ele>417.4</ele>
        <time>2022-05-24T15:04:09Z</time>
      </trkpt>
      <trkpt lat="46.35693" lon="5.38713">
        <ele>417.4</ele>
        <time>2022-05-24T15:04:10Z</time>
      </trkpt>
      <trkpt lat="46.35702" lon="5.38714">
        <ele>418.4</ele>
        <time>2022-05-24T15:04:13Z</time>
      </trkpt>
      <trkpt lat="46.3572" lon="5.38715">
        <ele>419.6</ele>
        <time>2022-05-24T15:04:17Z</time>
      </trkpt>
      <trkpt lat="46.35731" lon="5.38715">
        <ele>420.2</ele>
        <time>2022-05-24T15:04:20Z</time>
      </trkpt>
      <trkpt lat="46.3574" lon="5.38716">
        <ele>420.6</ele>
        <time>2022-05-24T15:04:22Z</time>
      </trkpt>
      <trkpt lat="46.35763" lon="5.38718">
        <ele>421.8</ele>
        <time>2022-05-24T15:04:28Z</time>
      </trkpt>
      <trkpt lat="46.35771" lon="5.38718">
        <ele>422.4</ele>
        <time>2022-05-24T15:04:30Z</time>
      </trkpt>
      <trkpt lat="46.35778" lon="5.38719">
        <ele>422.8</ele>
        <time>2022-05-24T15:04:32Z</time>
      </trkpt>
      <trkpt lat="46.35793" lon="5.3872">
        <ele>424</ele>
        <time>2022-05-24T15:04:36Z</time>
      </trkpt>
      <trkpt lat="46.35814" lon="5.3872">
        <ele>425.4</ele>
        <time>2022-05-24T15:04:41Z</time>
      </trkpt>
      <trkpt lat="46.35832" lon="5.3872">
        <ele>426.6</ele>
        <time>2022-05-24T15:04:46Z</time>
      </trkpt>
      <trkpt lat="46.35852" lon="5.38721">
        <ele>427.4</ele>
        <time>2022-05-24T15:04:51Z</time>
      </trkpt>
      <trkpt lat="46.3586" lon="5.38721">
        <ele>428</ele>
        <time>2022-05-24T15:04:53Z</time>
      </trkpt>
      <trkpt lat="46.35883" lon="5.38721">
        <ele>429.2</ele>
        <time>2022-05-24T15:04:59Z</time>
      </trkpt>
      <trkpt lat="46.35894" lon="5.38721">
        <ele>429.8</ele>
        <time>2022-05-24T15:05:02Z</time>
      </trkpt>
      <trkpt lat="46.35906" lon="5.38721">
        <ele>430.2</ele>
        <time>2022-05-24T15:05:05Z</time>
      </trkpt>
      <trkpt lat="46.35921" lon="5.3872">
        <ele>431.4</ele>
        <time>2022-05-24T15:05:09Z</time>
      </trkpt>
      <trkpt lat="46.35938" lon="5.3872">
        <ele>432.2</ele>
        <time>2022-05-24T15:05:14Z</time>
      </trkpt>
      <trkpt lat="46.35944" lon="5.3872">
        <ele>432.4</ele>
        <time>2022-05-24T15:05:15Z</time>
      </trkpt>
      <trkpt lat="46.35962" lon="5.38719">
        <ele>433.4</ele>
        <time>2022-05-24T15:05:20Z</time>
      </trkpt>
      <trkpt lat="46.35978" lon="5.38719">
        <ele>434.6</ele>
        <time>2022-05-24T15:05:24Z</time>
      </trkpt>
      <trkpt lat="46.35982" lon="5.38719">
        <ele>435</ele>
        <time>2022-05-24T15:05:25Z</time>
      </trkpt>
      <trkpt lat="46.35999" lon="5.38718">
        <ele>435.6</ele>
        <time>2022-05-24T15:05:29Z</time>
      </trkpt>
      <trkpt lat="46.36014" lon="5.38719">
        <ele>436.4</ele>
        <time>2022-05-24T15:05:33Z</time>
      </trkpt>
      <trkpt lat="46.36021" lon="5.38719">
        <ele>436.8</ele>
        <time>2022-05-24T15:05:35Z</time>
      </trkpt>
      <trkpt lat="46.36038" lon="5.38719">
        <ele>438</ele>
        <time>2022-05-24T15:05:39Z</time>
      </trkpt>
      <trkpt lat="46.36055" lon="5.3872">
        <ele>439</ele>
        <time>2022-05-24T15:05:43Z</time>
      </trkpt>
      <trkpt lat="46.3606" lon="5.3872">
        <ele>439.2</ele>
        <time>2022-05-24T15:05:44Z</time>
      </trkpt>
      <trkpt lat="46.36072" lon="5.3872">
        <ele>440.2</ele>
        <time>2022-05-24T15:05:47Z</time>
      </trkpt>
      <trkpt lat="46.36086" lon="5.3872">
        <ele>441.2</ele>
        <time>2022-05-24T15:05:51Z</time>
      </trkpt>
      <trkpt lat="46.36097" lon="5.3872">
        <ele>442.2</ele>
        <time>2022-05-24T15:05:54Z</time>
      </trkpt>
      <trkpt lat="46.36105" lon="5.3872">
        <ele>442.4</ele>
        <time>2022-05-24T15:05:56Z</time>
      </trkpt>
      <trkpt lat="46.36124" lon="5.38718">
        <ele>443.6</ele>
        <time>2022-05-24T15:06:01Z</time>
      </trkpt>
      <trkpt lat="46.36129" lon="5.38718">
        <ele>443.6</ele>
        <time>2022-05-24T15:06:02Z</time>
      </trkpt>
      <trkpt lat="46.36143" lon="5.38717">
        <ele>444.4</ele>
        <time>2022-05-24T15:06:06Z</time>
      </trkpt>
      <trkpt lat="46.36158" lon="5.38715">
        <ele>445.2</ele>
        <time>2022-05-24T15:06:10Z</time>
      </trkpt>
      <trkpt lat="46.36162" lon="5.38715">
        <ele>445.8</ele>
        <time>2022-05-24T15:06:11Z</time>
      </trkpt>
      <trkpt lat="46.36181" lon="5.38716">
        <ele>446.6</ele>
        <time>2022-05-24T15:06:16Z</time>
      </trkpt>
      <trkpt lat="46.36196" lon="5.38717">
        <ele>447.4</ele>
        <time>2022-05-24T15:06:20Z</time>
      </trkpt>
      <trkpt lat="46.36203" lon="5.38717">
        <ele>447.8</ele>
        <time>2022-05-24T15:06:22Z</time>
      </trkpt>
      <trkpt lat="46.3623" lon="5.38716">
        <ele>449.2</ele>
        <time>2022-05-24T15:06:29Z</time>
      </trkpt>
      <trkpt lat="46.36234" lon="5.38716">
        <ele>449.6</ele>
        <time>2022-05-24T15:06:30Z</time>
      </trkpt>
      <trkpt lat="46.3625" lon="5.38717">
        <ele>450.2</ele>
        <time>2022-05-24T15:06:34Z</time>
      </trkpt>
      <trkpt lat="46.3627" lon="5.38717">
        <ele>451.6</ele>
        <time>2022-05-24T15:06:39Z</time>
      </trkpt>
      <trkpt lat="46.36278" lon="5.38717">
        <ele>452</ele>
        <time>2022-05-24T15:06:41Z</time>
      </trkpt>
      <trkpt lat="46.36288" lon="5.38717">
        <ele>452.6</ele>
        <time>2022-05-24T15:06:44Z</time>
      </trkpt>
      <trkpt lat="46.36308" lon="5.38717">
        <ele>453.6</ele>
        <time>2022-05-24T15:06:49Z</time>
      </trkpt>
      <trkpt lat="46.36311" lon="5.38717">
        <ele>453.8</ele>
        <time>2022-05-24T15:06:50Z</time>
      </trkpt>
      <trkpt lat="46.3633" lon="5.38717">
        <ele>455</ele>
        <time>2022-05-24T15:06:55Z</time>
      </trkpt>
      <trkpt lat="46.36341" lon="5.38717">
        <ele>455.4</ele>
        <time>2022-05-24T15:06:58Z</time>
      </trkpt>
      <trkpt lat="46.36349" lon="5.38717">
        <ele>456</ele>
        <time>2022-05-24T15:07:00Z</time>
      </trkpt>
      <trkpt lat="46.36364" lon="5.38716">
        <ele>457</ele>
        <time>2022-05-24T15:07:04Z</time>
      </trkpt>
      <trkpt lat="46.36375" lon="5.38714">
        <ele>457.6</ele>
        <time>2022-05-24T15:07:07Z</time>
      </trkpt>
      <trkpt lat="46.36383" lon="5.38713">
        <ele>458.2</ele>
        <time>2022-05-24T15:07:09Z</time>
      </trkpt>
      <trkpt lat="46.36405" lon="5.38706">
        <ele>459.4</ele>
        <time>2022-05-24T15:07:15Z</time>
      </trkpt>
      <trkpt lat="46.36416" lon="5.38701">
        <ele>460.2</ele>
        <time>2022-05-24T15:07:18Z</time>
      </trkpt>
      <trkpt lat="46.36424" lon="5.38698">
        <ele>460.6</ele>
        <time>2022-05-24T15:07:20Z</time>
      </trkpt>
      <trkpt lat="46.36442" lon="5.3869">
        <ele>461.6</ele>
        <time>2022-05-24T15:07:25Z</time>
      </trkpt>
      <trkpt lat="46.36445" lon="5.38687">
        <ele>461.8</ele>
        <time>2022-05-24T15:07:26Z</time>
      </trkpt>
      <trkpt lat="46.36464" lon="5.38676">
        <ele>462.8</ele>
        <time>2022-05-24T15:07:31Z</time>
      </trkpt>
      <trkpt lat="46.36471" lon="5.38673">
        <ele>463.6</ele>
        <time>2022-05-24T15:07:33Z</time>
      </trkpt>
      <trkpt lat="46.36475" lon="5.3867">
        <ele>463.8</ele>
        <time>2022-05-24T15:07:34Z</time>
      </trkpt>
      <trkpt lat="46.36498" lon="5.38661">
        <ele>465</ele>
        <time>2022-05-24T15:07:40Z</time>
      </trkpt>
      <trkpt lat="46.36503" lon="5.38659">
        <ele>465.2</ele>
        <time>2022-05-24T15:07:41Z</time>
      </trkpt>
      <trkpt lat="46.36518" lon="5.38651">
        <ele>466.2</ele>
        <time>2022-05-24T15:07:45Z</time>
      </trkpt>
      <trkpt lat="46.36536" lon="5.38643">
        <ele>467.6</ele>
        <time>2022-05-24T15:07:50Z</time>
      </trkpt>
      <trkpt lat="46.36544" lon="5.3864">
        <ele>467.8</ele>
        <time>2022-05-24T15:07:52Z</time>
      </trkpt>
      <trkpt lat="46.36564" lon="5.3863">
        <ele>468.8</ele>
        <time>2022-05-24T15:07:57Z</time>
      </trkpt>
      <trkpt lat="46.36575" lon="5.38623">
        <ele>469.2</ele>
        <time>2022-05-24T15:08:00Z</time>
      </trkpt>
      <trkpt lat="46.36584" lon="5.38618">
        <ele>469.8</ele>
        <time>2022-05-24T15:08:02Z</time>
      </trkpt>
      <trkpt lat="46.36603" lon="5.38608">
        <ele>471</ele>
        <time>2022-05-24T15:08:07Z</time>
      </trkpt>
      <trkpt lat="46.36614" lon="5.38602">
        <ele>471.6</ele>
        <time>2022-05-24T15:08:10Z</time>
      </trkpt>
      <trkpt lat="46.36622" lon="5.38599">
        <ele>472</ele>
        <time>2022-05-24T15:08:12Z</time>
      </trkpt>
      <trkpt lat="46.3664" lon="5.38595">
        <ele>473.2</ele>
        <time>2022-05-24T15:08:17Z</time>
      </trkpt>
      <trkpt lat="46.36652" lon="5.38593">
        <ele>474</ele>
        <time>2022-05-24T15:08:20Z</time>
      </trkpt>
      <trkpt lat="46.36656" lon="5.38592">
        <ele>474.2</ele>
        <time>2022-05-24T15:08:21Z</time>
      </trkpt>
      <trkpt lat="46.36675" lon="5.3859">
        <ele>475.2</ele>
        <time>2022-05-24T15:08:26Z</time>
      </trkpt>
      <trkpt lat="46.36691" lon="5.38589">
        <ele>475.8</ele>
        <time>2022-05-24T15:08:30Z</time>
      </trkpt>
      <trkpt lat="46.367" lon="5.38588">
        <ele>476.4</ele>
        <time>2022-05-24T15:08:32Z</time>
      </trkpt>
      <trkpt lat="46.3672" lon="5.38584">
        <ele>477.4</ele>
        <time>2022-05-24T15:08:37Z</time>
      </trkpt>
      <trkpt lat="46.36736" lon="5.38578">
        <ele>478.6</ele>
        <time>2022-05-24T15:08:41Z</time>
      </trkpt>
      <trkpt lat="46.3676" lon="5.38567">
        <ele>479.6</ele>
        <time>2022-05-24T15:08:47Z</time>
      </trkpt>
      <trkpt lat="46.36764" lon="5.38564">
        <ele>479.8</ele>
        <time>2022-05-24T15:08:48Z</time>
      </trkpt>
      <trkpt lat="46.36795" lon="5.38544">
        <ele>480.8</ele>
        <time>2022-05-24T15:08:55Z</time>
      </trkpt>
      <trkpt lat="46.36819" lon="5.38522">
        <ele>481.8</ele>
        <time>2022-05-24T15:09:01Z</time>
      </trkpt>
      <trkpt lat="46.36826" lon="5.38513">
        <ele>482</ele>
        <time>2022-05-24T15:09:03Z</time>
      </trkpt>
      <trkpt lat="46.36841" lon="5.38491">
        <ele>482.8</ele>
        <time>2022-05-24T15:09:07Z</time>
      </trkpt>
      <trkpt lat="46.36848" lon="5.38481">
        <ele>483.2</ele>
        <time>2022-05-24T15:09:09Z</time>
      </trkpt>
      <trkpt lat="46.36871" lon="5.38445">
        <ele>483.4</ele>
        <time>2022-05-24T15:09:14Z</time>
      </trkpt>
      <trkpt lat="46.36899" lon="5.38398">
        <ele>483.2</ele>
        <time>2022-05-24T15:09:20Z</time>
      </trkpt>
      <trkpt lat="46.36935" lon="5.38337">
        <ele>482.4</ele>
        <time>2022-05-24T15:09:27Z</time>
      </trkpt>
      <trkpt lat="46.36941" lon="5.38328">
        <ele>482.4</ele>
        <time>2022-05-24T15:09:28Z</time>
      </trkpt>
      <trkpt lat="46.36977" lon="5.38268">
        <ele>482</ele>
        <time>2022-05-24T15:09:35Z</time>
      </trkpt>
      <trkpt lat="46.36994" lon="5.38239">
        <ele>482</ele>
        <time>2022-05-24T15:09:38Z</time>
      </trkpt>
      <trkpt lat="46.36999" lon="5.3823">
        <ele>481.8</ele>
        <time>2022-05-24T15:09:39Z</time>
      </trkpt>
      <trkpt lat="46.37035" lon="5.3817">
        <ele>480.8</ele>
        <time>2022-05-24T15:09:45Z</time>
      </trkpt>
      <trkpt lat="46.37041" lon="5.38159">
        <ele>480.2</ele>
        <time>2022-05-24T15:09:46Z</time>
      </trkpt>
      <trkpt lat="46.37067" lon="5.38116">
        <ele>478.8</ele>
        <time>2022-05-24T15:09:50Z</time>
      </trkpt>
      <trkpt lat="46.37075" lon="5.38102">
        <ele>478.2</ele>
        <time>2022-05-24T15:09:51Z</time>
      </trkpt>
      <trkpt lat="46.37089" lon="5.38077">
        <ele>477.4</ele>
        <time>2022-05-24T15:09:53Z</time>
      </trkpt>
      <trkpt lat="46.371" lon="5.38055">
        <ele>475.8</ele>
        <time>2022-05-24T15:09:55Z</time>
      </trkpt>
      <trkpt lat="46.37112" lon="5.38031">
        <ele>474.6</ele>
        <time>2022-05-24T15:09:57Z</time>
      </trkpt>
      <trkpt lat="46.37127" lon="5.37993">
        <ele>473.4</ele>
        <time>2022-05-24T15:10:00Z</time>
      </trkpt>
      <trkpt lat="46.37154" lon="5.37934">
        <ele>472.8</ele>
        <time>2022-05-24T15:10:05Z</time>
      </trkpt>
      <trkpt lat="46.3717" lon="5.37901">
        <ele>472.4</ele>
        <time>2022-05-24T15:10:08Z</time>
      </trkpt>
      <trkpt lat="46.37194" lon="5.37852">
        <ele>472.2</ele>
        <time>2022-05-24T15:10:12Z</time>
      </trkpt>
      <trkpt lat="46.37228" lon="5.37791">
        <ele>471.8</ele>
        <time>2022-05-24T15:10:19Z</time>
      </trkpt>
      <trkpt lat="46.37241" lon="5.37768">
        <ele>471.6</ele>
        <time>2022-05-24T15:10:21Z</time>
      </trkpt>
      <trkpt lat="46.37251" lon="5.3775">
        <ele>471.2</ele>
        <time>2022-05-24T15:10:23Z</time>
      </trkpt>
      <trkpt lat="46.3728" lon="5.37698">
        <ele>470.2</ele>
        <time>2022-05-24T15:10:28Z</time>
      </trkpt>
      <trkpt lat="46.37287" lon="5.37687">
        <ele>470</ele>
        <time>2022-05-24T15:10:29Z</time>
      </trkpt>
      <trkpt lat="46.3732" lon="5.37627">
        <ele>468.6</ele>
        <time>2022-05-24T15:10:34Z</time>
      </trkpt>
      <trkpt lat="46.37334" lon="5.37602">
        <ele>467.6</ele>
        <time>2022-05-24T15:10:36Z</time>
      </trkpt>
      <trkpt lat="46.3735" lon="5.37578">
        <ele>466.2</ele>
        <time>2022-05-24T15:10:38Z</time>
      </trkpt>
      <trkpt lat="46.37358" lon="5.37569">
        <ele>465.6</ele>
        <time>2022-05-24T15:10:39Z</time>
      </trkpt>
      <trkpt lat="46.37367" lon="5.37558">
        <ele>464.8</ele>
        <time>2022-05-24T15:10:40Z</time>
      </trkpt>
      <trkpt lat="46.37376" lon="5.37548">
        <ele>463.6</ele>
        <time>2022-05-24T15:10:41Z</time>
      </trkpt>
      <trkpt lat="46.37386" lon="5.37537">
        <ele>462.2</ele>
        <time>2022-05-24T15:10:42Z</time>
      </trkpt>
      <trkpt lat="46.37407" lon="5.37515">
        <ele>460.2</ele>
        <time>2022-05-24T15:10:44Z</time>
      </trkpt>
      <trkpt lat="46.37415" lon="5.37506">
        <ele>459.6</ele>
        <time>2022-05-24T15:10:45Z</time>
      </trkpt>
      <trkpt lat="46.37427" lon="5.37494">
        <ele>458.2</ele>
        <time>2022-05-24T15:10:46Z</time>
      </trkpt>
      <trkpt lat="46.37445" lon="5.37477">
        <ele>457</ele>
        <time>2022-05-24T15:10:48Z</time>
      </trkpt>
      <trkpt lat="46.37464" lon="5.37457">
        <ele>455.6</ele>
        <time>2022-05-24T15:10:50Z</time>
      </trkpt>
      <trkpt lat="46.37474" lon="5.37447">
        <ele>454.4</ele>
        <time>2022-05-24T15:10:51Z</time>
      </trkpt>
      <trkpt lat="46.37483" lon="5.37437">
        <ele>453.6</ele>
        <time>2022-05-24T15:10:52Z</time>
      </trkpt>
      <trkpt lat="46.37491" lon="5.37426">
        <ele>452.8</ele>
        <time>2022-05-24T15:10:53Z</time>
      </trkpt>
      <trkpt lat="46.37497" lon="5.37413">
        <ele>452.6</ele>
        <time>2022-05-24T15:10:54Z</time>
      </trkpt>
      <trkpt lat="46.375" lon="5.37398">
        <ele>451.8</ele>
        <time>2022-05-24T15:10:55Z</time>
      </trkpt>
      <trkpt lat="46.37498" lon="5.37384">
        <ele>451.4</ele>
        <time>2022-05-24T15:10:56Z</time>
      </trkpt>
      <trkpt lat="46.37492" lon="5.3737">
        <ele>451</ele>
        <time>2022-05-24T15:10:57Z</time>
      </trkpt>
      <trkpt lat="46.37484" lon="5.37359">
        <ele>450.6</ele>
        <time>2022-05-24T15:10:58Z</time>
      </trkpt>
      <trkpt lat="46.37466" lon="5.37339">
        <ele>450.4</ele>
        <time>2022-05-24T15:11:00Z</time>
      </trkpt>
      <trkpt lat="46.37457" lon="5.37329">
        <ele>450.2</ele>
        <time>2022-05-24T15:11:01Z</time>
      </trkpt>
      <trkpt lat="46.37448" lon="5.37319">
        <ele>449.6</ele>
        <time>2022-05-24T15:11:02Z</time>
      </trkpt>
      <trkpt lat="46.3744" lon="5.37308">
        <ele>449.4</ele>
        <time>2022-05-24T15:11:03Z</time>
      </trkpt>
      <trkpt lat="46.37431" lon="5.37297">
        <ele>449</ele>
        <time>2022-05-24T15:11:04Z</time>
      </trkpt>
      <trkpt lat="46.37414" lon="5.37274">
        <ele>448.2</ele>
        <time>2022-05-24T15:11:06Z</time>
      </trkpt>
      <trkpt lat="46.37372" lon="5.3723">
        <ele>447.4</ele>
        <time>2022-05-24T15:11:10Z</time>
      </trkpt>
      <trkpt lat="46.37365" lon="5.37221">
        <ele>446.8</ele>
        <time>2022-05-24T15:11:11Z</time>
      </trkpt>
      <trkpt lat="46.37339" lon="5.3718">
        <ele>445</ele>
        <time>2022-05-24T15:11:14Z</time>
      </trkpt>
      <trkpt lat="46.37332" lon="5.37171">
        <ele>444.6</ele>
        <time>2022-05-24T15:11:15Z</time>
      </trkpt>
      <trkpt lat="46.37322" lon="5.37161">
        <ele>443.6</ele>
        <time>2022-05-24T15:11:16Z</time>
      </trkpt>
      <trkpt lat="46.373" lon="5.37143">
        <ele>441.6</ele>
        <time>2022-05-24T15:11:18Z</time>
      </trkpt>
      <trkpt lat="46.37277" lon="5.37127">
        <ele>440.6</ele>
        <time>2022-05-24T15:11:20Z</time>
      </trkpt>
      <trkpt lat="46.37255" lon="5.37113">
        <ele>439.6</ele>
        <time>2022-05-24T15:11:22Z</time>
      </trkpt>
      <trkpt lat="46.37242" lon="5.37103">
        <ele>438.6</ele>
        <time>2022-05-24T15:11:23Z</time>
      </trkpt>
      <trkpt lat="46.37223" lon="5.37088">
        <ele>437.4</ele>
        <time>2022-05-24T15:11:25Z</time>
      </trkpt>
      <trkpt lat="46.37199" lon="5.37072">
        <ele>436.6</ele>
        <time>2022-05-24T15:11:27Z</time>
      </trkpt>
      <trkpt lat="46.37189" lon="5.37064">
        <ele>435.8</ele>
        <time>2022-05-24T15:11:28Z</time>
      </trkpt>
      <trkpt lat="46.3717" lon="5.37049">
        <ele>434.4</ele>
        <time>2022-05-24T15:11:30Z</time>
      </trkpt>
      <trkpt lat="46.3715" lon="5.37027">
        <ele>433</ele>
        <time>2022-05-24T15:11:32Z</time>
      </trkpt>
      <trkpt lat="46.37132" lon="5.37006">
        <ele>431.8</ele>
        <time>2022-05-24T15:11:34Z</time>
      </trkpt>
      <trkpt lat="46.37116" lon="5.36983">
        <ele>430.6</ele>
        <time>2022-05-24T15:11:36Z</time>
      </trkpt>
      <trkpt lat="46.37108" lon="5.3697">
        <ele>430</ele>
        <time>2022-05-24T15:11:37Z</time>
      </trkpt>
      <trkpt lat="46.37094" lon="5.36943">
        <ele>429.2</ele>
        <time>2022-05-24T15:11:39Z</time>
      </trkpt>
      <trkpt lat="46.37081" lon="5.36915">
        <ele>428.2</ele>
        <time>2022-05-24T15:11:41Z</time>
      </trkpt>
      <trkpt lat="46.37075" lon="5.36901">
        <ele>427.2</ele>
        <time>2022-05-24T15:11:42Z</time>
      </trkpt>
      <trkpt lat="46.3707" lon="5.36885">
        <ele>427</ele>
        <time>2022-05-24T15:11:43Z</time>
      </trkpt>
      <trkpt lat="46.37067" lon="5.36869">
        <ele>426</ele>
        <time>2022-05-24T15:11:44Z</time>
      </trkpt>
      <trkpt lat="46.37066" lon="5.36853">
        <ele>425.6</ele>
        <time>2022-05-24T15:11:45Z</time>
      </trkpt>
      <trkpt lat="46.37066" lon="5.36836">
        <ele>425</ele>
        <time>2022-05-24T15:11:46Z</time>
      </trkpt>
      <trkpt lat="46.37068" lon="5.36801">
        <ele>423.8</ele>
        <time>2022-05-24T15:11:48Z</time>
      </trkpt>
      <trkpt lat="46.37073" lon="5.36768">
        <ele>422.4</ele>
        <time>2022-05-24T15:11:50Z</time>
      </trkpt>
      <trkpt lat="46.37082" lon="5.36738">
        <ele>421.2</ele>
        <time>2022-05-24T15:11:52Z</time>
      </trkpt>
      <trkpt lat="46.37092" lon="5.36709">
        <ele>420</ele>
        <time>2022-05-24T15:11:54Z</time>
      </trkpt>
      <trkpt lat="46.37098" lon="5.36694">
        <ele>418.8</ele>
        <time>2022-05-24T15:11:55Z</time>
      </trkpt>
      <trkpt lat="46.3711" lon="5.36665">
        <ele>417.6</ele>
        <time>2022-05-24T15:11:57Z</time>
      </trkpt>
      <trkpt lat="46.37127" lon="5.36622">
        <ele>416</ele>
        <time>2022-05-24T15:12:00Z</time>
      </trkpt>
      <trkpt lat="46.37134" lon="5.36607">
        <ele>415.8</ele>
        <time>2022-05-24T15:12:01Z</time>
      </trkpt>
      <trkpt lat="46.37139" lon="5.36597">
        <ele>415</ele>
        <time>2022-05-24T15:12:02Z</time>
      </trkpt>
      <trkpt lat="46.37166" lon="5.3656">
        <ele>413.2</ele>
        <time>2022-05-24T15:12:05Z</time>
      </trkpt>
      <trkpt lat="46.37184" lon="5.36539">
        <ele>412</ele>
        <time>2022-05-24T15:12:07Z</time>
      </trkpt>
      <trkpt lat="46.37203" lon="5.36524">
        <ele>410.6</ele>
        <time>2022-05-24T15:12:09Z</time>
      </trkpt>
      <trkpt lat="46.37214" lon="5.36518">
        <ele>410.2</ele>
        <time>2022-05-24T15:12:10Z</time>
      </trkpt>
      <trkpt lat="46.37226" lon="5.36512">
        <ele>409.4</ele>
        <time>2022-05-24T15:12:11Z</time>
      </trkpt>
      <trkpt lat="46.37252" lon="5.36504">
        <ele>408</ele>
        <time>2022-05-24T15:12:13Z</time>
      </trkpt>
      <trkpt lat="46.37281" lon="5.36496">
        <ele>406.4</ele>
        <time>2022-05-24T15:12:16Z</time>
      </trkpt>
      <trkpt lat="46.37289" lon="5.3649">
        <ele>405.8</ele>
        <time>2022-05-24T15:12:17Z</time>
      </trkpt>
      <trkpt lat="46.37295" lon="5.36483">
        <ele>404.8</ele>
        <time>2022-05-24T15:12:18Z</time>
      </trkpt>
      <trkpt lat="46.37296" lon="5.36472">
        <ele>404.4</ele>
        <time>2022-05-24T15:12:19Z</time>
      </trkpt>
      <trkpt lat="46.37296" lon="5.3646">
        <ele>403.4</ele>
        <time>2022-05-24T15:12:20Z</time>
      </trkpt>
      <trkpt lat="46.37292" lon="5.36441">
        <ele>402.2</ele>
        <time>2022-05-24T15:12:22Z</time>
      </trkpt>
      <trkpt lat="46.37286" lon="5.36411">
        <ele>400.4</ele>
        <time>2022-05-24T15:12:25Z</time>
      </trkpt>
      <trkpt lat="46.37284" lon="5.36402">
        <ele>400.2</ele>
        <time>2022-05-24T15:12:26Z</time>
      </trkpt>
      <trkpt lat="46.37278" lon="5.36383">
        <ele>398.8</ele>
        <time>2022-05-24T15:12:28Z</time>
      </trkpt>
      <trkpt lat="46.37268" lon="5.36355">
        <ele>397.6</ele>
        <time>2022-05-24T15:12:31Z</time>
      </trkpt>
      <trkpt lat="46.37263" lon="5.36344">
        <ele>397.2</ele>
        <time>2022-05-24T15:12:32Z</time>
      </trkpt>
      <trkpt lat="46.37251" lon="5.36315">
        <ele>396.2</ele>
        <time>2022-05-24T15:12:34Z</time>
      </trkpt>
      <trkpt lat="46.37242" lon="5.36292">
        <ele>395.2</ele>
        <time>2022-05-24T15:12:36Z</time>
      </trkpt>
      <trkpt lat="46.3724" lon="5.36282">
        <ele>394.2</ele>
        <time>2022-05-24T15:12:37Z</time>
      </trkpt>
      <trkpt lat="46.3724" lon="5.36273">
        <ele>393.8</ele>
        <time>2022-05-24T15:12:38Z</time>
      </trkpt>
      <trkpt lat="46.3724" lon="5.36255">
        <ele>393</ele>
        <time>2022-05-24T15:12:40Z</time>
      </trkpt>
      <trkpt lat="46.3724" lon="5.36238">
        <ele>392.6</ele>
        <time>2022-05-24T15:12:43Z</time>
      </trkpt>
      <trkpt lat="46.37239" lon="5.36234">
        <ele>392.6</ele>
        <time>2022-05-24T15:12:45Z</time>
      </trkpt>
    </trkseg>
  </trk>
</gpx>